<?xml version="1.0" encoding="UTF-8" standalone="no" ?>
<gpx xmlns="http://www.topografix.com/GPX/1/1" xmlns:xsi="http://www.w3.org/2001/XMLSchema-instance" xsi:schemaLocation="http://www.topografix.com/GPX/1/1 http://www.topografix.com/GPX/1/1/gpx.xsd" version="1.1" creator="VisuGPX - https://www.visugpx.com">
  <metadata>
    <name>Séranon Sud - La Rouaine - Lachens </name>
    <desc><![CDATA[Séranon Sud - La Rouaine - Lachens]]></desc>
  </metadata>
  <trk>
    <name><![CDATA[SUD SERANON-05-54]]></name>
    <trkseg>
      <trkpt lat="43.77202" lon="6.69537">
        <ele>1056</ele>
        <time>2010-08-15T07:48:08Z</time>
      </trkpt>
      <trkpt lat="43.77202" lon="6.69537">
        <ele>1048</ele>
        <time>2010-08-15T07:48:09Z</time>
      </trkpt>
      <trkpt lat="43.77202" lon="6.69537">
        <ele>1047</ele>
        <time>2010-08-15T07:48:11Z</time>
      </trkpt>
      <trkpt lat="43.77203" lon="6.69537">
        <ele>1047</ele>
        <time>2010-08-15T07:49:24Z</time>
      </trkpt>
      <trkpt lat="43.77203" lon="6.69536">
        <ele>1047</ele>
        <time>2010-08-15T07:49:29Z</time>
      </trkpt>
      <trkpt lat="43.77201" lon="6.69536">
        <ele>1047</ele>
        <time>2010-08-15T07:49:38Z</time>
      </trkpt>
      <trkpt lat="43.77203" lon="6.69534">
        <ele>1047</ele>
        <time>2010-08-15T07:49:46Z</time>
      </trkpt>
      <trkpt lat="43.77204" lon="6.69535">
        <ele>1047</ele>
        <time>2010-08-15T07:49:52Z</time>
      </trkpt>
      <trkpt lat="43.77204" lon="6.69536">
        <ele>1047</ele>
        <time>2010-08-15T07:51:33Z</time>
      </trkpt>
      <trkpt lat="43.77204" lon="6.69537">
        <ele>1047</ele>
        <time>2010-08-15T07:51:55Z</time>
      </trkpt>
      <trkpt lat="43.77204" lon="6.69538">
        <ele>1047</ele>
        <time>2010-08-15T07:52:21Z</time>
      </trkpt>
      <trkpt lat="43.77204" lon="6.69537">
        <ele>1047</ele>
        <time>2010-08-15T07:52:50Z</time>
      </trkpt>
      <trkpt lat="43.77204" lon="6.69537">
        <ele>1047</ele>
        <time>2010-08-15T07:53:07Z</time>
      </trkpt>
      <trkpt lat="43.77204" lon="6.69537">
        <ele>1047</ele>
        <time>2010-08-15T07:53:16Z</time>
      </trkpt>
      <trkpt lat="43.77204" lon="6.69537">
        <ele>1046</ele>
        <time>2010-08-15T07:53:24Z</time>
      </trkpt>
      <trkpt lat="43.77204" lon="6.69537">
        <ele>1046</ele>
        <time>2010-08-15T07:53:34Z</time>
      </trkpt>
      <trkpt lat="43.77204" lon="6.69539">
        <ele>1047</ele>
        <time>2010-08-15T07:54:59Z</time>
      </trkpt>
      <trkpt lat="43.77203" lon="6.69543">
        <ele>1047</ele>
        <time>2010-08-15T07:55:18Z</time>
      </trkpt>
      <trkpt lat="43.77203" lon="6.69546">
        <ele>1047</ele>
        <time>2010-08-15T07:55:21Z</time>
      </trkpt>
      <trkpt lat="43.77203" lon="6.69552">
        <ele>1047</ele>
        <time>2010-08-15T07:55:26Z</time>
      </trkpt>
      <trkpt lat="43.77202" lon="6.69564">
        <ele>1047</ele>
        <time>2010-08-15T07:55:34Z</time>
      </trkpt>
      <trkpt lat="43.77202" lon="6.69565">
        <ele>1047</ele>
        <time>2010-08-15T07:55:35Z</time>
      </trkpt>
      <trkpt lat="43.77203" lon="6.69576">
        <ele>1046</ele>
        <time>2010-08-15T07:55:43Z</time>
      </trkpt>
      <trkpt lat="43.77204" lon="6.69581">
        <ele>1047</ele>
        <time>2010-08-15T07:55:46Z</time>
      </trkpt>
      <trkpt lat="43.77205" lon="6.69589">
        <ele>1047</ele>
        <time>2010-08-15T07:55:52Z</time>
      </trkpt>
      <trkpt lat="43.77205" lon="6.69594">
        <ele>1046</ele>
        <time>2010-08-15T07:55:55Z</time>
      </trkpt>
      <trkpt lat="43.77207" lon="6.69602">
        <ele>1047</ele>
        <time>2010-08-15T07:56:02Z</time>
      </trkpt>
      <trkpt lat="43.77207" lon="6.69615">
        <ele>1046</ele>
        <time>2010-08-15T07:56:11Z</time>
      </trkpt>
      <trkpt lat="43.77206" lon="6.69622">
        <ele>1046</ele>
        <time>2010-08-15T07:56:16Z</time>
      </trkpt>
      <trkpt lat="43.77206" lon="6.69628">
        <ele>1045</ele>
        <time>2010-08-15T07:56:20Z</time>
      </trkpt>
      <trkpt lat="43.77206" lon="6.69632">
        <ele>1046</ele>
        <time>2010-08-15T07:56:23Z</time>
      </trkpt>
      <trkpt lat="43.77207" lon="6.69636">
        <ele>1045</ele>
        <time>2010-08-15T07:56:26Z</time>
      </trkpt>
      <trkpt lat="43.77207" lon="6.69647">
        <ele>1045</ele>
        <time>2010-08-15T07:56:33Z</time>
      </trkpt>
      <trkpt lat="43.77206" lon="6.69649">
        <ele>1045</ele>
        <time>2010-08-15T07:56:35Z</time>
      </trkpt>
      <trkpt lat="43.77205" lon="6.69659">
        <ele>1046</ele>
        <time>2010-08-15T07:56:42Z</time>
      </trkpt>
      <trkpt lat="43.77206" lon="6.69665">
        <ele>1045</ele>
        <time>2010-08-15T07:56:51Z</time>
      </trkpt>
      <trkpt lat="43.77206" lon="6.69665">
        <ele>1045</ele>
        <time>2010-08-15T07:56:56Z</time>
      </trkpt>
      <trkpt lat="43.77206" lon="6.69676">
        <ele>1044</ele>
        <time>2010-08-15T07:57:04Z</time>
      </trkpt>
      <trkpt lat="43.77207" lon="6.69687">
        <ele>1044</ele>
        <time>2010-08-15T07:57:11Z</time>
      </trkpt>
      <trkpt lat="43.77206" lon="6.69694">
        <ele>1045</ele>
        <time>2010-08-15T07:57:16Z</time>
      </trkpt>
      <trkpt lat="43.77203" lon="6.69704">
        <ele>1044</ele>
        <time>2010-08-15T07:57:22Z</time>
      </trkpt>
      <trkpt lat="43.77202" lon="6.69707">
        <ele>1044</ele>
        <time>2010-08-15T07:57:24Z</time>
      </trkpt>
      <trkpt lat="43.77201" lon="6.69717">
        <ele>1044</ele>
        <time>2010-08-15T07:57:32Z</time>
      </trkpt>
      <trkpt lat="43.77199" lon="6.69721">
        <ele>1044</ele>
        <time>2010-08-15T07:57:38Z</time>
      </trkpt>
      <trkpt lat="43.77198" lon="6.69723">
        <ele>1047</ele>
        <time>2010-08-15T07:57:42Z</time>
      </trkpt>
      <trkpt lat="43.77201" lon="6.69723">
        <ele>1045</ele>
        <time>2010-08-15T07:57:52Z</time>
      </trkpt>
      <trkpt lat="43.77206" lon="6.69722">
        <ele>1046</ele>
        <time>2010-08-15T07:57:57Z</time>
      </trkpt>
      <trkpt lat="43.7721" lon="6.69723">
        <ele>1047</ele>
        <time>2010-08-15T07:58:10Z</time>
      </trkpt>
      <trkpt lat="43.77211" lon="6.69732">
        <ele>1048</ele>
        <time>2010-08-15T07:58:17Z</time>
      </trkpt>
      <trkpt lat="43.77211" lon="6.69733">
        <ele>1048</ele>
        <time>2010-08-15T07:58:18Z</time>
      </trkpt>
      <trkpt lat="43.77209" lon="6.6974">
        <ele>1047</ele>
        <time>2010-08-15T07:58:23Z</time>
      </trkpt>
      <trkpt lat="43.77206" lon="6.69751">
        <ele>1047</ele>
        <time>2010-08-15T07:58:30Z</time>
      </trkpt>
      <trkpt lat="43.77204" lon="6.6976">
        <ele>1047</ele>
        <time>2010-08-15T07:58:36Z</time>
      </trkpt>
      <trkpt lat="43.77202" lon="6.69769">
        <ele>1047</ele>
        <time>2010-08-15T07:58:43Z</time>
      </trkpt>
      <trkpt lat="43.77203" lon="6.69776">
        <ele>1048</ele>
        <time>2010-08-15T07:58:48Z</time>
      </trkpt>
      <trkpt lat="43.77204" lon="6.69783">
        <ele>1047</ele>
        <time>2010-08-15T07:58:53Z</time>
      </trkpt>
      <trkpt lat="43.77203" lon="6.69792">
        <ele>1048</ele>
        <time>2010-08-15T07:58:58Z</time>
      </trkpt>
      <trkpt lat="43.77202" lon="6.69796">
        <ele>1049</ele>
        <time>2010-08-15T07:59:00Z</time>
      </trkpt>
      <trkpt lat="43.77201" lon="6.69802">
        <ele>1047</ele>
        <time>2010-08-15T07:59:04Z</time>
      </trkpt>
      <trkpt lat="43.772" lon="6.69808">
        <ele>1048</ele>
        <time>2010-08-15T07:59:07Z</time>
      </trkpt>
      <trkpt lat="43.77198" lon="6.69813">
        <ele>1046</ele>
        <time>2010-08-15T07:59:09Z</time>
      </trkpt>
      <trkpt lat="43.77199" lon="6.69824">
        <ele>1048</ele>
        <time>2010-08-15T07:59:15Z</time>
      </trkpt>
      <trkpt lat="43.77198" lon="6.69828">
        <ele>1048</ele>
        <time>2010-08-15T07:59:17Z</time>
      </trkpt>
      <trkpt lat="43.77199" lon="6.69834">
        <ele>1048</ele>
        <time>2010-08-15T07:59:21Z</time>
      </trkpt>
      <trkpt lat="43.77196" lon="6.69842">
        <ele>1046</ele>
        <time>2010-08-15T07:59:26Z</time>
      </trkpt>
      <trkpt lat="43.77196" lon="6.69846">
        <ele>1046</ele>
        <time>2010-08-15T07:59:28Z</time>
      </trkpt>
      <trkpt lat="43.77195" lon="6.6985">
        <ele>1047</ele>
        <time>2010-08-15T07:59:31Z</time>
      </trkpt>
      <trkpt lat="43.77194" lon="6.69854">
        <ele>1048</ele>
        <time>2010-08-15T07:59:34Z</time>
      </trkpt>
      <trkpt lat="43.77193" lon="6.69857">
        <ele>1046</ele>
        <time>2010-08-15T07:59:36Z</time>
      </trkpt>
      <trkpt lat="43.7719" lon="6.69866">
        <ele>1048</ele>
        <time>2010-08-15T07:59:41Z</time>
      </trkpt>
      <trkpt lat="43.77189" lon="6.69874">
        <ele>1047</ele>
        <time>2010-08-15T07:59:45Z</time>
      </trkpt>
      <trkpt lat="43.77187" lon="6.69881">
        <ele>1047</ele>
        <time>2010-08-15T07:59:49Z</time>
      </trkpt>
      <trkpt lat="43.77186" lon="6.69885">
        <ele>1048</ele>
        <time>2010-08-15T07:59:52Z</time>
      </trkpt>
      <trkpt lat="43.77182" lon="6.69893">
        <ele>1047</ele>
        <time>2010-08-15T07:59:58Z</time>
      </trkpt>
      <trkpt lat="43.77182" lon="6.69894">
        <ele>1047</ele>
        <time>2010-08-15T07:59:59Z</time>
      </trkpt>
      <trkpt lat="43.77181" lon="6.69908">
        <ele>1048</ele>
        <time>2010-08-15T08:00:06Z</time>
      </trkpt>
      <trkpt lat="43.77181" lon="6.69911">
        <ele>1046</ele>
        <time>2010-08-15T08:00:08Z</time>
      </trkpt>
      <trkpt lat="43.77179" lon="6.69916">
        <ele>1048</ele>
        <time>2010-08-15T08:00:12Z</time>
      </trkpt>
      <trkpt lat="43.77175" lon="6.69925">
        <ele>1047</ele>
        <time>2010-08-15T08:00:20Z</time>
      </trkpt>
      <trkpt lat="43.77174" lon="6.69931">
        <ele>1049</ele>
        <time>2010-08-15T08:00:24Z</time>
      </trkpt>
      <trkpt lat="43.77173" lon="6.69941">
        <ele>1048</ele>
        <time>2010-08-15T08:00:29Z</time>
      </trkpt>
      <trkpt lat="43.77171" lon="6.69946">
        <ele>1048</ele>
        <time>2010-08-15T08:00:34Z</time>
      </trkpt>
      <trkpt lat="43.77169" lon="6.69955">
        <ele>1048</ele>
        <time>2010-08-15T08:00:40Z</time>
      </trkpt>
      <trkpt lat="43.77166" lon="6.69965">
        <ele>1047</ele>
        <time>2010-08-15T08:00:46Z</time>
      </trkpt>
      <trkpt lat="43.77163" lon="6.69977">
        <ele>1048</ele>
        <time>2010-08-15T08:00:51Z</time>
      </trkpt>
      <trkpt lat="43.77163" lon="6.69981">
        <ele>1048</ele>
        <time>2010-08-15T08:00:57Z</time>
      </trkpt>
      <trkpt lat="43.77151" lon="6.69982">
        <ele>1047</ele>
        <time>2010-08-15T08:01:04Z</time>
      </trkpt>
      <trkpt lat="43.77144" lon="6.6998">
        <ele>1047</ele>
        <time>2010-08-15T08:01:09Z</time>
      </trkpt>
      <trkpt lat="43.77136" lon="6.69973">
        <ele>1046</ele>
        <time>2010-08-15T08:01:17Z</time>
      </trkpt>
      <trkpt lat="43.77128" lon="6.6997">
        <ele>1047</ele>
        <time>2010-08-15T08:01:24Z</time>
      </trkpt>
      <trkpt lat="43.77118" lon="6.69968">
        <ele>1046</ele>
        <time>2010-08-15T08:01:31Z</time>
      </trkpt>
      <trkpt lat="43.7711" lon="6.69965">
        <ele>1045</ele>
        <time>2010-08-15T08:01:38Z</time>
      </trkpt>
      <trkpt lat="43.77102" lon="6.69963">
        <ele>1044</ele>
        <time>2010-08-15T08:01:45Z</time>
      </trkpt>
      <trkpt lat="43.77094" lon="6.6996">
        <ele>1043</ele>
        <time>2010-08-15T08:01:52Z</time>
      </trkpt>
      <trkpt lat="43.77086" lon="6.69957">
        <ele>1043</ele>
        <time>2010-08-15T08:01:58Z</time>
      </trkpt>
      <trkpt lat="43.77081" lon="6.69958">
        <ele>1043</ele>
        <time>2010-08-15T08:02:01Z</time>
      </trkpt>
      <trkpt lat="43.77077" lon="6.69956">
        <ele>1040</ele>
        <time>2010-08-15T08:02:05Z</time>
      </trkpt>
      <trkpt lat="43.77065" lon="6.69952">
        <ele>1042</ele>
        <time>2010-08-15T08:02:15Z</time>
      </trkpt>
      <trkpt lat="43.77059" lon="6.69946">
        <ele>1040</ele>
        <time>2010-08-15T08:02:21Z</time>
      </trkpt>
      <trkpt lat="43.77051" lon="6.69941">
        <ele>1041</ele>
        <time>2010-08-15T08:02:28Z</time>
      </trkpt>
      <trkpt lat="43.77049" lon="6.6994">
        <ele>1042</ele>
        <time>2010-08-15T08:02:29Z</time>
      </trkpt>
      <trkpt lat="43.7704" lon="6.69933">
        <ele>1039</ele>
        <time>2010-08-15T08:02:37Z</time>
      </trkpt>
      <trkpt lat="43.77032" lon="6.69925">
        <ele>1039</ele>
        <time>2010-08-15T08:02:45Z</time>
      </trkpt>
      <trkpt lat="43.77025" lon="6.69919">
        <ele>1040</ele>
        <time>2010-08-15T08:02:52Z</time>
      </trkpt>
      <trkpt lat="43.77015" lon="6.69914">
        <ele>1039</ele>
        <time>2010-08-15T08:03:01Z</time>
      </trkpt>
      <trkpt lat="43.7701" lon="6.69907">
        <ele>1039</ele>
        <time>2010-08-15T08:03:07Z</time>
      </trkpt>
      <trkpt lat="43.77003" lon="6.69896">
        <ele>1037</ele>
        <time>2010-08-15T08:03:15Z</time>
      </trkpt>
      <trkpt lat="43.77002" lon="6.69893">
        <ele>1036</ele>
        <time>2010-08-15T08:03:17Z</time>
      </trkpt>
      <trkpt lat="43.76998" lon="6.69888">
        <ele>1038</ele>
        <time>2010-08-15T08:03:21Z</time>
      </trkpt>
      <trkpt lat="43.76995" lon="6.69882">
        <ele>1038</ele>
        <time>2010-08-15T08:03:25Z</time>
      </trkpt>
      <trkpt lat="43.76992" lon="6.69872">
        <ele>1039</ele>
        <time>2010-08-15T08:03:31Z</time>
      </trkpt>
      <trkpt lat="43.76988" lon="6.69858">
        <ele>1038</ele>
        <time>2010-08-15T08:03:40Z</time>
      </trkpt>
      <trkpt lat="43.76987" lon="6.69855">
        <ele>1038</ele>
        <time>2010-08-15T08:03:42Z</time>
      </trkpt>
      <trkpt lat="43.76985" lon="6.69845">
        <ele>1038</ele>
        <time>2010-08-15T08:03:49Z</time>
      </trkpt>
      <trkpt lat="43.76984" lon="6.69839">
        <ele>1037</ele>
        <time>2010-08-15T08:03:53Z</time>
      </trkpt>
      <trkpt lat="43.7698" lon="6.69828">
        <ele>1037</ele>
        <time>2010-08-15T08:04:01Z</time>
      </trkpt>
      <trkpt lat="43.76979" lon="6.69826">
        <ele>1035</ele>
        <time>2010-08-15T08:04:02Z</time>
      </trkpt>
      <trkpt lat="43.76977" lon="6.69819">
        <ele>1037</ele>
        <time>2010-08-15T08:04:06Z</time>
      </trkpt>
      <trkpt lat="43.76977" lon="6.69816">
        <ele>1038</ele>
        <time>2010-08-15T08:04:08Z</time>
      </trkpt>
      <trkpt lat="43.76975" lon="6.6981">
        <ele>1038</ele>
        <time>2010-08-15T08:04:12Z</time>
      </trkpt>
      <trkpt lat="43.76973" lon="6.69795">
        <ele>1038</ele>
        <time>2010-08-15T08:04:21Z</time>
      </trkpt>
      <trkpt lat="43.76972" lon="6.69794">
        <ele>1038</ele>
        <time>2010-08-15T08:04:22Z</time>
      </trkpt>
      <trkpt lat="43.7697" lon="6.69787">
        <ele>1036</ele>
        <time>2010-08-15T08:04:26Z</time>
      </trkpt>
      <trkpt lat="43.76971" lon="6.69778">
        <ele>1037</ele>
        <time>2010-08-15T08:04:34Z</time>
      </trkpt>
      <trkpt lat="43.7697" lon="6.69772">
        <ele>1035</ele>
        <time>2010-08-15T08:04:51Z</time>
      </trkpt>
      <trkpt lat="43.76971" lon="6.69764">
        <ele>1037</ele>
        <time>2010-08-15T08:04:56Z</time>
      </trkpt>
      <trkpt lat="43.76971" lon="6.69756">
        <ele>1037</ele>
        <time>2010-08-15T08:05:00Z</time>
      </trkpt>
      <trkpt lat="43.76971" lon="6.69748">
        <ele>1036</ele>
        <time>2010-08-15T08:05:05Z</time>
      </trkpt>
      <trkpt lat="43.7697" lon="6.69738">
        <ele>1037</ele>
        <time>2010-08-15T08:05:11Z</time>
      </trkpt>
      <trkpt lat="43.76968" lon="6.69723">
        <ele>1036</ele>
        <time>2010-08-15T08:05:19Z</time>
      </trkpt>
      <trkpt lat="43.76969" lon="6.69718">
        <ele>1036</ele>
        <time>2010-08-15T08:05:22Z</time>
      </trkpt>
      <trkpt lat="43.76969" lon="6.69714">
        <ele>1035</ele>
        <time>2010-08-15T08:05:25Z</time>
      </trkpt>
      <trkpt lat="43.76969" lon="6.69702">
        <ele>1034</ele>
        <time>2010-08-15T08:05:32Z</time>
      </trkpt>
      <trkpt lat="43.76969" lon="6.69701">
        <ele>1036</ele>
        <time>2010-08-15T08:05:33Z</time>
      </trkpt>
      <trkpt lat="43.76968" lon="6.69689">
        <ele>1035</ele>
        <time>2010-08-15T08:05:40Z</time>
      </trkpt>
      <trkpt lat="43.76967" lon="6.69685">
        <ele>1035</ele>
        <time>2010-08-15T08:05:42Z</time>
      </trkpt>
      <trkpt lat="43.76962" lon="6.69674">
        <ele>1035</ele>
        <time>2010-08-15T08:05:50Z</time>
      </trkpt>
      <trkpt lat="43.76956" lon="6.69671">
        <ele>1035</ele>
        <time>2010-08-15T08:05:55Z</time>
      </trkpt>
      <trkpt lat="43.76946" lon="6.69668">
        <ele>1034</ele>
        <time>2010-08-15T08:06:03Z</time>
      </trkpt>
      <trkpt lat="43.76934" lon="6.69668">
        <ele>1035</ele>
        <time>2010-08-15T08:06:12Z</time>
      </trkpt>
      <trkpt lat="43.76931" lon="6.69667">
        <ele>1035</ele>
        <time>2010-08-15T08:06:14Z</time>
      </trkpt>
      <trkpt lat="43.76928" lon="6.69665">
        <ele>1034</ele>
        <time>2010-08-15T08:06:17Z</time>
      </trkpt>
      <trkpt lat="43.76921" lon="6.69664">
        <ele>1035</ele>
        <time>2010-08-15T08:06:22Z</time>
      </trkpt>
      <trkpt lat="43.7692" lon="6.69664">
        <ele>1035</ele>
        <time>2010-08-15T08:06:23Z</time>
      </trkpt>
      <trkpt lat="43.76909" lon="6.69662">
        <ele>1035</ele>
        <time>2010-08-15T08:06:31Z</time>
      </trkpt>
      <trkpt lat="43.769" lon="6.69666">
        <ele>1035</ele>
        <time>2010-08-15T08:06:39Z</time>
      </trkpt>
      <trkpt lat="43.76893" lon="6.69671">
        <ele>1035</ele>
        <time>2010-08-15T08:06:46Z</time>
      </trkpt>
      <trkpt lat="43.76891" lon="6.69674">
        <ele>1036</ele>
        <time>2010-08-15T08:06:54Z</time>
      </trkpt>
      <trkpt lat="43.76886" lon="6.69679">
        <ele>1036</ele>
        <time>2010-08-15T08:07:01Z</time>
      </trkpt>
      <trkpt lat="43.76886" lon="6.69683">
        <ele>1036</ele>
        <time>2010-08-15T08:07:20Z</time>
      </trkpt>
      <trkpt lat="43.76889" lon="6.69684">
        <ele>1036</ele>
        <time>2010-08-15T08:07:30Z</time>
      </trkpt>
      <trkpt lat="43.76893" lon="6.69689">
        <ele>1035</ele>
        <time>2010-08-15T08:07:35Z</time>
      </trkpt>
      <trkpt lat="43.76891" lon="6.69694">
        <ele>1035</ele>
        <time>2010-08-15T08:07:39Z</time>
      </trkpt>
      <trkpt lat="43.76889" lon="6.69712">
        <ele>1034</ele>
        <time>2010-08-15T08:07:49Z</time>
      </trkpt>
      <trkpt lat="43.76888" lon="6.69713">
        <ele>1034</ele>
        <time>2010-08-15T08:07:50Z</time>
      </trkpt>
      <trkpt lat="43.76888" lon="6.69719">
        <ele>1035</ele>
        <time>2010-08-15T08:07:53Z</time>
      </trkpt>
      <trkpt lat="43.76888" lon="6.69728">
        <ele>1035</ele>
        <time>2010-08-15T08:08:00Z</time>
      </trkpt>
      <trkpt lat="43.76888" lon="6.6973">
        <ele>1035</ele>
        <time>2010-08-15T08:08:09Z</time>
      </trkpt>
      <trkpt lat="43.76889" lon="6.69734">
        <ele>1036</ele>
        <time>2010-08-15T08:08:17Z</time>
      </trkpt>
      <trkpt lat="43.76889" lon="6.6974">
        <ele>1035</ele>
        <time>2010-08-15T08:08:25Z</time>
      </trkpt>
      <trkpt lat="43.76889" lon="6.69749">
        <ele>1035</ele>
        <time>2010-08-15T08:08:30Z</time>
      </trkpt>
      <trkpt lat="43.7689" lon="6.69752">
        <ele>1035</ele>
        <time>2010-08-15T08:08:32Z</time>
      </trkpt>
      <trkpt lat="43.76891" lon="6.69758">
        <ele>1036</ele>
        <time>2010-08-15T08:08:36Z</time>
      </trkpt>
      <trkpt lat="43.76891" lon="6.69769">
        <ele>1036</ele>
        <time>2010-08-15T08:08:44Z</time>
      </trkpt>
      <trkpt lat="43.76892" lon="6.69773">
        <ele>1035</ele>
        <time>2010-08-15T08:08:47Z</time>
      </trkpt>
      <trkpt lat="43.76893" lon="6.69778">
        <ele>1036</ele>
        <time>2010-08-15T08:08:51Z</time>
      </trkpt>
      <trkpt lat="43.76893" lon="6.69783">
        <ele>1036</ele>
        <time>2010-08-15T08:09:00Z</time>
      </trkpt>
      <trkpt lat="43.76892" lon="6.69798">
        <ele>1036</ele>
        <time>2010-08-15T08:09:08Z</time>
      </trkpt>
      <trkpt lat="43.76891" lon="6.69801">
        <ele>1037</ele>
        <time>2010-08-15T08:09:10Z</time>
      </trkpt>
      <trkpt lat="43.76891" lon="6.69811">
        <ele>1037</ele>
        <time>2010-08-15T08:09:17Z</time>
      </trkpt>
      <trkpt lat="43.76891" lon="6.69813">
        <ele>1036</ele>
        <time>2010-08-15T08:09:18Z</time>
      </trkpt>
      <trkpt lat="43.76891" lon="6.69828">
        <ele>1037</ele>
        <time>2010-08-15T08:09:26Z</time>
      </trkpt>
      <trkpt lat="43.76891" lon="6.69835">
        <ele>1036</ele>
        <time>2010-08-15T08:09:31Z</time>
      </trkpt>
      <trkpt lat="43.7689" lon="6.6984">
        <ele>1037</ele>
        <time>2010-08-15T08:09:39Z</time>
      </trkpt>
      <trkpt lat="43.7689" lon="6.69843">
        <ele>1037</ele>
        <time>2010-08-15T08:09:51Z</time>
      </trkpt>
      <trkpt lat="43.76888" lon="6.69844">
        <ele>1037</ele>
        <time>2010-08-15T08:09:56Z</time>
      </trkpt>
      <trkpt lat="43.76886" lon="6.69844">
        <ele>1038</ele>
        <time>2010-08-15T08:09:58Z</time>
      </trkpt>
      <trkpt lat="43.76883" lon="6.69842">
        <ele>1037</ele>
        <time>2010-08-15T08:10:02Z</time>
      </trkpt>
      <trkpt lat="43.76882" lon="6.69833">
        <ele>1039</ele>
        <time>2010-08-15T08:10:09Z</time>
      </trkpt>
      <trkpt lat="43.76882" lon="6.69828">
        <ele>1038</ele>
        <time>2010-08-15T08:10:16Z</time>
      </trkpt>
      <trkpt lat="43.76884" lon="6.69826">
        <ele>1039</ele>
        <time>2010-08-15T08:10:24Z</time>
      </trkpt>
      <trkpt lat="43.76883" lon="6.69826">
        <ele>1038</ele>
        <time>2010-08-15T08:10:32Z</time>
      </trkpt>
      <trkpt lat="43.76883" lon="6.69826">
        <ele>1038</ele>
        <time>2010-08-15T08:11:42Z</time>
      </trkpt>
      <trkpt lat="43.76882" lon="6.69826">
        <ele>1038</ele>
        <time>2010-08-15T08:12:00Z</time>
      </trkpt>
      <trkpt lat="43.76882" lon="6.69826">
        <ele>1037</ele>
        <time>2010-08-15T08:12:07Z</time>
      </trkpt>
      <trkpt lat="43.76882" lon="6.69826">
        <ele>1038</ele>
        <time>2010-08-15T08:12:30Z</time>
      </trkpt>
      <trkpt lat="43.76883" lon="6.69823">
        <ele>1037</ele>
        <time>2010-08-15T08:13:01Z</time>
      </trkpt>
      <trkpt lat="43.76883" lon="6.69823">
        <ele>1036</ele>
        <time>2010-08-15T08:13:02Z</time>
      </trkpt>
      <trkpt lat="43.76885" lon="6.69828">
        <ele>1037</ele>
        <time>2010-08-15T08:13:06Z</time>
      </trkpt>
      <trkpt lat="43.76889" lon="6.69839">
        <ele>1035</ele>
        <time>2010-08-15T08:13:12Z</time>
      </trkpt>
      <trkpt lat="43.76889" lon="6.6984">
        <ele>1036</ele>
        <time>2010-08-15T08:13:13Z</time>
      </trkpt>
      <trkpt lat="43.76889" lon="6.69846">
        <ele>1035</ele>
        <time>2010-08-15T08:13:19Z</time>
      </trkpt>
      <trkpt lat="43.76889" lon="6.69854">
        <ele>1037</ele>
        <time>2010-08-15T08:13:25Z</time>
      </trkpt>
      <trkpt lat="43.76889" lon="6.69865">
        <ele>1037</ele>
        <time>2010-08-15T08:13:32Z</time>
      </trkpt>
      <trkpt lat="43.76888" lon="6.69875">
        <ele>1036</ele>
        <time>2010-08-15T08:13:39Z</time>
      </trkpt>
      <trkpt lat="43.76886" lon="6.69886">
        <ele>1037</ele>
        <time>2010-08-15T08:13:47Z</time>
      </trkpt>
      <trkpt lat="43.76885" lon="6.69895">
        <ele>1037</ele>
        <time>2010-08-15T08:13:54Z</time>
      </trkpt>
      <trkpt lat="43.76886" lon="6.69904">
        <ele>1037</ele>
        <time>2010-08-15T08:14:01Z</time>
      </trkpt>
      <trkpt lat="43.76885" lon="6.69908">
        <ele>1037</ele>
        <time>2010-08-15T08:14:09Z</time>
      </trkpt>
      <trkpt lat="43.76885" lon="6.69918">
        <ele>1036</ele>
        <time>2010-08-15T08:14:17Z</time>
      </trkpt>
      <trkpt lat="43.76886" lon="6.69928">
        <ele>1037</ele>
        <time>2010-08-15T08:14:23Z</time>
      </trkpt>
      <trkpt lat="43.76886" lon="6.69937">
        <ele>1038</ele>
        <time>2010-08-15T08:14:30Z</time>
      </trkpt>
      <trkpt lat="43.76886" lon="6.69947">
        <ele>1038</ele>
        <time>2010-08-15T08:14:37Z</time>
      </trkpt>
      <trkpt lat="43.76886" lon="6.69955">
        <ele>1037</ele>
        <time>2010-08-15T08:14:43Z</time>
      </trkpt>
      <trkpt lat="43.76887" lon="6.69959">
        <ele>1037</ele>
        <time>2010-08-15T08:14:46Z</time>
      </trkpt>
      <trkpt lat="43.76886" lon="6.69971">
        <ele>1037</ele>
        <time>2010-08-15T08:14:53Z</time>
      </trkpt>
      <trkpt lat="43.76887" lon="6.69981">
        <ele>1038</ele>
        <time>2010-08-15T08:14:59Z</time>
      </trkpt>
      <trkpt lat="43.76888" lon="6.69992">
        <ele>1038</ele>
        <time>2010-08-15T08:15:07Z</time>
      </trkpt>
      <trkpt lat="43.76886" lon="6.70006">
        <ele>1038</ele>
        <time>2010-08-15T08:15:14Z</time>
      </trkpt>
      <trkpt lat="43.76888" lon="6.70017">
        <ele>1038</ele>
        <time>2010-08-15T08:15:21Z</time>
      </trkpt>
      <trkpt lat="43.76887" lon="6.70019">
        <ele>1038</ele>
        <time>2010-08-15T08:15:23Z</time>
      </trkpt>
      <trkpt lat="43.76888" lon="6.70034">
        <ele>1039</ele>
        <time>2010-08-15T08:15:31Z</time>
      </trkpt>
      <trkpt lat="43.76888" lon="6.70035">
        <ele>1038</ele>
        <time>2010-08-15T08:15:32Z</time>
      </trkpt>
      <trkpt lat="43.76888" lon="6.70044">
        <ele>1039</ele>
        <time>2010-08-15T08:15:38Z</time>
      </trkpt>
      <trkpt lat="43.76887" lon="6.7005">
        <ele>1038</ele>
        <time>2010-08-15T08:15:42Z</time>
      </trkpt>
      <trkpt lat="43.76888" lon="6.70059">
        <ele>1039</ele>
        <time>2010-08-15T08:15:47Z</time>
      </trkpt>
      <trkpt lat="43.76887" lon="6.70065">
        <ele>1038</ele>
        <time>2010-08-15T08:15:50Z</time>
      </trkpt>
      <trkpt lat="43.76887" lon="6.70075">
        <ele>1040</ele>
        <time>2010-08-15T08:15:56Z</time>
      </trkpt>
      <trkpt lat="43.76886" lon="6.7009">
        <ele>1039</ele>
        <time>2010-08-15T08:16:04Z</time>
      </trkpt>
      <trkpt lat="43.76887" lon="6.70098">
        <ele>1039</ele>
        <time>2010-08-15T08:16:10Z</time>
      </trkpt>
      <trkpt lat="43.76886" lon="6.70103">
        <ele>1038</ele>
        <time>2010-08-15T08:16:16Z</time>
      </trkpt>
      <trkpt lat="43.76886" lon="6.70114">
        <ele>1038</ele>
        <time>2010-08-15T08:16:24Z</time>
      </trkpt>
      <trkpt lat="43.76887" lon="6.70126">
        <ele>1038</ele>
        <time>2010-08-15T08:16:31Z</time>
      </trkpt>
      <trkpt lat="43.76887" lon="6.70132">
        <ele>1039</ele>
        <time>2010-08-15T08:16:35Z</time>
      </trkpt>
      <trkpt lat="43.76887" lon="6.70146">
        <ele>1038</ele>
        <time>2010-08-15T08:16:44Z</time>
      </trkpt>
      <trkpt lat="43.76887" lon="6.70147">
        <ele>1039</ele>
        <time>2010-08-15T08:16:45Z</time>
      </trkpt>
      <trkpt lat="43.76885" lon="6.70154">
        <ele>1041</ele>
        <time>2010-08-15T08:16:49Z</time>
      </trkpt>
      <trkpt lat="43.76887" lon="6.70166">
        <ele>1039</ele>
        <time>2010-08-15T08:16:56Z</time>
      </trkpt>
      <trkpt lat="43.76887" lon="6.70177">
        <ele>1040</ele>
        <time>2010-08-15T08:17:02Z</time>
      </trkpt>
      <trkpt lat="43.76887" lon="6.70188">
        <ele>1040</ele>
        <time>2010-08-15T08:17:09Z</time>
      </trkpt>
      <trkpt lat="43.76889" lon="6.70195">
        <ele>1040</ele>
        <time>2010-08-15T08:17:13Z</time>
      </trkpt>
      <trkpt lat="43.7689" lon="6.70205">
        <ele>1039</ele>
        <time>2010-08-15T08:17:19Z</time>
      </trkpt>
      <trkpt lat="43.7689" lon="6.70208">
        <ele>1042</ele>
        <time>2010-08-15T08:17:21Z</time>
      </trkpt>
      <trkpt lat="43.7689" lon="6.70219">
        <ele>1040</ele>
        <time>2010-08-15T08:17:29Z</time>
      </trkpt>
      <trkpt lat="43.76891" lon="6.70231">
        <ele>1041</ele>
        <time>2010-08-15T08:17:36Z</time>
      </trkpt>
      <trkpt lat="43.7689" lon="6.70237">
        <ele>1040</ele>
        <time>2010-08-15T08:17:40Z</time>
      </trkpt>
      <trkpt lat="43.76889" lon="6.7025">
        <ele>1040</ele>
        <time>2010-08-15T08:17:48Z</time>
      </trkpt>
      <trkpt lat="43.7689" lon="6.70253">
        <ele>1040</ele>
        <time>2010-08-15T08:17:50Z</time>
      </trkpt>
      <trkpt lat="43.76889" lon="6.70262">
        <ele>1040</ele>
        <time>2010-08-15T08:17:56Z</time>
      </trkpt>
      <trkpt lat="43.7689" lon="6.70274">
        <ele>1040</ele>
        <time>2010-08-15T08:18:05Z</time>
      </trkpt>
      <trkpt lat="43.76889" lon="6.70277">
        <ele>1040</ele>
        <time>2010-08-15T08:18:07Z</time>
      </trkpt>
      <trkpt lat="43.76891" lon="6.70282">
        <ele>1040</ele>
        <time>2010-08-15T08:18:10Z</time>
      </trkpt>
      <trkpt lat="43.76892" lon="6.70301">
        <ele>1041</ele>
        <time>2010-08-15T08:18:19Z</time>
      </trkpt>
      <trkpt lat="43.76892" lon="6.70304">
        <ele>1040</ele>
        <time>2010-08-15T08:18:21Z</time>
      </trkpt>
      <trkpt lat="43.76895" lon="6.70321">
        <ele>1040</ele>
        <time>2010-08-15T08:18:30Z</time>
      </trkpt>
      <trkpt lat="43.76895" lon="6.70323">
        <ele>1040</ele>
        <time>2010-08-15T08:18:31Z</time>
      </trkpt>
      <trkpt lat="43.76895" lon="6.70336">
        <ele>1040</ele>
        <time>2010-08-15T08:18:39Z</time>
      </trkpt>
      <trkpt lat="43.76895" lon="6.70339">
        <ele>1041</ele>
        <time>2010-08-15T08:18:41Z</time>
      </trkpt>
      <trkpt lat="43.76894" lon="6.70352">
        <ele>1039</ele>
        <time>2010-08-15T08:18:49Z</time>
      </trkpt>
      <trkpt lat="43.76895" lon="6.70363">
        <ele>1041</ele>
        <time>2010-08-15T08:18:55Z</time>
      </trkpt>
      <trkpt lat="43.76894" lon="6.70369">
        <ele>1040</ele>
        <time>2010-08-15T08:18:59Z</time>
      </trkpt>
      <trkpt lat="43.76895" lon="6.70382">
        <ele>1040</ele>
        <time>2010-08-15T08:19:06Z</time>
      </trkpt>
      <trkpt lat="43.76895" lon="6.70394">
        <ele>1041</ele>
        <time>2010-08-15T08:19:13Z</time>
      </trkpt>
      <trkpt lat="43.76895" lon="6.70406">
        <ele>1042</ele>
        <time>2010-08-15T08:19:20Z</time>
      </trkpt>
      <trkpt lat="43.76893" lon="6.70413">
        <ele>1040</ele>
        <time>2010-08-15T08:19:24Z</time>
      </trkpt>
      <trkpt lat="43.76893" lon="6.70426">
        <ele>1041</ele>
        <time>2010-08-15T08:19:33Z</time>
      </trkpt>
      <trkpt lat="43.7689" lon="6.70437">
        <ele>1041</ele>
        <time>2010-08-15T08:19:41Z</time>
      </trkpt>
      <trkpt lat="43.76889" lon="6.70443">
        <ele>1042</ele>
        <time>2010-08-15T08:19:46Z</time>
      </trkpt>
      <trkpt lat="43.76886" lon="6.70449">
        <ele>1042</ele>
        <time>2010-08-15T08:19:54Z</time>
      </trkpt>
      <trkpt lat="43.76886" lon="6.70455">
        <ele>1042</ele>
        <time>2010-08-15T08:19:59Z</time>
      </trkpt>
      <trkpt lat="43.76886" lon="6.70465">
        <ele>1042</ele>
        <time>2010-08-15T08:20:05Z</time>
      </trkpt>
      <trkpt lat="43.76884" lon="6.70477">
        <ele>1042</ele>
        <time>2010-08-15T08:20:11Z</time>
      </trkpt>
      <trkpt lat="43.76881" lon="6.70494">
        <ele>1041</ele>
        <time>2010-08-15T08:20:17Z</time>
      </trkpt>
      <trkpt lat="43.7688" lon="6.70497">
        <ele>1042</ele>
        <time>2010-08-15T08:20:20Z</time>
      </trkpt>
      <trkpt lat="43.76878" lon="6.70497">
        <ele>1042</ele>
        <time>2010-08-15T08:20:27Z</time>
      </trkpt>
      <trkpt lat="43.76878" lon="6.70497">
        <ele>1040</ele>
        <time>2010-08-15T08:20:39Z</time>
      </trkpt>
      <trkpt lat="43.76877" lon="6.70503">
        <ele>1041</ele>
        <time>2010-08-15T08:22:16Z</time>
      </trkpt>
      <trkpt lat="43.76875" lon="6.70508">
        <ele>1041</ele>
        <time>2010-08-15T08:22:21Z</time>
      </trkpt>
      <trkpt lat="43.76875" lon="6.70515">
        <ele>1041</ele>
        <time>2010-08-15T08:22:28Z</time>
      </trkpt>
      <trkpt lat="43.76874" lon="6.70519">
        <ele>1041</ele>
        <time>2010-08-15T08:22:34Z</time>
      </trkpt>
      <trkpt lat="43.76873" lon="6.70527">
        <ele>1036</ele>
        <time>2010-08-15T08:22:47Z</time>
      </trkpt>
      <trkpt lat="43.76874" lon="6.70528">
        <ele>1041</ele>
        <time>2010-08-15T08:22:48Z</time>
      </trkpt>
      <trkpt lat="43.76872" lon="6.70533">
        <ele>1035</ele>
        <time>2010-08-15T08:22:58Z</time>
      </trkpt>
      <trkpt lat="43.76872" lon="6.70533">
        <ele>1041</ele>
        <time>2010-08-15T08:22:59Z</time>
      </trkpt>
      <trkpt lat="43.76868" lon="6.70544">
        <ele>1041</ele>
        <time>2010-08-15T08:23:09Z</time>
      </trkpt>
      <trkpt lat="43.7687" lon="6.70551">
        <ele>1041</ele>
        <time>2010-08-15T08:23:14Z</time>
      </trkpt>
      <trkpt lat="43.76868" lon="6.70558">
        <ele>1043</ele>
        <time>2010-08-15T08:23:20Z</time>
      </trkpt>
      <trkpt lat="43.76868" lon="6.7056">
        <ele>1043</ele>
        <time>2010-08-15T08:23:21Z</time>
      </trkpt>
      <trkpt lat="43.76867" lon="6.70562">
        <ele>1039</ele>
        <time>2010-08-15T08:23:23Z</time>
      </trkpt>
      <trkpt lat="43.76865" lon="6.70567">
        <ele>1043</ele>
        <time>2010-08-15T08:23:28Z</time>
      </trkpt>
      <trkpt lat="43.76863" lon="6.70569">
        <ele>1043</ele>
        <time>2010-08-15T08:23:29Z</time>
      </trkpt>
      <trkpt lat="43.76862" lon="6.70572">
        <ele>1040</ele>
        <time>2010-08-15T08:23:32Z</time>
      </trkpt>
      <trkpt lat="43.76857" lon="6.70587">
        <ele>1043</ele>
        <time>2010-08-15T08:23:48Z</time>
      </trkpt>
      <trkpt lat="43.76853" lon="6.70596">
        <ele>1041</ele>
        <time>2010-08-15T08:23:59Z</time>
      </trkpt>
      <trkpt lat="43.76845" lon="6.70606">
        <ele>1045</ele>
        <time>2010-08-15T08:24:07Z</time>
      </trkpt>
      <trkpt lat="43.76842" lon="6.70614">
        <ele>1040</ele>
        <time>2010-08-15T08:24:10Z</time>
      </trkpt>
      <trkpt lat="43.76839" lon="6.70618">
        <ele>1041</ele>
        <time>2010-08-15T08:24:11Z</time>
      </trkpt>
      <trkpt lat="43.76835" lon="6.70627">
        <ele>1044</ele>
        <time>2010-08-15T08:24:14Z</time>
      </trkpt>
      <trkpt lat="43.76836" lon="6.70633">
        <ele>1046</ele>
        <time>2010-08-15T08:24:21Z</time>
      </trkpt>
      <trkpt lat="43.76834" lon="6.70642">
        <ele>1045</ele>
        <time>2010-08-15T08:25:48Z</time>
      </trkpt>
      <trkpt lat="43.76833" lon="6.70652">
        <ele>1044</ele>
        <time>2010-08-15T08:25:53Z</time>
      </trkpt>
      <trkpt lat="43.76835" lon="6.7066">
        <ele>1044</ele>
        <time>2010-08-15T08:25:59Z</time>
      </trkpt>
      <trkpt lat="43.76833" lon="6.70666">
        <ele>1046</ele>
        <time>2010-08-15T08:26:03Z</time>
      </trkpt>
      <trkpt lat="43.76832" lon="6.70672">
        <ele>1043</ele>
        <time>2010-08-15T08:26:06Z</time>
      </trkpt>
      <trkpt lat="43.7683" lon="6.70677">
        <ele>1046</ele>
        <time>2010-08-15T08:26:09Z</time>
      </trkpt>
      <trkpt lat="43.7683" lon="6.70684">
        <ele>1045</ele>
        <time>2010-08-15T08:26:15Z</time>
      </trkpt>
      <trkpt lat="43.76827" lon="6.70694">
        <ele>1046</ele>
        <time>2010-08-15T08:26:23Z</time>
      </trkpt>
      <trkpt lat="43.76828" lon="6.70698">
        <ele>1047</ele>
        <time>2010-08-15T08:26:25Z</time>
      </trkpt>
      <trkpt lat="43.76829" lon="6.70703">
        <ele>1046</ele>
        <time>2010-08-15T08:26:29Z</time>
      </trkpt>
      <trkpt lat="43.76829" lon="6.70711">
        <ele>1045</ele>
        <time>2010-08-15T08:26:36Z</time>
      </trkpt>
      <trkpt lat="43.76827" lon="6.70719">
        <ele>1048</ele>
        <time>2010-08-15T08:26:40Z</time>
      </trkpt>
      <trkpt lat="43.76826" lon="6.70721">
        <ele>1047</ele>
        <time>2010-08-15T08:26:41Z</time>
      </trkpt>
      <trkpt lat="43.76823" lon="6.70733">
        <ele>1047</ele>
        <time>2010-08-15T08:26:48Z</time>
      </trkpt>
      <trkpt lat="43.76822" lon="6.7074">
        <ele>1047</ele>
        <time>2010-08-15T08:26:54Z</time>
      </trkpt>
      <trkpt lat="43.76821" lon="6.70744">
        <ele>1048</ele>
        <time>2010-08-15T08:26:56Z</time>
      </trkpt>
      <trkpt lat="43.76817" lon="6.70754">
        <ele>1050</ele>
        <time>2010-08-15T08:27:03Z</time>
      </trkpt>
      <trkpt lat="43.76817" lon="6.70757">
        <ele>1051</ele>
        <time>2010-08-15T08:27:05Z</time>
      </trkpt>
      <trkpt lat="43.76817" lon="6.7076">
        <ele>1049</ele>
        <time>2010-08-15T08:27:07Z</time>
      </trkpt>
      <trkpt lat="43.76817" lon="6.70765">
        <ele>1048</ele>
        <time>2010-08-15T08:27:10Z</time>
      </trkpt>
      <trkpt lat="43.76815" lon="6.70778">
        <ele>1049</ele>
        <time>2010-08-15T08:27:18Z</time>
      </trkpt>
      <trkpt lat="43.76815" lon="6.70781">
        <ele>1051</ele>
        <time>2010-08-15T08:27:20Z</time>
      </trkpt>
      <trkpt lat="43.76815" lon="6.70787">
        <ele>1049</ele>
        <time>2010-08-15T08:27:25Z</time>
      </trkpt>
      <trkpt lat="43.76811" lon="6.708">
        <ele>1049</ele>
        <time>2010-08-15T08:27:32Z</time>
      </trkpt>
      <trkpt lat="43.76812" lon="6.70804">
        <ele>1050</ele>
        <time>2010-08-15T08:27:37Z</time>
      </trkpt>
      <trkpt lat="43.76811" lon="6.7081">
        <ele>1050</ele>
        <time>2010-08-15T08:27:42Z</time>
      </trkpt>
      <trkpt lat="43.76811" lon="6.70815">
        <ele>1049</ele>
        <time>2010-08-15T08:27:45Z</time>
      </trkpt>
      <trkpt lat="43.76808" lon="6.70828">
        <ele>1050</ele>
        <time>2010-08-15T08:27:50Z</time>
      </trkpt>
      <trkpt lat="43.76806" lon="6.70838">
        <ele>1053</ele>
        <time>2010-08-15T08:27:56Z</time>
      </trkpt>
      <trkpt lat="43.76804" lon="6.7084">
        <ele>1051</ele>
        <time>2010-08-15T08:27:58Z</time>
      </trkpt>
      <trkpt lat="43.76806" lon="6.70848">
        <ele>1051</ele>
        <time>2010-08-15T08:28:05Z</time>
      </trkpt>
      <trkpt lat="43.76806" lon="6.70849">
        <ele>1051</ele>
        <time>2010-08-15T08:28:06Z</time>
      </trkpt>
      <trkpt lat="43.76806" lon="6.70861">
        <ele>1050</ele>
        <time>2010-08-15T08:28:14Z</time>
      </trkpt>
      <trkpt lat="43.76801" lon="6.70875">
        <ele>1050</ele>
        <time>2010-08-15T08:28:21Z</time>
      </trkpt>
      <trkpt lat="43.768" lon="6.70882">
        <ele>1052</ele>
        <time>2010-08-15T08:28:25Z</time>
      </trkpt>
      <trkpt lat="43.76796" lon="6.70888">
        <ele>1051</ele>
        <time>2010-08-15T08:28:31Z</time>
      </trkpt>
      <trkpt lat="43.76795" lon="6.70895">
        <ele>1052</ele>
        <time>2010-08-15T08:28:36Z</time>
      </trkpt>
      <trkpt lat="43.76792" lon="6.70902">
        <ele>1050</ele>
        <time>2010-08-15T08:28:42Z</time>
      </trkpt>
      <trkpt lat="43.76792" lon="6.70904">
        <ele>1051</ele>
        <time>2010-08-15T08:28:43Z</time>
      </trkpt>
      <trkpt lat="43.76788" lon="6.7091">
        <ele>1053</ele>
        <time>2010-08-15T08:28:51Z</time>
      </trkpt>
      <trkpt lat="43.76781" lon="6.70922">
        <ele>1054</ele>
        <time>2010-08-15T08:29:02Z</time>
      </trkpt>
      <trkpt lat="43.7678" lon="6.7093">
        <ele>1052</ele>
        <time>2010-08-15T08:29:08Z</time>
      </trkpt>
      <trkpt lat="43.7678" lon="6.70934">
        <ele>1051</ele>
        <time>2010-08-15T08:29:10Z</time>
      </trkpt>
      <trkpt lat="43.76782" lon="6.70955">
        <ele>1053</ele>
        <time>2010-08-15T08:29:17Z</time>
      </trkpt>
      <trkpt lat="43.76783" lon="6.70962">
        <ele>1050</ele>
        <time>2010-08-15T08:29:20Z</time>
      </trkpt>
      <trkpt lat="43.76787" lon="6.70967">
        <ele>1046</ele>
        <time>2010-08-15T08:29:25Z</time>
      </trkpt>
      <trkpt lat="43.76788" lon="6.70972">
        <ele>1045</ele>
        <time>2010-08-15T08:29:29Z</time>
      </trkpt>
      <trkpt lat="43.7679" lon="6.70975">
        <ele>1049</ele>
        <time>2010-08-15T08:29:31Z</time>
      </trkpt>
      <trkpt lat="43.7679" lon="6.70977">
        <ele>1045</ele>
        <time>2010-08-15T08:29:32Z</time>
      </trkpt>
      <trkpt lat="43.76791" lon="6.70979">
        <ele>1047</ele>
        <time>2010-08-15T08:29:33Z</time>
      </trkpt>
      <trkpt lat="43.76792" lon="6.70983">
        <ele>1047</ele>
        <time>2010-08-15T08:29:35Z</time>
      </trkpt>
      <trkpt lat="43.7679" lon="6.70992">
        <ele>1048</ele>
        <time>2010-08-15T08:29:40Z</time>
      </trkpt>
      <trkpt lat="43.76788" lon="6.70995">
        <ele>1043</ele>
        <time>2010-08-15T08:29:42Z</time>
      </trkpt>
      <trkpt lat="43.76787" lon="6.70998">
        <ele>1047</ele>
        <time>2010-08-15T08:29:44Z</time>
      </trkpt>
      <trkpt lat="43.76787" lon="6.71">
        <ele>1047</ele>
        <time>2010-08-15T08:29:45Z</time>
      </trkpt>
      <trkpt lat="43.76784" lon="6.71006">
        <ele>1047</ele>
        <time>2010-08-15T08:29:50Z</time>
      </trkpt>
      <trkpt lat="43.76778" lon="6.71015">
        <ele>1048</ele>
        <time>2010-08-15T08:29:58Z</time>
      </trkpt>
      <trkpt lat="43.76775" lon="6.71022">
        <ele>1048</ele>
        <time>2010-08-15T08:30:03Z</time>
      </trkpt>
      <trkpt lat="43.7677" lon="6.71032">
        <ele>1047</ele>
        <time>2010-08-15T08:30:10Z</time>
      </trkpt>
      <trkpt lat="43.76769" lon="6.71033">
        <ele>1050</ele>
        <time>2010-08-15T08:30:11Z</time>
      </trkpt>
      <trkpt lat="43.76766" lon="6.71044">
        <ele>1048</ele>
        <time>2010-08-15T08:30:17Z</time>
      </trkpt>
      <trkpt lat="43.76762" lon="6.71055">
        <ele>1047</ele>
        <time>2010-08-15T08:30:24Z</time>
      </trkpt>
      <trkpt lat="43.76756" lon="6.71063">
        <ele>1048</ele>
        <time>2010-08-15T08:30:32Z</time>
      </trkpt>
      <trkpt lat="43.76754" lon="6.71064">
        <ele>1048</ele>
        <time>2010-08-15T08:30:34Z</time>
      </trkpt>
      <trkpt lat="43.76749" lon="6.71069">
        <ele>1049</ele>
        <time>2010-08-15T08:30:41Z</time>
      </trkpt>
      <trkpt lat="43.7675" lon="6.71069">
        <ele>1046</ele>
        <time>2010-08-15T08:30:42Z</time>
      </trkpt>
      <trkpt lat="43.76751" lon="6.71069">
        <ele>1048</ele>
        <time>2010-08-15T08:30:43Z</time>
      </trkpt>
      <trkpt lat="43.7675" lon="6.71071">
        <ele>1049</ele>
        <time>2010-08-15T08:30:52Z</time>
      </trkpt>
      <trkpt lat="43.76747" lon="6.71073">
        <ele>1046</ele>
        <time>2010-08-15T08:30:55Z</time>
      </trkpt>
      <trkpt lat="43.76745" lon="6.71074">
        <ele>1045</ele>
        <time>2010-08-15T08:30:57Z</time>
      </trkpt>
      <trkpt lat="43.76744" lon="6.71076">
        <ele>1046</ele>
        <time>2010-08-15T08:30:59Z</time>
      </trkpt>
      <trkpt lat="43.76741" lon="6.71081">
        <ele>1047</ele>
        <time>2010-08-15T08:31:02Z</time>
      </trkpt>
      <trkpt lat="43.76739" lon="6.71089">
        <ele>1047</ele>
        <time>2010-08-15T08:31:06Z</time>
      </trkpt>
      <trkpt lat="43.76738" lon="6.71096">
        <ele>1047</ele>
        <time>2010-08-15T08:31:10Z</time>
      </trkpt>
      <trkpt lat="43.76737" lon="6.71099">
        <ele>1044</ele>
        <time>2010-08-15T08:31:12Z</time>
      </trkpt>
      <trkpt lat="43.76736" lon="6.71101">
        <ele>1046</ele>
        <time>2010-08-15T08:31:13Z</time>
      </trkpt>
      <trkpt lat="43.76735" lon="6.71103">
        <ele>1050</ele>
        <time>2010-08-15T08:31:15Z</time>
      </trkpt>
      <trkpt lat="43.76732" lon="6.71109">
        <ele>1050</ele>
        <time>2010-08-15T08:31:19Z</time>
      </trkpt>
      <trkpt lat="43.7673" lon="6.71112">
        <ele>1047</ele>
        <time>2010-08-15T08:31:22Z</time>
      </trkpt>
      <trkpt lat="43.7673" lon="6.71116">
        <ele>1048</ele>
        <time>2010-08-15T08:31:25Z</time>
      </trkpt>
      <trkpt lat="43.76729" lon="6.7112">
        <ele>1044</ele>
        <time>2010-08-15T08:31:27Z</time>
      </trkpt>
      <trkpt lat="43.76728" lon="6.71121">
        <ele>1046</ele>
        <time>2010-08-15T08:31:28Z</time>
      </trkpt>
      <trkpt lat="43.76728" lon="6.71124">
        <ele>1047</ele>
        <time>2010-08-15T08:31:30Z</time>
      </trkpt>
      <trkpt lat="43.76724" lon="6.71131">
        <ele>1048</ele>
        <time>2010-08-15T08:31:36Z</time>
      </trkpt>
      <trkpt lat="43.76721" lon="6.71134">
        <ele>1047</ele>
        <time>2010-08-15T08:31:40Z</time>
      </trkpt>
      <trkpt lat="43.76721" lon="6.71134">
        <ele>1048</ele>
        <time>2010-08-15T08:31:41Z</time>
      </trkpt>
      <trkpt lat="43.76715" lon="6.71138">
        <ele>1047</ele>
        <time>2010-08-15T08:31:48Z</time>
      </trkpt>
      <trkpt lat="43.76715" lon="6.71138">
        <ele>1048</ele>
        <time>2010-08-15T08:31:49Z</time>
      </trkpt>
      <trkpt lat="43.76709" lon="6.71142">
        <ele>1047</ele>
        <time>2010-08-15T08:31:55Z</time>
      </trkpt>
      <trkpt lat="43.76705" lon="6.71148">
        <ele>1047</ele>
        <time>2010-08-15T08:32:00Z</time>
      </trkpt>
      <trkpt lat="43.76704" lon="6.71153">
        <ele>1051</ele>
        <time>2010-08-15T08:32:03Z</time>
      </trkpt>
      <trkpt lat="43.76702" lon="6.71159">
        <ele>1048</ele>
        <time>2010-08-15T08:32:07Z</time>
      </trkpt>
      <trkpt lat="43.767" lon="6.71166">
        <ele>1048</ele>
        <time>2010-08-15T08:32:12Z</time>
      </trkpt>
      <trkpt lat="43.76696" lon="6.71172">
        <ele>1049</ele>
        <time>2010-08-15T08:32:18Z</time>
      </trkpt>
      <trkpt lat="43.76691" lon="6.71179">
        <ele>1050</ele>
        <time>2010-08-15T08:32:26Z</time>
      </trkpt>
      <trkpt lat="43.76689" lon="6.71182">
        <ele>1048</ele>
        <time>2010-08-15T08:32:32Z</time>
      </trkpt>
      <trkpt lat="43.76689" lon="6.71183">
        <ele>1051</ele>
        <time>2010-08-15T08:32:33Z</time>
      </trkpt>
      <trkpt lat="43.76688" lon="6.71184">
        <ele>1047</ele>
        <time>2010-08-15T08:32:34Z</time>
      </trkpt>
      <trkpt lat="43.76688" lon="6.71184">
        <ele>1052</ele>
        <time>2010-08-15T08:32:36Z</time>
      </trkpt>
      <trkpt lat="43.76688" lon="6.71184">
        <ele>1047</ele>
        <time>2010-08-15T08:32:37Z</time>
      </trkpt>
      <trkpt lat="43.76686" lon="6.71191">
        <ele>1049</ele>
        <time>2010-08-15T08:32:42Z</time>
      </trkpt>
      <trkpt lat="43.76685" lon="6.712">
        <ele>1050</ele>
        <time>2010-08-15T08:32:48Z</time>
      </trkpt>
      <trkpt lat="43.76682" lon="6.71209">
        <ele>1047</ele>
        <time>2010-08-15T08:32:53Z</time>
      </trkpt>
      <trkpt lat="43.76677" lon="6.71214">
        <ele>1052</ele>
        <time>2010-08-15T08:32:58Z</time>
      </trkpt>
      <trkpt lat="43.76671" lon="6.71218">
        <ele>1052</ele>
        <time>2010-08-15T08:33:04Z</time>
      </trkpt>
      <trkpt lat="43.76668" lon="6.71219">
        <ele>1050</ele>
        <time>2010-08-15T08:33:07Z</time>
      </trkpt>
      <trkpt lat="43.76666" lon="6.71221">
        <ele>1052</ele>
        <time>2010-08-15T08:33:09Z</time>
      </trkpt>
      <trkpt lat="43.76656" lon="6.71224">
        <ele>1051</ele>
        <time>2010-08-15T08:33:17Z</time>
      </trkpt>
      <trkpt lat="43.7665" lon="6.71226">
        <ele>1053</ele>
        <time>2010-08-15T08:33:22Z</time>
      </trkpt>
      <trkpt lat="43.76643" lon="6.71229">
        <ele>1053</ele>
        <time>2010-08-15T08:33:28Z</time>
      </trkpt>
      <trkpt lat="43.76635" lon="6.71232">
        <ele>1052</ele>
        <time>2010-08-15T08:33:35Z</time>
      </trkpt>
      <trkpt lat="43.76633" lon="6.71233">
        <ele>1054</ele>
        <time>2010-08-15T08:33:37Z</time>
      </trkpt>
      <trkpt lat="43.7663" lon="6.71232">
        <ele>1050</ele>
        <time>2010-08-15T08:33:39Z</time>
      </trkpt>
      <trkpt lat="43.76628" lon="6.71231">
        <ele>1051</ele>
        <time>2010-08-15T08:33:40Z</time>
      </trkpt>
      <trkpt lat="43.76622" lon="6.71229">
        <ele>1056</ele>
        <time>2010-08-15T08:33:46Z</time>
      </trkpt>
      <trkpt lat="43.76621" lon="6.71229">
        <ele>1051</ele>
        <time>2010-08-15T08:33:47Z</time>
      </trkpt>
      <trkpt lat="43.76617" lon="6.71229">
        <ele>1053</ele>
        <time>2010-08-15T08:33:51Z</time>
      </trkpt>
      <trkpt lat="43.76612" lon="6.71228">
        <ele>1054</ele>
        <time>2010-08-15T08:33:56Z</time>
      </trkpt>
      <trkpt lat="43.76609" lon="6.71228">
        <ele>1053</ele>
        <time>2010-08-15T08:33:58Z</time>
      </trkpt>
      <trkpt lat="43.76604" lon="6.71228">
        <ele>1054</ele>
        <time>2010-08-15T08:34:02Z</time>
      </trkpt>
      <trkpt lat="43.76596" lon="6.71227">
        <ele>1053</ele>
        <time>2010-08-15T08:34:10Z</time>
      </trkpt>
      <trkpt lat="43.76593" lon="6.71227">
        <ele>1057</ele>
        <time>2010-08-15T08:34:13Z</time>
      </trkpt>
      <trkpt lat="43.76592" lon="6.71227">
        <ele>1053</ele>
        <time>2010-08-15T08:34:14Z</time>
      </trkpt>
      <trkpt lat="43.76587" lon="6.71226">
        <ele>1057</ele>
        <time>2010-08-15T08:34:19Z</time>
      </trkpt>
      <trkpt lat="43.76586" lon="6.71226">
        <ele>1052</ele>
        <time>2010-08-15T08:34:20Z</time>
      </trkpt>
      <trkpt lat="43.7658" lon="6.71225">
        <ele>1054</ele>
        <time>2010-08-15T08:34:25Z</time>
      </trkpt>
      <trkpt lat="43.76569" lon="6.71226">
        <ele>1052</ele>
        <time>2010-08-15T08:34:34Z</time>
      </trkpt>
      <trkpt lat="43.76566" lon="6.71227">
        <ele>1054</ele>
        <time>2010-08-15T08:34:37Z</time>
      </trkpt>
      <trkpt lat="43.76564" lon="6.71228">
        <ele>1052</ele>
        <time>2010-08-15T08:34:39Z</time>
      </trkpt>
      <trkpt lat="43.76562" lon="6.71228">
        <ele>1053</ele>
        <time>2010-08-15T08:34:41Z</time>
      </trkpt>
      <trkpt lat="43.76555" lon="6.71231">
        <ele>1053</ele>
        <time>2010-08-15T08:34:47Z</time>
      </trkpt>
      <trkpt lat="43.76549" lon="6.71233">
        <ele>1055</ele>
        <time>2010-08-15T08:34:54Z</time>
      </trkpt>
      <trkpt lat="43.76544" lon="6.71237">
        <ele>1054</ele>
        <time>2010-08-15T08:35:01Z</time>
      </trkpt>
      <trkpt lat="43.76541" lon="6.71237">
        <ele>1056</ele>
        <time>2010-08-15T08:35:05Z</time>
      </trkpt>
      <trkpt lat="43.7654" lon="6.71238">
        <ele>1053</ele>
        <time>2010-08-15T08:35:09Z</time>
      </trkpt>
      <trkpt lat="43.76537" lon="6.71239">
        <ele>1057</ele>
        <time>2010-08-15T08:35:11Z</time>
      </trkpt>
      <trkpt lat="43.76536" lon="6.71239">
        <ele>1054</ele>
        <time>2010-08-15T08:35:12Z</time>
      </trkpt>
      <trkpt lat="43.7653" lon="6.71236">
        <ele>1057</ele>
        <time>2010-08-15T08:35:18Z</time>
      </trkpt>
      <trkpt lat="43.76527" lon="6.71234">
        <ele>1055</ele>
        <time>2010-08-15T08:35:21Z</time>
      </trkpt>
      <trkpt lat="43.76519" lon="6.7123">
        <ele>1054</ele>
        <time>2010-08-15T08:35:29Z</time>
      </trkpt>
      <trkpt lat="43.76515" lon="6.71227">
        <ele>1059</ele>
        <time>2010-08-15T08:35:33Z</time>
      </trkpt>
      <trkpt lat="43.76514" lon="6.71227">
        <ele>1058</ele>
        <time>2010-08-15T08:35:34Z</time>
      </trkpt>
      <trkpt lat="43.76512" lon="6.71225">
        <ele>1056</ele>
        <time>2010-08-15T08:35:36Z</time>
      </trkpt>
      <trkpt lat="43.76507" lon="6.71221">
        <ele>1056</ele>
        <time>2010-08-15T08:35:41Z</time>
      </trkpt>
      <trkpt lat="43.76501" lon="6.71217">
        <ele>1056</ele>
        <time>2010-08-15T08:35:47Z</time>
      </trkpt>
      <trkpt lat="43.76499" lon="6.71215">
        <ele>1057</ele>
        <time>2010-08-15T08:35:49Z</time>
      </trkpt>
      <trkpt lat="43.76496" lon="6.71212">
        <ele>1056</ele>
        <time>2010-08-15T08:35:52Z</time>
      </trkpt>
      <trkpt lat="43.76493" lon="6.71209">
        <ele>1056</ele>
        <time>2010-08-15T08:35:55Z</time>
      </trkpt>
      <trkpt lat="43.76489" lon="6.71205">
        <ele>1055</ele>
        <time>2010-08-15T08:35:59Z</time>
      </trkpt>
      <trkpt lat="43.76481" lon="6.71199">
        <ele>1054</ele>
        <time>2010-08-15T08:36:08Z</time>
      </trkpt>
      <trkpt lat="43.7648" lon="6.71198">
        <ele>1054</ele>
        <time>2010-08-15T08:36:09Z</time>
      </trkpt>
      <trkpt lat="43.76477" lon="6.71196">
        <ele>1055</ele>
        <time>2010-08-15T08:36:12Z</time>
      </trkpt>
      <trkpt lat="43.76475" lon="6.71195">
        <ele>1057</ele>
        <time>2010-08-15T08:36:13Z</time>
      </trkpt>
      <trkpt lat="43.76471" lon="6.71189">
        <ele>1058</ele>
        <time>2010-08-15T08:36:17Z</time>
      </trkpt>
      <trkpt lat="43.76465" lon="6.71185">
        <ele>1055</ele>
        <time>2010-08-15T08:36:23Z</time>
      </trkpt>
      <trkpt lat="43.76463" lon="6.71184">
        <ele>1055</ele>
        <time>2010-08-15T08:36:24Z</time>
      </trkpt>
      <trkpt lat="43.76458" lon="6.71181">
        <ele>1057</ele>
        <time>2010-08-15T08:36:29Z</time>
      </trkpt>
      <trkpt lat="43.76447" lon="6.71173">
        <ele>1056</ele>
        <time>2010-08-15T08:36:38Z</time>
      </trkpt>
      <trkpt lat="43.76439" lon="6.71167">
        <ele>1057</ele>
        <time>2010-08-15T08:36:47Z</time>
      </trkpt>
      <trkpt lat="43.76432" lon="6.71159">
        <ele>1057</ele>
        <time>2010-08-15T08:36:55Z</time>
      </trkpt>
      <trkpt lat="43.76431" lon="6.71159">
        <ele>1057</ele>
        <time>2010-08-15T08:36:56Z</time>
      </trkpt>
      <trkpt lat="43.76427" lon="6.71158">
        <ele>1057</ele>
        <time>2010-08-15T08:36:59Z</time>
      </trkpt>
      <trkpt lat="43.7642" lon="6.71153">
        <ele>1057</ele>
        <time>2010-08-15T08:37:06Z</time>
      </trkpt>
      <trkpt lat="43.76414" lon="6.7115">
        <ele>1057</ele>
        <time>2010-08-15T08:37:12Z</time>
      </trkpt>
      <trkpt lat="43.76408" lon="6.71143">
        <ele>1058</ele>
        <time>2010-08-15T08:37:18Z</time>
      </trkpt>
      <trkpt lat="43.76404" lon="6.71138">
        <ele>1058</ele>
        <time>2010-08-15T08:37:25Z</time>
      </trkpt>
      <trkpt lat="43.764" lon="6.71133">
        <ele>1059</ele>
        <time>2010-08-15T08:37:45Z</time>
      </trkpt>
      <trkpt lat="43.76393" lon="6.71127">
        <ele>1059</ele>
        <time>2010-08-15T08:37:52Z</time>
      </trkpt>
      <trkpt lat="43.76392" lon="6.71125">
        <ele>1059</ele>
        <time>2010-08-15T08:38:00Z</time>
      </trkpt>
      <trkpt lat="43.76391" lon="6.71119">
        <ele>1060</ele>
        <time>2010-08-15T08:38:14Z</time>
      </trkpt>
      <trkpt lat="43.76386" lon="6.71111">
        <ele>1062</ele>
        <time>2010-08-15T08:38:20Z</time>
      </trkpt>
      <trkpt lat="43.7638" lon="6.71107">
        <ele>1060</ele>
        <time>2010-08-15T08:38:24Z</time>
      </trkpt>
      <trkpt lat="43.76377" lon="6.71104">
        <ele>1058</ele>
        <time>2010-08-15T08:38:27Z</time>
      </trkpt>
      <trkpt lat="43.76372" lon="6.71101">
        <ele>1060</ele>
        <time>2010-08-15T08:38:31Z</time>
      </trkpt>
      <trkpt lat="43.76367" lon="6.71097">
        <ele>1063</ele>
        <time>2010-08-15T08:38:36Z</time>
      </trkpt>
      <trkpt lat="43.76364" lon="6.71094">
        <ele>1060</ele>
        <time>2010-08-15T08:38:39Z</time>
      </trkpt>
      <trkpt lat="43.76354" lon="6.71084">
        <ele>1060</ele>
        <time>2010-08-15T08:38:49Z</time>
      </trkpt>
      <trkpt lat="43.76345" lon="6.71074">
        <ele>1059</ele>
        <time>2010-08-15T08:38:58Z</time>
      </trkpt>
      <trkpt lat="43.76342" lon="6.71071">
        <ele>1061</ele>
        <time>2010-08-15T08:39:01Z</time>
      </trkpt>
      <trkpt lat="43.76333" lon="6.71063">
        <ele>1060</ele>
        <time>2010-08-15T08:39:11Z</time>
      </trkpt>
      <trkpt lat="43.76332" lon="6.71062">
        <ele>1060</ele>
        <time>2010-08-15T08:39:12Z</time>
      </trkpt>
      <trkpt lat="43.76327" lon="6.71055">
        <ele>1061</ele>
        <time>2010-08-15T08:39:18Z</time>
      </trkpt>
      <trkpt lat="43.76322" lon="6.71053">
        <ele>1061</ele>
        <time>2010-08-15T08:39:23Z</time>
      </trkpt>
      <trkpt lat="43.76317" lon="6.71045">
        <ele>1060</ele>
        <time>2010-08-15T08:39:31Z</time>
      </trkpt>
      <trkpt lat="43.76316" lon="6.71045">
        <ele>1060</ele>
        <time>2010-08-15T08:39:39Z</time>
      </trkpt>
      <trkpt lat="43.76316" lon="6.71045">
        <ele>1061</ele>
        <time>2010-08-15T08:39:53Z</time>
      </trkpt>
      <trkpt lat="43.76316" lon="6.71044">
        <ele>1061</ele>
        <time>2010-08-15T08:40:32Z</time>
      </trkpt>
      <trkpt lat="43.76312" lon="6.71038">
        <ele>1058</ele>
        <time>2010-08-15T08:40:36Z</time>
      </trkpt>
      <trkpt lat="43.76311" lon="6.71033">
        <ele>1062</ele>
        <time>2010-08-15T08:40:40Z</time>
      </trkpt>
      <trkpt lat="43.76309" lon="6.7102">
        <ele>1060</ele>
        <time>2010-08-15T08:40:48Z</time>
      </trkpt>
      <trkpt lat="43.76309" lon="6.71015">
        <ele>1061</ele>
        <time>2010-08-15T08:40:51Z</time>
      </trkpt>
      <trkpt lat="43.76306" lon="6.71007">
        <ele>1064</ele>
        <time>2010-08-15T08:40:56Z</time>
      </trkpt>
      <trkpt lat="43.76305" lon="6.70994">
        <ele>1064</ele>
        <time>2010-08-15T08:41:04Z</time>
      </trkpt>
      <trkpt lat="43.76301" lon="6.70981">
        <ele>1064</ele>
        <time>2010-08-15T08:41:12Z</time>
      </trkpt>
      <trkpt lat="43.763" lon="6.70974">
        <ele>1065</ele>
        <time>2010-08-15T08:41:17Z</time>
      </trkpt>
      <trkpt lat="43.76296" lon="6.70958">
        <ele>1068</ele>
        <time>2010-08-15T08:41:27Z</time>
      </trkpt>
      <trkpt lat="43.76294" lon="6.70946">
        <ele>1066</ele>
        <time>2010-08-15T08:41:34Z</time>
      </trkpt>
      <trkpt lat="43.76291" lon="6.7093">
        <ele>1068</ele>
        <time>2010-08-15T08:41:44Z</time>
      </trkpt>
      <trkpt lat="43.76289" lon="6.70918">
        <ele>1068</ele>
        <time>2010-08-15T08:41:52Z</time>
      </trkpt>
      <trkpt lat="43.76288" lon="6.70906">
        <ele>1068</ele>
        <time>2010-08-15T08:41:59Z</time>
      </trkpt>
      <trkpt lat="43.76286" lon="6.70899">
        <ele>1069</ele>
        <time>2010-08-15T08:42:03Z</time>
      </trkpt>
      <trkpt lat="43.76284" lon="6.70891">
        <ele>1068</ele>
        <time>2010-08-15T08:42:08Z</time>
      </trkpt>
      <trkpt lat="43.76278" lon="6.70878">
        <ele>1069</ele>
        <time>2010-08-15T08:42:18Z</time>
      </trkpt>
      <trkpt lat="43.76276" lon="6.70877">
        <ele>1068</ele>
        <time>2010-08-15T08:42:19Z</time>
      </trkpt>
      <trkpt lat="43.7627" lon="6.70868">
        <ele>1068</ele>
        <time>2010-08-15T08:42:27Z</time>
      </trkpt>
      <trkpt lat="43.76262" lon="6.70856">
        <ele>1069</ele>
        <time>2010-08-15T08:42:36Z</time>
      </trkpt>
      <trkpt lat="43.76254" lon="6.70846">
        <ele>1069</ele>
        <time>2010-08-15T08:42:44Z</time>
      </trkpt>
      <trkpt lat="43.76248" lon="6.70836">
        <ele>1068</ele>
        <time>2010-08-15T08:42:51Z</time>
      </trkpt>
      <trkpt lat="43.76242" lon="6.70827">
        <ele>1071</ele>
        <time>2010-08-15T08:42:58Z</time>
      </trkpt>
      <trkpt lat="43.7624" lon="6.70823">
        <ele>1069</ele>
        <time>2010-08-15T08:43:01Z</time>
      </trkpt>
      <trkpt lat="43.76237" lon="6.70818">
        <ele>1067</ele>
        <time>2010-08-15T08:43:05Z</time>
      </trkpt>
      <trkpt lat="43.76232" lon="6.7081">
        <ele>1072</ele>
        <time>2010-08-15T08:43:11Z</time>
      </trkpt>
      <trkpt lat="43.76232" lon="6.70808">
        <ele>1071</ele>
        <time>2010-08-15T08:43:12Z</time>
      </trkpt>
      <trkpt lat="43.7623" lon="6.70805">
        <ele>1070</ele>
        <time>2010-08-15T08:43:14Z</time>
      </trkpt>
      <trkpt lat="43.76224" lon="6.70798">
        <ele>1068</ele>
        <time>2010-08-15T08:43:21Z</time>
      </trkpt>
      <trkpt lat="43.76219" lon="6.70791">
        <ele>1067</ele>
        <time>2010-08-15T08:43:26Z</time>
      </trkpt>
      <trkpt lat="43.76216" lon="6.70786">
        <ele>1070</ele>
        <time>2010-08-15T08:43:30Z</time>
      </trkpt>
      <trkpt lat="43.76211" lon="6.70781">
        <ele>1068</ele>
        <time>2010-08-15T08:43:34Z</time>
      </trkpt>
      <trkpt lat="43.76204" lon="6.70772">
        <ele>1068</ele>
        <time>2010-08-15T08:43:42Z</time>
      </trkpt>
      <trkpt lat="43.76194" lon="6.70758">
        <ele>1068</ele>
        <time>2010-08-15T08:43:53Z</time>
      </trkpt>
      <trkpt lat="43.76192" lon="6.70753">
        <ele>1069</ele>
        <time>2010-08-15T08:43:56Z</time>
      </trkpt>
      <trkpt lat="43.76191" lon="6.7075">
        <ele>1070</ele>
        <time>2010-08-15T08:43:58Z</time>
      </trkpt>
      <trkpt lat="43.76185" lon="6.70742">
        <ele>1069</ele>
        <time>2010-08-15T08:44:04Z</time>
      </trkpt>
      <trkpt lat="43.76177" lon="6.70729">
        <ele>1069</ele>
        <time>2010-08-15T08:44:13Z</time>
      </trkpt>
      <trkpt lat="43.76172" lon="6.70719">
        <ele>1069</ele>
        <time>2010-08-15T08:44:20Z</time>
      </trkpt>
      <trkpt lat="43.76171" lon="6.70716">
        <ele>1067</ele>
        <time>2010-08-15T08:44:22Z</time>
      </trkpt>
      <trkpt lat="43.76165" lon="6.70704">
        <ele>1070</ele>
        <time>2010-08-15T08:44:30Z</time>
      </trkpt>
      <trkpt lat="43.76162" lon="6.70697">
        <ele>1068</ele>
        <time>2010-08-15T08:44:35Z</time>
      </trkpt>
      <trkpt lat="43.76157" lon="6.70684">
        <ele>1068</ele>
        <time>2010-08-15T08:44:44Z</time>
      </trkpt>
      <trkpt lat="43.76151" lon="6.70669">
        <ele>1069</ele>
        <time>2010-08-15T08:44:54Z</time>
      </trkpt>
      <trkpt lat="43.76147" lon="6.70661">
        <ele>1070</ele>
        <time>2010-08-15T08:44:59Z</time>
      </trkpt>
      <trkpt lat="43.7614" lon="6.70647">
        <ele>1072</ele>
        <time>2010-08-15T08:45:09Z</time>
      </trkpt>
      <trkpt lat="43.76135" lon="6.70639">
        <ele>1075</ele>
        <time>2010-08-15T08:45:16Z</time>
      </trkpt>
      <trkpt lat="43.76133" lon="6.70631">
        <ele>1071</ele>
        <time>2010-08-15T08:45:21Z</time>
      </trkpt>
      <trkpt lat="43.76132" lon="6.7063">
        <ele>1068</ele>
        <time>2010-08-15T08:45:22Z</time>
      </trkpt>
      <trkpt lat="43.76131" lon="6.70629">
        <ele>1068</ele>
        <time>2010-08-15T08:45:23Z</time>
      </trkpt>
      <trkpt lat="43.76131" lon="6.70627">
        <ele>1073</ele>
        <time>2010-08-15T08:45:24Z</time>
      </trkpt>
      <trkpt lat="43.76129" lon="6.70625">
        <ele>1074</ele>
        <time>2010-08-15T08:45:26Z</time>
      </trkpt>
      <trkpt lat="43.76124" lon="6.70616">
        <ele>1074</ele>
        <time>2010-08-15T08:45:33Z</time>
      </trkpt>
      <trkpt lat="43.76123" lon="6.70613">
        <ele>1073</ele>
        <time>2010-08-15T08:45:35Z</time>
      </trkpt>
      <trkpt lat="43.76121" lon="6.7061">
        <ele>1072</ele>
        <time>2010-08-15T08:45:38Z</time>
      </trkpt>
      <trkpt lat="43.7612" lon="6.7061">
        <ele>1073</ele>
        <time>2010-08-15T08:45:46Z</time>
      </trkpt>
      <trkpt lat="43.76114" lon="6.70603">
        <ele>1073</ele>
        <time>2010-08-15T08:46:05Z</time>
      </trkpt>
      <trkpt lat="43.76114" lon="6.70602">
        <ele>1074</ele>
        <time>2010-08-15T08:46:06Z</time>
      </trkpt>
      <trkpt lat="43.76109" lon="6.70595">
        <ele>1073</ele>
        <time>2010-08-15T08:46:14Z</time>
      </trkpt>
      <trkpt lat="43.76107" lon="6.70586">
        <ele>1074</ele>
        <time>2010-08-15T08:46:26Z</time>
      </trkpt>
      <trkpt lat="43.76104" lon="6.70576">
        <ele>1072</ele>
        <time>2010-08-15T08:46:33Z</time>
      </trkpt>
      <trkpt lat="43.76103" lon="6.70573">
        <ele>1078</ele>
        <time>2010-08-15T08:46:35Z</time>
      </trkpt>
      <trkpt lat="43.76102" lon="6.70572">
        <ele>1074</ele>
        <time>2010-08-15T08:46:36Z</time>
      </trkpt>
      <trkpt lat="43.76101" lon="6.70569">
        <ele>1075</ele>
        <time>2010-08-15T08:46:38Z</time>
      </trkpt>
      <trkpt lat="43.76098" lon="6.70559">
        <ele>1077</ele>
        <time>2010-08-15T08:46:46Z</time>
      </trkpt>
      <trkpt lat="43.76097" lon="6.70558">
        <ele>1077</ele>
        <time>2010-08-15T08:46:47Z</time>
      </trkpt>
      <trkpt lat="43.76093" lon="6.70552">
        <ele>1076</ele>
        <time>2010-08-15T08:46:53Z</time>
      </trkpt>
      <trkpt lat="43.7609" lon="6.70549">
        <ele>1081</ele>
        <time>2010-08-15T08:46:56Z</time>
      </trkpt>
      <trkpt lat="43.76089" lon="6.70548">
        <ele>1076</ele>
        <time>2010-08-15T08:46:57Z</time>
      </trkpt>
      <trkpt lat="43.76088" lon="6.70547">
        <ele>1076</ele>
        <time>2010-08-15T08:46:58Z</time>
      </trkpt>
      <trkpt lat="43.76087" lon="6.70545">
        <ele>1080</ele>
        <time>2010-08-15T08:47:00Z</time>
      </trkpt>
      <trkpt lat="43.76081" lon="6.70541">
        <ele>1079</ele>
        <time>2010-08-15T08:47:06Z</time>
      </trkpt>
      <trkpt lat="43.76078" lon="6.7054">
        <ele>1077</ele>
        <time>2010-08-15T08:47:09Z</time>
      </trkpt>
      <trkpt lat="43.76074" lon="6.70538">
        <ele>1079</ele>
        <time>2010-08-15T08:47:13Z</time>
      </trkpt>
      <trkpt lat="43.76072" lon="6.70536">
        <ele>1083</ele>
        <time>2010-08-15T08:47:15Z</time>
      </trkpt>
      <trkpt lat="43.76071" lon="6.70535">
        <ele>1081</ele>
        <time>2010-08-15T08:47:16Z</time>
      </trkpt>
      <trkpt lat="43.76065" lon="6.70534">
        <ele>1078</ele>
        <time>2010-08-15T08:47:22Z</time>
      </trkpt>
      <trkpt lat="43.76062" lon="6.7053">
        <ele>1082</ele>
        <time>2010-08-15T08:47:26Z</time>
      </trkpt>
      <trkpt lat="43.76062" lon="6.70529">
        <ele>1081</ele>
        <time>2010-08-15T08:47:27Z</time>
      </trkpt>
      <trkpt lat="43.76061" lon="6.70528">
        <ele>1080</ele>
        <time>2010-08-15T08:47:28Z</time>
      </trkpt>
      <trkpt lat="43.76059" lon="6.70524">
        <ele>1083</ele>
        <time>2010-08-15T08:47:31Z</time>
      </trkpt>
      <trkpt lat="43.76058" lon="6.70523">
        <ele>1083</ele>
        <time>2010-08-15T08:47:32Z</time>
      </trkpt>
      <trkpt lat="43.76053" lon="6.70509">
        <ele>1082</ele>
        <time>2010-08-15T08:47:41Z</time>
      </trkpt>
      <trkpt lat="43.76052" lon="6.70507">
        <ele>1084</ele>
        <time>2010-08-15T08:47:43Z</time>
      </trkpt>
      <trkpt lat="43.76049" lon="6.70498">
        <ele>1084</ele>
        <time>2010-08-15T08:47:50Z</time>
      </trkpt>
      <trkpt lat="43.76046" lon="6.7049">
        <ele>1083</ele>
        <time>2010-08-15T08:47:55Z</time>
      </trkpt>
      <trkpt lat="43.76043" lon="6.7048">
        <ele>1083</ele>
        <time>2010-08-15T08:48:02Z</time>
      </trkpt>
      <trkpt lat="43.76042" lon="6.70478">
        <ele>1084</ele>
        <time>2010-08-15T08:48:03Z</time>
      </trkpt>
      <trkpt lat="43.76038" lon="6.70463">
        <ele>1085</ele>
        <time>2010-08-15T08:48:11Z</time>
      </trkpt>
      <trkpt lat="43.76033" lon="6.70447">
        <ele>1085</ele>
        <time>2010-08-15T08:48:20Z</time>
      </trkpt>
      <trkpt lat="43.76033" lon="6.70442">
        <ele>1087</ele>
        <time>2010-08-15T08:48:23Z</time>
      </trkpt>
      <trkpt lat="43.76034" lon="6.7044">
        <ele>1087</ele>
        <time>2010-08-15T08:48:25Z</time>
      </trkpt>
      <trkpt lat="43.76033" lon="6.70425">
        <ele>1088</ele>
        <time>2010-08-15T08:48:34Z</time>
      </trkpt>
      <trkpt lat="43.76032" lon="6.70412">
        <ele>1089</ele>
        <time>2010-08-15T08:48:43Z</time>
      </trkpt>
      <trkpt lat="43.76031" lon="6.70406">
        <ele>1089</ele>
        <time>2010-08-15T08:48:47Z</time>
      </trkpt>
      <trkpt lat="43.76032" lon="6.70402">
        <ele>1090</ele>
        <time>2010-08-15T08:48:50Z</time>
      </trkpt>
      <trkpt lat="43.76031" lon="6.70396">
        <ele>1091</ele>
        <time>2010-08-15T08:48:54Z</time>
      </trkpt>
      <trkpt lat="43.76029" lon="6.7039">
        <ele>1091</ele>
        <time>2010-08-15T08:49:03Z</time>
      </trkpt>
      <trkpt lat="43.76029" lon="6.70389">
        <ele>1091</ele>
        <time>2010-08-15T08:49:10Z</time>
      </trkpt>
      <trkpt lat="43.76029" lon="6.70382">
        <ele>1091</ele>
        <time>2010-08-15T08:49:55Z</time>
      </trkpt>
      <trkpt lat="43.76029" lon="6.70372">
        <ele>1092</ele>
        <time>2010-08-15T08:50:02Z</time>
      </trkpt>
      <trkpt lat="43.76029" lon="6.7036">
        <ele>1094</ele>
        <time>2010-08-15T08:50:10Z</time>
      </trkpt>
      <trkpt lat="43.76029" lon="6.70359">
        <ele>1093</ele>
        <time>2010-08-15T08:50:11Z</time>
      </trkpt>
      <trkpt lat="43.76028" lon="6.70352">
        <ele>1094</ele>
        <time>2010-08-15T08:50:16Z</time>
      </trkpt>
      <trkpt lat="43.76028" lon="6.70349">
        <ele>1095</ele>
        <time>2010-08-15T08:50:18Z</time>
      </trkpt>
      <trkpt lat="43.76028" lon="6.70341">
        <ele>1096</ele>
        <time>2010-08-15T08:50:25Z</time>
      </trkpt>
      <trkpt lat="43.76031" lon="6.70335">
        <ele>1096</ele>
        <time>2010-08-15T08:50:31Z</time>
      </trkpt>
      <trkpt lat="43.76037" lon="6.7033">
        <ele>1098</ele>
        <time>2010-08-15T08:50:38Z</time>
      </trkpt>
      <trkpt lat="43.76038" lon="6.7033">
        <ele>1097</ele>
        <time>2010-08-15T08:50:39Z</time>
      </trkpt>
      <trkpt lat="43.76042" lon="6.70332">
        <ele>1099</ele>
        <time>2010-08-15T08:50:42Z</time>
      </trkpt>
      <trkpt lat="43.76043" lon="6.70334">
        <ele>1097</ele>
        <time>2010-08-15T08:50:44Z</time>
      </trkpt>
      <trkpt lat="43.76046" lon="6.70335">
        <ele>1100</ele>
        <time>2010-08-15T08:50:47Z</time>
      </trkpt>
      <trkpt lat="43.76051" lon="6.70326">
        <ele>1101</ele>
        <time>2010-08-15T08:50:56Z</time>
      </trkpt>
      <trkpt lat="43.7605" lon="6.70325">
        <ele>1101</ele>
        <time>2010-08-15T08:50:57Z</time>
      </trkpt>
      <trkpt lat="43.76052" lon="6.70318">
        <ele>1102</ele>
        <time>2010-08-15T08:51:04Z</time>
      </trkpt>
      <trkpt lat="43.76052" lon="6.70314">
        <ele>1103</ele>
        <time>2010-08-15T08:51:09Z</time>
      </trkpt>
      <trkpt lat="43.7605" lon="6.70307">
        <ele>1106</ele>
        <time>2010-08-15T08:51:17Z</time>
      </trkpt>
      <trkpt lat="43.76047" lon="6.703">
        <ele>1106</ele>
        <time>2010-08-15T08:51:26Z</time>
      </trkpt>
      <trkpt lat="43.76046" lon="6.70294">
        <ele>1107</ele>
        <time>2010-08-15T08:51:32Z</time>
      </trkpt>
      <trkpt lat="43.76043" lon="6.70288">
        <ele>1107</ele>
        <time>2010-08-15T08:51:39Z</time>
      </trkpt>
      <trkpt lat="43.76042" lon="6.70282">
        <ele>1109</ele>
        <time>2010-08-15T08:51:45Z</time>
      </trkpt>
      <trkpt lat="43.76041" lon="6.7027">
        <ele>1107</ele>
        <time>2010-08-15T08:51:54Z</time>
      </trkpt>
      <trkpt lat="43.76039" lon="6.70261">
        <ele>1108</ele>
        <time>2010-08-15T08:52:01Z</time>
      </trkpt>
      <trkpt lat="43.76037" lon="6.70253">
        <ele>1108</ele>
        <time>2010-08-15T08:52:08Z</time>
      </trkpt>
      <trkpt lat="43.76035" lon="6.70245">
        <ele>1108</ele>
        <time>2010-08-15T08:52:15Z</time>
      </trkpt>
      <trkpt lat="43.76035" lon="6.70237">
        <ele>1109</ele>
        <time>2010-08-15T08:52:21Z</time>
      </trkpt>
      <trkpt lat="43.76034" lon="6.70227">
        <ele>1111</ele>
        <time>2010-08-15T08:52:29Z</time>
      </trkpt>
      <trkpt lat="43.76032" lon="6.70217">
        <ele>1110</ele>
        <time>2010-08-15T08:52:37Z</time>
      </trkpt>
      <trkpt lat="43.76031" lon="6.70207">
        <ele>1109</ele>
        <time>2010-08-15T08:52:44Z</time>
      </trkpt>
      <trkpt lat="43.76029" lon="6.70202">
        <ele>1110</ele>
        <time>2010-08-15T08:52:47Z</time>
      </trkpt>
      <trkpt lat="43.76029" lon="6.70197">
        <ele>1110</ele>
        <time>2010-08-15T08:52:50Z</time>
      </trkpt>
      <trkpt lat="43.76031" lon="6.70192">
        <ele>1112</ele>
        <time>2010-08-15T08:52:53Z</time>
      </trkpt>
      <trkpt lat="43.7603" lon="6.70188">
        <ele>1111</ele>
        <time>2010-08-15T08:52:56Z</time>
      </trkpt>
      <trkpt lat="43.76029" lon="6.70175">
        <ele>1113</ele>
        <time>2010-08-15T08:53:04Z</time>
      </trkpt>
      <trkpt lat="43.76029" lon="6.70174">
        <ele>1113</ele>
        <time>2010-08-15T08:53:05Z</time>
      </trkpt>
      <trkpt lat="43.76028" lon="6.70168">
        <ele>1111</ele>
        <time>2010-08-15T08:53:09Z</time>
      </trkpt>
      <trkpt lat="43.76026" lon="6.7016">
        <ele>1115</ele>
        <time>2010-08-15T08:53:15Z</time>
      </trkpt>
      <trkpt lat="43.76028" lon="6.7015">
        <ele>1113</ele>
        <time>2010-08-15T08:53:22Z</time>
      </trkpt>
      <trkpt lat="43.7603" lon="6.70143">
        <ele>1114</ele>
        <time>2010-08-15T08:53:29Z</time>
      </trkpt>
      <trkpt lat="43.76028" lon="6.7014">
        <ele>1115</ele>
        <time>2010-08-15T08:53:38Z</time>
      </trkpt>
      <trkpt lat="43.76028" lon="6.7014">
        <ele>1115</ele>
        <time>2010-08-15T08:53:52Z</time>
      </trkpt>
      <trkpt lat="43.76028" lon="6.70139">
        <ele>1115</ele>
        <time>2010-08-15T08:54:32Z</time>
      </trkpt>
      <trkpt lat="43.76029" lon="6.70139">
        <ele>1115</ele>
        <time>2010-08-15T08:54:41Z</time>
      </trkpt>
      <trkpt lat="43.76029" lon="6.70139">
        <ele>1115</ele>
        <time>2010-08-15T08:54:47Z</time>
      </trkpt>
      <trkpt lat="43.76029" lon="6.70137">
        <ele>1115</ele>
        <time>2010-08-15T08:54:53Z</time>
      </trkpt>
      <trkpt lat="43.76029" lon="6.70136">
        <ele>1115</ele>
        <time>2010-08-15T08:55:02Z</time>
      </trkpt>
      <trkpt lat="43.7603" lon="6.70133">
        <ele>1115</ele>
        <time>2010-08-15T08:55:06Z</time>
      </trkpt>
      <trkpt lat="43.76032" lon="6.70121">
        <ele>1116</ele>
        <time>2010-08-15T08:55:15Z</time>
      </trkpt>
      <trkpt lat="43.76033" lon="6.70117">
        <ele>1117</ele>
        <time>2010-08-15T08:55:20Z</time>
      </trkpt>
      <trkpt lat="43.76035" lon="6.70108">
        <ele>1119</ele>
        <time>2010-08-15T08:55:28Z</time>
      </trkpt>
      <trkpt lat="43.76035" lon="6.70104">
        <ele>1119</ele>
        <time>2010-08-15T08:55:34Z</time>
      </trkpt>
      <trkpt lat="43.76035" lon="6.70095">
        <ele>1120</ele>
        <time>2010-08-15T08:55:42Z</time>
      </trkpt>
      <trkpt lat="43.76035" lon="6.70088">
        <ele>1121</ele>
        <time>2010-08-15T08:55:47Z</time>
      </trkpt>
      <trkpt lat="43.76034" lon="6.70082">
        <ele>1122</ele>
        <time>2010-08-15T08:55:53Z</time>
      </trkpt>
      <trkpt lat="43.76033" lon="6.70078">
        <ele>1122</ele>
        <time>2010-08-15T08:55:56Z</time>
      </trkpt>
      <trkpt lat="43.76033" lon="6.70067">
        <ele>1123</ele>
        <time>2010-08-15T08:56:04Z</time>
      </trkpt>
      <trkpt lat="43.76032" lon="6.70059">
        <ele>1123</ele>
        <time>2010-08-15T08:56:10Z</time>
      </trkpt>
      <trkpt lat="43.76031" lon="6.70052">
        <ele>1124</ele>
        <time>2010-08-15T08:56:17Z</time>
      </trkpt>
      <trkpt lat="43.76031" lon="6.70046">
        <ele>1124</ele>
        <time>2010-08-15T08:56:22Z</time>
      </trkpt>
      <trkpt lat="43.7603" lon="6.70041">
        <ele>1125</ele>
        <time>2010-08-15T08:56:28Z</time>
      </trkpt>
      <trkpt lat="43.76029" lon="6.70033">
        <ele>1126</ele>
        <time>2010-08-15T08:56:34Z</time>
      </trkpt>
      <trkpt lat="43.76029" lon="6.70031">
        <ele>1126</ele>
        <time>2010-08-15T08:56:36Z</time>
      </trkpt>
      <trkpt lat="43.76028" lon="6.70028">
        <ele>1126</ele>
        <time>2010-08-15T08:56:38Z</time>
      </trkpt>
      <trkpt lat="43.76028" lon="6.70024">
        <ele>1127</ele>
        <time>2010-08-15T08:56:42Z</time>
      </trkpt>
      <trkpt lat="43.76027" lon="6.70017">
        <ele>1127</ele>
        <time>2010-08-15T08:56:48Z</time>
      </trkpt>
      <trkpt lat="43.76027" lon="6.7001">
        <ele>1128</ele>
        <time>2010-08-15T08:56:55Z</time>
      </trkpt>
      <trkpt lat="43.76027" lon="6.70002">
        <ele>1129</ele>
        <time>2010-08-15T08:57:03Z</time>
      </trkpt>
      <trkpt lat="43.76028" lon="6.70002">
        <ele>1129</ele>
        <time>2010-08-15T08:57:04Z</time>
      </trkpt>
      <trkpt lat="43.7603" lon="6.70003">
        <ele>1130</ele>
        <time>2010-08-15T08:57:06Z</time>
      </trkpt>
      <trkpt lat="43.76034" lon="6.70008">
        <ele>1131</ele>
        <time>2010-08-15T08:57:13Z</time>
      </trkpt>
      <trkpt lat="43.76038" lon="6.70014">
        <ele>1132</ele>
        <time>2010-08-15T08:57:19Z</time>
      </trkpt>
      <trkpt lat="43.7604" lon="6.70016">
        <ele>1132</ele>
        <time>2010-08-15T08:57:25Z</time>
      </trkpt>
      <trkpt lat="43.76044" lon="6.70019">
        <ele>1133</ele>
        <time>2010-08-15T08:57:31Z</time>
      </trkpt>
      <trkpt lat="43.76044" lon="6.70016">
        <ele>1133</ele>
        <time>2010-08-15T08:57:36Z</time>
      </trkpt>
      <trkpt lat="43.76043" lon="6.70012">
        <ele>1134</ele>
        <time>2010-08-15T08:57:42Z</time>
      </trkpt>
      <trkpt lat="43.76042" lon="6.70006">
        <ele>1134</ele>
        <time>2010-08-15T08:57:48Z</time>
      </trkpt>
      <trkpt lat="43.76041" lon="6.70001">
        <ele>1135</ele>
        <time>2010-08-15T08:57:52Z</time>
      </trkpt>
      <trkpt lat="43.7604" lon="6.69995">
        <ele>1135</ele>
        <time>2010-08-15T08:57:58Z</time>
      </trkpt>
      <trkpt lat="43.76039" lon="6.69988">
        <ele>1136</ele>
        <time>2010-08-15T08:58:04Z</time>
      </trkpt>
      <trkpt lat="43.76039" lon="6.69979">
        <ele>1137</ele>
        <time>2010-08-15T08:58:12Z</time>
      </trkpt>
      <trkpt lat="43.76039" lon="6.69975">
        <ele>1138</ele>
        <time>2010-08-15T08:58:17Z</time>
      </trkpt>
      <trkpt lat="43.76038" lon="6.6997">
        <ele>1138</ele>
        <time>2010-08-15T08:58:23Z</time>
      </trkpt>
      <trkpt lat="43.76038" lon="6.6996">
        <ele>1139</ele>
        <time>2010-08-15T08:58:31Z</time>
      </trkpt>
      <trkpt lat="43.76037" lon="6.69953">
        <ele>1140</ele>
        <time>2010-08-15T08:58:37Z</time>
      </trkpt>
      <trkpt lat="43.76036" lon="6.69949">
        <ele>1141</ele>
        <time>2010-08-15T08:58:42Z</time>
      </trkpt>
      <trkpt lat="43.76035" lon="6.69939">
        <ele>1142</ele>
        <time>2010-08-15T08:58:51Z</time>
      </trkpt>
      <trkpt lat="43.76035" lon="6.69932">
        <ele>1143</ele>
        <time>2010-08-15T08:58:58Z</time>
      </trkpt>
      <trkpt lat="43.76035" lon="6.69932">
        <ele>1143</ele>
        <time>2010-08-15T08:58:59Z</time>
      </trkpt>
      <trkpt lat="43.76034" lon="6.69923">
        <ele>1144</ele>
        <time>2010-08-15T08:59:08Z</time>
      </trkpt>
      <trkpt lat="43.76033" lon="6.69918">
        <ele>1145</ele>
        <time>2010-08-15T08:59:14Z</time>
      </trkpt>
      <trkpt lat="43.76033" lon="6.69913">
        <ele>1146</ele>
        <time>2010-08-15T08:59:20Z</time>
      </trkpt>
      <trkpt lat="43.76033" lon="6.69908">
        <ele>1147</ele>
        <time>2010-08-15T08:59:26Z</time>
      </trkpt>
      <trkpt lat="43.76032" lon="6.69905">
        <ele>1148</ele>
        <time>2010-08-15T08:59:31Z</time>
      </trkpt>
      <trkpt lat="43.76033" lon="6.69899">
        <ele>1148</ele>
        <time>2010-08-15T08:59:38Z</time>
      </trkpt>
      <trkpt lat="43.76033" lon="6.69893">
        <ele>1149</ele>
        <time>2010-08-15T08:59:44Z</time>
      </trkpt>
      <trkpt lat="43.76031" lon="6.69889">
        <ele>1149</ele>
        <time>2010-08-15T08:59:50Z</time>
      </trkpt>
      <trkpt lat="43.7603" lon="6.69885">
        <ele>1149</ele>
        <time>2010-08-15T08:59:54Z</time>
      </trkpt>
      <trkpt lat="43.76031" lon="6.69879">
        <ele>1150</ele>
        <time>2010-08-15T09:00:00Z</time>
      </trkpt>
      <trkpt lat="43.76029" lon="6.69874">
        <ele>1150</ele>
        <time>2010-08-15T09:00:06Z</time>
      </trkpt>
      <trkpt lat="43.76028" lon="6.69866">
        <ele>1151</ele>
        <time>2010-08-15T09:00:13Z</time>
      </trkpt>
      <trkpt lat="43.76027" lon="6.69861">
        <ele>1151</ele>
        <time>2010-08-15T09:00:17Z</time>
      </trkpt>
      <trkpt lat="43.76026" lon="6.69853">
        <ele>1152</ele>
        <time>2010-08-15T09:00:24Z</time>
      </trkpt>
      <trkpt lat="43.76024" lon="6.69847">
        <ele>1153</ele>
        <time>2010-08-15T09:00:30Z</time>
      </trkpt>
      <trkpt lat="43.76024" lon="6.69841">
        <ele>1153</ele>
        <time>2010-08-15T09:00:35Z</time>
      </trkpt>
      <trkpt lat="43.76023" lon="6.69838">
        <ele>1154</ele>
        <time>2010-08-15T09:00:43Z</time>
      </trkpt>
      <trkpt lat="43.76023" lon="6.69838">
        <ele>1154</ele>
        <time>2010-08-15T09:01:02Z</time>
      </trkpt>
      <trkpt lat="43.76022" lon="6.69833">
        <ele>1154</ele>
        <time>2010-08-15T09:01:07Z</time>
      </trkpt>
      <trkpt lat="43.76022" lon="6.69826">
        <ele>1155</ele>
        <time>2010-08-15T09:01:13Z</time>
      </trkpt>
      <trkpt lat="43.76021" lon="6.69818">
        <ele>1156</ele>
        <time>2010-08-15T09:01:20Z</time>
      </trkpt>
      <trkpt lat="43.7602" lon="6.69812">
        <ele>1157</ele>
        <time>2010-08-15T09:01:26Z</time>
      </trkpt>
      <trkpt lat="43.7602" lon="6.69805">
        <ele>1157</ele>
        <time>2010-08-15T09:01:32Z</time>
      </trkpt>
      <trkpt lat="43.76018" lon="6.69797">
        <ele>1158</ele>
        <time>2010-08-15T09:01:40Z</time>
      </trkpt>
      <trkpt lat="43.76017" lon="6.69792">
        <ele>1159</ele>
        <time>2010-08-15T09:01:46Z</time>
      </trkpt>
      <trkpt lat="43.76015" lon="6.69787">
        <ele>1159</ele>
        <time>2010-08-15T09:01:53Z</time>
      </trkpt>
      <trkpt lat="43.76014" lon="6.69781">
        <ele>1160</ele>
        <time>2010-08-15T09:02:00Z</time>
      </trkpt>
      <trkpt lat="43.76012" lon="6.69771">
        <ele>1162</ele>
        <time>2010-08-15T09:02:09Z</time>
      </trkpt>
      <trkpt lat="43.76011" lon="6.69766">
        <ele>1163</ele>
        <time>2010-08-15T09:02:15Z</time>
      </trkpt>
      <trkpt lat="43.7601" lon="6.6976">
        <ele>1164</ele>
        <time>2010-08-15T09:02:21Z</time>
      </trkpt>
      <trkpt lat="43.76008" lon="6.69754">
        <ele>1164</ele>
        <time>2010-08-15T09:02:28Z</time>
      </trkpt>
      <trkpt lat="43.76007" lon="6.69745">
        <ele>1165</ele>
        <time>2010-08-15T09:02:36Z</time>
      </trkpt>
      <trkpt lat="43.76006" lon="6.69738">
        <ele>1166</ele>
        <time>2010-08-15T09:02:43Z</time>
      </trkpt>
      <trkpt lat="43.76004" lon="6.69731">
        <ele>1167</ele>
        <time>2010-08-15T09:02:50Z</time>
      </trkpt>
      <trkpt lat="43.76004" lon="6.69722">
        <ele>1169</ele>
        <time>2010-08-15T09:02:58Z</time>
      </trkpt>
      <trkpt lat="43.76003" lon="6.69715">
        <ele>1169</ele>
        <time>2010-08-15T09:03:04Z</time>
      </trkpt>
      <trkpt lat="43.76001" lon="6.69707">
        <ele>1170</ele>
        <time>2010-08-15T09:03:12Z</time>
      </trkpt>
      <trkpt lat="43.76" lon="6.69701">
        <ele>1171</ele>
        <time>2010-08-15T09:03:17Z</time>
      </trkpt>
      <trkpt lat="43.75999" lon="6.69696">
        <ele>1171</ele>
        <time>2010-08-15T09:03:22Z</time>
      </trkpt>
      <trkpt lat="43.75997" lon="6.69687">
        <ele>1172</ele>
        <time>2010-08-15T09:03:30Z</time>
      </trkpt>
      <trkpt lat="43.75995" lon="6.69681">
        <ele>1172</ele>
        <time>2010-08-15T09:03:36Z</time>
      </trkpt>
      <trkpt lat="43.75995" lon="6.69675">
        <ele>1172</ele>
        <time>2010-08-15T09:03:42Z</time>
      </trkpt>
      <trkpt lat="43.75994" lon="6.69667">
        <ele>1173</ele>
        <time>2010-08-15T09:03:49Z</time>
      </trkpt>
      <trkpt lat="43.75993" lon="6.69661">
        <ele>1174</ele>
        <time>2010-08-15T09:03:55Z</time>
      </trkpt>
      <trkpt lat="43.75991" lon="6.69657">
        <ele>1174</ele>
        <time>2010-08-15T09:03:58Z</time>
      </trkpt>
      <trkpt lat="43.75989" lon="6.6965">
        <ele>1174</ele>
        <time>2010-08-15T09:04:06Z</time>
      </trkpt>
      <trkpt lat="43.75987" lon="6.69643">
        <ele>1175</ele>
        <time>2010-08-15T09:04:12Z</time>
      </trkpt>
      <trkpt lat="43.75985" lon="6.69634">
        <ele>1176</ele>
        <time>2010-08-15T09:04:19Z</time>
      </trkpt>
      <trkpt lat="43.75984" lon="6.69629">
        <ele>1176</ele>
        <time>2010-08-15T09:04:24Z</time>
      </trkpt>
      <trkpt lat="43.75981" lon="6.69622">
        <ele>1177</ele>
        <time>2010-08-15T09:04:30Z</time>
      </trkpt>
      <trkpt lat="43.7598" lon="6.69618">
        <ele>1178</ele>
        <time>2010-08-15T09:04:35Z</time>
      </trkpt>
      <trkpt lat="43.7598" lon="6.69615">
        <ele>1179</ele>
        <time>2010-08-15T09:04:40Z</time>
      </trkpt>
      <trkpt lat="43.75978" lon="6.69613">
        <ele>1179</ele>
        <time>2010-08-15T09:05:35Z</time>
      </trkpt>
      <trkpt lat="43.75977" lon="6.69612">
        <ele>1180</ele>
        <time>2010-08-15T09:05:44Z</time>
      </trkpt>
      <trkpt lat="43.75974" lon="6.69601">
        <ele>1180</ele>
        <time>2010-08-15T09:05:57Z</time>
      </trkpt>
      <trkpt lat="43.75966" lon="6.69594">
        <ele>1180</ele>
        <time>2010-08-15T09:06:04Z</time>
      </trkpt>
      <trkpt lat="43.75955" lon="6.69584">
        <ele>1180</ele>
        <time>2010-08-15T09:06:12Z</time>
      </trkpt>
      <trkpt lat="43.7595" lon="6.69579">
        <ele>1181</ele>
        <time>2010-08-15T09:06:18Z</time>
      </trkpt>
      <trkpt lat="43.75948" lon="6.69576">
        <ele>1181</ele>
        <time>2010-08-15T09:06:43Z</time>
      </trkpt>
      <trkpt lat="43.75943" lon="6.69574">
        <ele>1181</ele>
        <time>2010-08-15T09:06:48Z</time>
      </trkpt>
      <trkpt lat="43.75939" lon="6.6957">
        <ele>1181</ele>
        <time>2010-08-15T09:06:52Z</time>
      </trkpt>
      <trkpt lat="43.75931" lon="6.69561">
        <ele>1181</ele>
        <time>2010-08-15T09:07:02Z</time>
      </trkpt>
      <trkpt lat="43.75924" lon="6.69556">
        <ele>1181</ele>
        <time>2010-08-15T09:07:08Z</time>
      </trkpt>
      <trkpt lat="43.75921" lon="6.69551">
        <ele>1182</ele>
        <time>2010-08-15T09:07:15Z</time>
      </trkpt>
      <trkpt lat="43.75919" lon="6.69548">
        <ele>1182</ele>
        <time>2010-08-15T09:07:22Z</time>
      </trkpt>
      <trkpt lat="43.75916" lon="6.69545">
        <ele>1182</ele>
        <time>2010-08-15T09:07:30Z</time>
      </trkpt>
      <trkpt lat="43.75908" lon="6.69539">
        <ele>1183</ele>
        <time>2010-08-15T09:07:38Z</time>
      </trkpt>
      <trkpt lat="43.75905" lon="6.69533">
        <ele>1184</ele>
        <time>2010-08-15T09:07:43Z</time>
      </trkpt>
      <trkpt lat="43.75897" lon="6.69527">
        <ele>1184</ele>
        <time>2010-08-15T09:07:48Z</time>
      </trkpt>
      <trkpt lat="43.75896" lon="6.69526">
        <ele>1184</ele>
        <time>2010-08-15T09:07:49Z</time>
      </trkpt>
      <trkpt lat="43.75891" lon="6.69522">
        <ele>1184</ele>
        <time>2010-08-15T09:07:54Z</time>
      </trkpt>
      <trkpt lat="43.75888" lon="6.6952">
        <ele>1184</ele>
        <time>2010-08-15T09:07:58Z</time>
      </trkpt>
      <trkpt lat="43.75881" lon="6.69513">
        <ele>1185</ele>
        <time>2010-08-15T09:08:06Z</time>
      </trkpt>
      <trkpt lat="43.75876" lon="6.69508">
        <ele>1186</ele>
        <time>2010-08-15T09:08:13Z</time>
      </trkpt>
      <trkpt lat="43.75872" lon="6.69503">
        <ele>1187</ele>
        <time>2010-08-15T09:08:20Z</time>
      </trkpt>
      <trkpt lat="43.75867" lon="6.69499">
        <ele>1188</ele>
        <time>2010-08-15T09:08:27Z</time>
      </trkpt>
      <trkpt lat="43.75867" lon="6.69499">
        <ele>1188</ele>
        <time>2010-08-15T09:08:28Z</time>
      </trkpt>
      <trkpt lat="43.75862" lon="6.69492">
        <ele>1189</ele>
        <time>2010-08-15T09:08:36Z</time>
      </trkpt>
      <trkpt lat="43.75858" lon="6.69485">
        <ele>1190</ele>
        <time>2010-08-15T09:08:44Z</time>
      </trkpt>
      <trkpt lat="43.75853" lon="6.69481">
        <ele>1190</ele>
        <time>2010-08-15T09:08:51Z</time>
      </trkpt>
      <trkpt lat="43.75848" lon="6.69477">
        <ele>1191</ele>
        <time>2010-08-15T09:08:59Z</time>
      </trkpt>
      <trkpt lat="43.75846" lon="6.69474">
        <ele>1191</ele>
        <time>2010-08-15T09:09:03Z</time>
      </trkpt>
      <trkpt lat="43.75839" lon="6.69469">
        <ele>1191</ele>
        <time>2010-08-15T09:09:11Z</time>
      </trkpt>
      <trkpt lat="43.75838" lon="6.69468">
        <ele>1191</ele>
        <time>2010-08-15T09:09:18Z</time>
      </trkpt>
      <trkpt lat="43.75838" lon="6.69467">
        <ele>1191</ele>
        <time>2010-08-15T09:09:19Z</time>
      </trkpt>
      <trkpt lat="43.7583" lon="6.6946">
        <ele>1192</ele>
        <time>2010-08-15T09:09:27Z</time>
      </trkpt>
      <trkpt lat="43.75823" lon="6.69453">
        <ele>1192</ele>
        <time>2010-08-15T09:09:35Z</time>
      </trkpt>
      <trkpt lat="43.75815" lon="6.69447">
        <ele>1193</ele>
        <time>2010-08-15T09:09:42Z</time>
      </trkpt>
      <trkpt lat="43.75805" lon="6.69443">
        <ele>1193</ele>
        <time>2010-08-15T09:09:50Z</time>
      </trkpt>
      <trkpt lat="43.75803" lon="6.6944">
        <ele>1193</ele>
        <time>2010-08-15T09:09:53Z</time>
      </trkpt>
      <trkpt lat="43.75794" lon="6.69433">
        <ele>1193</ele>
        <time>2010-08-15T09:10:01Z</time>
      </trkpt>
      <trkpt lat="43.75786" lon="6.69428">
        <ele>1194</ele>
        <time>2010-08-15T09:10:08Z</time>
      </trkpt>
      <trkpt lat="43.75779" lon="6.69421">
        <ele>1194</ele>
        <time>2010-08-15T09:10:14Z</time>
      </trkpt>
      <trkpt lat="43.75775" lon="6.69418">
        <ele>1194</ele>
        <time>2010-08-15T09:10:19Z</time>
      </trkpt>
      <trkpt lat="43.7577" lon="6.69415">
        <ele>1196</ele>
        <time>2010-08-15T09:10:26Z</time>
      </trkpt>
      <trkpt lat="43.75767" lon="6.6941">
        <ele>1196</ele>
        <time>2010-08-15T09:10:30Z</time>
      </trkpt>
      <trkpt lat="43.75762" lon="6.69405">
        <ele>1196</ele>
        <time>2010-08-15T09:10:35Z</time>
      </trkpt>
      <trkpt lat="43.75759" lon="6.69402">
        <ele>1197</ele>
        <time>2010-08-15T09:10:39Z</time>
      </trkpt>
      <trkpt lat="43.75756" lon="6.69399">
        <ele>1198</ele>
        <time>2010-08-15T09:10:45Z</time>
      </trkpt>
      <trkpt lat="43.75751" lon="6.69393">
        <ele>1198</ele>
        <time>2010-08-15T09:10:51Z</time>
      </trkpt>
      <trkpt lat="43.75747" lon="6.69388">
        <ele>1199</ele>
        <time>2010-08-15T09:10:57Z</time>
      </trkpt>
      <trkpt lat="43.75742" lon="6.69381">
        <ele>1199</ele>
        <time>2010-08-15T09:11:04Z</time>
      </trkpt>
      <trkpt lat="43.75742" lon="6.69379">
        <ele>1200</ele>
        <time>2010-08-15T09:11:06Z</time>
      </trkpt>
      <trkpt lat="43.75739" lon="6.69376">
        <ele>1200</ele>
        <time>2010-08-15T09:11:10Z</time>
      </trkpt>
      <trkpt lat="43.75737" lon="6.69374">
        <ele>1200</ele>
        <time>2010-08-15T09:11:12Z</time>
      </trkpt>
      <trkpt lat="43.75732" lon="6.69369">
        <ele>1201</ele>
        <time>2010-08-15T09:11:20Z</time>
      </trkpt>
      <trkpt lat="43.75727" lon="6.69362">
        <ele>1202</ele>
        <time>2010-08-15T09:11:28Z</time>
      </trkpt>
      <trkpt lat="43.75721" lon="6.69355">
        <ele>1203</ele>
        <time>2010-08-15T09:11:36Z</time>
      </trkpt>
      <trkpt lat="43.75719" lon="6.69353">
        <ele>1204</ele>
        <time>2010-08-15T09:11:42Z</time>
      </trkpt>
      <trkpt lat="43.75714" lon="6.69346">
        <ele>1205</ele>
        <time>2010-08-15T09:11:50Z</time>
      </trkpt>
      <trkpt lat="43.7571" lon="6.69343">
        <ele>1207</ele>
        <time>2010-08-15T09:11:56Z</time>
      </trkpt>
      <trkpt lat="43.75705" lon="6.6934">
        <ele>1207</ele>
        <time>2010-08-15T09:12:03Z</time>
      </trkpt>
      <trkpt lat="43.75699" lon="6.69334">
        <ele>1208</ele>
        <time>2010-08-15T09:12:11Z</time>
      </trkpt>
      <trkpt lat="43.75695" lon="6.6933">
        <ele>1209</ele>
        <time>2010-08-15T09:12:18Z</time>
      </trkpt>
      <trkpt lat="43.7569" lon="6.69324">
        <ele>1209</ele>
        <time>2010-08-15T09:12:26Z</time>
      </trkpt>
      <trkpt lat="43.75687" lon="6.69319">
        <ele>1210</ele>
        <time>2010-08-15T09:12:33Z</time>
      </trkpt>
      <trkpt lat="43.75683" lon="6.69315">
        <ele>1210</ele>
        <time>2010-08-15T09:12:39Z</time>
      </trkpt>
      <trkpt lat="43.75679" lon="6.69312">
        <ele>1211</ele>
        <time>2010-08-15T09:12:46Z</time>
      </trkpt>
      <trkpt lat="43.75677" lon="6.69309">
        <ele>1212</ele>
        <time>2010-08-15T09:12:51Z</time>
      </trkpt>
      <trkpt lat="43.75675" lon="6.69305">
        <ele>1213</ele>
        <time>2010-08-15T09:12:57Z</time>
      </trkpt>
      <trkpt lat="43.7567" lon="6.69299">
        <ele>1214</ele>
        <time>2010-08-15T09:13:05Z</time>
      </trkpt>
      <trkpt lat="43.75665" lon="6.69295">
        <ele>1214</ele>
        <time>2010-08-15T09:13:11Z</time>
      </trkpt>
      <trkpt lat="43.75661" lon="6.69293">
        <ele>1215</ele>
        <time>2010-08-15T09:13:16Z</time>
      </trkpt>
      <trkpt lat="43.75656" lon="6.69288">
        <ele>1216</ele>
        <time>2010-08-15T09:13:23Z</time>
      </trkpt>
      <trkpt lat="43.75653" lon="6.69284">
        <ele>1217</ele>
        <time>2010-08-15T09:13:31Z</time>
      </trkpt>
      <trkpt lat="43.75648" lon="6.69281">
        <ele>1218</ele>
        <time>2010-08-15T09:13:39Z</time>
      </trkpt>
      <trkpt lat="43.75643" lon="6.69279">
        <ele>1219</ele>
        <time>2010-08-15T09:13:46Z</time>
      </trkpt>
      <trkpt lat="43.75638" lon="6.69276">
        <ele>1219</ele>
        <time>2010-08-15T09:13:53Z</time>
      </trkpt>
      <trkpt lat="43.75633" lon="6.69272">
        <ele>1220</ele>
        <time>2010-08-15T09:13:59Z</time>
      </trkpt>
      <trkpt lat="43.75628" lon="6.69268">
        <ele>1221</ele>
        <time>2010-08-15T09:14:05Z</time>
      </trkpt>
      <trkpt lat="43.75624" lon="6.69265">
        <ele>1221</ele>
        <time>2010-08-15T09:14:11Z</time>
      </trkpt>
      <trkpt lat="43.75619" lon="6.6926">
        <ele>1222</ele>
        <time>2010-08-15T09:14:19Z</time>
      </trkpt>
      <trkpt lat="43.75613" lon="6.69258">
        <ele>1223</ele>
        <time>2010-08-15T09:14:27Z</time>
      </trkpt>
      <trkpt lat="43.75608" lon="6.69255">
        <ele>1224</ele>
        <time>2010-08-15T09:14:34Z</time>
      </trkpt>
      <trkpt lat="43.75607" lon="6.69251">
        <ele>1225</ele>
        <time>2010-08-15T09:14:40Z</time>
      </trkpt>
      <trkpt lat="43.75604" lon="6.69247">
        <ele>1226</ele>
        <time>2010-08-15T09:14:46Z</time>
      </trkpt>
      <trkpt lat="43.75602" lon="6.69245">
        <ele>1226</ele>
        <time>2010-08-15T09:14:52Z</time>
      </trkpt>
      <trkpt lat="43.75598" lon="6.69242">
        <ele>1226</ele>
        <time>2010-08-15T09:17:41Z</time>
      </trkpt>
      <trkpt lat="43.75593" lon="6.69241">
        <ele>1227</ele>
        <time>2010-08-15T09:17:48Z</time>
      </trkpt>
      <trkpt lat="43.75588" lon="6.69241">
        <ele>1228</ele>
        <time>2010-08-15T09:17:55Z</time>
      </trkpt>
      <trkpt lat="43.75584" lon="6.69241">
        <ele>1229</ele>
        <time>2010-08-15T09:18:04Z</time>
      </trkpt>
      <trkpt lat="43.75579" lon="6.69242">
        <ele>1230</ele>
        <time>2010-08-15T09:18:11Z</time>
      </trkpt>
      <trkpt lat="43.75574" lon="6.6924">
        <ele>1231</ele>
        <time>2010-08-15T09:18:18Z</time>
      </trkpt>
      <trkpt lat="43.75571" lon="6.69239">
        <ele>1232</ele>
        <time>2010-08-15T09:18:26Z</time>
      </trkpt>
      <trkpt lat="43.75569" lon="6.69239">
        <ele>1232</ele>
        <time>2010-08-15T09:18:32Z</time>
      </trkpt>
      <trkpt lat="43.75568" lon="6.69239">
        <ele>1231</ele>
        <time>2010-08-15T09:19:38Z</time>
      </trkpt>
      <trkpt lat="43.75567" lon="6.69239">
        <ele>1231</ele>
        <time>2010-08-15T09:19:39Z</time>
      </trkpt>
      <trkpt lat="43.75559" lon="6.69237">
        <ele>1232</ele>
        <time>2010-08-15T09:19:46Z</time>
      </trkpt>
      <trkpt lat="43.75558" lon="6.69237">
        <ele>1232</ele>
        <time>2010-08-15T09:19:47Z</time>
      </trkpt>
      <trkpt lat="43.75553" lon="6.69243">
        <ele>1232</ele>
        <time>2010-08-15T09:19:54Z</time>
      </trkpt>
      <trkpt lat="43.75552" lon="6.69244">
        <ele>1233</ele>
        <time>2010-08-15T09:19:55Z</time>
      </trkpt>
      <trkpt lat="43.75548" lon="6.69251">
        <ele>1233</ele>
        <time>2010-08-15T09:20:01Z</time>
      </trkpt>
      <trkpt lat="43.75542" lon="6.69255">
        <ele>1234</ele>
        <time>2010-08-15T09:20:07Z</time>
      </trkpt>
      <trkpt lat="43.75539" lon="6.69256">
        <ele>1234</ele>
        <time>2010-08-15T09:20:10Z</time>
      </trkpt>
      <trkpt lat="43.75536" lon="6.69253">
        <ele>1235</ele>
        <time>2010-08-15T09:20:13Z</time>
      </trkpt>
      <trkpt lat="43.75535" lon="6.6925">
        <ele>1235</ele>
        <time>2010-08-15T09:20:21Z</time>
      </trkpt>
      <trkpt lat="43.75535" lon="6.6925">
        <ele>1235</ele>
        <time>2010-08-15T09:20:28Z</time>
      </trkpt>
      <trkpt lat="43.75534" lon="6.69242">
        <ele>1236</ele>
        <time>2010-08-15T09:20:34Z</time>
      </trkpt>
      <trkpt lat="43.75535" lon="6.69237">
        <ele>1236</ele>
        <time>2010-08-15T09:20:38Z</time>
      </trkpt>
      <trkpt lat="43.75537" lon="6.69226">
        <ele>1236</ele>
        <time>2010-08-15T09:20:46Z</time>
      </trkpt>
      <trkpt lat="43.7554" lon="6.69218">
        <ele>1237</ele>
        <time>2010-08-15T09:20:52Z</time>
      </trkpt>
      <trkpt lat="43.75542" lon="6.69216">
        <ele>1237</ele>
        <time>2010-08-15T09:20:59Z</time>
      </trkpt>
      <trkpt lat="43.75548" lon="6.6921">
        <ele>1238</ele>
        <time>2010-08-15T09:21:06Z</time>
      </trkpt>
      <trkpt lat="43.7555" lon="6.69206">
        <ele>1238</ele>
        <time>2010-08-15T09:21:09Z</time>
      </trkpt>
      <trkpt lat="43.75557" lon="6.692">
        <ele>1239</ele>
        <time>2010-08-15T09:21:16Z</time>
      </trkpt>
      <trkpt lat="43.75564" lon="6.69192">
        <ele>1240</ele>
        <time>2010-08-15T09:21:25Z</time>
      </trkpt>
      <trkpt lat="43.75571" lon="6.69185">
        <ele>1242</ele>
        <time>2010-08-15T09:21:33Z</time>
      </trkpt>
      <trkpt lat="43.75575" lon="6.6918">
        <ele>1242</ele>
        <time>2010-08-15T09:21:39Z</time>
      </trkpt>
      <trkpt lat="43.75584" lon="6.69176">
        <ele>1243</ele>
        <time>2010-08-15T09:21:48Z</time>
      </trkpt>
      <trkpt lat="43.75589" lon="6.6917">
        <ele>1244</ele>
        <time>2010-08-15T09:21:55Z</time>
      </trkpt>
      <trkpt lat="43.75594" lon="6.69166">
        <ele>1244</ele>
        <time>2010-08-15T09:22:00Z</time>
      </trkpt>
      <trkpt lat="43.75595" lon="6.69166">
        <ele>1244</ele>
        <time>2010-08-15T09:22:01Z</time>
      </trkpt>
      <trkpt lat="43.75604" lon="6.6916">
        <ele>1246</ele>
        <time>2010-08-15T09:22:10Z</time>
      </trkpt>
      <trkpt lat="43.75612" lon="6.69157">
        <ele>1246</ele>
        <time>2010-08-15T09:22:18Z</time>
      </trkpt>
      <trkpt lat="43.75619" lon="6.69155">
        <ele>1247</ele>
        <time>2010-08-15T09:22:28Z</time>
      </trkpt>
      <trkpt lat="43.75622" lon="6.69155">
        <ele>1247</ele>
        <time>2010-08-15T09:22:51Z</time>
      </trkpt>
      <trkpt lat="43.75625" lon="6.69153">
        <ele>1247</ele>
        <time>2010-08-15T09:22:55Z</time>
      </trkpt>
      <trkpt lat="43.75635" lon="6.69155">
        <ele>1248</ele>
        <time>2010-08-15T09:23:04Z</time>
      </trkpt>
      <trkpt lat="43.75643" lon="6.69159">
        <ele>1249</ele>
        <time>2010-08-15T09:23:13Z</time>
      </trkpt>
      <trkpt lat="43.7565" lon="6.69162">
        <ele>1250</ele>
        <time>2010-08-15T09:23:20Z</time>
      </trkpt>
      <trkpt lat="43.75658" lon="6.69165">
        <ele>1251</ele>
        <time>2010-08-15T09:23:29Z</time>
      </trkpt>
      <trkpt lat="43.75666" lon="6.69168">
        <ele>1253</ele>
        <time>2010-08-15T09:23:37Z</time>
      </trkpt>
      <trkpt lat="43.75674" lon="6.69169">
        <ele>1253</ele>
        <time>2010-08-15T09:23:46Z</time>
      </trkpt>
      <trkpt lat="43.75682" lon="6.69171">
        <ele>1254</ele>
        <time>2010-08-15T09:23:54Z</time>
      </trkpt>
      <trkpt lat="43.75687" lon="6.69172">
        <ele>1254</ele>
        <time>2010-08-15T09:24:01Z</time>
      </trkpt>
      <trkpt lat="43.75694" lon="6.69172">
        <ele>1255</ele>
        <time>2010-08-15T09:24:09Z</time>
      </trkpt>
      <trkpt lat="43.75703" lon="6.69171">
        <ele>1256</ele>
        <time>2010-08-15T09:24:17Z</time>
      </trkpt>
      <trkpt lat="43.75708" lon="6.6917">
        <ele>1257</ele>
        <time>2010-08-15T09:24:24Z</time>
      </trkpt>
      <trkpt lat="43.75715" lon="6.69168">
        <ele>1258</ele>
        <time>2010-08-15T09:24:31Z</time>
      </trkpt>
      <trkpt lat="43.75719" lon="6.69168">
        <ele>1258</ele>
        <time>2010-08-15T09:24:36Z</time>
      </trkpt>
      <trkpt lat="43.75728" lon="6.69169">
        <ele>1259</ele>
        <time>2010-08-15T09:24:45Z</time>
      </trkpt>
      <trkpt lat="43.75729" lon="6.6917">
        <ele>1259</ele>
        <time>2010-08-15T09:24:46Z</time>
      </trkpt>
      <trkpt lat="43.75737" lon="6.6917">
        <ele>1259</ele>
        <time>2010-08-15T09:24:55Z</time>
      </trkpt>
      <trkpt lat="43.75738" lon="6.6917">
        <ele>1260</ele>
        <time>2010-08-15T09:24:57Z</time>
      </trkpt>
      <trkpt lat="43.75747" lon="6.69165">
        <ele>1260</ele>
        <time>2010-08-15T09:25:06Z</time>
      </trkpt>
      <trkpt lat="43.75755" lon="6.69165">
        <ele>1261</ele>
        <time>2010-08-15T09:25:14Z</time>
      </trkpt>
      <trkpt lat="43.75756" lon="6.69164">
        <ele>1261</ele>
        <time>2010-08-15T09:25:15Z</time>
      </trkpt>
      <trkpt lat="43.75761" lon="6.6916">
        <ele>1262</ele>
        <time>2010-08-15T09:25:23Z</time>
      </trkpt>
      <trkpt lat="43.75766" lon="6.69157">
        <ele>1262</ele>
        <time>2010-08-15T09:25:29Z</time>
      </trkpt>
      <trkpt lat="43.75768" lon="6.69155">
        <ele>1263</ele>
        <time>2010-08-15T09:25:32Z</time>
      </trkpt>
      <trkpt lat="43.75776" lon="6.69151">
        <ele>1263</ele>
        <time>2010-08-15T09:25:40Z</time>
      </trkpt>
      <trkpt lat="43.75779" lon="6.69147">
        <ele>1264</ele>
        <time>2010-08-15T09:25:46Z</time>
      </trkpt>
      <trkpt lat="43.75785" lon="6.69144">
        <ele>1265</ele>
        <time>2010-08-15T09:25:55Z</time>
      </trkpt>
      <trkpt lat="43.75786" lon="6.69144">
        <ele>1265</ele>
        <time>2010-08-15T09:26:01Z</time>
      </trkpt>
      <trkpt lat="43.75791" lon="6.69144">
        <ele>1265</ele>
        <time>2010-08-15T09:26:36Z</time>
      </trkpt>
      <trkpt lat="43.75797" lon="6.6914">
        <ele>1266</ele>
        <time>2010-08-15T09:26:43Z</time>
      </trkpt>
      <trkpt lat="43.75798" lon="6.6914">
        <ele>1266</ele>
        <time>2010-08-15T09:26:44Z</time>
      </trkpt>
      <trkpt lat="43.75801" lon="6.69139">
        <ele>1266</ele>
        <time>2010-08-15T09:26:48Z</time>
      </trkpt>
      <trkpt lat="43.75804" lon="6.69139">
        <ele>1267</ele>
        <time>2010-08-15T09:26:56Z</time>
      </trkpt>
      <trkpt lat="43.75811" lon="6.69138">
        <ele>1268</ele>
        <time>2010-08-15T09:27:03Z</time>
      </trkpt>
      <trkpt lat="43.75816" lon="6.6914">
        <ele>1268</ele>
        <time>2010-08-15T09:27:08Z</time>
      </trkpt>
      <trkpt lat="43.75823" lon="6.69143">
        <ele>1268</ele>
        <time>2010-08-15T09:27:13Z</time>
      </trkpt>
      <trkpt lat="43.75829" lon="6.69146">
        <ele>1270</ele>
        <time>2010-08-15T09:27:19Z</time>
      </trkpt>
      <trkpt lat="43.75836" lon="6.69147">
        <ele>1270</ele>
        <time>2010-08-15T09:27:26Z</time>
      </trkpt>
      <trkpt lat="43.75844" lon="6.69152">
        <ele>1271</ele>
        <time>2010-08-15T09:27:33Z</time>
      </trkpt>
      <trkpt lat="43.7585" lon="6.69157">
        <ele>1272</ele>
        <time>2010-08-15T09:27:40Z</time>
      </trkpt>
      <trkpt lat="43.75855" lon="6.69162">
        <ele>1273</ele>
        <time>2010-08-15T09:27:47Z</time>
      </trkpt>
      <trkpt lat="43.75864" lon="6.6917">
        <ele>1273</ele>
        <time>2010-08-15T09:27:57Z</time>
      </trkpt>
      <trkpt lat="43.75866" lon="6.69171">
        <ele>1273</ele>
        <time>2010-08-15T09:27:59Z</time>
      </trkpt>
      <trkpt lat="43.75874" lon="6.69178">
        <ele>1274</ele>
        <time>2010-08-15T09:28:07Z</time>
      </trkpt>
      <trkpt lat="43.75878" lon="6.69182">
        <ele>1275</ele>
        <time>2010-08-15T09:28:12Z</time>
      </trkpt>
      <trkpt lat="43.75886" lon="6.69188">
        <ele>1276</ele>
        <time>2010-08-15T09:28:20Z</time>
      </trkpt>
      <trkpt lat="43.75893" lon="6.69194">
        <ele>1276</ele>
        <time>2010-08-15T09:28:28Z</time>
      </trkpt>
      <trkpt lat="43.75898" lon="6.692">
        <ele>1278</ele>
        <time>2010-08-15T09:28:34Z</time>
      </trkpt>
      <trkpt lat="43.75903" lon="6.69205">
        <ele>1278</ele>
        <time>2010-08-15T09:28:40Z</time>
      </trkpt>
      <trkpt lat="43.75909" lon="6.69212">
        <ele>1279</ele>
        <time>2010-08-15T09:28:48Z</time>
      </trkpt>
      <trkpt lat="43.75912" lon="6.69215">
        <ele>1279</ele>
        <time>2010-08-15T09:28:56Z</time>
      </trkpt>
      <trkpt lat="43.75916" lon="6.6922">
        <ele>1279</ele>
        <time>2010-08-15T09:29:02Z</time>
      </trkpt>
      <trkpt lat="43.75921" lon="6.69227">
        <ele>1280</ele>
        <time>2010-08-15T09:29:10Z</time>
      </trkpt>
      <trkpt lat="43.75921" lon="6.69227">
        <ele>1280</ele>
        <time>2010-08-15T09:29:25Z</time>
      </trkpt>
      <trkpt lat="43.75923" lon="6.69227">
        <ele>1281</ele>
        <time>2010-08-15T09:29:28Z</time>
      </trkpt>
      <trkpt lat="43.75931" lon="6.69232">
        <ele>1281</ele>
        <time>2010-08-15T09:29:37Z</time>
      </trkpt>
      <trkpt lat="43.75937" lon="6.69237">
        <ele>1282</ele>
        <time>2010-08-15T09:29:43Z</time>
      </trkpt>
      <trkpt lat="43.75942" lon="6.69242">
        <ele>1281</ele>
        <time>2010-08-15T09:29:49Z</time>
      </trkpt>
      <trkpt lat="43.75945" lon="6.69243">
        <ele>1283</ele>
        <time>2010-08-15T09:29:51Z</time>
      </trkpt>
      <trkpt lat="43.75952" lon="6.6925">
        <ele>1282</ele>
        <time>2010-08-15T09:29:59Z</time>
      </trkpt>
      <trkpt lat="43.7596" lon="6.69257">
        <ele>1283</ele>
        <time>2010-08-15T09:30:07Z</time>
      </trkpt>
      <trkpt lat="43.7597" lon="6.69267">
        <ele>1283</ele>
        <time>2010-08-15T09:30:17Z</time>
      </trkpt>
      <trkpt lat="43.75977" lon="6.69275">
        <ele>1283</ele>
        <time>2010-08-15T09:30:26Z</time>
      </trkpt>
      <trkpt lat="43.7598" lon="6.69277">
        <ele>1284</ele>
        <time>2010-08-15T09:30:28Z</time>
      </trkpt>
      <trkpt lat="43.75988" lon="6.6928">
        <ele>1283</ele>
        <time>2010-08-15T09:30:37Z</time>
      </trkpt>
      <trkpt lat="43.75994" lon="6.69281">
        <ele>1284</ele>
        <time>2010-08-15T09:30:44Z</time>
      </trkpt>
      <trkpt lat="43.75997" lon="6.6928">
        <ele>1284</ele>
        <time>2010-08-15T09:30:49Z</time>
      </trkpt>
      <trkpt lat="43.75997" lon="6.6928">
        <ele>1283</ele>
        <time>2010-08-15T09:31:07Z</time>
      </trkpt>
      <trkpt lat="43.75997" lon="6.6928">
        <ele>1283</ele>
        <time>2010-08-15T09:31:20Z</time>
      </trkpt>
      <trkpt lat="43.75997" lon="6.6928">
        <ele>1284</ele>
        <time>2010-08-15T09:31:41Z</time>
      </trkpt>
      <trkpt lat="43.75997" lon="6.6928">
        <ele>1284</ele>
        <time>2010-08-15T09:32:48Z</time>
      </trkpt>
      <trkpt lat="43.75997" lon="6.69278">
        <ele>1284</ele>
        <time>2010-08-15T09:33:06Z</time>
      </trkpt>
      <trkpt lat="43.75997" lon="6.69278">
        <ele>1284</ele>
        <time>2010-08-15T09:33:17Z</time>
      </trkpt>
      <trkpt lat="43.75999" lon="6.69278">
        <ele>1284</ele>
        <time>2010-08-15T09:33:23Z</time>
      </trkpt>
      <trkpt lat="43.75999" lon="6.69276">
        <ele>1284</ele>
        <time>2010-08-15T09:33:45Z</time>
      </trkpt>
      <trkpt lat="43.75999" lon="6.69275">
        <ele>1284</ele>
        <time>2010-08-15T09:33:49Z</time>
      </trkpt>
      <trkpt lat="43.75998" lon="6.6927">
        <ele>1284</ele>
        <time>2010-08-15T09:33:53Z</time>
      </trkpt>
      <trkpt lat="43.75999" lon="6.69266">
        <ele>1284</ele>
        <time>2010-08-15T09:34:02Z</time>
      </trkpt>
      <trkpt lat="43.76" lon="6.6926">
        <ele>1285</ele>
        <time>2010-08-15T09:34:08Z</time>
      </trkpt>
      <trkpt lat="43.75999" lon="6.69251">
        <ele>1285</ele>
        <time>2010-08-15T09:34:16Z</time>
      </trkpt>
      <trkpt lat="43.75998" lon="6.69242">
        <ele>1286</ele>
        <time>2010-08-15T09:34:23Z</time>
      </trkpt>
      <trkpt lat="43.75997" lon="6.6924">
        <ele>1286</ele>
        <time>2010-08-15T09:34:24Z</time>
      </trkpt>
      <trkpt lat="43.75997" lon="6.69236">
        <ele>1286</ele>
        <time>2010-08-15T09:34:31Z</time>
      </trkpt>
      <trkpt lat="43.75996" lon="6.69228">
        <ele>1287</ele>
        <time>2010-08-15T09:34:36Z</time>
      </trkpt>
      <trkpt lat="43.75995" lon="6.69219">
        <ele>1288</ele>
        <time>2010-08-15T09:34:44Z</time>
      </trkpt>
      <trkpt lat="43.75995" lon="6.69216">
        <ele>1288</ele>
        <time>2010-08-15T09:34:46Z</time>
      </trkpt>
      <trkpt lat="43.75993" lon="6.69205">
        <ele>1289</ele>
        <time>2010-08-15T09:34:55Z</time>
      </trkpt>
      <trkpt lat="43.75994" lon="6.69197">
        <ele>1290</ele>
        <time>2010-08-15T09:35:02Z</time>
      </trkpt>
      <trkpt lat="43.75994" lon="6.69187">
        <ele>1290</ele>
        <time>2010-08-15T09:35:10Z</time>
      </trkpt>
      <trkpt lat="43.75991" lon="6.69182">
        <ele>1291</ele>
        <time>2010-08-15T09:35:16Z</time>
      </trkpt>
      <trkpt lat="43.75989" lon="6.69175">
        <ele>1292</ele>
        <time>2010-08-15T09:35:23Z</time>
      </trkpt>
      <trkpt lat="43.75988" lon="6.69172">
        <ele>1293</ele>
        <time>2010-08-15T09:35:30Z</time>
      </trkpt>
      <trkpt lat="43.75986" lon="6.69164">
        <ele>1294</ele>
        <time>2010-08-15T09:35:37Z</time>
      </trkpt>
      <trkpt lat="43.75985" lon="6.69161">
        <ele>1293</ele>
        <time>2010-08-15T09:35:39Z</time>
      </trkpt>
      <trkpt lat="43.75984" lon="6.69159">
        <ele>1294</ele>
        <time>2010-08-15T09:35:41Z</time>
      </trkpt>
      <trkpt lat="43.75981" lon="6.69153">
        <ele>1295</ele>
        <time>2010-08-15T09:35:45Z</time>
      </trkpt>
      <trkpt lat="43.75981" lon="6.6915">
        <ele>1294</ele>
        <time>2010-08-15T09:35:47Z</time>
      </trkpt>
      <trkpt lat="43.75977" lon="6.69138">
        <ele>1296</ele>
        <time>2010-08-15T09:35:56Z</time>
      </trkpt>
      <trkpt lat="43.75974" lon="6.69134">
        <ele>1296</ele>
        <time>2010-08-15T09:36:05Z</time>
      </trkpt>
      <trkpt lat="43.75974" lon="6.69134">
        <ele>1296</ele>
        <time>2010-08-15T09:36:13Z</time>
      </trkpt>
      <trkpt lat="43.75976" lon="6.69128">
        <ele>1296</ele>
        <time>2010-08-15T09:36:21Z</time>
      </trkpt>
      <trkpt lat="43.75975" lon="6.6912">
        <ele>1297</ele>
        <time>2010-08-15T09:36:29Z</time>
      </trkpt>
      <trkpt lat="43.75975" lon="6.6912">
        <ele>1297</ele>
        <time>2010-08-15T09:36:35Z</time>
      </trkpt>
      <trkpt lat="43.75975" lon="6.69116">
        <ele>1297</ele>
        <time>2010-08-15T09:36:42Z</time>
      </trkpt>
      <trkpt lat="43.75975" lon="6.69111">
        <ele>1297</ele>
        <time>2010-08-15T09:36:54Z</time>
      </trkpt>
      <trkpt lat="43.75975" lon="6.6911">
        <ele>1297</ele>
        <time>2010-08-15T09:37:02Z</time>
      </trkpt>
      <trkpt lat="43.75975" lon="6.69105">
        <ele>1297</ele>
        <time>2010-08-15T09:37:10Z</time>
      </trkpt>
      <trkpt lat="43.75975" lon="6.69105">
        <ele>1298</ele>
        <time>2010-08-15T09:37:20Z</time>
      </trkpt>
      <trkpt lat="43.75977" lon="6.69095">
        <ele>1298</ele>
        <time>2010-08-15T09:37:28Z</time>
      </trkpt>
      <trkpt lat="43.75976" lon="6.69093">
        <ele>1298</ele>
        <time>2010-08-15T09:37:33Z</time>
      </trkpt>
      <trkpt lat="43.75977" lon="6.69093">
        <ele>1298</ele>
        <time>2010-08-15T09:37:36Z</time>
      </trkpt>
      <trkpt lat="43.75978" lon="6.69091">
        <ele>1299</ele>
        <time>2010-08-15T09:37:38Z</time>
      </trkpt>
      <trkpt lat="43.75979" lon="6.69088">
        <ele>1299</ele>
        <time>2010-08-15T09:37:40Z</time>
      </trkpt>
      <trkpt lat="43.75981" lon="6.69084">
        <ele>1300</ele>
        <time>2010-08-15T09:37:45Z</time>
      </trkpt>
      <trkpt lat="43.75982" lon="6.69079">
        <ele>1300</ele>
        <time>2010-08-15T09:37:48Z</time>
      </trkpt>
      <trkpt lat="43.75983" lon="6.6907">
        <ele>1301</ele>
        <time>2010-08-15T09:37:55Z</time>
      </trkpt>
      <trkpt lat="43.75984" lon="6.69069">
        <ele>1300</ele>
        <time>2010-08-15T09:37:56Z</time>
      </trkpt>
      <trkpt lat="43.75985" lon="6.69067">
        <ele>1301</ele>
        <time>2010-08-15T09:37:58Z</time>
      </trkpt>
      <trkpt lat="43.75986" lon="6.69057">
        <ele>1302</ele>
        <time>2010-08-15T09:38:06Z</time>
      </trkpt>
      <trkpt lat="43.75989" lon="6.69054">
        <ele>1302</ele>
        <time>2010-08-15T09:38:12Z</time>
      </trkpt>
      <trkpt lat="43.75989" lon="6.69052">
        <ele>1303</ele>
        <time>2010-08-15T09:38:18Z</time>
      </trkpt>
      <trkpt lat="43.75991" lon="6.69042">
        <ele>1303</ele>
        <time>2010-08-15T09:38:24Z</time>
      </trkpt>
      <trkpt lat="43.75994" lon="6.69031">
        <ele>1304</ele>
        <time>2010-08-15T09:38:32Z</time>
      </trkpt>
      <trkpt lat="43.75995" lon="6.69028">
        <ele>1303</ele>
        <time>2010-08-15T09:38:34Z</time>
      </trkpt>
      <trkpt lat="43.75998" lon="6.69018">
        <ele>1305</ele>
        <time>2010-08-15T09:38:41Z</time>
      </trkpt>
      <trkpt lat="43.76" lon="6.69012">
        <ele>1305</ele>
        <time>2010-08-15T09:38:48Z</time>
      </trkpt>
      <trkpt lat="43.76002" lon="6.69005">
        <ele>1306</ele>
        <time>2010-08-15T09:39:01Z</time>
      </trkpt>
      <trkpt lat="43.76003" lon="6.68998">
        <ele>1306</ele>
        <time>2010-08-15T09:39:08Z</time>
      </trkpt>
      <trkpt lat="43.76004" lon="6.68994">
        <ele>1306</ele>
        <time>2010-08-15T09:39:13Z</time>
      </trkpt>
      <trkpt lat="43.76005" lon="6.68989">
        <ele>1307</ele>
        <time>2010-08-15T09:39:20Z</time>
      </trkpt>
      <trkpt lat="43.76008" lon="6.68985">
        <ele>1307</ele>
        <time>2010-08-15T09:39:27Z</time>
      </trkpt>
      <trkpt lat="43.76008" lon="6.6898">
        <ele>1308</ele>
        <time>2010-08-15T09:39:32Z</time>
      </trkpt>
      <trkpt lat="43.76011" lon="6.68978">
        <ele>1308</ele>
        <time>2010-08-15T09:39:39Z</time>
      </trkpt>
      <trkpt lat="43.76013" lon="6.68973">
        <ele>1308</ele>
        <time>2010-08-15T09:39:44Z</time>
      </trkpt>
      <trkpt lat="43.76017" lon="6.68965">
        <ele>1308</ele>
        <time>2010-08-15T09:39:53Z</time>
      </trkpt>
      <trkpt lat="43.7602" lon="6.68962">
        <ele>1308</ele>
        <time>2010-08-15T09:39:57Z</time>
      </trkpt>
      <trkpt lat="43.76025" lon="6.6896">
        <ele>1308</ele>
        <time>2010-08-15T09:40:05Z</time>
      </trkpt>
      <trkpt lat="43.76029" lon="6.68956">
        <ele>1308</ele>
        <time>2010-08-15T09:40:11Z</time>
      </trkpt>
      <trkpt lat="43.76029" lon="6.68956">
        <ele>1308</ele>
        <time>2010-08-15T09:40:12Z</time>
      </trkpt>
      <trkpt lat="43.76035" lon="6.68955">
        <ele>1308</ele>
        <time>2010-08-15T09:40:19Z</time>
      </trkpt>
      <trkpt lat="43.76043" lon="6.68957">
        <ele>1308</ele>
        <time>2010-08-15T09:40:27Z</time>
      </trkpt>
      <trkpt lat="43.76048" lon="6.68957">
        <ele>1309</ele>
        <time>2010-08-15T09:40:34Z</time>
      </trkpt>
      <trkpt lat="43.76054" lon="6.68952">
        <ele>1309</ele>
        <time>2010-08-15T09:40:40Z</time>
      </trkpt>
      <trkpt lat="43.76057" lon="6.68951">
        <ele>1309</ele>
        <time>2010-08-15T09:40:44Z</time>
      </trkpt>
      <trkpt lat="43.76059" lon="6.68949">
        <ele>1310</ele>
        <time>2010-08-15T09:40:46Z</time>
      </trkpt>
      <trkpt lat="43.76061" lon="6.68945">
        <ele>1310</ele>
        <time>2010-08-15T09:40:53Z</time>
      </trkpt>
      <trkpt lat="43.76062" lon="6.68938">
        <ele>1310</ele>
        <time>2010-08-15T09:41:08Z</time>
      </trkpt>
      <trkpt lat="43.76064" lon="6.6893">
        <ele>1310</ele>
        <time>2010-08-15T09:41:18Z</time>
      </trkpt>
      <trkpt lat="43.76068" lon="6.68926">
        <ele>1311</ele>
        <time>2010-08-15T09:41:24Z</time>
      </trkpt>
      <trkpt lat="43.76068" lon="6.68924">
        <ele>1311</ele>
        <time>2010-08-15T09:41:39Z</time>
      </trkpt>
      <trkpt lat="43.76074" lon="6.68921">
        <ele>1312</ele>
        <time>2010-08-15T09:41:47Z</time>
      </trkpt>
      <trkpt lat="43.76081" lon="6.68918">
        <ele>1312</ele>
        <time>2010-08-15T09:41:54Z</time>
      </trkpt>
      <trkpt lat="43.76082" lon="6.68915">
        <ele>1313</ele>
        <time>2010-08-15T09:42:03Z</time>
      </trkpt>
      <trkpt lat="43.76084" lon="6.68914">
        <ele>1313</ele>
        <time>2010-08-15T09:42:09Z</time>
      </trkpt>
      <trkpt lat="43.76084" lon="6.68913">
        <ele>1313</ele>
        <time>2010-08-15T09:42:18Z</time>
      </trkpt>
      <trkpt lat="43.76086" lon="6.68909">
        <ele>1312</ele>
        <time>2010-08-15T09:42:28Z</time>
      </trkpt>
      <trkpt lat="43.76087" lon="6.68901">
        <ele>1313</ele>
        <time>2010-08-15T09:42:36Z</time>
      </trkpt>
      <trkpt lat="43.76087" lon="6.68897">
        <ele>1314</ele>
        <time>2010-08-15T09:43:00Z</time>
      </trkpt>
      <trkpt lat="43.76087" lon="6.68895">
        <ele>1314</ele>
        <time>2010-08-15T09:43:02Z</time>
      </trkpt>
      <trkpt lat="43.76088" lon="6.68889">
        <ele>1314</ele>
        <time>2010-08-15T09:43:10Z</time>
      </trkpt>
      <trkpt lat="43.76089" lon="6.68888">
        <ele>1314</ele>
        <time>2010-08-15T09:43:17Z</time>
      </trkpt>
      <trkpt lat="43.76089" lon="6.68888">
        <ele>1314</ele>
        <time>2010-08-15T09:44:27Z</time>
      </trkpt>
      <trkpt lat="43.76089" lon="6.68885">
        <ele>1314</ele>
        <time>2010-08-15T09:44:36Z</time>
      </trkpt>
      <trkpt lat="43.76089" lon="6.68883">
        <ele>1313</ele>
        <time>2010-08-15T09:44:40Z</time>
      </trkpt>
      <trkpt lat="43.7609" lon="6.68879">
        <ele>1313</ele>
        <time>2010-08-15T09:44:44Z</time>
      </trkpt>
      <trkpt lat="43.76091" lon="6.68869">
        <ele>1314</ele>
        <time>2010-08-15T09:44:53Z</time>
      </trkpt>
      <trkpt lat="43.76091" lon="6.68864">
        <ele>1314</ele>
        <time>2010-08-15T09:44:57Z</time>
      </trkpt>
      <trkpt lat="43.76093" lon="6.68853">
        <ele>1313</ele>
        <time>2010-08-15T09:45:05Z</time>
      </trkpt>
      <trkpt lat="43.76094" lon="6.68848">
        <ele>1314</ele>
        <time>2010-08-15T09:45:09Z</time>
      </trkpt>
      <trkpt lat="43.76096" lon="6.68836">
        <ele>1314</ele>
        <time>2010-08-15T09:45:17Z</time>
      </trkpt>
      <trkpt lat="43.76098" lon="6.68825">
        <ele>1315</ele>
        <time>2010-08-15T09:45:24Z</time>
      </trkpt>
      <trkpt lat="43.76099" lon="6.68819">
        <ele>1314</ele>
        <time>2010-08-15T09:45:29Z</time>
      </trkpt>
      <trkpt lat="43.761" lon="6.68812">
        <ele>1315</ele>
        <time>2010-08-15T09:45:33Z</time>
      </trkpt>
      <trkpt lat="43.76102" lon="6.68806">
        <ele>1314</ele>
        <time>2010-08-15T09:45:37Z</time>
      </trkpt>
      <trkpt lat="43.76103" lon="6.68791">
        <ele>1314</ele>
        <time>2010-08-15T09:45:45Z</time>
      </trkpt>
      <trkpt lat="43.76104" lon="6.6879">
        <ele>1314</ele>
        <time>2010-08-15T09:45:46Z</time>
      </trkpt>
      <trkpt lat="43.76103" lon="6.68773">
        <ele>1314</ele>
        <time>2010-08-15T09:45:56Z</time>
      </trkpt>
      <trkpt lat="43.761" lon="6.68762">
        <ele>1314</ele>
        <time>2010-08-15T09:46:04Z</time>
      </trkpt>
      <trkpt lat="43.76097" lon="6.68752">
        <ele>1314</ele>
        <time>2010-08-15T09:46:10Z</time>
      </trkpt>
      <trkpt lat="43.76096" lon="6.68749">
        <ele>1313</ele>
        <time>2010-08-15T09:46:12Z</time>
      </trkpt>
      <trkpt lat="43.76094" lon="6.68742">
        <ele>1313</ele>
        <time>2010-08-15T09:46:17Z</time>
      </trkpt>
      <trkpt lat="43.76092" lon="6.68727">
        <ele>1312</ele>
        <time>2010-08-15T09:46:25Z</time>
      </trkpt>
      <trkpt lat="43.76092" lon="6.68717">
        <ele>1311</ele>
        <time>2010-08-15T09:46:31Z</time>
      </trkpt>
      <trkpt lat="43.76094" lon="6.68713">
        <ele>1311</ele>
        <time>2010-08-15T09:46:33Z</time>
      </trkpt>
      <trkpt lat="43.76096" lon="6.68697">
        <ele>1311</ele>
        <time>2010-08-15T09:46:42Z</time>
      </trkpt>
      <trkpt lat="43.76099" lon="6.68686">
        <ele>1312</ele>
        <time>2010-08-15T09:46:50Z</time>
      </trkpt>
      <trkpt lat="43.76099" lon="6.68682">
        <ele>1312</ele>
        <time>2010-08-15T09:46:52Z</time>
      </trkpt>
      <trkpt lat="43.76098" lon="6.68676">
        <ele>1312</ele>
        <time>2010-08-15T09:46:56Z</time>
      </trkpt>
      <trkpt lat="43.76093" lon="6.68665">
        <ele>1311</ele>
        <time>2010-08-15T09:47:05Z</time>
      </trkpt>
      <trkpt lat="43.76093" lon="6.68665">
        <ele>1311</ele>
        <time>2010-08-15T09:47:20Z</time>
      </trkpt>
      <trkpt lat="43.76092" lon="6.68664">
        <ele>1312</ele>
        <time>2010-08-15T09:47:48Z</time>
      </trkpt>
      <trkpt lat="43.76092" lon="6.68664">
        <ele>1312</ele>
        <time>2010-08-15T09:48:11Z</time>
      </trkpt>
      <trkpt lat="43.7609" lon="6.6866">
        <ele>1312</ele>
        <time>2010-08-15T09:48:21Z</time>
      </trkpt>
      <trkpt lat="43.7609" lon="6.68654">
        <ele>1311</ele>
        <time>2010-08-15T09:48:31Z</time>
      </trkpt>
      <trkpt lat="43.76089" lon="6.68649">
        <ele>1311</ele>
        <time>2010-08-15T09:48:37Z</time>
      </trkpt>
      <trkpt lat="43.76089" lon="6.68648">
        <ele>1311</ele>
        <time>2010-08-15T09:48:50Z</time>
      </trkpt>
      <trkpt lat="43.76089" lon="6.68648">
        <ele>1310</ele>
        <time>2010-08-15T09:49:09Z</time>
      </trkpt>
      <trkpt lat="43.76089" lon="6.68648">
        <ele>1310</ele>
        <time>2010-08-15T09:49:40Z</time>
      </trkpt>
      <trkpt lat="43.76088" lon="6.68648">
        <ele>1306</ele>
        <time>2010-08-15T09:50:26Z</time>
      </trkpt>
      <trkpt lat="43.76088" lon="6.68648">
        <ele>1311</ele>
        <time>2010-08-15T09:50:27Z</time>
      </trkpt>
      <trkpt lat="43.7608" lon="6.68636">
        <ele>1308</ele>
        <time>2010-08-15T09:51:18Z</time>
      </trkpt>
      <trkpt lat="43.76078" lon="6.68633">
        <ele>1311</ele>
        <time>2010-08-15T09:51:20Z</time>
      </trkpt>
      <trkpt lat="43.76076" lon="6.68628">
        <ele>1310</ele>
        <time>2010-08-15T09:51:23Z</time>
      </trkpt>
      <trkpt lat="43.76074" lon="6.68623">
        <ele>1309</ele>
        <time>2010-08-15T09:51:30Z</time>
      </trkpt>
      <trkpt lat="43.76073" lon="6.68622">
        <ele>1309</ele>
        <time>2010-08-15T09:51:38Z</time>
      </trkpt>
      <trkpt lat="43.76072" lon="6.6862">
        <ele>1309</ele>
        <time>2010-08-15T09:51:41Z</time>
      </trkpt>
      <trkpt lat="43.76069" lon="6.68607">
        <ele>1308</ele>
        <time>2010-08-15T09:51:46Z</time>
      </trkpt>
      <trkpt lat="43.7607" lon="6.68598">
        <ele>1308</ele>
        <time>2010-08-15T09:51:51Z</time>
      </trkpt>
      <trkpt lat="43.76068" lon="6.68594">
        <ele>1308</ele>
        <time>2010-08-15T09:51:57Z</time>
      </trkpt>
      <trkpt lat="43.76069" lon="6.68584">
        <ele>1308</ele>
        <time>2010-08-15T09:52:02Z</time>
      </trkpt>
      <trkpt lat="43.76068" lon="6.68568">
        <ele>1307</ele>
        <time>2010-08-15T09:52:08Z</time>
      </trkpt>
      <trkpt lat="43.76069" lon="6.68556">
        <ele>1308</ele>
        <time>2010-08-15T09:52:15Z</time>
      </trkpt>
      <trkpt lat="43.76071" lon="6.68551">
        <ele>1306</ele>
        <time>2010-08-15T09:52:18Z</time>
      </trkpt>
      <trkpt lat="43.76072" lon="6.68547">
        <ele>1306</ele>
        <time>2010-08-15T09:52:20Z</time>
      </trkpt>
      <trkpt lat="43.76071" lon="6.6854">
        <ele>1306</ele>
        <time>2010-08-15T09:52:24Z</time>
      </trkpt>
      <trkpt lat="43.76072" lon="6.68531">
        <ele>1306</ele>
        <time>2010-08-15T09:52:30Z</time>
      </trkpt>
      <trkpt lat="43.76071" lon="6.68526">
        <ele>1307</ele>
        <time>2010-08-15T09:52:33Z</time>
      </trkpt>
      <trkpt lat="43.76071" lon="6.68523">
        <ele>1307</ele>
        <time>2010-08-15T09:52:35Z</time>
      </trkpt>
      <trkpt lat="43.7607" lon="6.68519">
        <ele>1305</ele>
        <time>2010-08-15T09:52:38Z</time>
      </trkpt>
      <trkpt lat="43.7607" lon="6.68516">
        <ele>1305</ele>
        <time>2010-08-15T09:52:40Z</time>
      </trkpt>
      <trkpt lat="43.76068" lon="6.68503">
        <ele>1305</ele>
        <time>2010-08-15T09:52:49Z</time>
      </trkpt>
      <trkpt lat="43.76068" lon="6.68501">
        <ele>1305</ele>
        <time>2010-08-15T09:52:51Z</time>
      </trkpt>
      <trkpt lat="43.76067" lon="6.68495">
        <ele>1305</ele>
        <time>2010-08-15T09:52:59Z</time>
      </trkpt>
      <trkpt lat="43.76067" lon="6.6849">
        <ele>1303</ele>
        <time>2010-08-15T09:53:06Z</time>
      </trkpt>
      <trkpt lat="43.76067" lon="6.68489">
        <ele>1303</ele>
        <time>2010-08-15T09:53:07Z</time>
      </trkpt>
      <trkpt lat="43.76068" lon="6.68474">
        <ele>1305</ele>
        <time>2010-08-15T09:53:16Z</time>
      </trkpt>
      <trkpt lat="43.76069" lon="6.68464">
        <ele>1302</ele>
        <time>2010-08-15T09:53:23Z</time>
      </trkpt>
      <trkpt lat="43.76068" lon="6.68449">
        <ele>1302</ele>
        <time>2010-08-15T09:53:31Z</time>
      </trkpt>
      <trkpt lat="43.76067" lon="6.68438">
        <ele>1303</ele>
        <time>2010-08-15T09:53:39Z</time>
      </trkpt>
      <trkpt lat="43.76066" lon="6.68431">
        <ele>1301</ele>
        <time>2010-08-15T09:53:46Z</time>
      </trkpt>
      <trkpt lat="43.76067" lon="6.68421">
        <ele>1302</ele>
        <time>2010-08-15T09:53:52Z</time>
      </trkpt>
      <trkpt lat="43.76067" lon="6.68419">
        <ele>1302</ele>
        <time>2010-08-15T09:53:53Z</time>
      </trkpt>
      <trkpt lat="43.76064" lon="6.68403">
        <ele>1301</ele>
        <time>2010-08-15T09:54:01Z</time>
      </trkpt>
      <trkpt lat="43.76064" lon="6.68398">
        <ele>1302</ele>
        <time>2010-08-15T09:54:03Z</time>
      </trkpt>
      <trkpt lat="43.76063" lon="6.68389">
        <ele>1299</ele>
        <time>2010-08-15T09:54:07Z</time>
      </trkpt>
      <trkpt lat="43.76058" lon="6.6838">
        <ele>1299</ele>
        <time>2010-08-15T09:54:14Z</time>
      </trkpt>
      <trkpt lat="43.76051" lon="6.68362">
        <ele>1300</ele>
        <time>2010-08-15T09:54:24Z</time>
      </trkpt>
      <trkpt lat="43.76049" lon="6.68351">
        <ele>1299</ele>
        <time>2010-08-15T09:54:30Z</time>
      </trkpt>
      <trkpt lat="43.76048" lon="6.68343">
        <ele>1299</ele>
        <time>2010-08-15T09:54:35Z</time>
      </trkpt>
      <trkpt lat="43.76047" lon="6.68334">
        <ele>1299</ele>
        <time>2010-08-15T09:54:40Z</time>
      </trkpt>
      <trkpt lat="43.76048" lon="6.68325">
        <ele>1298</ele>
        <time>2010-08-15T09:54:46Z</time>
      </trkpt>
      <trkpt lat="43.76048" lon="6.68322">
        <ele>1300</ele>
        <time>2010-08-15T09:54:49Z</time>
      </trkpt>
      <trkpt lat="43.76049" lon="6.68317">
        <ele>1299</ele>
        <time>2010-08-15T09:54:53Z</time>
      </trkpt>
      <trkpt lat="43.76049" lon="6.68314">
        <ele>1297</ele>
        <time>2010-08-15T09:54:56Z</time>
      </trkpt>
      <trkpt lat="43.76048" lon="6.68313">
        <ele>1298</ele>
        <time>2010-08-15T09:55:00Z</time>
      </trkpt>
      <trkpt lat="43.76048" lon="6.68312">
        <ele>1296</ele>
        <time>2010-08-15T09:55:10Z</time>
      </trkpt>
      <trkpt lat="43.7605" lon="6.68303">
        <ele>1296</ele>
        <time>2010-08-15T09:55:16Z</time>
      </trkpt>
      <trkpt lat="43.7605" lon="6.68299">
        <ele>1298</ele>
        <time>2010-08-15T09:55:24Z</time>
      </trkpt>
      <trkpt lat="43.76049" lon="6.68291">
        <ele>1297</ele>
        <time>2010-08-15T09:55:30Z</time>
      </trkpt>
      <trkpt lat="43.76047" lon="6.68285">
        <ele>1295</ele>
        <time>2010-08-15T09:55:33Z</time>
      </trkpt>
      <trkpt lat="43.76046" lon="6.68275">
        <ele>1296</ele>
        <time>2010-08-15T09:55:39Z</time>
      </trkpt>
      <trkpt lat="43.76043" lon="6.68266">
        <ele>1297</ele>
        <time>2010-08-15T09:55:45Z</time>
      </trkpt>
      <trkpt lat="43.76043" lon="6.68262">
        <ele>1296</ele>
        <time>2010-08-15T09:55:49Z</time>
      </trkpt>
      <trkpt lat="43.76042" lon="6.68259">
        <ele>1294</ele>
        <time>2010-08-15T09:55:52Z</time>
      </trkpt>
      <trkpt lat="43.76041" lon="6.68251">
        <ele>1295</ele>
        <time>2010-08-15T09:55:57Z</time>
      </trkpt>
      <trkpt lat="43.76041" lon="6.6825">
        <ele>1292</ele>
        <time>2010-08-15T09:55:58Z</time>
      </trkpt>
      <trkpt lat="43.76041" lon="6.68249">
        <ele>1292</ele>
        <time>2010-08-15T09:55:59Z</time>
      </trkpt>
      <trkpt lat="43.76041" lon="6.68236">
        <ele>1293</ele>
        <time>2010-08-15T09:56:08Z</time>
      </trkpt>
      <trkpt lat="43.76041" lon="6.68228">
        <ele>1292</ele>
        <time>2010-08-15T09:56:14Z</time>
      </trkpt>
      <trkpt lat="43.76039" lon="6.68223">
        <ele>1294</ele>
        <time>2010-08-15T09:56:17Z</time>
      </trkpt>
      <trkpt lat="43.76038" lon="6.6822">
        <ele>1291</ele>
        <time>2010-08-15T09:56:21Z</time>
      </trkpt>
      <trkpt lat="43.76034" lon="6.68216">
        <ele>1292</ele>
        <time>2010-08-15T09:56:26Z</time>
      </trkpt>
      <trkpt lat="43.76032" lon="6.68212">
        <ele>1292</ele>
        <time>2010-08-15T09:56:29Z</time>
      </trkpt>
      <trkpt lat="43.76032" lon="6.68205">
        <ele>1295</ele>
        <time>2010-08-15T09:56:33Z</time>
      </trkpt>
      <trkpt lat="43.76032" lon="6.68204">
        <ele>1295</ele>
        <time>2010-08-15T09:56:34Z</time>
      </trkpt>
      <trkpt lat="43.7603" lon="6.68192">
        <ele>1294</ele>
        <time>2010-08-15T09:56:41Z</time>
      </trkpt>
      <trkpt lat="43.76031" lon="6.68178">
        <ele>1292</ele>
        <time>2010-08-15T09:56:47Z</time>
      </trkpt>
      <trkpt lat="43.76031" lon="6.68167">
        <ele>1291</ele>
        <time>2010-08-15T09:56:53Z</time>
      </trkpt>
      <trkpt lat="43.76034" lon="6.6816">
        <ele>1293</ele>
        <time>2010-08-15T09:56:57Z</time>
      </trkpt>
      <trkpt lat="43.76035" lon="6.68151">
        <ele>1291</ele>
        <time>2010-08-15T09:57:00Z</time>
      </trkpt>
      <trkpt lat="43.76035" lon="6.68145">
        <ele>1294</ele>
        <time>2010-08-15T09:57:03Z</time>
      </trkpt>
      <trkpt lat="43.76033" lon="6.68135">
        <ele>1288</ele>
        <time>2010-08-15T09:57:07Z</time>
      </trkpt>
      <trkpt lat="43.76032" lon="6.68123">
        <ele>1291</ele>
        <time>2010-08-15T09:57:14Z</time>
      </trkpt>
      <trkpt lat="43.76032" lon="6.68114">
        <ele>1287</ele>
        <time>2010-08-15T09:57:20Z</time>
      </trkpt>
      <trkpt lat="43.76031" lon="6.68102">
        <ele>1288</ele>
        <time>2010-08-15T09:57:27Z</time>
      </trkpt>
      <trkpt lat="43.76031" lon="6.68101">
        <ele>1287</ele>
        <time>2010-08-15T09:57:28Z</time>
      </trkpt>
      <trkpt lat="43.76026" lon="6.6809">
        <ele>1289</ele>
        <time>2010-08-15T09:57:35Z</time>
      </trkpt>
      <trkpt lat="43.76023" lon="6.68086">
        <ele>1288</ele>
        <time>2010-08-15T09:57:39Z</time>
      </trkpt>
      <trkpt lat="43.76019" lon="6.68084">
        <ele>1285</ele>
        <time>2010-08-15T09:57:44Z</time>
      </trkpt>
      <trkpt lat="43.76015" lon="6.68079">
        <ele>1288</ele>
        <time>2010-08-15T09:57:49Z</time>
      </trkpt>
      <trkpt lat="43.76014" lon="6.68076">
        <ele>1285</ele>
        <time>2010-08-15T09:57:52Z</time>
      </trkpt>
      <trkpt lat="43.76012" lon="6.68071">
        <ele>1287</ele>
        <time>2010-08-15T09:57:56Z</time>
      </trkpt>
      <trkpt lat="43.7601" lon="6.68064">
        <ele>1285</ele>
        <time>2010-08-15T09:58:01Z</time>
      </trkpt>
      <trkpt lat="43.7601" lon="6.6806">
        <ele>1285</ele>
        <time>2010-08-15T09:58:11Z</time>
      </trkpt>
      <trkpt lat="43.7601" lon="6.68052">
        <ele>1285</ele>
        <time>2010-08-15T09:58:26Z</time>
      </trkpt>
      <trkpt lat="43.76009" lon="6.68043">
        <ele>1285</ele>
        <time>2010-08-15T09:58:43Z</time>
      </trkpt>
      <trkpt lat="43.76011" lon="6.68038">
        <ele>1283</ele>
        <time>2010-08-15T09:58:46Z</time>
      </trkpt>
      <trkpt lat="43.76012" lon="6.68029">
        <ele>1281</ele>
        <time>2010-08-15T09:58:56Z</time>
      </trkpt>
      <trkpt lat="43.76011" lon="6.68024">
        <ele>1281</ele>
        <time>2010-08-15T09:59:06Z</time>
      </trkpt>
      <trkpt lat="43.76011" lon="6.68019">
        <ele>1281</ele>
        <time>2010-08-15T09:59:12Z</time>
      </trkpt>
      <trkpt lat="43.76009" lon="6.68004">
        <ele>1279</ele>
        <time>2010-08-15T09:59:22Z</time>
      </trkpt>
      <trkpt lat="43.76009" lon="6.67998">
        <ele>1279</ele>
        <time>2010-08-15T09:59:29Z</time>
      </trkpt>
      <trkpt lat="43.76009" lon="6.67995">
        <ele>1276</ele>
        <time>2010-08-15T09:59:44Z</time>
      </trkpt>
      <trkpt lat="43.7601" lon="6.67987">
        <ele>1277</ele>
        <time>2010-08-15T09:59:52Z</time>
      </trkpt>
      <trkpt lat="43.76008" lon="6.67964">
        <ele>1277</ele>
        <time>2010-08-15T10:00:04Z</time>
      </trkpt>
      <trkpt lat="43.76012" lon="6.67945">
        <ele>1274</ele>
        <time>2010-08-15T10:00:22Z</time>
      </trkpt>
      <trkpt lat="43.76014" lon="6.67937">
        <ele>1274</ele>
        <time>2010-08-15T10:00:31Z</time>
      </trkpt>
      <trkpt lat="43.76016" lon="6.67915">
        <ele>1274</ele>
        <time>2010-08-15T10:01:01Z</time>
      </trkpt>
      <trkpt lat="43.76016" lon="6.67911">
        <ele>1271</ele>
        <time>2010-08-15T10:01:05Z</time>
      </trkpt>
      <trkpt lat="43.76016" lon="6.6791">
        <ele>1272</ele>
        <time>2010-08-15T10:01:07Z</time>
      </trkpt>
      <trkpt lat="43.76015" lon="6.67905">
        <ele>1270</ele>
        <time>2010-08-15T10:01:13Z</time>
      </trkpt>
      <trkpt lat="43.76012" lon="6.67882">
        <ele>1271</ele>
        <time>2010-08-15T10:01:37Z</time>
      </trkpt>
      <trkpt lat="43.76011" lon="6.67878">
        <ele>1272</ele>
        <time>2010-08-15T10:01:39Z</time>
      </trkpt>
      <trkpt lat="43.76011" lon="6.67873">
        <ele>1271</ele>
        <time>2010-08-15T10:01:42Z</time>
      </trkpt>
      <trkpt lat="43.76007" lon="6.67866">
        <ele>1271</ele>
        <time>2010-08-15T10:01:49Z</time>
      </trkpt>
      <trkpt lat="43.76007" lon="6.67861">
        <ele>1270</ele>
        <time>2010-08-15T10:01:52Z</time>
      </trkpt>
      <trkpt lat="43.76004" lon="6.67852">
        <ele>1271</ele>
        <time>2010-08-15T10:01:57Z</time>
      </trkpt>
      <trkpt lat="43.76002" lon="6.67849">
        <ele>1268</ele>
        <time>2010-08-15T10:01:59Z</time>
      </trkpt>
      <trkpt lat="43.76002" lon="6.67847">
        <ele>1268</ele>
        <time>2010-08-15T10:02:00Z</time>
      </trkpt>
      <trkpt lat="43.76" lon="6.67832">
        <ele>1267</ele>
        <time>2010-08-15T10:02:06Z</time>
      </trkpt>
      <trkpt lat="43.75998" lon="6.67823">
        <ele>1267</ele>
        <time>2010-08-15T10:02:11Z</time>
      </trkpt>
      <trkpt lat="43.75995" lon="6.67818">
        <ele>1267</ele>
        <time>2010-08-15T10:02:16Z</time>
      </trkpt>
      <trkpt lat="43.75994" lon="6.67817">
        <ele>1269</ele>
        <time>2010-08-15T10:02:18Z</time>
      </trkpt>
      <trkpt lat="43.75989" lon="6.67806">
        <ele>1267</ele>
        <time>2010-08-15T10:02:27Z</time>
      </trkpt>
      <trkpt lat="43.75984" lon="6.67798">
        <ele>1265</ele>
        <time>2010-08-15T10:02:34Z</time>
      </trkpt>
      <trkpt lat="43.75984" lon="6.67796">
        <ele>1264</ele>
        <time>2010-08-15T10:02:35Z</time>
      </trkpt>
      <trkpt lat="43.75982" lon="6.67792">
        <ele>1268</ele>
        <time>2010-08-15T10:02:38Z</time>
      </trkpt>
      <trkpt lat="43.75977" lon="6.67764">
        <ele>1264</ele>
        <time>2010-08-15T10:02:57Z</time>
      </trkpt>
      <trkpt lat="43.75977" lon="6.67764">
        <ele>1264</ele>
        <time>2010-08-15T10:02:58Z</time>
      </trkpt>
      <trkpt lat="43.75981" lon="6.67745">
        <ele>1264</ele>
        <time>2010-08-15T10:03:16Z</time>
      </trkpt>
      <trkpt lat="43.75982" lon="6.67743">
        <ele>1260</ele>
        <time>2010-08-15T10:03:25Z</time>
      </trkpt>
      <trkpt lat="43.75988" lon="6.67737">
        <ele>1264</ele>
        <time>2010-08-15T10:03:38Z</time>
      </trkpt>
      <trkpt lat="43.7599" lon="6.67735">
        <ele>1262</ele>
        <time>2010-08-15T10:03:41Z</time>
      </trkpt>
      <trkpt lat="43.75994" lon="6.67726">
        <ele>1258</ele>
        <time>2010-08-15T10:03:50Z</time>
      </trkpt>
      <trkpt lat="43.75997" lon="6.67717">
        <ele>1258</ele>
        <time>2010-08-15T10:03:56Z</time>
      </trkpt>
      <trkpt lat="43.75997" lon="6.67709">
        <ele>1259</ele>
        <time>2010-08-15T10:04:03Z</time>
      </trkpt>
      <trkpt lat="43.75996" lon="6.67695">
        <ele>1258</ele>
        <time>2010-08-15T10:04:12Z</time>
      </trkpt>
      <trkpt lat="43.75993" lon="6.67667">
        <ele>1257</ele>
        <time>2010-08-15T10:04:27Z</time>
      </trkpt>
      <trkpt lat="43.75991" lon="6.6765">
        <ele>1256</ele>
        <time>2010-08-15T10:04:35Z</time>
      </trkpt>
      <trkpt lat="43.75989" lon="6.67644">
        <ele>1257</ele>
        <time>2010-08-15T10:04:42Z</time>
      </trkpt>
      <trkpt lat="43.75989" lon="6.67641">
        <ele>1255</ele>
        <time>2010-08-15T10:04:44Z</time>
      </trkpt>
      <trkpt lat="43.75988" lon="6.67638">
        <ele>1253</ele>
        <time>2010-08-15T10:05:07Z</time>
      </trkpt>
      <trkpt lat="43.75988" lon="6.67638">
        <ele>1251</ele>
        <time>2010-08-15T10:05:19Z</time>
      </trkpt>
      <trkpt lat="43.75977" lon="6.67625">
        <ele>1251</ele>
        <time>2010-08-15T10:05:33Z</time>
      </trkpt>
      <trkpt lat="43.75971" lon="6.67617">
        <ele>1253</ele>
        <time>2010-08-15T10:05:41Z</time>
      </trkpt>
      <trkpt lat="43.75969" lon="6.67613">
        <ele>1250</ele>
        <time>2010-08-15T10:05:44Z</time>
      </trkpt>
      <trkpt lat="43.75968" lon="6.67611">
        <ele>1249</ele>
        <time>2010-08-15T10:05:45Z</time>
      </trkpt>
      <trkpt lat="43.75961" lon="6.676">
        <ele>1251</ele>
        <time>2010-08-15T10:05:56Z</time>
      </trkpt>
      <trkpt lat="43.7595" lon="6.67587">
        <ele>1252</ele>
        <time>2010-08-15T10:06:12Z</time>
      </trkpt>
      <trkpt lat="43.75943" lon="6.6758">
        <ele>1250</ele>
        <time>2010-08-15T10:06:18Z</time>
      </trkpt>
      <trkpt lat="43.75937" lon="6.6757">
        <ele>1251</ele>
        <time>2010-08-15T10:06:26Z</time>
      </trkpt>
      <trkpt lat="43.75934" lon="6.67567">
        <ele>1249</ele>
        <time>2010-08-15T10:06:31Z</time>
      </trkpt>
      <trkpt lat="43.75933" lon="6.67565">
        <ele>1250</ele>
        <time>2010-08-15T10:06:33Z</time>
      </trkpt>
      <trkpt lat="43.7593" lon="6.67559">
        <ele>1250</ele>
        <time>2010-08-15T10:06:38Z</time>
      </trkpt>
      <trkpt lat="43.75929" lon="6.67558">
        <ele>1250</ele>
        <time>2010-08-15T10:06:39Z</time>
      </trkpt>
      <trkpt lat="43.75926" lon="6.67552">
        <ele>1247</ele>
        <time>2010-08-15T10:06:44Z</time>
      </trkpt>
      <trkpt lat="43.75926" lon="6.67551">
        <ele>1247</ele>
        <time>2010-08-15T10:06:45Z</time>
      </trkpt>
      <trkpt lat="43.75923" lon="6.67546">
        <ele>1248</ele>
        <time>2010-08-15T10:06:49Z</time>
      </trkpt>
      <trkpt lat="43.75921" lon="6.67542">
        <ele>1248</ele>
        <time>2010-08-15T10:07:26Z</time>
      </trkpt>
      <trkpt lat="43.75916" lon="6.67534">
        <ele>1247</ele>
        <time>2010-08-15T10:07:37Z</time>
      </trkpt>
      <trkpt lat="43.75913" lon="6.67526">
        <ele>1246</ele>
        <time>2010-08-15T10:07:44Z</time>
      </trkpt>
      <trkpt lat="43.75912" lon="6.67522">
        <ele>1245</ele>
        <time>2010-08-15T10:07:47Z</time>
      </trkpt>
      <trkpt lat="43.75909" lon="6.67516">
        <ele>1246</ele>
        <time>2010-08-15T10:07:51Z</time>
      </trkpt>
      <trkpt lat="43.75908" lon="6.67514">
        <ele>1245</ele>
        <time>2010-08-15T10:07:53Z</time>
      </trkpt>
      <trkpt lat="43.75906" lon="6.67512">
        <ele>1246</ele>
        <time>2010-08-15T10:07:56Z</time>
      </trkpt>
      <trkpt lat="43.75904" lon="6.67509">
        <ele>1245</ele>
        <time>2010-08-15T10:07:59Z</time>
      </trkpt>
      <trkpt lat="43.75903" lon="6.67503">
        <ele>1246</ele>
        <time>2010-08-15T10:08:03Z</time>
      </trkpt>
      <trkpt lat="43.75897" lon="6.67494">
        <ele>1244</ele>
        <time>2010-08-15T10:08:12Z</time>
      </trkpt>
      <trkpt lat="43.75897" lon="6.67493">
        <ele>1245</ele>
        <time>2010-08-15T10:08:13Z</time>
      </trkpt>
      <trkpt lat="43.75895" lon="6.67491">
        <ele>1245</ele>
        <time>2010-08-15T10:08:19Z</time>
      </trkpt>
      <trkpt lat="43.75885" lon="6.67487">
        <ele>1246</ele>
        <time>2010-08-15T10:08:45Z</time>
      </trkpt>
      <trkpt lat="43.75881" lon="6.67483">
        <ele>1246</ele>
        <time>2010-08-15T10:09:11Z</time>
      </trkpt>
      <trkpt lat="43.75874" lon="6.67479">
        <ele>1243</ele>
        <time>2010-08-15T10:09:19Z</time>
      </trkpt>
      <trkpt lat="43.75873" lon="6.67478">
        <ele>1245</ele>
        <time>2010-08-15T10:09:22Z</time>
      </trkpt>
      <trkpt lat="43.75871" lon="6.67476">
        <ele>1244</ele>
        <time>2010-08-15T10:09:24Z</time>
      </trkpt>
      <trkpt lat="43.75866" lon="6.67473">
        <ele>1245</ele>
        <time>2010-08-15T10:09:29Z</time>
      </trkpt>
      <trkpt lat="43.75863" lon="6.67471">
        <ele>1241</ele>
        <time>2010-08-15T10:09:32Z</time>
      </trkpt>
      <trkpt lat="43.75863" lon="6.6747">
        <ele>1243</ele>
        <time>2010-08-15T10:09:33Z</time>
      </trkpt>
      <trkpt lat="43.75857" lon="6.67465">
        <ele>1241</ele>
        <time>2010-08-15T10:09:41Z</time>
      </trkpt>
      <trkpt lat="43.75856" lon="6.67464">
        <ele>1242</ele>
        <time>2010-08-15T10:09:42Z</time>
      </trkpt>
      <trkpt lat="43.75853" lon="6.6746">
        <ele>1243</ele>
        <time>2010-08-15T10:09:49Z</time>
      </trkpt>
      <trkpt lat="43.75852" lon="6.67459">
        <ele>1242</ele>
        <time>2010-08-15T10:09:51Z</time>
      </trkpt>
      <trkpt lat="43.75851" lon="6.67455">
        <ele>1241</ele>
        <time>2010-08-15T10:09:54Z</time>
      </trkpt>
      <trkpt lat="43.7585" lon="6.67449">
        <ele>1239</ele>
        <time>2010-08-15T10:09:59Z</time>
      </trkpt>
      <trkpt lat="43.7585" lon="6.67447">
        <ele>1243</ele>
        <time>2010-08-15T10:10:01Z</time>
      </trkpt>
      <trkpt lat="43.75849" lon="6.67444">
        <ele>1238</ele>
        <time>2010-08-15T10:10:04Z</time>
      </trkpt>
      <trkpt lat="43.75849" lon="6.67442">
        <ele>1240</ele>
        <time>2010-08-15T10:10:12Z</time>
      </trkpt>
      <trkpt lat="43.75846" lon="6.67437">
        <ele>1240</ele>
        <time>2010-08-15T10:10:25Z</time>
      </trkpt>
      <trkpt lat="43.75843" lon="6.6743">
        <ele>1240</ele>
        <time>2010-08-15T10:10:32Z</time>
      </trkpt>
      <trkpt lat="43.75842" lon="6.67426">
        <ele>1239</ele>
        <time>2010-08-15T10:10:35Z</time>
      </trkpt>
      <trkpt lat="43.75841" lon="6.67423">
        <ele>1242</ele>
        <time>2010-08-15T10:10:37Z</time>
      </trkpt>
      <trkpt lat="43.75838" lon="6.67416">
        <ele>1241</ele>
        <time>2010-08-15T10:10:43Z</time>
      </trkpt>
      <trkpt lat="43.75835" lon="6.67413">
        <ele>1240</ele>
        <time>2010-08-15T10:10:46Z</time>
      </trkpt>
      <trkpt lat="43.75831" lon="6.67406">
        <ele>1239</ele>
        <time>2010-08-15T10:10:53Z</time>
      </trkpt>
      <trkpt lat="43.75827" lon="6.67398">
        <ele>1237</ele>
        <time>2010-08-15T10:11:01Z</time>
      </trkpt>
      <trkpt lat="43.75822" lon="6.67391">
        <ele>1237</ele>
        <time>2010-08-15T10:11:11Z</time>
      </trkpt>
      <trkpt lat="43.75821" lon="6.6739">
        <ele>1236</ele>
        <time>2010-08-15T10:11:13Z</time>
      </trkpt>
      <trkpt lat="43.7582" lon="6.67389">
        <ele>1238</ele>
        <time>2010-08-15T10:11:15Z</time>
      </trkpt>
      <trkpt lat="43.7582" lon="6.67389">
        <ele>1234</ele>
        <time>2010-08-15T10:11:16Z</time>
      </trkpt>
      <trkpt lat="43.7582" lon="6.67389">
        <ele>1235</ele>
        <time>2010-08-15T10:11:17Z</time>
      </trkpt>
      <trkpt lat="43.75816" lon="6.67383">
        <ele>1235</ele>
        <time>2010-08-15T10:11:23Z</time>
      </trkpt>
      <trkpt lat="43.75811" lon="6.67377">
        <ele>1235</ele>
        <time>2010-08-15T10:11:32Z</time>
      </trkpt>
      <trkpt lat="43.75807" lon="6.67372">
        <ele>1234</ele>
        <time>2010-08-15T10:11:36Z</time>
      </trkpt>
      <trkpt lat="43.75801" lon="6.67369">
        <ele>1236</ele>
        <time>2010-08-15T10:11:41Z</time>
      </trkpt>
      <trkpt lat="43.75797" lon="6.67363">
        <ele>1233</ele>
        <time>2010-08-15T10:11:49Z</time>
      </trkpt>
      <trkpt lat="43.75797" lon="6.67362">
        <ele>1233</ele>
        <time>2010-08-15T10:11:50Z</time>
      </trkpt>
      <trkpt lat="43.75795" lon="6.67359">
        <ele>1234</ele>
        <time>2010-08-15T10:11:53Z</time>
      </trkpt>
      <trkpt lat="43.75791" lon="6.67355">
        <ele>1233</ele>
        <time>2010-08-15T10:11:57Z</time>
      </trkpt>
      <trkpt lat="43.75788" lon="6.67349">
        <ele>1232</ele>
        <time>2010-08-15T10:12:05Z</time>
      </trkpt>
      <trkpt lat="43.75788" lon="6.67349">
        <ele>1229</ele>
        <time>2010-08-15T10:12:19Z</time>
      </trkpt>
      <trkpt lat="43.75788" lon="6.67349">
        <ele>1234</ele>
        <time>2010-08-15T10:12:20Z</time>
      </trkpt>
      <trkpt lat="43.75785" lon="6.67346">
        <ele>1231</ele>
        <time>2010-08-15T10:12:28Z</time>
      </trkpt>
      <trkpt lat="43.75774" lon="6.67329">
        <ele>1229</ele>
        <time>2010-08-15T10:13:14Z</time>
      </trkpt>
      <trkpt lat="43.75756" lon="6.67293">
        <ele>1227</ele>
        <time>2010-08-15T10:13:45Z</time>
      </trkpt>
      <trkpt lat="43.75751" lon="6.67287">
        <ele>1229</ele>
        <time>2010-08-15T10:13:50Z</time>
      </trkpt>
      <trkpt lat="43.75747" lon="6.67283">
        <ele>1228</ele>
        <time>2010-08-15T10:13:55Z</time>
      </trkpt>
      <trkpt lat="43.75743" lon="6.67275">
        <ele>1231</ele>
        <time>2010-08-15T10:14:02Z</time>
      </trkpt>
      <trkpt lat="43.7574" lon="6.67269">
        <ele>1229</ele>
        <time>2010-08-15T10:14:07Z</time>
      </trkpt>
      <trkpt lat="43.75738" lon="6.67267">
        <ele>1230</ele>
        <time>2010-08-15T10:14:11Z</time>
      </trkpt>
      <trkpt lat="43.75737" lon="6.6726">
        <ele>1230</ele>
        <time>2010-08-15T10:14:16Z</time>
      </trkpt>
      <trkpt lat="43.75731" lon="6.67252">
        <ele>1229</ele>
        <time>2010-08-15T10:14:25Z</time>
      </trkpt>
      <trkpt lat="43.7573" lon="6.67249">
        <ele>1231</ele>
        <time>2010-08-15T10:14:28Z</time>
      </trkpt>
      <trkpt lat="43.75724" lon="6.67241">
        <ele>1232</ele>
        <time>2010-08-15T10:14:37Z</time>
      </trkpt>
      <trkpt lat="43.75718" lon="6.67237">
        <ele>1232</ele>
        <time>2010-08-15T10:14:42Z</time>
      </trkpt>
      <trkpt lat="43.75712" lon="6.67232">
        <ele>1233</ele>
        <time>2010-08-15T10:14:48Z</time>
      </trkpt>
      <trkpt lat="43.75708" lon="6.67227">
        <ele>1233</ele>
        <time>2010-08-15T10:14:56Z</time>
      </trkpt>
      <trkpt lat="43.75704" lon="6.6722">
        <ele>1234</ele>
        <time>2010-08-15T10:15:02Z</time>
      </trkpt>
      <trkpt lat="43.75698" lon="6.67218">
        <ele>1234</ele>
        <time>2010-08-15T10:15:14Z</time>
      </trkpt>
      <trkpt lat="43.75692" lon="6.67217">
        <ele>1234</ele>
        <time>2010-08-15T10:15:20Z</time>
      </trkpt>
      <trkpt lat="43.75687" lon="6.67215">
        <ele>1234</ele>
        <time>2010-08-15T10:15:24Z</time>
      </trkpt>
      <trkpt lat="43.75684" lon="6.67215">
        <ele>1236</ele>
        <time>2010-08-15T10:15:27Z</time>
      </trkpt>
      <trkpt lat="43.75676" lon="6.67215">
        <ele>1236</ele>
        <time>2010-08-15T10:15:35Z</time>
      </trkpt>
      <trkpt lat="43.75662" lon="6.67215">
        <ele>1238</ele>
        <time>2010-08-15T10:15:54Z</time>
      </trkpt>
      <trkpt lat="43.75657" lon="6.67215">
        <ele>1239</ele>
        <time>2010-08-15T10:16:30Z</time>
      </trkpt>
      <trkpt lat="43.7565" lon="6.67214">
        <ele>1240</ele>
        <time>2010-08-15T10:16:38Z</time>
      </trkpt>
      <trkpt lat="43.75648" lon="6.67214">
        <ele>1239</ele>
        <time>2010-08-15T10:16:40Z</time>
      </trkpt>
      <trkpt lat="43.75629" lon="6.67217">
        <ele>1242</ele>
        <time>2010-08-15T10:17:04Z</time>
      </trkpt>
      <trkpt lat="43.75611" lon="6.67226">
        <ele>1245</ele>
        <time>2010-08-15T10:17:51Z</time>
      </trkpt>
      <trkpt lat="43.75591" lon="6.67236">
        <ele>1244</ele>
        <time>2010-08-15T10:18:19Z</time>
      </trkpt>
      <trkpt lat="43.75589" lon="6.67237">
        <ele>1246</ele>
        <time>2010-08-15T10:18:22Z</time>
      </trkpt>
      <trkpt lat="43.75578" lon="6.6724">
        <ele>1247</ele>
        <time>2010-08-15T10:18:34Z</time>
      </trkpt>
      <trkpt lat="43.75569" lon="6.67239">
        <ele>1248</ele>
        <time>2010-08-15T10:18:48Z</time>
      </trkpt>
      <trkpt lat="43.7556" lon="6.67237">
        <ele>1248</ele>
        <time>2010-08-15T10:19:05Z</time>
      </trkpt>
      <trkpt lat="43.75547" lon="6.67232">
        <ele>1250</ele>
        <time>2010-08-15T10:19:17Z</time>
      </trkpt>
      <trkpt lat="43.7554" lon="6.67232">
        <ele>1250</ele>
        <time>2010-08-15T10:19:25Z</time>
      </trkpt>
      <trkpt lat="43.75533" lon="6.67233">
        <ele>1252</ele>
        <time>2010-08-15T10:19:42Z</time>
      </trkpt>
      <trkpt lat="43.75533" lon="6.67233">
        <ele>1249</ele>
        <time>2010-08-15T10:19:45Z</time>
      </trkpt>
      <trkpt lat="43.75533" lon="6.67233">
        <ele>1251</ele>
        <time>2010-08-15T10:19:51Z</time>
      </trkpt>
      <trkpt lat="43.75515" lon="6.67232">
        <ele>1250</ele>
        <time>2010-08-15T10:19:58Z</time>
      </trkpt>
      <trkpt lat="43.75513" lon="6.67232">
        <ele>1251</ele>
        <time>2010-08-15T10:19:59Z</time>
      </trkpt>
      <trkpt lat="43.75511" lon="6.67232">
        <ele>1249</ele>
        <time>2010-08-15T10:20:01Z</time>
      </trkpt>
      <trkpt lat="43.75501" lon="6.67227">
        <ele>1252</ele>
        <time>2010-08-15T10:20:10Z</time>
      </trkpt>
      <trkpt lat="43.75501" lon="6.6721">
        <ele>1252</ele>
        <time>2010-08-15T10:20:18Z</time>
      </trkpt>
      <trkpt lat="43.755" lon="6.672">
        <ele>1251</ele>
        <time>2010-08-15T10:20:24Z</time>
      </trkpt>
      <trkpt lat="43.75493" lon="6.6719">
        <ele>1251</ele>
        <time>2010-08-15T10:20:37Z</time>
      </trkpt>
      <trkpt lat="43.75486" lon="6.67189">
        <ele>1252</ele>
        <time>2010-08-15T10:20:49Z</time>
      </trkpt>
      <trkpt lat="43.75481" lon="6.67185">
        <ele>1253</ele>
        <time>2010-08-15T10:20:56Z</time>
      </trkpt>
      <trkpt lat="43.7547" lon="6.67181">
        <ele>1253</ele>
        <time>2010-08-15T10:21:11Z</time>
      </trkpt>
      <trkpt lat="43.75464" lon="6.67179">
        <ele>1252</ele>
        <time>2010-08-15T10:21:21Z</time>
      </trkpt>
      <trkpt lat="43.75458" lon="6.67176">
        <ele>1254</ele>
        <time>2010-08-15T10:21:26Z</time>
      </trkpt>
      <trkpt lat="43.75451" lon="6.67171">
        <ele>1252</ele>
        <time>2010-08-15T10:21:30Z</time>
      </trkpt>
      <trkpt lat="43.7544" lon="6.67157">
        <ele>1252</ele>
        <time>2010-08-15T10:21:41Z</time>
      </trkpt>
      <trkpt lat="43.75437" lon="6.67152">
        <ele>1251</ele>
        <time>2010-08-15T10:21:43Z</time>
      </trkpt>
      <trkpt lat="43.75437" lon="6.67152">
        <ele>1255</ele>
        <time>2010-08-15T10:21:46Z</time>
      </trkpt>
      <trkpt lat="43.75434" lon="6.67149">
        <ele>1252</ele>
        <time>2010-08-15T10:21:49Z</time>
      </trkpt>
      <trkpt lat="43.75428" lon="6.67139">
        <ele>1255</ele>
        <time>2010-08-15T10:21:58Z</time>
      </trkpt>
      <trkpt lat="43.75425" lon="6.67135">
        <ele>1251</ele>
        <time>2010-08-15T10:22:01Z</time>
      </trkpt>
      <trkpt lat="43.75422" lon="6.6713">
        <ele>1254</ele>
        <time>2010-08-15T10:22:04Z</time>
      </trkpt>
      <trkpt lat="43.75408" lon="6.67116">
        <ele>1253</ele>
        <time>2010-08-15T10:22:21Z</time>
      </trkpt>
      <trkpt lat="43.75403" lon="6.67113">
        <ele>1256</ele>
        <time>2010-08-15T10:22:29Z</time>
      </trkpt>
      <trkpt lat="43.75396" lon="6.67113">
        <ele>1257</ele>
        <time>2010-08-15T10:22:39Z</time>
      </trkpt>
      <trkpt lat="43.75393" lon="6.67111">
        <ele>1260</ele>
        <time>2010-08-15T10:22:57Z</time>
      </trkpt>
      <trkpt lat="43.75393" lon="6.67111">
        <ele>1259</ele>
        <time>2010-08-15T10:23:00Z</time>
      </trkpt>
      <trkpt lat="43.7539" lon="6.67107">
        <ele>1258</ele>
        <time>2010-08-15T10:23:39Z</time>
      </trkpt>
      <trkpt lat="43.7539" lon="6.67102">
        <ele>1261</ele>
        <time>2010-08-15T10:27:29Z</time>
      </trkpt>
      <trkpt lat="43.75391" lon="6.67098">
        <ele>1262</ele>
        <time>2010-08-15T10:27:37Z</time>
      </trkpt>
      <trkpt lat="43.75394" lon="6.67087">
        <ele>1265</ele>
        <time>2010-08-15T10:27:53Z</time>
      </trkpt>
      <trkpt lat="43.75403" lon="6.67061">
        <ele>1269</ele>
        <time>2010-08-15T10:28:29Z</time>
      </trkpt>
      <trkpt lat="43.75404" lon="6.67059">
        <ele>1268</ele>
        <time>2010-08-15T10:28:30Z</time>
      </trkpt>
      <trkpt lat="43.75413" lon="6.67035">
        <ele>1271</ele>
        <time>2010-08-15T10:29:03Z</time>
      </trkpt>
      <trkpt lat="43.75419" lon="6.67022">
        <ele>1275</ele>
        <time>2010-08-15T10:29:26Z</time>
      </trkpt>
      <trkpt lat="43.75428" lon="6.67006">
        <ele>1271</ele>
        <time>2010-08-15T10:30:24Z</time>
      </trkpt>
      <trkpt lat="43.75427" lon="6.67004">
        <ele>1271</ele>
        <time>2010-08-15T10:30:30Z</time>
      </trkpt>
      <trkpt lat="43.75428" lon="6.67002">
        <ele>1272</ele>
        <time>2010-08-15T10:30:32Z</time>
      </trkpt>
      <trkpt lat="43.75428" lon="6.67">
        <ele>1270</ele>
        <time>2010-08-15T10:30:37Z</time>
      </trkpt>
      <trkpt lat="43.75432" lon="6.66997">
        <ele>1273</ele>
        <time>2010-08-15T10:30:40Z</time>
      </trkpt>
      <trkpt lat="43.7544" lon="6.66987">
        <ele>1270</ele>
        <time>2010-08-15T10:30:48Z</time>
      </trkpt>
      <trkpt lat="43.75456" lon="6.66981">
        <ele>1270</ele>
        <time>2010-08-15T10:30:57Z</time>
      </trkpt>
      <trkpt lat="43.75463" lon="6.66972">
        <ele>1268</ele>
        <time>2010-08-15T10:31:12Z</time>
      </trkpt>
      <trkpt lat="43.75471" lon="6.66963">
        <ele>1268</ele>
        <time>2010-08-15T10:31:24Z</time>
      </trkpt>
      <trkpt lat="43.7549" lon="6.66929">
        <ele>1265</ele>
        <time>2010-08-15T10:31:55Z</time>
      </trkpt>
      <trkpt lat="43.75491" lon="6.66928">
        <ele>1264</ele>
        <time>2010-08-15T10:31:57Z</time>
      </trkpt>
      <trkpt lat="43.755" lon="6.66914">
        <ele>1264</ele>
        <time>2010-08-15T10:32:16Z</time>
      </trkpt>
      <trkpt lat="43.75502" lon="6.66913">
        <ele>1261</ele>
        <time>2010-08-15T10:32:17Z</time>
      </trkpt>
      <trkpt lat="43.75507" lon="6.66907">
        <ele>1261</ele>
        <time>2010-08-15T10:32:19Z</time>
      </trkpt>
      <trkpt lat="43.75516" lon="6.66896">
        <ele>1263</ele>
        <time>2010-08-15T10:32:26Z</time>
      </trkpt>
      <trkpt lat="43.7552" lon="6.66891">
        <ele>1259</ele>
        <time>2010-08-15T10:32:30Z</time>
      </trkpt>
      <trkpt lat="43.75521" lon="6.6689">
        <ele>1259</ele>
        <time>2010-08-15T10:32:31Z</time>
      </trkpt>
      <trkpt lat="43.75524" lon="6.66884">
        <ele>1259</ele>
        <time>2010-08-15T10:32:37Z</time>
      </trkpt>
      <trkpt lat="43.75526" lon="6.66875">
        <ele>1257</ele>
        <time>2010-08-15T10:32:48Z</time>
      </trkpt>
      <trkpt lat="43.75529" lon="6.66866">
        <ele>1257</ele>
        <time>2010-08-15T10:32:57Z</time>
      </trkpt>
      <trkpt lat="43.7553" lon="6.66865">
        <ele>1260</ele>
        <time>2010-08-15T10:32:59Z</time>
      </trkpt>
      <trkpt lat="43.7553" lon="6.66865">
        <ele>1258</ele>
        <time>2010-08-15T10:33:00Z</time>
      </trkpt>
      <trkpt lat="43.7553" lon="6.66865">
        <ele>1255</ele>
        <time>2010-08-15T10:33:01Z</time>
      </trkpt>
      <trkpt lat="43.7553" lon="6.66865">
        <ele>1256</ele>
        <time>2010-08-15T10:33:02Z</time>
      </trkpt>
      <trkpt lat="43.75532" lon="6.66861">
        <ele>1259</ele>
        <time>2010-08-15T10:33:07Z</time>
      </trkpt>
      <trkpt lat="43.75532" lon="6.66858">
        <ele>1253</ele>
        <time>2010-08-15T10:33:09Z</time>
      </trkpt>
      <trkpt lat="43.75532" lon="6.66858">
        <ele>1255</ele>
        <time>2010-08-15T10:33:10Z</time>
      </trkpt>
      <trkpt lat="43.75533" lon="6.66856">
        <ele>1255</ele>
        <time>2010-08-15T10:33:12Z</time>
      </trkpt>
      <trkpt lat="43.75534" lon="6.66855">
        <ele>1260</ele>
        <time>2010-08-15T10:33:14Z</time>
      </trkpt>
      <trkpt lat="43.75534" lon="6.66854">
        <ele>1258</ele>
        <time>2010-08-15T10:33:15Z</time>
      </trkpt>
      <trkpt lat="43.75533" lon="6.66853">
        <ele>1255</ele>
        <time>2010-08-15T10:33:16Z</time>
      </trkpt>
      <trkpt lat="43.75533" lon="6.66848">
        <ele>1257</ele>
        <time>2010-08-15T10:33:23Z</time>
      </trkpt>
      <trkpt lat="43.75531" lon="6.66843">
        <ele>1253</ele>
        <time>2010-08-15T10:33:26Z</time>
      </trkpt>
      <trkpt lat="43.7553" lon="6.6684">
        <ele>1252</ele>
        <time>2010-08-15T10:33:28Z</time>
      </trkpt>
      <trkpt lat="43.75529" lon="6.66835">
        <ele>1255</ele>
        <time>2010-08-15T10:33:31Z</time>
      </trkpt>
      <trkpt lat="43.75528" lon="6.66831">
        <ele>1256</ele>
        <time>2010-08-15T10:33:33Z</time>
      </trkpt>
      <trkpt lat="43.75524" lon="6.66816">
        <ele>1256</ele>
        <time>2010-08-15T10:33:40Z</time>
      </trkpt>
      <trkpt lat="43.75522" lon="6.66812">
        <ele>1251</ele>
        <time>2010-08-15T10:33:43Z</time>
      </trkpt>
      <trkpt lat="43.75521" lon="6.6681">
        <ele>1252</ele>
        <time>2010-08-15T10:33:44Z</time>
      </trkpt>
      <trkpt lat="43.75516" lon="6.66791">
        <ele>1250</ele>
        <time>2010-08-15T10:33:53Z</time>
      </trkpt>
      <trkpt lat="43.75516" lon="6.66788">
        <ele>1248</ele>
        <time>2010-08-15T10:33:55Z</time>
      </trkpt>
      <trkpt lat="43.75513" lon="6.66782">
        <ele>1250</ele>
        <time>2010-08-15T10:34:01Z</time>
      </trkpt>
      <trkpt lat="43.75512" lon="6.66781">
        <ele>1254</ele>
        <time>2010-08-15T10:34:02Z</time>
      </trkpt>
      <trkpt lat="43.75512" lon="6.6678">
        <ele>1250</ele>
        <time>2010-08-15T10:34:03Z</time>
      </trkpt>
      <trkpt lat="43.75511" lon="6.66777">
        <ele>1253</ele>
        <time>2010-08-15T10:34:05Z</time>
      </trkpt>
      <trkpt lat="43.7551" lon="6.66775">
        <ele>1255</ele>
        <time>2010-08-15T10:34:07Z</time>
      </trkpt>
      <trkpt lat="43.75509" lon="6.66771">
        <ele>1251</ele>
        <time>2010-08-15T10:34:10Z</time>
      </trkpt>
      <trkpt lat="43.75507" lon="6.66768">
        <ele>1249</ele>
        <time>2010-08-15T10:34:13Z</time>
      </trkpt>
      <trkpt lat="43.75504" lon="6.66761">
        <ele>1248</ele>
        <time>2010-08-15T10:34:18Z</time>
      </trkpt>
      <trkpt lat="43.75503" lon="6.66759">
        <ele>1248</ele>
        <time>2010-08-15T10:34:20Z</time>
      </trkpt>
      <trkpt lat="43.755" lon="6.66753">
        <ele>1247</ele>
        <time>2010-08-15T10:34:27Z</time>
      </trkpt>
      <trkpt lat="43.75498" lon="6.6675">
        <ele>1248</ele>
        <time>2010-08-15T10:34:33Z</time>
      </trkpt>
      <trkpt lat="43.75497" lon="6.66753">
        <ele>1246</ele>
        <time>2010-08-15T10:34:40Z</time>
      </trkpt>
      <trkpt lat="43.75493" lon="6.66756">
        <ele>1243</ele>
        <time>2010-08-15T10:34:49Z</time>
      </trkpt>
      <trkpt lat="43.75493" lon="6.66756">
        <ele>1244</ele>
        <time>2010-08-15T10:34:50Z</time>
      </trkpt>
      <trkpt lat="43.75493" lon="6.66747">
        <ele>1245</ele>
        <time>2010-08-15T10:34:56Z</time>
      </trkpt>
      <trkpt lat="43.75492" lon="6.66746">
        <ele>1244</ele>
        <time>2010-08-15T10:35:00Z</time>
      </trkpt>
      <trkpt lat="43.75487" lon="6.66742">
        <ele>1247</ele>
        <time>2010-08-15T10:35:06Z</time>
      </trkpt>
      <trkpt lat="43.75487" lon="6.66742">
        <ele>1244</ele>
        <time>2010-08-15T10:35:08Z</time>
      </trkpt>
      <trkpt lat="43.75487" lon="6.66742">
        <ele>1243</ele>
        <time>2010-08-15T10:35:09Z</time>
      </trkpt>
      <trkpt lat="43.75488" lon="6.66729">
        <ele>1243</ele>
        <time>2010-08-15T10:35:14Z</time>
      </trkpt>
      <trkpt lat="43.75491" lon="6.66718">
        <ele>1246</ele>
        <time>2010-08-15T10:35:19Z</time>
      </trkpt>
      <trkpt lat="43.75492" lon="6.66717">
        <ele>1245</ele>
        <time>2010-08-15T10:35:20Z</time>
      </trkpt>
      <trkpt lat="43.75492" lon="6.66715">
        <ele>1244</ele>
        <time>2010-08-15T10:35:21Z</time>
      </trkpt>
      <trkpt lat="43.75493" lon="6.66712">
        <ele>1244</ele>
        <time>2010-08-15T10:35:22Z</time>
      </trkpt>
      <trkpt lat="43.75497" lon="6.66699">
        <ele>1246</ele>
        <time>2010-08-15T10:35:27Z</time>
      </trkpt>
      <trkpt lat="43.755" lon="6.66689">
        <ele>1239</ele>
        <time>2010-08-15T10:35:31Z</time>
      </trkpt>
      <trkpt lat="43.75501" lon="6.6668">
        <ele>1239</ele>
        <time>2010-08-15T10:35:35Z</time>
      </trkpt>
      <trkpt lat="43.75501" lon="6.66668">
        <ele>1240</ele>
        <time>2010-08-15T10:35:40Z</time>
      </trkpt>
      <trkpt lat="43.75502" lon="6.66664">
        <ele>1238</ele>
        <time>2010-08-15T10:35:42Z</time>
      </trkpt>
      <trkpt lat="43.75503" lon="6.66644">
        <ele>1241</ele>
        <time>2010-08-15T10:35:47Z</time>
      </trkpt>
      <trkpt lat="43.75506" lon="6.66628">
        <ele>1238</ele>
        <time>2010-08-15T10:35:54Z</time>
      </trkpt>
      <trkpt lat="43.75507" lon="6.66621">
        <ele>1238</ele>
        <time>2010-08-15T10:35:58Z</time>
      </trkpt>
      <trkpt lat="43.75507" lon="6.66613">
        <ele>1241</ele>
        <time>2010-08-15T10:36:04Z</time>
      </trkpt>
      <trkpt lat="43.75507" lon="6.66613">
        <ele>1236</ele>
        <time>2010-08-15T10:36:06Z</time>
      </trkpt>
      <trkpt lat="43.75513" lon="6.66606">
        <ele>1235</ele>
        <time>2010-08-15T10:36:15Z</time>
      </trkpt>
      <trkpt lat="43.75517" lon="6.66599">
        <ele>1241</ele>
        <time>2010-08-15T10:36:24Z</time>
      </trkpt>
      <trkpt lat="43.75518" lon="6.66598">
        <ele>1240</ele>
        <time>2010-08-15T10:36:25Z</time>
      </trkpt>
      <trkpt lat="43.7552" lon="6.66594">
        <ele>1237</ele>
        <time>2010-08-15T10:36:33Z</time>
      </trkpt>
      <trkpt lat="43.7552" lon="6.66587">
        <ele>1232</ele>
        <time>2010-08-15T10:36:37Z</time>
      </trkpt>
      <trkpt lat="43.75522" lon="6.66581">
        <ele>1230</ele>
        <time>2010-08-15T10:36:41Z</time>
      </trkpt>
      <trkpt lat="43.75525" lon="6.66559">
        <ele>1229</ele>
        <time>2010-08-15T10:36:49Z</time>
      </trkpt>
      <trkpt lat="43.75527" lon="6.66553">
        <ele>1232</ele>
        <time>2010-08-15T10:36:52Z</time>
      </trkpt>
      <trkpt lat="43.7553" lon="6.66547">
        <ele>1235</ele>
        <time>2010-08-15T10:36:55Z</time>
      </trkpt>
      <trkpt lat="43.7553" lon="6.6654">
        <ele>1232</ele>
        <time>2010-08-15T10:37:00Z</time>
      </trkpt>
      <trkpt lat="43.75531" lon="6.66539">
        <ele>1232</ele>
        <time>2010-08-15T10:37:01Z</time>
      </trkpt>
      <trkpt lat="43.75533" lon="6.66537">
        <ele>1229</ele>
        <time>2010-08-15T10:37:03Z</time>
      </trkpt>
      <trkpt lat="43.75532" lon="6.66534">
        <ele>1228</ele>
        <time>2010-08-15T10:37:21Z</time>
      </trkpt>
      <trkpt lat="43.75532" lon="6.66526">
        <ele>1226</ele>
        <time>2010-08-15T10:37:26Z</time>
      </trkpt>
      <trkpt lat="43.75533" lon="6.66523">
        <ele>1227</ele>
        <time>2010-08-15T10:37:34Z</time>
      </trkpt>
      <trkpt lat="43.75534" lon="6.66518">
        <ele>1227</ele>
        <time>2010-08-15T10:37:40Z</time>
      </trkpt>
      <trkpt lat="43.75534" lon="6.66517">
        <ele>1225</ele>
        <time>2010-08-15T10:37:43Z</time>
      </trkpt>
      <trkpt lat="43.75535" lon="6.66512">
        <ele>1227</ele>
        <time>2010-08-15T10:37:47Z</time>
      </trkpt>
      <trkpt lat="43.75536" lon="6.665">
        <ele>1227</ele>
        <time>2010-08-15T10:37:54Z</time>
      </trkpt>
      <trkpt lat="43.75536" lon="6.66493">
        <ele>1228</ele>
        <time>2010-08-15T10:37:59Z</time>
      </trkpt>
      <trkpt lat="43.75536" lon="6.66493">
        <ele>1224</ele>
        <time>2010-08-15T10:38:00Z</time>
      </trkpt>
      <trkpt lat="43.75536" lon="6.66493">
        <ele>1225</ele>
        <time>2010-08-15T10:38:01Z</time>
      </trkpt>
      <trkpt lat="43.75537" lon="6.66491">
        <ele>1222</ele>
        <time>2010-08-15T10:38:02Z</time>
      </trkpt>
      <trkpt lat="43.75537" lon="6.66485">
        <ele>1222</ele>
        <time>2010-08-15T10:38:06Z</time>
      </trkpt>
      <trkpt lat="43.75535" lon="6.66481">
        <ele>1227</ele>
        <time>2010-08-15T10:38:10Z</time>
      </trkpt>
      <trkpt lat="43.75535" lon="6.6648">
        <ele>1228</ele>
        <time>2010-08-15T10:38:12Z</time>
      </trkpt>
      <trkpt lat="43.75535" lon="6.6648">
        <ele>1223</ele>
        <time>2010-08-15T10:38:13Z</time>
      </trkpt>
      <trkpt lat="43.75535" lon="6.66479">
        <ele>1218</ele>
        <time>2010-08-15T10:38:15Z</time>
      </trkpt>
      <trkpt lat="43.75535" lon="6.66477">
        <ele>1218</ele>
        <time>2010-08-15T10:38:16Z</time>
      </trkpt>
      <trkpt lat="43.75535" lon="6.66476">
        <ele>1219</ele>
        <time>2010-08-15T10:38:18Z</time>
      </trkpt>
      <trkpt lat="43.75535" lon="6.66464">
        <ele>1225</ele>
        <time>2010-08-15T10:38:28Z</time>
      </trkpt>
      <trkpt lat="43.75534" lon="6.66462">
        <ele>1226</ele>
        <time>2010-08-15T10:38:30Z</time>
      </trkpt>
      <trkpt lat="43.75534" lon="6.66461">
        <ele>1224</ele>
        <time>2010-08-15T10:38:33Z</time>
      </trkpt>
      <trkpt lat="43.75535" lon="6.66457">
        <ele>1221</ele>
        <time>2010-08-15T10:38:35Z</time>
      </trkpt>
      <trkpt lat="43.75535" lon="6.66456">
        <ele>1216</ele>
        <time>2010-08-15T10:38:37Z</time>
      </trkpt>
      <trkpt lat="43.75535" lon="6.66456">
        <ele>1216</ele>
        <time>2010-08-15T10:38:38Z</time>
      </trkpt>
      <trkpt lat="43.75538" lon="6.66446">
        <ele>1221</ele>
        <time>2010-08-15T10:38:45Z</time>
      </trkpt>
      <trkpt lat="43.75539" lon="6.66443">
        <ele>1224</ele>
        <time>2010-08-15T10:38:46Z</time>
      </trkpt>
      <trkpt lat="43.7554" lon="6.66441">
        <ele>1221</ele>
        <time>2010-08-15T10:38:47Z</time>
      </trkpt>
      <trkpt lat="43.75541" lon="6.66436">
        <ele>1220</ele>
        <time>2010-08-15T10:38:49Z</time>
      </trkpt>
      <trkpt lat="43.75543" lon="6.66431">
        <ele>1216</ele>
        <time>2010-08-15T10:38:51Z</time>
      </trkpt>
      <trkpt lat="43.75551" lon="6.66408">
        <ele>1216</ele>
        <time>2010-08-15T10:38:55Z</time>
      </trkpt>
      <trkpt lat="43.75555" lon="6.66393">
        <ele>1221</ele>
        <time>2010-08-15T10:39:00Z</time>
      </trkpt>
      <trkpt lat="43.75556" lon="6.66391">
        <ele>1221</ele>
        <time>2010-08-15T10:39:01Z</time>
      </trkpt>
      <trkpt lat="43.75558" lon="6.66385">
        <ele>1213</ele>
        <time>2010-08-15T10:39:04Z</time>
      </trkpt>
      <trkpt lat="43.75559" lon="6.66383">
        <ele>1216</ele>
        <time>2010-08-15T10:39:05Z</time>
      </trkpt>
      <trkpt lat="43.75559" lon="6.66382">
        <ele>1212</ele>
        <time>2010-08-15T10:39:06Z</time>
      </trkpt>
      <trkpt lat="43.7556" lon="6.66377">
        <ele>1215</ele>
        <time>2010-08-15T10:39:10Z</time>
      </trkpt>
      <trkpt lat="43.75561" lon="6.6637">
        <ele>1219</ele>
        <time>2010-08-15T10:39:16Z</time>
      </trkpt>
      <trkpt lat="43.75562" lon="6.66367">
        <ele>1214</ele>
        <time>2010-08-15T10:39:18Z</time>
      </trkpt>
      <trkpt lat="43.75562" lon="6.66365">
        <ele>1212</ele>
        <time>2010-08-15T10:39:19Z</time>
      </trkpt>
      <trkpt lat="43.75563" lon="6.66362">
        <ele>1211</ele>
        <time>2010-08-15T10:39:21Z</time>
      </trkpt>
      <trkpt lat="43.75563" lon="6.66356">
        <ele>1212</ele>
        <time>2010-08-15T10:39:27Z</time>
      </trkpt>
      <trkpt lat="43.75564" lon="6.66353">
        <ele>1215</ele>
        <time>2010-08-15T10:39:31Z</time>
      </trkpt>
      <trkpt lat="43.75565" lon="6.6635">
        <ele>1211</ele>
        <time>2010-08-15T10:39:34Z</time>
      </trkpt>
      <trkpt lat="43.75566" lon="6.66349">
        <ele>1208</ele>
        <time>2010-08-15T10:39:36Z</time>
      </trkpt>
      <trkpt lat="43.75566" lon="6.66348">
        <ele>1209</ele>
        <time>2010-08-15T10:39:37Z</time>
      </trkpt>
      <trkpt lat="43.75566" lon="6.66348">
        <ele>1209</ele>
        <time>2010-08-15T10:39:39Z</time>
      </trkpt>
      <trkpt lat="43.75567" lon="6.66345">
        <ele>1213</ele>
        <time>2010-08-15T10:39:42Z</time>
      </trkpt>
      <trkpt lat="43.75568" lon="6.66344">
        <ele>1209</ele>
        <time>2010-08-15T10:39:47Z</time>
      </trkpt>
      <trkpt lat="43.75568" lon="6.66344">
        <ele>1209</ele>
        <time>2010-08-15T10:39:48Z</time>
      </trkpt>
      <trkpt lat="43.75569" lon="6.66344">
        <ele>1214</ele>
        <time>2010-08-15T10:39:50Z</time>
      </trkpt>
      <trkpt lat="43.75572" lon="6.66333">
        <ele>1210</ele>
        <time>2010-08-15T10:39:56Z</time>
      </trkpt>
      <trkpt lat="43.75574" lon="6.66327">
        <ele>1207</ele>
        <time>2010-08-15T10:40:00Z</time>
      </trkpt>
      <trkpt lat="43.75575" lon="6.66322">
        <ele>1210</ele>
        <time>2010-08-15T10:40:03Z</time>
      </trkpt>
      <trkpt lat="43.75576" lon="6.66319">
        <ele>1208</ele>
        <time>2010-08-15T10:40:05Z</time>
      </trkpt>
      <trkpt lat="43.75577" lon="6.66315">
        <ele>1210</ele>
        <time>2010-08-15T10:40:08Z</time>
      </trkpt>
      <trkpt lat="43.75577" lon="6.66314">
        <ele>1207</ele>
        <time>2010-08-15T10:40:09Z</time>
      </trkpt>
      <trkpt lat="43.75577" lon="6.66313">
        <ele>1211</ele>
        <time>2010-08-15T10:40:10Z</time>
      </trkpt>
      <trkpt lat="43.75578" lon="6.66309">
        <ele>1207</ele>
        <time>2010-08-15T10:40:13Z</time>
      </trkpt>
      <trkpt lat="43.75579" lon="6.66309">
        <ele>1209</ele>
        <time>2010-08-15T10:40:14Z</time>
      </trkpt>
      <trkpt lat="43.7558" lon="6.66306">
        <ele>1209</ele>
        <time>2010-08-15T10:40:16Z</time>
      </trkpt>
      <trkpt lat="43.75581" lon="6.66306">
        <ele>1208</ele>
        <time>2010-08-15T10:40:18Z</time>
      </trkpt>
      <trkpt lat="43.75581" lon="6.66304">
        <ele>1211</ele>
        <time>2010-08-15T10:40:36Z</time>
      </trkpt>
      <trkpt lat="43.75582" lon="6.66302">
        <ele>1208</ele>
        <time>2010-08-15T10:40:37Z</time>
      </trkpt>
      <trkpt lat="43.75586" lon="6.66296">
        <ele>1207</ele>
        <time>2010-08-15T10:40:44Z</time>
      </trkpt>
      <trkpt lat="43.75586" lon="6.66296">
        <ele>1207</ele>
        <time>2010-08-15T10:40:45Z</time>
      </trkpt>
      <trkpt lat="43.75587" lon="6.66292">
        <ele>1206</ele>
        <time>2010-08-15T10:40:55Z</time>
      </trkpt>
      <trkpt lat="43.75589" lon="6.66284">
        <ele>1205</ele>
        <time>2010-08-15T10:41:00Z</time>
      </trkpt>
      <trkpt lat="43.7559" lon="6.66282">
        <ele>1207</ele>
        <time>2010-08-15T10:41:03Z</time>
      </trkpt>
      <trkpt lat="43.7559" lon="6.6628">
        <ele>1205</ele>
        <time>2010-08-15T10:41:08Z</time>
      </trkpt>
      <trkpt lat="43.75591" lon="6.66279">
        <ele>1204</ele>
        <time>2010-08-15T10:41:10Z</time>
      </trkpt>
      <trkpt lat="43.75591" lon="6.66277">
        <ele>1205</ele>
        <time>2010-08-15T10:41:13Z</time>
      </trkpt>
      <trkpt lat="43.75594" lon="6.66272">
        <ele>1203</ele>
        <time>2010-08-15T10:41:20Z</time>
      </trkpt>
      <trkpt lat="43.75594" lon="6.66272">
        <ele>1204</ele>
        <time>2010-08-15T10:41:21Z</time>
      </trkpt>
      <trkpt lat="43.75594" lon="6.6627">
        <ele>1205</ele>
        <time>2010-08-15T10:41:32Z</time>
      </trkpt>
      <trkpt lat="43.75596" lon="6.66269">
        <ele>1204</ele>
        <time>2010-08-15T10:41:42Z</time>
      </trkpt>
      <trkpt lat="43.75597" lon="6.66266">
        <ele>1200</ele>
        <time>2010-08-15T10:41:45Z</time>
      </trkpt>
      <trkpt lat="43.75598" lon="6.66264">
        <ele>1202</ele>
        <time>2010-08-15T10:41:46Z</time>
      </trkpt>
      <trkpt lat="43.75599" lon="6.66262">
        <ele>1208</ele>
        <time>2010-08-15T10:41:48Z</time>
      </trkpt>
      <trkpt lat="43.756" lon="6.66261">
        <ele>1202</ele>
        <time>2010-08-15T10:41:49Z</time>
      </trkpt>
      <trkpt lat="43.756" lon="6.66259">
        <ele>1201</ele>
        <time>2010-08-15T10:41:51Z</time>
      </trkpt>
      <trkpt lat="43.75601" lon="6.66256">
        <ele>1203</ele>
        <time>2010-08-15T10:41:53Z</time>
      </trkpt>
      <trkpt lat="43.75602" lon="6.66253">
        <ele>1207</ele>
        <time>2010-08-15T10:41:57Z</time>
      </trkpt>
      <trkpt lat="43.75603" lon="6.66251">
        <ele>1201</ele>
        <time>2010-08-15T10:41:59Z</time>
      </trkpt>
      <trkpt lat="43.75603" lon="6.6625">
        <ele>1203</ele>
        <time>2010-08-15T10:42:00Z</time>
      </trkpt>
      <trkpt lat="43.75605" lon="6.66246">
        <ele>1203</ele>
        <time>2010-08-15T10:42:06Z</time>
      </trkpt>
      <trkpt lat="43.75606" lon="6.66244">
        <ele>1199</ele>
        <time>2010-08-15T10:42:10Z</time>
      </trkpt>
      <trkpt lat="43.75606" lon="6.66243">
        <ele>1203</ele>
        <time>2010-08-15T10:42:11Z</time>
      </trkpt>
      <trkpt lat="43.75607" lon="6.66241">
        <ele>1199</ele>
        <time>2010-08-15T10:42:17Z</time>
      </trkpt>
      <trkpt lat="43.75609" lon="6.66238">
        <ele>1203</ele>
        <time>2010-08-15T10:42:21Z</time>
      </trkpt>
      <trkpt lat="43.7561" lon="6.66235">
        <ele>1198</ele>
        <time>2010-08-15T10:42:23Z</time>
      </trkpt>
      <trkpt lat="43.7561" lon="6.66235">
        <ele>1201</ele>
        <time>2010-08-15T10:42:24Z</time>
      </trkpt>
      <trkpt lat="43.75611" lon="6.66236">
        <ele>1197</ele>
        <time>2010-08-15T10:42:32Z</time>
      </trkpt>
      <trkpt lat="43.75611" lon="6.66236">
        <ele>1201</ele>
        <time>2010-08-15T10:42:33Z</time>
      </trkpt>
      <trkpt lat="43.75614" lon="6.66235">
        <ele>1197</ele>
        <time>2010-08-15T10:42:37Z</time>
      </trkpt>
      <trkpt lat="43.75616" lon="6.66234">
        <ele>1199</ele>
        <time>2010-08-15T10:42:46Z</time>
      </trkpt>
      <trkpt lat="43.75619" lon="6.66233">
        <ele>1199</ele>
        <time>2010-08-15T10:43:31Z</time>
      </trkpt>
      <trkpt lat="43.75613" lon="6.6625">
        <ele>1200</ele>
        <time>2010-08-15T10:44:21Z</time>
      </trkpt>
      <trkpt lat="43.75613" lon="6.66251">
        <ele>1196</ele>
        <time>2010-08-15T10:44:22Z</time>
      </trkpt>
      <trkpt lat="43.75613" lon="6.66252">
        <ele>1201</ele>
        <time>2010-08-15T10:44:25Z</time>
      </trkpt>
      <trkpt lat="43.75612" lon="6.66254">
        <ele>1197</ele>
        <time>2010-08-15T10:44:26Z</time>
      </trkpt>
      <trkpt lat="43.7561" lon="6.6626">
        <ele>1201</ele>
        <time>2010-08-15T10:44:29Z</time>
      </trkpt>
      <trkpt lat="43.7561" lon="6.66261">
        <ele>1196</ele>
        <time>2010-08-15T10:44:30Z</time>
      </trkpt>
      <trkpt lat="43.7561" lon="6.66263">
        <ele>1197</ele>
        <time>2010-08-15T10:44:31Z</time>
      </trkpt>
      <trkpt lat="43.75608" lon="6.6627">
        <ele>1199</ele>
        <time>2010-08-15T10:44:37Z</time>
      </trkpt>
      <trkpt lat="43.75608" lon="6.66271">
        <ele>1196</ele>
        <time>2010-08-15T10:44:38Z</time>
      </trkpt>
      <trkpt lat="43.75607" lon="6.66275">
        <ele>1198</ele>
        <time>2010-08-15T10:44:42Z</time>
      </trkpt>
      <trkpt lat="43.75607" lon="6.6628">
        <ele>1204</ele>
        <time>2010-08-15T10:44:46Z</time>
      </trkpt>
      <trkpt lat="43.75606" lon="6.66281">
        <ele>1196</ele>
        <time>2010-08-15T10:44:47Z</time>
      </trkpt>
      <trkpt lat="43.75606" lon="6.66284">
        <ele>1194</ele>
        <time>2010-08-15T10:44:49Z</time>
      </trkpt>
      <trkpt lat="43.75606" lon="6.66286">
        <ele>1196</ele>
        <time>2010-08-15T10:44:51Z</time>
      </trkpt>
      <trkpt lat="43.75607" lon="6.66286">
        <ele>1198</ele>
        <time>2010-08-15T10:45:02Z</time>
      </trkpt>
      <trkpt lat="43.75607" lon="6.66286">
        <ele>1195</ele>
        <time>2010-08-15T10:45:03Z</time>
      </trkpt>
      <trkpt lat="43.75607" lon="6.66286">
        <ele>1196</ele>
        <time>2010-08-15T10:45:04Z</time>
      </trkpt>
      <trkpt lat="43.75608" lon="6.66287">
        <ele>1193</ele>
        <time>2010-08-15T10:45:10Z</time>
      </trkpt>
      <trkpt lat="43.75608" lon="6.66287">
        <ele>1197</ele>
        <time>2010-08-15T10:45:15Z</time>
      </trkpt>
      <trkpt lat="43.75608" lon="6.66287">
        <ele>1193</ele>
        <time>2010-08-15T10:45:16Z</time>
      </trkpt>
      <trkpt lat="43.75608" lon="6.66288">
        <ele>1201</ele>
        <time>2010-08-15T10:45:17Z</time>
      </trkpt>
      <trkpt lat="43.75608" lon="6.66289">
        <ele>1198</ele>
        <time>2010-08-15T10:45:18Z</time>
      </trkpt>
      <trkpt lat="43.75608" lon="6.6629">
        <ele>1192</ele>
        <time>2010-08-15T10:45:19Z</time>
      </trkpt>
      <trkpt lat="43.75608" lon="6.66291">
        <ele>1200</ele>
        <time>2010-08-15T10:45:20Z</time>
      </trkpt>
      <trkpt lat="43.75608" lon="6.66293">
        <ele>1192</ele>
        <time>2010-08-15T10:45:21Z</time>
      </trkpt>
      <trkpt lat="43.75607" lon="6.663">
        <ele>1198</ele>
        <time>2010-08-15T10:45:24Z</time>
      </trkpt>
      <trkpt lat="43.75607" lon="6.66302">
        <ele>1195</ele>
        <time>2010-08-15T10:45:25Z</time>
      </trkpt>
      <trkpt lat="43.75607" lon="6.66305">
        <ele>1194</ele>
        <time>2010-08-15T10:45:27Z</time>
      </trkpt>
      <trkpt lat="43.75606" lon="6.66308">
        <ele>1199</ele>
        <time>2010-08-15T10:45:29Z</time>
      </trkpt>
      <trkpt lat="43.75606" lon="6.66308">
        <ele>1194</ele>
        <time>2010-08-15T10:45:30Z</time>
      </trkpt>
      <trkpt lat="43.75607" lon="6.66309">
        <ele>1193</ele>
        <time>2010-08-15T10:45:32Z</time>
      </trkpt>
      <trkpt lat="43.75607" lon="6.66309">
        <ele>1197</ele>
        <time>2010-08-15T10:45:33Z</time>
      </trkpt>
      <trkpt lat="43.75607" lon="6.66309">
        <ele>1195</ele>
        <time>2010-08-15T10:45:34Z</time>
      </trkpt>
      <trkpt lat="43.75608" lon="6.6631">
        <ele>1191</ele>
        <time>2010-08-15T10:45:35Z</time>
      </trkpt>
      <trkpt lat="43.75608" lon="6.6631">
        <ele>1194</ele>
        <time>2010-08-15T10:45:36Z</time>
      </trkpt>
      <trkpt lat="43.75608" lon="6.66312">
        <ele>1197</ele>
        <time>2010-08-15T10:45:42Z</time>
      </trkpt>
      <trkpt lat="43.75608" lon="6.66313">
        <ele>1194</ele>
        <time>2010-08-15T10:45:43Z</time>
      </trkpt>
      <trkpt lat="43.7561" lon="6.66316">
        <ele>1190</ele>
        <time>2010-08-15T10:45:47Z</time>
      </trkpt>
      <trkpt lat="43.75609" lon="6.66318">
        <ele>1190</ele>
        <time>2010-08-15T10:45:48Z</time>
      </trkpt>
      <trkpt lat="43.75609" lon="6.66321">
        <ele>1193</ele>
        <time>2010-08-15T10:45:50Z</time>
      </trkpt>
      <trkpt lat="43.75604" lon="6.66331">
        <ele>1189</ele>
        <time>2010-08-15T10:45:52Z</time>
      </trkpt>
      <trkpt lat="43.75603" lon="6.66339">
        <ele>1193</ele>
        <time>2010-08-15T10:45:55Z</time>
      </trkpt>
      <trkpt lat="43.75603" lon="6.66342">
        <ele>1190</ele>
        <time>2010-08-15T10:45:57Z</time>
      </trkpt>
      <trkpt lat="43.75604" lon="6.66343">
        <ele>1191</ele>
        <time>2010-08-15T10:45:58Z</time>
      </trkpt>
      <trkpt lat="43.75603" lon="6.66346">
        <ele>1194</ele>
        <time>2010-08-15T10:46:00Z</time>
      </trkpt>
      <trkpt lat="43.75601" lon="6.66348">
        <ele>1189</ele>
        <time>2010-08-15T10:46:02Z</time>
      </trkpt>
      <trkpt lat="43.756" lon="6.6635">
        <ele>1192</ele>
        <time>2010-08-15T10:46:03Z</time>
      </trkpt>
      <trkpt lat="43.75599" lon="6.66354">
        <ele>1188</ele>
        <time>2010-08-15T10:46:06Z</time>
      </trkpt>
      <trkpt lat="43.75599" lon="6.66356">
        <ele>1195</ele>
        <time>2010-08-15T10:46:08Z</time>
      </trkpt>
      <trkpt lat="43.75599" lon="6.66357">
        <ele>1192</ele>
        <time>2010-08-15T10:46:09Z</time>
      </trkpt>
      <trkpt lat="43.75598" lon="6.6636">
        <ele>1188</ele>
        <time>2010-08-15T10:46:11Z</time>
      </trkpt>
      <trkpt lat="43.75597" lon="6.66361">
        <ele>1188</ele>
        <time>2010-08-15T10:46:12Z</time>
      </trkpt>
      <trkpt lat="43.75595" lon="6.66367">
        <ele>1188</ele>
        <time>2010-08-15T10:46:16Z</time>
      </trkpt>
      <trkpt lat="43.75595" lon="6.66367">
        <ele>1191</ele>
        <time>2010-08-15T10:46:17Z</time>
      </trkpt>
      <trkpt lat="43.75596" lon="6.6637">
        <ele>1187</ele>
        <time>2010-08-15T10:46:19Z</time>
      </trkpt>
      <trkpt lat="43.75599" lon="6.66371">
        <ele>1190</ele>
        <time>2010-08-15T10:46:22Z</time>
      </trkpt>
      <trkpt lat="43.756" lon="6.66372">
        <ele>1197</ele>
        <time>2010-08-15T10:46:23Z</time>
      </trkpt>
      <trkpt lat="43.756" lon="6.66373">
        <ele>1195</ele>
        <time>2010-08-15T10:46:24Z</time>
      </trkpt>
      <trkpt lat="43.756" lon="6.66374">
        <ele>1189</ele>
        <time>2010-08-15T10:46:25Z</time>
      </trkpt>
      <trkpt lat="43.756" lon="6.66375">
        <ele>1184</ele>
        <time>2010-08-15T10:46:26Z</time>
      </trkpt>
      <trkpt lat="43.756" lon="6.66377">
        <ele>1186</ele>
        <time>2010-08-15T10:46:27Z</time>
      </trkpt>
      <trkpt lat="43.75599" lon="6.66382">
        <ele>1190</ele>
        <time>2010-08-15T10:46:31Z</time>
      </trkpt>
      <trkpt lat="43.75599" lon="6.66385">
        <ele>1191</ele>
        <time>2010-08-15T10:46:33Z</time>
      </trkpt>
      <trkpt lat="43.756" lon="6.66387">
        <ele>1185</ele>
        <time>2010-08-15T10:46:35Z</time>
      </trkpt>
      <trkpt lat="43.75599" lon="6.66392">
        <ele>1194</ele>
        <time>2010-08-15T10:46:38Z</time>
      </trkpt>
      <trkpt lat="43.75599" lon="6.66394">
        <ele>1192</ele>
        <time>2010-08-15T10:46:39Z</time>
      </trkpt>
      <trkpt lat="43.75599" lon="6.66397">
        <ele>1187</ele>
        <time>2010-08-15T10:46:41Z</time>
      </trkpt>
      <trkpt lat="43.75599" lon="6.66398">
        <ele>1184</ele>
        <time>2010-08-15T10:46:42Z</time>
      </trkpt>
      <trkpt lat="43.75599" lon="6.66399">
        <ele>1185</ele>
        <time>2010-08-15T10:46:43Z</time>
      </trkpt>
      <trkpt lat="43.75599" lon="6.66405">
        <ele>1188</ele>
        <time>2010-08-15T10:46:47Z</time>
      </trkpt>
      <trkpt lat="43.75598" lon="6.66409">
        <ele>1184</ele>
        <time>2010-08-15T10:46:51Z</time>
      </trkpt>
      <trkpt lat="43.75598" lon="6.66412">
        <ele>1183</ele>
        <time>2010-08-15T10:46:53Z</time>
      </trkpt>
      <trkpt lat="43.75596" lon="6.66417">
        <ele>1186</ele>
        <time>2010-08-15T10:46:56Z</time>
      </trkpt>
      <trkpt lat="43.75596" lon="6.66419">
        <ele>1194</ele>
        <time>2010-08-15T10:46:57Z</time>
      </trkpt>
      <trkpt lat="43.75596" lon="6.6642">
        <ele>1187</ele>
        <time>2010-08-15T10:46:58Z</time>
      </trkpt>
      <trkpt lat="43.75595" lon="6.66422">
        <ele>1184</ele>
        <time>2010-08-15T10:46:59Z</time>
      </trkpt>
      <trkpt lat="43.75595" lon="6.66423">
        <ele>1184</ele>
        <time>2010-08-15T10:47:00Z</time>
      </trkpt>
      <trkpt lat="43.75595" lon="6.66427">
        <ele>1188</ele>
        <time>2010-08-15T10:47:03Z</time>
      </trkpt>
      <trkpt lat="43.75596" lon="6.66428">
        <ele>1184</ele>
        <time>2010-08-15T10:47:04Z</time>
      </trkpt>
      <trkpt lat="43.75598" lon="6.66433">
        <ele>1188</ele>
        <time>2010-08-15T10:47:09Z</time>
      </trkpt>
      <trkpt lat="43.75597" lon="6.66434">
        <ele>1188</ele>
        <time>2010-08-15T10:47:10Z</time>
      </trkpt>
      <trkpt lat="43.75597" lon="6.66437">
        <ele>1182</ele>
        <time>2010-08-15T10:47:12Z</time>
      </trkpt>
      <trkpt lat="43.75597" lon="6.66439">
        <ele>1185</ele>
        <time>2010-08-15T10:47:13Z</time>
      </trkpt>
      <trkpt lat="43.75598" lon="6.6644">
        <ele>1189</ele>
        <time>2010-08-15T10:47:14Z</time>
      </trkpt>
      <trkpt lat="43.75598" lon="6.66441">
        <ele>1184</ele>
        <time>2010-08-15T10:47:15Z</time>
      </trkpt>
      <trkpt lat="43.75598" lon="6.66444">
        <ele>1181</ele>
        <time>2010-08-15T10:47:17Z</time>
      </trkpt>
      <trkpt lat="43.75597" lon="6.66444">
        <ele>1182</ele>
        <time>2010-08-15T10:47:18Z</time>
      </trkpt>
      <trkpt lat="43.75596" lon="6.66447">
        <ele>1186</ele>
        <time>2010-08-15T10:47:20Z</time>
      </trkpt>
      <trkpt lat="43.75596" lon="6.66451">
        <ele>1180</ele>
        <time>2010-08-15T10:47:23Z</time>
      </trkpt>
      <trkpt lat="43.75595" lon="6.66451">
        <ele>1185</ele>
        <time>2010-08-15T10:47:24Z</time>
      </trkpt>
      <trkpt lat="43.75594" lon="6.66454">
        <ele>1182</ele>
        <time>2010-08-15T10:47:26Z</time>
      </trkpt>
      <trkpt lat="43.75593" lon="6.6646">
        <ele>1179</ele>
        <time>2010-08-15T10:47:31Z</time>
      </trkpt>
      <trkpt lat="43.75593" lon="6.66461">
        <ele>1186</ele>
        <time>2010-08-15T10:47:32Z</time>
      </trkpt>
      <trkpt lat="43.75592" lon="6.66462">
        <ele>1183</ele>
        <time>2010-08-15T10:47:33Z</time>
      </trkpt>
      <trkpt lat="43.7559" lon="6.66463">
        <ele>1181</ele>
        <time>2010-08-15T10:47:35Z</time>
      </trkpt>
      <trkpt lat="43.75589" lon="6.66466">
        <ele>1188</ele>
        <time>2010-08-15T10:47:37Z</time>
      </trkpt>
      <trkpt lat="43.75589" lon="6.66467">
        <ele>1183</ele>
        <time>2010-08-15T10:47:38Z</time>
      </trkpt>
      <trkpt lat="43.75589" lon="6.66471">
        <ele>1178</ele>
        <time>2010-08-15T10:47:41Z</time>
      </trkpt>
      <trkpt lat="43.75588" lon="6.66472">
        <ele>1182</ele>
        <time>2010-08-15T10:47:43Z</time>
      </trkpt>
      <trkpt lat="43.75592" lon="6.66475">
        <ele>1183</ele>
        <time>2010-08-15T10:47:49Z</time>
      </trkpt>
      <trkpt lat="43.75593" lon="6.66475">
        <ele>1181</ele>
        <time>2010-08-15T10:47:52Z</time>
      </trkpt>
      <trkpt lat="43.75595" lon="6.66476">
        <ele>1182</ele>
        <time>2010-08-15T10:48:01Z</time>
      </trkpt>
      <trkpt lat="43.75596" lon="6.66476">
        <ele>1181</ele>
        <time>2010-08-15T10:48:06Z</time>
      </trkpt>
      <trkpt lat="43.75596" lon="6.66476">
        <ele>1181</ele>
        <time>2010-08-15T10:48:18Z</time>
      </trkpt>
      <trkpt lat="43.75595" lon="6.66477">
        <ele>1182</ele>
        <time>2010-08-15T10:48:26Z</time>
      </trkpt>
      <trkpt lat="43.75595" lon="6.66474">
        <ele>1182</ele>
        <time>2010-08-15T10:48:31Z</time>
      </trkpt>
      <trkpt lat="43.75595" lon="6.66473">
        <ele>1185</ele>
        <time>2010-08-15T10:48:40Z</time>
      </trkpt>
      <trkpt lat="43.75595" lon="6.66473">
        <ele>1183</ele>
        <time>2010-08-15T10:48:41Z</time>
      </trkpt>
      <trkpt lat="43.75595" lon="6.66473">
        <ele>1182</ele>
        <time>2010-08-15T10:48:43Z</time>
      </trkpt>
      <trkpt lat="43.75596" lon="6.66473">
        <ele>1182</ele>
        <time>2010-08-15T10:49:20Z</time>
      </trkpt>
      <trkpt lat="43.75596" lon="6.66473">
        <ele>1181</ele>
        <time>2010-08-15T10:49:22Z</time>
      </trkpt>
      <trkpt lat="43.75596" lon="6.66473">
        <ele>1182</ele>
        <time>2010-08-15T10:49:32Z</time>
      </trkpt>
      <trkpt lat="43.75597" lon="6.66473">
        <ele>1180</ele>
        <time>2010-08-15T10:50:02Z</time>
      </trkpt>
      <trkpt lat="43.75596" lon="6.66476">
        <ele>1176</ele>
        <time>2010-08-15T10:52:04Z</time>
      </trkpt>
      <trkpt lat="43.75596" lon="6.66476">
        <ele>1180</ele>
        <time>2010-08-15T10:52:05Z</time>
      </trkpt>
      <trkpt lat="43.75596" lon="6.66476">
        <ele>1178</ele>
        <time>2010-08-15T10:52:09Z</time>
      </trkpt>
      <trkpt lat="43.75596" lon="6.66476">
        <ele>1215</ele>
        <time>2010-08-15T11:18:10Z</time>
      </trkpt>
      <trkpt lat="43.75596" lon="6.66476">
        <ele>1180</ele>
        <time>2010-08-15T11:18:11Z</time>
      </trkpt>
      <trkpt lat="43.75596" lon="6.66476">
        <ele>1180</ele>
        <time>2010-08-15T11:18:12Z</time>
      </trkpt>
      <trkpt lat="43.75591" lon="6.6647">
        <ele>1179</ele>
        <time>2010-08-15T11:18:20Z</time>
      </trkpt>
      <trkpt lat="43.75604" lon="6.66471">
        <ele>1172</ele>
        <time>2010-08-15T11:18:46Z</time>
      </trkpt>
      <trkpt lat="43.75605" lon="6.66471">
        <ele>1183</ele>
        <time>2010-08-15T11:18:47Z</time>
      </trkpt>
      <trkpt lat="43.75605" lon="6.66472">
        <ele>1183</ele>
        <time>2010-08-15T11:18:48Z</time>
      </trkpt>
      <trkpt lat="43.75606" lon="6.66472">
        <ele>1180</ele>
        <time>2010-08-15T11:18:50Z</time>
      </trkpt>
      <trkpt lat="43.75606" lon="6.66472">
        <ele>1172</ele>
        <time>2010-08-15T11:18:51Z</time>
      </trkpt>
      <trkpt lat="43.75607" lon="6.66472">
        <ele>1185</ele>
        <time>2010-08-15T11:18:52Z</time>
      </trkpt>
      <trkpt lat="43.75607" lon="6.66473">
        <ele>1170</ele>
        <time>2010-08-15T11:18:53Z</time>
      </trkpt>
      <trkpt lat="43.75607" lon="6.66473">
        <ele>1182</ele>
        <time>2010-08-15T11:18:54Z</time>
      </trkpt>
      <trkpt lat="43.75607" lon="6.66471">
        <ele>1181</ele>
        <time>2010-08-15T11:19:01Z</time>
      </trkpt>
      <trkpt lat="43.75612" lon="6.66465">
        <ele>1178</ele>
        <time>2010-08-15T11:19:33Z</time>
      </trkpt>
      <trkpt lat="43.75612" lon="6.66461">
        <ele>1181</ele>
        <time>2010-08-15T11:19:38Z</time>
      </trkpt>
      <trkpt lat="43.75611" lon="6.66453">
        <ele>1178</ele>
        <time>2010-08-15T11:20:01Z</time>
      </trkpt>
      <trkpt lat="43.75611" lon="6.66453">
        <ele>1180</ele>
        <time>2010-08-15T11:20:05Z</time>
      </trkpt>
      <trkpt lat="43.75612" lon="6.66462">
        <ele>1182</ele>
        <time>2010-08-15T11:20:39Z</time>
      </trkpt>
      <trkpt lat="43.75612" lon="6.66465">
        <ele>1180</ele>
        <time>2010-08-15T11:20:41Z</time>
      </trkpt>
      <trkpt lat="43.75614" lon="6.66461">
        <ele>1182</ele>
        <time>2010-08-15T11:20:48Z</time>
      </trkpt>
      <trkpt lat="43.75614" lon="6.66461">
        <ele>1181</ele>
        <time>2010-08-15T11:20:54Z</time>
      </trkpt>
      <trkpt lat="43.75614" lon="6.66461">
        <ele>1180</ele>
        <time>2010-08-15T11:20:56Z</time>
      </trkpt>
      <trkpt lat="43.75613" lon="6.6646">
        <ele>1179</ele>
        <time>2010-08-15T11:21:03Z</time>
      </trkpt>
      <trkpt lat="43.75613" lon="6.6646">
        <ele>1181</ele>
        <time>2010-08-15T11:21:07Z</time>
      </trkpt>
      <trkpt lat="43.75613" lon="6.6646">
        <ele>1177</ele>
        <time>2010-08-15T11:21:12Z</time>
      </trkpt>
      <trkpt lat="43.75613" lon="6.66459">
        <ele>1181</ele>
        <time>2010-08-15T11:21:13Z</time>
      </trkpt>
      <trkpt lat="43.75613" lon="6.66459">
        <ele>1180</ele>
        <time>2010-08-15T11:21:14Z</time>
      </trkpt>
      <trkpt lat="43.75613" lon="6.66456">
        <ele>1176</ele>
        <time>2010-08-15T11:21:16Z</time>
      </trkpt>
      <trkpt lat="43.75613" lon="6.66456">
        <ele>1186</ele>
        <time>2010-08-15T11:21:17Z</time>
      </trkpt>
      <trkpt lat="43.75613" lon="6.66455">
        <ele>1183</ele>
        <time>2010-08-15T11:21:18Z</time>
      </trkpt>
      <trkpt lat="43.75614" lon="6.66452">
        <ele>1179</ele>
        <time>2010-08-15T11:21:19Z</time>
      </trkpt>
      <trkpt lat="43.75615" lon="6.66444">
        <ele>1182</ele>
        <time>2010-08-15T11:21:23Z</time>
      </trkpt>
      <trkpt lat="43.75615" lon="6.66437">
        <ele>1178</ele>
        <time>2010-08-15T11:21:26Z</time>
      </trkpt>
      <trkpt lat="43.75615" lon="6.66435">
        <ele>1182</ele>
        <time>2010-08-15T11:21:27Z</time>
      </trkpt>
      <trkpt lat="43.75616" lon="6.66433">
        <ele>1178</ele>
        <time>2010-08-15T11:21:29Z</time>
      </trkpt>
      <trkpt lat="43.75617" lon="6.6643">
        <ele>1185</ele>
        <time>2010-08-15T11:21:32Z</time>
      </trkpt>
      <trkpt lat="43.75616" lon="6.66428">
        <ele>1180</ele>
        <time>2010-08-15T11:21:34Z</time>
      </trkpt>
      <trkpt lat="43.75616" lon="6.66427">
        <ele>1174</ele>
        <time>2010-08-15T11:21:35Z</time>
      </trkpt>
      <trkpt lat="43.75616" lon="6.66422">
        <ele>1179</ele>
        <time>2010-08-15T11:21:38Z</time>
      </trkpt>
      <trkpt lat="43.75617" lon="6.66421">
        <ele>1183</ele>
        <time>2010-08-15T11:21:39Z</time>
      </trkpt>
      <trkpt lat="43.75618" lon="6.66417">
        <ele>1177</ele>
        <time>2010-08-15T11:21:43Z</time>
      </trkpt>
      <trkpt lat="43.75619" lon="6.66416">
        <ele>1177</ele>
        <time>2010-08-15T11:21:44Z</time>
      </trkpt>
      <trkpt lat="43.75621" lon="6.66408">
        <ele>1178</ele>
        <time>2010-08-15T11:21:49Z</time>
      </trkpt>
      <trkpt lat="43.75621" lon="6.66405">
        <ele>1176</ele>
        <time>2010-08-15T11:21:51Z</time>
      </trkpt>
      <trkpt lat="43.75622" lon="6.66401">
        <ele>1172</ele>
        <time>2010-08-15T11:21:53Z</time>
      </trkpt>
      <trkpt lat="43.75622" lon="6.664">
        <ele>1173</ele>
        <time>2010-08-15T11:21:54Z</time>
      </trkpt>
      <trkpt lat="43.75622" lon="6.66394">
        <ele>1171</ele>
        <time>2010-08-15T11:21:58Z</time>
      </trkpt>
      <trkpt lat="43.75622" lon="6.66392">
        <ele>1178</ele>
        <time>2010-08-15T11:22:00Z</time>
      </trkpt>
      <trkpt lat="43.75623" lon="6.6639">
        <ele>1183</ele>
        <time>2010-08-15T11:22:01Z</time>
      </trkpt>
      <trkpt lat="43.75623" lon="6.66389">
        <ele>1179</ele>
        <time>2010-08-15T11:22:02Z</time>
      </trkpt>
      <trkpt lat="43.75626" lon="6.66382">
        <ele>1176</ele>
        <time>2010-08-15T11:22:08Z</time>
      </trkpt>
      <trkpt lat="43.75626" lon="6.66381">
        <ele>1172</ele>
        <time>2010-08-15T11:22:09Z</time>
      </trkpt>
      <trkpt lat="43.75627" lon="6.6638">
        <ele>1175</ele>
        <time>2010-08-15T11:22:10Z</time>
      </trkpt>
      <trkpt lat="43.75629" lon="6.66378">
        <ele>1180</ele>
        <time>2010-08-15T11:22:13Z</time>
      </trkpt>
      <trkpt lat="43.7563" lon="6.66377">
        <ele>1179</ele>
        <time>2010-08-15T11:22:14Z</time>
      </trkpt>
      <trkpt lat="43.75631" lon="6.66375">
        <ele>1179</ele>
        <time>2010-08-15T11:22:15Z</time>
      </trkpt>
      <trkpt lat="43.75633" lon="6.66372">
        <ele>1172</ele>
        <time>2010-08-15T11:22:18Z</time>
      </trkpt>
      <trkpt lat="43.75633" lon="6.6637">
        <ele>1174</ele>
        <time>2010-08-15T11:22:19Z</time>
      </trkpt>
      <trkpt lat="43.75636" lon="6.66365">
        <ele>1177</ele>
        <time>2010-08-15T11:22:24Z</time>
      </trkpt>
      <trkpt lat="43.75637" lon="6.66364">
        <ele>1176</ele>
        <time>2010-08-15T11:22:25Z</time>
      </trkpt>
      <trkpt lat="43.75636" lon="6.66358">
        <ele>1173</ele>
        <time>2010-08-15T11:22:28Z</time>
      </trkpt>
      <trkpt lat="43.75637" lon="6.66354">
        <ele>1172</ele>
        <time>2010-08-15T11:22:30Z</time>
      </trkpt>
      <trkpt lat="43.75639" lon="6.66353">
        <ele>1176</ele>
        <time>2010-08-15T11:22:32Z</time>
      </trkpt>
      <trkpt lat="43.7564" lon="6.66352">
        <ele>1169</ele>
        <time>2010-08-15T11:22:33Z</time>
      </trkpt>
      <trkpt lat="43.75641" lon="6.66351">
        <ele>1173</ele>
        <time>2010-08-15T11:22:35Z</time>
      </trkpt>
      <trkpt lat="43.75642" lon="6.66351">
        <ele>1173</ele>
        <time>2010-08-15T11:22:36Z</time>
      </trkpt>
      <trkpt lat="43.75645" lon="6.6635">
        <ele>1164</ele>
        <time>2010-08-15T11:22:38Z</time>
      </trkpt>
      <trkpt lat="43.75646" lon="6.6635">
        <ele>1158</ele>
        <time>2010-08-15T11:22:39Z</time>
      </trkpt>
      <trkpt lat="43.75649" lon="6.66349">
        <ele>1169</ele>
        <time>2010-08-15T11:22:41Z</time>
      </trkpt>
      <trkpt lat="43.7565" lon="6.66349">
        <ele>1162</ele>
        <time>2010-08-15T11:22:42Z</time>
      </trkpt>
      <trkpt lat="43.75652" lon="6.66348">
        <ele>1167</ele>
        <time>2010-08-15T11:22:44Z</time>
      </trkpt>
      <trkpt lat="43.75653" lon="6.66348">
        <ele>1167</ele>
        <time>2010-08-15T11:22:45Z</time>
      </trkpt>
      <trkpt lat="43.75654" lon="6.66348">
        <ele>1163</ele>
        <time>2010-08-15T11:22:48Z</time>
      </trkpt>
      <trkpt lat="43.75655" lon="6.66348">
        <ele>1166</ele>
        <time>2010-08-15T11:22:49Z</time>
      </trkpt>
      <trkpt lat="43.75656" lon="6.66348">
        <ele>1166</ele>
        <time>2010-08-15T11:22:50Z</time>
      </trkpt>
      <trkpt lat="43.7566" lon="6.66347">
        <ele>1171</ele>
        <time>2010-08-15T11:22:55Z</time>
      </trkpt>
      <trkpt lat="43.75661" lon="6.66346">
        <ele>1170</ele>
        <time>2010-08-15T11:22:56Z</time>
      </trkpt>
      <trkpt lat="43.75663" lon="6.66345">
        <ele>1168</ele>
        <time>2010-08-15T11:22:58Z</time>
      </trkpt>
      <trkpt lat="43.75667" lon="6.66343">
        <ele>1165</ele>
        <time>2010-08-15T11:23:02Z</time>
      </trkpt>
      <trkpt lat="43.75674" lon="6.66337">
        <ele>1159</ele>
        <time>2010-08-15T11:23:09Z</time>
      </trkpt>
      <trkpt lat="43.75675" lon="6.66336">
        <ele>1165</ele>
        <time>2010-08-15T11:23:10Z</time>
      </trkpt>
      <trkpt lat="43.75678" lon="6.66334">
        <ele>1170</ele>
        <time>2010-08-15T11:23:13Z</time>
      </trkpt>
      <trkpt lat="43.75679" lon="6.66333">
        <ele>1167</ele>
        <time>2010-08-15T11:23:14Z</time>
      </trkpt>
      <trkpt lat="43.7568" lon="6.6633">
        <ele>1160</ele>
        <time>2010-08-15T11:23:16Z</time>
      </trkpt>
      <trkpt lat="43.75682" lon="6.66327">
        <ele>1161</ele>
        <time>2010-08-15T11:23:20Z</time>
      </trkpt>
      <trkpt lat="43.75682" lon="6.66326">
        <ele>1168</ele>
        <time>2010-08-15T11:23:21Z</time>
      </trkpt>
      <trkpt lat="43.75682" lon="6.66326">
        <ele>1164</ele>
        <time>2010-08-15T11:23:22Z</time>
      </trkpt>
      <trkpt lat="43.75682" lon="6.66325">
        <ele>1161</ele>
        <time>2010-08-15T11:23:23Z</time>
      </trkpt>
      <trkpt lat="43.75683" lon="6.66324">
        <ele>1162</ele>
        <time>2010-08-15T11:23:24Z</time>
      </trkpt>
      <trkpt lat="43.75684" lon="6.66322">
        <ele>1163</ele>
        <time>2010-08-15T11:23:27Z</time>
      </trkpt>
      <trkpt lat="43.75684" lon="6.66322">
        <ele>1162</ele>
        <time>2010-08-15T11:23:30Z</time>
      </trkpt>
      <trkpt lat="43.75684" lon="6.66322">
        <ele>1165</ele>
        <time>2010-08-15T11:23:31Z</time>
      </trkpt>
      <trkpt lat="43.75684" lon="6.66322">
        <ele>1161</ele>
        <time>2010-08-15T11:23:33Z</time>
      </trkpt>
      <trkpt lat="43.75684" lon="6.66322">
        <ele>1162</ele>
        <time>2010-08-15T11:23:34Z</time>
      </trkpt>
      <trkpt lat="43.75686" lon="6.66323">
        <ele>1165</ele>
        <time>2010-08-15T11:23:37Z</time>
      </trkpt>
      <trkpt lat="43.75686" lon="6.66325">
        <ele>1159</ele>
        <time>2010-08-15T11:23:40Z</time>
      </trkpt>
      <trkpt lat="43.75686" lon="6.66337">
        <ele>1159</ele>
        <time>2010-08-15T11:23:47Z</time>
      </trkpt>
      <trkpt lat="43.75687" lon="6.6634">
        <ele>1162</ele>
        <time>2010-08-15T11:23:49Z</time>
      </trkpt>
      <trkpt lat="43.75687" lon="6.6634">
        <ele>1159</ele>
        <time>2010-08-15T11:23:50Z</time>
      </trkpt>
      <trkpt lat="43.75688" lon="6.66343">
        <ele>1155</ele>
        <time>2010-08-15T11:24:06Z</time>
      </trkpt>
      <trkpt lat="43.75689" lon="6.66343">
        <ele>1158</ele>
        <time>2010-08-15T11:24:07Z</time>
      </trkpt>
      <trkpt lat="43.75689" lon="6.66344">
        <ele>1161</ele>
        <time>2010-08-15T11:24:12Z</time>
      </trkpt>
      <trkpt lat="43.75689" lon="6.66345">
        <ele>1158</ele>
        <time>2010-08-15T11:24:16Z</time>
      </trkpt>
      <trkpt lat="43.75689" lon="6.66347">
        <ele>1154</ele>
        <time>2010-08-15T11:24:27Z</time>
      </trkpt>
      <trkpt lat="43.75689" lon="6.66347">
        <ele>1158</ele>
        <time>2010-08-15T11:24:28Z</time>
      </trkpt>
      <trkpt lat="43.7569" lon="6.6635">
        <ele>1162</ele>
        <time>2010-08-15T11:24:34Z</time>
      </trkpt>
      <trkpt lat="43.7569" lon="6.66351">
        <ele>1159</ele>
        <time>2010-08-15T11:24:35Z</time>
      </trkpt>
      <trkpt lat="43.75694" lon="6.66358">
        <ele>1154</ele>
        <time>2010-08-15T11:24:44Z</time>
      </trkpt>
      <trkpt lat="43.75695" lon="6.66359">
        <ele>1155</ele>
        <time>2010-08-15T11:24:45Z</time>
      </trkpt>
      <trkpt lat="43.75696" lon="6.66367">
        <ele>1154</ele>
        <time>2010-08-15T11:24:54Z</time>
      </trkpt>
      <trkpt lat="43.75698" lon="6.66374">
        <ele>1152</ele>
        <time>2010-08-15T11:25:01Z</time>
      </trkpt>
      <trkpt lat="43.75699" lon="6.66377">
        <ele>1162</ele>
        <time>2010-08-15T11:25:03Z</time>
      </trkpt>
      <trkpt lat="43.75699" lon="6.66378">
        <ele>1152</ele>
        <time>2010-08-15T11:25:04Z</time>
      </trkpt>
      <trkpt lat="43.75698" lon="6.66382">
        <ele>1155</ele>
        <time>2010-08-15T11:25:07Z</time>
      </trkpt>
      <trkpt lat="43.75696" lon="6.66385">
        <ele>1151</ele>
        <time>2010-08-15T11:25:11Z</time>
      </trkpt>
      <trkpt lat="43.75696" lon="6.66385">
        <ele>1158</ele>
        <time>2010-08-15T11:25:12Z</time>
      </trkpt>
      <trkpt lat="43.75696" lon="6.66385">
        <ele>1150</ele>
        <time>2010-08-15T11:25:13Z</time>
      </trkpt>
      <trkpt lat="43.75695" lon="6.66386">
        <ele>1154</ele>
        <time>2010-08-15T11:25:14Z</time>
      </trkpt>
      <trkpt lat="43.75695" lon="6.66386">
        <ele>1149</ele>
        <time>2010-08-15T11:25:16Z</time>
      </trkpt>
      <trkpt lat="43.75694" lon="6.66387">
        <ele>1150</ele>
        <time>2010-08-15T11:25:17Z</time>
      </trkpt>
      <trkpt lat="43.75694" lon="6.66389">
        <ele>1156</ele>
        <time>2010-08-15T11:25:19Z</time>
      </trkpt>
      <trkpt lat="43.75694" lon="6.66389">
        <ele>1151</ele>
        <time>2010-08-15T11:25:20Z</time>
      </trkpt>
      <trkpt lat="43.75692" lon="6.66392">
        <ele>1154</ele>
        <time>2010-08-15T11:25:24Z</time>
      </trkpt>
      <trkpt lat="43.75692" lon="6.66392">
        <ele>1147</ele>
        <time>2010-08-15T11:25:25Z</time>
      </trkpt>
      <trkpt lat="43.75692" lon="6.66392">
        <ele>1151</ele>
        <time>2010-08-15T11:25:26Z</time>
      </trkpt>
      <trkpt lat="43.75692" lon="6.66392">
        <ele>1152</ele>
        <time>2010-08-15T11:25:28Z</time>
      </trkpt>
      <trkpt lat="43.7569" lon="6.66402">
        <ele>1148</ele>
        <time>2010-08-15T11:25:38Z</time>
      </trkpt>
      <trkpt lat="43.7569" lon="6.66405">
        <ele>1152</ele>
        <time>2010-08-15T11:25:43Z</time>
      </trkpt>
      <trkpt lat="43.7569" lon="6.66406">
        <ele>1147</ele>
        <time>2010-08-15T11:25:45Z</time>
      </trkpt>
      <trkpt lat="43.7569" lon="6.66407">
        <ele>1150</ele>
        <time>2010-08-15T11:25:46Z</time>
      </trkpt>
      <trkpt lat="43.75688" lon="6.66412">
        <ele>1147</ele>
        <time>2010-08-15T11:25:51Z</time>
      </trkpt>
      <trkpt lat="43.75688" lon="6.66412">
        <ele>1148</ele>
        <time>2010-08-15T11:25:54Z</time>
      </trkpt>
      <trkpt lat="43.75688" lon="6.66413">
        <ele>1145</ele>
        <time>2010-08-15T11:25:55Z</time>
      </trkpt>
      <trkpt lat="43.75689" lon="6.66413">
        <ele>1147</ele>
        <time>2010-08-15T11:25:56Z</time>
      </trkpt>
      <trkpt lat="43.7569" lon="6.66416">
        <ele>1152</ele>
        <time>2010-08-15T11:26:01Z</time>
      </trkpt>
      <trkpt lat="43.7569" lon="6.66417">
        <ele>1147</ele>
        <time>2010-08-15T11:26:02Z</time>
      </trkpt>
      <trkpt lat="43.7569" lon="6.66421">
        <ele>1145</ele>
        <time>2010-08-15T11:26:07Z</time>
      </trkpt>
      <trkpt lat="43.75688" lon="6.66428">
        <ele>1146</ele>
        <time>2010-08-15T11:26:17Z</time>
      </trkpt>
      <trkpt lat="43.7569" lon="6.66429">
        <ele>1145</ele>
        <time>2010-08-15T11:27:17Z</time>
      </trkpt>
      <trkpt lat="43.7569" lon="6.66429">
        <ele>1142</ele>
        <time>2010-08-15T11:27:28Z</time>
      </trkpt>
      <trkpt lat="43.7569" lon="6.66429">
        <ele>1146</ele>
        <time>2010-08-15T11:27:29Z</time>
      </trkpt>
      <trkpt lat="43.75693" lon="6.66431">
        <ele>1143</ele>
        <time>2010-08-15T11:27:34Z</time>
      </trkpt>
      <trkpt lat="43.75695" lon="6.6643">
        <ele>1147</ele>
        <time>2010-08-15T11:27:38Z</time>
      </trkpt>
      <trkpt lat="43.75696" lon="6.66429">
        <ele>1140</ele>
        <time>2010-08-15T11:27:39Z</time>
      </trkpt>
      <trkpt lat="43.75699" lon="6.66431">
        <ele>1141</ele>
        <time>2010-08-15T11:27:46Z</time>
      </trkpt>
      <trkpt lat="43.75699" lon="6.66432">
        <ele>1144</ele>
        <time>2010-08-15T11:27:48Z</time>
      </trkpt>
      <trkpt lat="43.75699" lon="6.66432">
        <ele>1142</ele>
        <time>2010-08-15T11:27:49Z</time>
      </trkpt>
      <trkpt lat="43.75702" lon="6.66432">
        <ele>1139</ele>
        <time>2010-08-15T11:27:54Z</time>
      </trkpt>
      <trkpt lat="43.75705" lon="6.66433">
        <ele>1136</ele>
        <time>2010-08-15T11:27:57Z</time>
      </trkpt>
      <trkpt lat="43.75708" lon="6.66433">
        <ele>1139</ele>
        <time>2010-08-15T11:27:59Z</time>
      </trkpt>
      <trkpt lat="43.75709" lon="6.66432">
        <ele>1136</ele>
        <time>2010-08-15T11:28:01Z</time>
      </trkpt>
      <trkpt lat="43.7571" lon="6.66431">
        <ele>1140</ele>
        <time>2010-08-15T11:28:02Z</time>
      </trkpt>
      <trkpt lat="43.75711" lon="6.66431">
        <ele>1140</ele>
        <time>2010-08-15T11:28:03Z</time>
      </trkpt>
      <trkpt lat="43.75711" lon="6.66431">
        <ele>1136</ele>
        <time>2010-08-15T11:28:05Z</time>
      </trkpt>
      <trkpt lat="43.75711" lon="6.66431">
        <ele>1137</ele>
        <time>2010-08-15T11:28:06Z</time>
      </trkpt>
      <trkpt lat="43.75711" lon="6.66431">
        <ele>1142</ele>
        <time>2010-08-15T11:28:08Z</time>
      </trkpt>
      <trkpt lat="43.75712" lon="6.66432">
        <ele>1142</ele>
        <time>2010-08-15T11:28:09Z</time>
      </trkpt>
      <trkpt lat="43.75712" lon="6.66432">
        <ele>1135</ele>
        <time>2010-08-15T11:28:10Z</time>
      </trkpt>
      <trkpt lat="43.75713" lon="6.66432">
        <ele>1137</ele>
        <time>2010-08-15T11:28:11Z</time>
      </trkpt>
      <trkpt lat="43.75717" lon="6.66432">
        <ele>1139</ele>
        <time>2010-08-15T11:28:20Z</time>
      </trkpt>
      <trkpt lat="43.75718" lon="6.66437">
        <ele>1137</ele>
        <time>2010-08-15T11:28:23Z</time>
      </trkpt>
      <trkpt lat="43.75721" lon="6.66439">
        <ele>1136</ele>
        <time>2010-08-15T11:28:28Z</time>
      </trkpt>
      <trkpt lat="43.75722" lon="6.66439">
        <ele>1140</ele>
        <time>2010-08-15T11:28:31Z</time>
      </trkpt>
      <trkpt lat="43.75722" lon="6.66439">
        <ele>1136</ele>
        <time>2010-08-15T11:28:32Z</time>
      </trkpt>
      <trkpt lat="43.75723" lon="6.66442">
        <ele>1132</ele>
        <time>2010-08-15T11:29:16Z</time>
      </trkpt>
      <trkpt lat="43.75723" lon="6.66442">
        <ele>1136</ele>
        <time>2010-08-15T11:29:17Z</time>
      </trkpt>
      <trkpt lat="43.75723" lon="6.66442">
        <ele>1138</ele>
        <time>2010-08-15T11:29:26Z</time>
      </trkpt>
      <trkpt lat="43.75723" lon="6.66442">
        <ele>1135</ele>
        <time>2010-08-15T11:29:34Z</time>
      </trkpt>
      <trkpt lat="43.7572" lon="6.66447">
        <ele>1136</ele>
        <time>2010-08-15T11:29:41Z</time>
      </trkpt>
      <trkpt lat="43.75721" lon="6.66448">
        <ele>1136</ele>
        <time>2010-08-15T11:29:55Z</time>
      </trkpt>
      <trkpt lat="43.75721" lon="6.66449">
        <ele>1135</ele>
        <time>2010-08-15T11:29:59Z</time>
      </trkpt>
      <trkpt lat="43.75719" lon="6.66449">
        <ele>1136</ele>
        <time>2010-08-15T11:30:01Z</time>
      </trkpt>
      <trkpt lat="43.75717" lon="6.6645">
        <ele>1135</ele>
        <time>2010-08-15T11:30:08Z</time>
      </trkpt>
      <trkpt lat="43.75714" lon="6.66452">
        <ele>1138</ele>
        <time>2010-08-15T11:30:15Z</time>
      </trkpt>
      <trkpt lat="43.75713" lon="6.66455">
        <ele>1135</ele>
        <time>2010-08-15T11:30:17Z</time>
      </trkpt>
      <trkpt lat="43.75712" lon="6.66456">
        <ele>1139</ele>
        <time>2010-08-15T11:30:18Z</time>
      </trkpt>
      <trkpt lat="43.75712" lon="6.66457">
        <ele>1139</ele>
        <time>2010-08-15T11:30:21Z</time>
      </trkpt>
      <trkpt lat="43.75708" lon="6.66462">
        <ele>1137</ele>
        <time>2010-08-15T11:30:26Z</time>
      </trkpt>
      <trkpt lat="43.75703" lon="6.66468">
        <ele>1136</ele>
        <time>2010-08-15T11:30:33Z</time>
      </trkpt>
      <trkpt lat="43.75701" lon="6.66472">
        <ele>1140</ele>
        <time>2010-08-15T11:30:36Z</time>
      </trkpt>
      <trkpt lat="43.75701" lon="6.66472">
        <ele>1136</ele>
        <time>2010-08-15T11:30:39Z</time>
      </trkpt>
      <trkpt lat="43.75701" lon="6.66472">
        <ele>1140</ele>
        <time>2010-08-15T11:30:40Z</time>
      </trkpt>
      <trkpt lat="43.75697" lon="6.66474">
        <ele>1142</ele>
        <time>2010-08-15T11:30:50Z</time>
      </trkpt>
      <trkpt lat="43.75695" lon="6.66477">
        <ele>1138</ele>
        <time>2010-08-15T11:30:58Z</time>
      </trkpt>
      <trkpt lat="43.75695" lon="6.66477">
        <ele>1142</ele>
        <time>2010-08-15T11:31:00Z</time>
      </trkpt>
      <trkpt lat="43.75694" lon="6.66479">
        <ele>1142</ele>
        <time>2010-08-15T11:31:01Z</time>
      </trkpt>
      <trkpt lat="43.75692" lon="6.66481">
        <ele>1137</ele>
        <time>2010-08-15T11:31:03Z</time>
      </trkpt>
      <trkpt lat="43.7569" lon="6.66483">
        <ele>1142</ele>
        <time>2010-08-15T11:31:04Z</time>
      </trkpt>
      <trkpt lat="43.75689" lon="6.66484">
        <ele>1145</ele>
        <time>2010-08-15T11:31:06Z</time>
      </trkpt>
      <trkpt lat="43.75686" lon="6.66485">
        <ele>1143</ele>
        <time>2010-08-15T11:31:08Z</time>
      </trkpt>
      <trkpt lat="43.75682" lon="6.66491">
        <ele>1139</ele>
        <time>2010-08-15T11:31:14Z</time>
      </trkpt>
      <trkpt lat="43.75682" lon="6.66491">
        <ele>1143</ele>
        <time>2010-08-15T11:31:15Z</time>
      </trkpt>
      <trkpt lat="43.7568" lon="6.66494">
        <ele>1140</ele>
        <time>2010-08-15T11:31:19Z</time>
      </trkpt>
      <trkpt lat="43.75678" lon="6.66495">
        <ele>1145</ele>
        <time>2010-08-15T11:31:20Z</time>
      </trkpt>
      <trkpt lat="43.75677" lon="6.66499">
        <ele>1142</ele>
        <time>2010-08-15T11:31:25Z</time>
      </trkpt>
      <trkpt lat="43.75676" lon="6.665">
        <ele>1146</ele>
        <time>2010-08-15T11:31:27Z</time>
      </trkpt>
      <trkpt lat="43.75676" lon="6.66501">
        <ele>1146</ele>
        <time>2010-08-15T11:31:31Z</time>
      </trkpt>
      <trkpt lat="43.75674" lon="6.66505">
        <ele>1142</ele>
        <time>2010-08-15T11:31:33Z</time>
      </trkpt>
      <trkpt lat="43.75674" lon="6.66507">
        <ele>1148</ele>
        <time>2010-08-15T11:31:34Z</time>
      </trkpt>
      <trkpt lat="43.75673" lon="6.66508">
        <ele>1147</ele>
        <time>2010-08-15T11:31:35Z</time>
      </trkpt>
      <trkpt lat="43.75672" lon="6.66513">
        <ele>1141</ele>
        <time>2010-08-15T11:31:39Z</time>
      </trkpt>
      <trkpt lat="43.75672" lon="6.66513">
        <ele>1148</ele>
        <time>2010-08-15T11:31:40Z</time>
      </trkpt>
      <trkpt lat="43.75666" lon="6.66522">
        <ele>1144</ele>
        <time>2010-08-15T11:31:50Z</time>
      </trkpt>
      <trkpt lat="43.75666" lon="6.66522">
        <ele>1148</ele>
        <time>2010-08-15T11:31:51Z</time>
      </trkpt>
      <trkpt lat="43.75664" lon="6.66526">
        <ele>1148</ele>
        <time>2010-08-15T11:31:57Z</time>
      </trkpt>
      <trkpt lat="43.75664" lon="6.6653">
        <ele>1145</ele>
        <time>2010-08-15T11:32:01Z</time>
      </trkpt>
      <trkpt lat="43.75663" lon="6.66531">
        <ele>1150</ele>
        <time>2010-08-15T11:32:02Z</time>
      </trkpt>
      <trkpt lat="43.75662" lon="6.66535">
        <ele>1148</ele>
        <time>2010-08-15T11:32:08Z</time>
      </trkpt>
      <trkpt lat="43.75661" lon="6.66536">
        <ele>1145</ele>
        <time>2010-08-15T11:32:12Z</time>
      </trkpt>
      <trkpt lat="43.75661" lon="6.66537">
        <ele>1152</ele>
        <time>2010-08-15T11:32:13Z</time>
      </trkpt>
      <trkpt lat="43.75659" lon="6.66544">
        <ele>1153</ele>
        <time>2010-08-15T11:32:23Z</time>
      </trkpt>
      <trkpt lat="43.75657" lon="6.66547">
        <ele>1152</ele>
        <time>2010-08-15T11:32:29Z</time>
      </trkpt>
      <trkpt lat="43.75654" lon="6.66551">
        <ele>1150</ele>
        <time>2010-08-15T11:32:37Z</time>
      </trkpt>
      <trkpt lat="43.75654" lon="6.66552">
        <ele>1153</ele>
        <time>2010-08-15T11:32:38Z</time>
      </trkpt>
      <trkpt lat="43.75653" lon="6.66555">
        <ele>1148</ele>
        <time>2010-08-15T11:32:43Z</time>
      </trkpt>
      <trkpt lat="43.75653" lon="6.66557">
        <ele>1153</ele>
        <time>2010-08-15T11:32:45Z</time>
      </trkpt>
      <trkpt lat="43.75653" lon="6.66559">
        <ele>1149</ele>
        <time>2010-08-15T11:32:46Z</time>
      </trkpt>
      <trkpt lat="43.75652" lon="6.6656">
        <ele>1154</ele>
        <time>2010-08-15T11:32:47Z</time>
      </trkpt>
      <trkpt lat="43.75652" lon="6.66561">
        <ele>1150</ele>
        <time>2010-08-15T11:32:48Z</time>
      </trkpt>
      <trkpt lat="43.75652" lon="6.66562">
        <ele>1155</ele>
        <time>2010-08-15T11:32:49Z</time>
      </trkpt>
      <trkpt lat="43.75652" lon="6.66563">
        <ele>1154</ele>
        <time>2010-08-15T11:32:52Z</time>
      </trkpt>
      <trkpt lat="43.75652" lon="6.66564">
        <ele>1150</ele>
        <time>2010-08-15T11:32:54Z</time>
      </trkpt>
      <trkpt lat="43.75652" lon="6.66565">
        <ele>1156</ele>
        <time>2010-08-15T11:32:56Z</time>
      </trkpt>
      <trkpt lat="43.75652" lon="6.66565">
        <ele>1150</ele>
        <time>2010-08-15T11:32:57Z</time>
      </trkpt>
      <trkpt lat="43.75652" lon="6.66566">
        <ele>1154</ele>
        <time>2010-08-15T11:32:58Z</time>
      </trkpt>
      <trkpt lat="43.75652" lon="6.66567">
        <ele>1151</ele>
        <time>2010-08-15T11:32:59Z</time>
      </trkpt>
      <trkpt lat="43.75652" lon="6.66569">
        <ele>1156</ele>
        <time>2010-08-15T11:33:00Z</time>
      </trkpt>
      <trkpt lat="43.75652" lon="6.66575">
        <ele>1155</ele>
        <time>2010-08-15T11:33:07Z</time>
      </trkpt>
      <trkpt lat="43.75653" lon="6.66576">
        <ele>1159</ele>
        <time>2010-08-15T11:33:08Z</time>
      </trkpt>
      <trkpt lat="43.75654" lon="6.66578">
        <ele>1151</ele>
        <time>2010-08-15T11:33:12Z</time>
      </trkpt>
      <trkpt lat="43.75653" lon="6.66579">
        <ele>1154</ele>
        <time>2010-08-15T11:33:13Z</time>
      </trkpt>
      <trkpt lat="43.75654" lon="6.66583">
        <ele>1159</ele>
        <time>2010-08-15T11:33:18Z</time>
      </trkpt>
      <trkpt lat="43.75654" lon="6.66584">
        <ele>1159</ele>
        <time>2010-08-15T11:33:19Z</time>
      </trkpt>
      <trkpt lat="43.75654" lon="6.66587">
        <ele>1157</ele>
        <time>2010-08-15T11:33:22Z</time>
      </trkpt>
      <trkpt lat="43.75653" lon="6.66588">
        <ele>1160</ele>
        <time>2010-08-15T11:33:26Z</time>
      </trkpt>
      <trkpt lat="43.75653" lon="6.66589">
        <ele>1159</ele>
        <time>2010-08-15T11:33:27Z</time>
      </trkpt>
      <trkpt lat="43.75654" lon="6.66592">
        <ele>1162</ele>
        <time>2010-08-15T11:33:30Z</time>
      </trkpt>
      <trkpt lat="43.75653" lon="6.66593">
        <ele>1157</ele>
        <time>2010-08-15T11:33:32Z</time>
      </trkpt>
      <trkpt lat="43.75653" lon="6.66595">
        <ele>1159</ele>
        <time>2010-08-15T11:33:33Z</time>
      </trkpt>
      <trkpt lat="43.75654" lon="6.66602">
        <ele>1159</ele>
        <time>2010-08-15T11:33:46Z</time>
      </trkpt>
      <trkpt lat="43.75652" lon="6.66605">
        <ele>1159</ele>
        <time>2010-08-15T11:33:51Z</time>
      </trkpt>
      <trkpt lat="43.75651" lon="6.66608">
        <ele>1162</ele>
        <time>2010-08-15T11:33:57Z</time>
      </trkpt>
      <trkpt lat="43.75647" lon="6.66617">
        <ele>1159</ele>
        <time>2010-08-15T11:34:10Z</time>
      </trkpt>
      <trkpt lat="43.75646" lon="6.66618">
        <ele>1163</ele>
        <time>2010-08-15T11:34:13Z</time>
      </trkpt>
      <trkpt lat="43.75644" lon="6.66621">
        <ele>1164</ele>
        <time>2010-08-15T11:34:19Z</time>
      </trkpt>
      <trkpt lat="43.75644" lon="6.66622">
        <ele>1160</ele>
        <time>2010-08-15T11:34:20Z</time>
      </trkpt>
      <trkpt lat="43.75643" lon="6.66623">
        <ele>1164</ele>
        <time>2010-08-15T11:34:21Z</time>
      </trkpt>
      <trkpt lat="43.75642" lon="6.66625">
        <ele>1168</ele>
        <time>2010-08-15T11:34:24Z</time>
      </trkpt>
      <trkpt lat="43.75641" lon="6.66626">
        <ele>1163</ele>
        <time>2010-08-15T11:34:25Z</time>
      </trkpt>
      <trkpt lat="43.75641" lon="6.66626">
        <ele>1167</ele>
        <time>2010-08-15T11:34:26Z</time>
      </trkpt>
      <trkpt lat="43.75639" lon="6.66631">
        <ele>1164</ele>
        <time>2010-08-15T11:34:31Z</time>
      </trkpt>
      <trkpt lat="43.75639" lon="6.66638">
        <ele>1169</ele>
        <time>2010-08-15T11:34:40Z</time>
      </trkpt>
      <trkpt lat="43.75638" lon="6.66639">
        <ele>1166</ele>
        <time>2010-08-15T11:34:41Z</time>
      </trkpt>
      <trkpt lat="43.75637" lon="6.66643">
        <ele>1169</ele>
        <time>2010-08-15T11:34:44Z</time>
      </trkpt>
      <trkpt lat="43.75635" lon="6.6665">
        <ele>1167</ele>
        <time>2010-08-15T11:34:50Z</time>
      </trkpt>
      <trkpt lat="43.75633" lon="6.66651">
        <ele>1168</ele>
        <time>2010-08-15T11:34:54Z</time>
      </trkpt>
      <trkpt lat="43.75633" lon="6.66654">
        <ele>1163</ele>
        <time>2010-08-15T11:34:57Z</time>
      </trkpt>
      <trkpt lat="43.75633" lon="6.66655">
        <ele>1167</ele>
        <time>2010-08-15T11:34:58Z</time>
      </trkpt>
      <trkpt lat="43.75632" lon="6.66656">
        <ele>1168</ele>
        <time>2010-08-15T11:35:00Z</time>
      </trkpt>
      <trkpt lat="43.75631" lon="6.66656">
        <ele>1164</ele>
        <time>2010-08-15T11:35:02Z</time>
      </trkpt>
      <trkpt lat="43.75631" lon="6.66656">
        <ele>1169</ele>
        <time>2010-08-15T11:35:03Z</time>
      </trkpt>
      <trkpt lat="43.75626" lon="6.66661">
        <ele>1169</ele>
        <time>2010-08-15T11:35:14Z</time>
      </trkpt>
      <trkpt lat="43.75627" lon="6.66663">
        <ele>1172</ele>
        <time>2010-08-15T11:35:15Z</time>
      </trkpt>
      <trkpt lat="43.75626" lon="6.66663">
        <ele>1171</ele>
        <time>2010-08-15T11:35:16Z</time>
      </trkpt>
      <trkpt lat="43.7562" lon="6.66669">
        <ele>1171</ele>
        <time>2010-08-15T11:35:26Z</time>
      </trkpt>
      <trkpt lat="43.75618" lon="6.66674">
        <ele>1174</ele>
        <time>2010-08-15T11:35:39Z</time>
      </trkpt>
      <trkpt lat="43.75616" lon="6.66676">
        <ele>1171</ele>
        <time>2010-08-15T11:35:44Z</time>
      </trkpt>
      <trkpt lat="43.75616" lon="6.66678">
        <ele>1172</ele>
        <time>2010-08-15T11:35:45Z</time>
      </trkpt>
      <trkpt lat="43.75615" lon="6.66679">
        <ele>1176</ele>
        <time>2010-08-15T11:35:48Z</time>
      </trkpt>
      <trkpt lat="43.75612" lon="6.66681">
        <ele>1174</ele>
        <time>2010-08-15T11:35:54Z</time>
      </trkpt>
      <trkpt lat="43.75611" lon="6.66684">
        <ele>1176</ele>
        <time>2010-08-15T11:35:57Z</time>
      </trkpt>
      <trkpt lat="43.75611" lon="6.66686">
        <ele>1173</ele>
        <time>2010-08-15T11:36:01Z</time>
      </trkpt>
      <trkpt lat="43.75612" lon="6.66689">
        <ele>1177</ele>
        <time>2010-08-15T11:36:07Z</time>
      </trkpt>
      <trkpt lat="43.75611" lon="6.6669">
        <ele>1177</ele>
        <time>2010-08-15T11:36:08Z</time>
      </trkpt>
      <trkpt lat="43.75613" lon="6.66701">
        <ele>1178</ele>
        <time>2010-08-15T11:36:21Z</time>
      </trkpt>
      <trkpt lat="43.75616" lon="6.66706">
        <ele>1178</ele>
        <time>2010-08-15T11:36:27Z</time>
      </trkpt>
      <trkpt lat="43.75616" lon="6.66707">
        <ele>1174</ele>
        <time>2010-08-15T11:36:28Z</time>
      </trkpt>
      <trkpt lat="43.75617" lon="6.66709">
        <ele>1179</ele>
        <time>2010-08-15T11:36:29Z</time>
      </trkpt>
      <trkpt lat="43.75618" lon="6.66715">
        <ele>1179</ele>
        <time>2010-08-15T11:36:36Z</time>
      </trkpt>
      <trkpt lat="43.75618" lon="6.66716">
        <ele>1175</ele>
        <time>2010-08-15T11:36:38Z</time>
      </trkpt>
      <trkpt lat="43.75618" lon="6.66717">
        <ele>1180</ele>
        <time>2010-08-15T11:36:39Z</time>
      </trkpt>
      <trkpt lat="43.75618" lon="6.66718">
        <ele>1179</ele>
        <time>2010-08-15T11:36:40Z</time>
      </trkpt>
      <trkpt lat="43.75618" lon="6.6672">
        <ele>1183</ele>
        <time>2010-08-15T11:36:53Z</time>
      </trkpt>
      <trkpt lat="43.75618" lon="6.66722">
        <ele>1182</ele>
        <time>2010-08-15T11:36:54Z</time>
      </trkpt>
      <trkpt lat="43.75617" lon="6.66723">
        <ele>1178</ele>
        <time>2010-08-15T11:36:55Z</time>
      </trkpt>
      <trkpt lat="43.75617" lon="6.66724">
        <ele>1181</ele>
        <time>2010-08-15T11:36:56Z</time>
      </trkpt>
      <trkpt lat="43.75619" lon="6.66729">
        <ele>1176</ele>
        <time>2010-08-15T11:37:01Z</time>
      </trkpt>
      <trkpt lat="43.75619" lon="6.66729">
        <ele>1182</ele>
        <time>2010-08-15T11:37:02Z</time>
      </trkpt>
      <trkpt lat="43.75621" lon="6.66731">
        <ele>1179</ele>
        <time>2010-08-15T11:37:07Z</time>
      </trkpt>
      <trkpt lat="43.75621" lon="6.66732">
        <ele>1183</ele>
        <time>2010-08-15T11:37:08Z</time>
      </trkpt>
      <trkpt lat="43.75622" lon="6.66735">
        <ele>1179</ele>
        <time>2010-08-15T11:37:11Z</time>
      </trkpt>
      <trkpt lat="43.75622" lon="6.66741">
        <ele>1184</ele>
        <time>2010-08-15T11:37:19Z</time>
      </trkpt>
      <trkpt lat="43.75622" lon="6.66742">
        <ele>1181</ele>
        <time>2010-08-15T11:37:20Z</time>
      </trkpt>
      <trkpt lat="43.75624" lon="6.66747">
        <ele>1184</ele>
        <time>2010-08-15T11:37:30Z</time>
      </trkpt>
      <trkpt lat="43.75624" lon="6.66749">
        <ele>1181</ele>
        <time>2010-08-15T11:37:31Z</time>
      </trkpt>
      <trkpt lat="43.75625" lon="6.66751">
        <ele>1184</ele>
        <time>2010-08-15T11:37:32Z</time>
      </trkpt>
      <trkpt lat="43.75629" lon="6.66757">
        <ele>1178</ele>
        <time>2010-08-15T11:37:37Z</time>
      </trkpt>
      <trkpt lat="43.7563" lon="6.66759">
        <ele>1183</ele>
        <time>2010-08-15T11:37:38Z</time>
      </trkpt>
      <trkpt lat="43.75634" lon="6.66766">
        <ele>1186</ele>
        <time>2010-08-15T11:37:47Z</time>
      </trkpt>
      <trkpt lat="43.75634" lon="6.66766">
        <ele>1180</ele>
        <time>2010-08-15T11:37:48Z</time>
      </trkpt>
      <trkpt lat="43.75634" lon="6.66766">
        <ele>1184</ele>
        <time>2010-08-15T11:37:49Z</time>
      </trkpt>
      <trkpt lat="43.75634" lon="6.66766">
        <ele>1180</ele>
        <time>2010-08-15T11:37:50Z</time>
      </trkpt>
      <trkpt lat="43.75634" lon="6.66766">
        <ele>1185</ele>
        <time>2010-08-15T11:37:51Z</time>
      </trkpt>
      <trkpt lat="43.75634" lon="6.66766">
        <ele>1180</ele>
        <time>2010-08-15T11:37:52Z</time>
      </trkpt>
      <trkpt lat="43.75634" lon="6.66766">
        <ele>1184</ele>
        <time>2010-08-15T11:37:54Z</time>
      </trkpt>
      <trkpt lat="43.75635" lon="6.66768">
        <ele>1186</ele>
        <time>2010-08-15T11:37:56Z</time>
      </trkpt>
      <trkpt lat="43.75635" lon="6.66773">
        <ele>1182</ele>
        <time>2010-08-15T11:38:01Z</time>
      </trkpt>
      <trkpt lat="43.75635" lon="6.66774">
        <ele>1188</ele>
        <time>2010-08-15T11:38:02Z</time>
      </trkpt>
      <trkpt lat="43.75634" lon="6.66775">
        <ele>1183</ele>
        <time>2010-08-15T11:38:03Z</time>
      </trkpt>
      <trkpt lat="43.75634" lon="6.66777">
        <ele>1187</ele>
        <time>2010-08-15T11:38:04Z</time>
      </trkpt>
      <trkpt lat="43.75635" lon="6.66778">
        <ele>1188</ele>
        <time>2010-08-15T11:38:06Z</time>
      </trkpt>
      <trkpt lat="43.75636" lon="6.6678">
        <ele>1184</ele>
        <time>2010-08-15T11:38:09Z</time>
      </trkpt>
      <trkpt lat="43.75636" lon="6.66781">
        <ele>1188</ele>
        <time>2010-08-15T11:38:11Z</time>
      </trkpt>
      <trkpt lat="43.75636" lon="6.66781">
        <ele>1188</ele>
        <time>2010-08-15T11:38:12Z</time>
      </trkpt>
      <trkpt lat="43.75636" lon="6.66781">
        <ele>1184</ele>
        <time>2010-08-15T11:38:14Z</time>
      </trkpt>
      <trkpt lat="43.75636" lon="6.66781">
        <ele>1188</ele>
        <time>2010-08-15T11:38:16Z</time>
      </trkpt>
      <trkpt lat="43.75636" lon="6.6679">
        <ele>1189</ele>
        <time>2010-08-15T11:38:23Z</time>
      </trkpt>
      <trkpt lat="43.75635" lon="6.66792">
        <ele>1185</ele>
        <time>2010-08-15T11:38:26Z</time>
      </trkpt>
      <trkpt lat="43.75635" lon="6.66792">
        <ele>1190</ele>
        <time>2010-08-15T11:38:27Z</time>
      </trkpt>
      <trkpt lat="43.75632" lon="6.66795">
        <ele>1185</ele>
        <time>2010-08-15T11:38:32Z</time>
      </trkpt>
      <trkpt lat="43.75632" lon="6.66795">
        <ele>1190</ele>
        <time>2010-08-15T11:38:33Z</time>
      </trkpt>
      <trkpt lat="43.75631" lon="6.66796">
        <ele>1189</ele>
        <time>2010-08-15T11:38:34Z</time>
      </trkpt>
      <trkpt lat="43.75629" lon="6.66802">
        <ele>1192</ele>
        <time>2010-08-15T11:38:39Z</time>
      </trkpt>
      <trkpt lat="43.75629" lon="6.66807">
        <ele>1187</ele>
        <time>2010-08-15T11:38:42Z</time>
      </trkpt>
      <trkpt lat="43.75628" lon="6.66808">
        <ele>1191</ele>
        <time>2010-08-15T11:38:43Z</time>
      </trkpt>
      <trkpt lat="43.75628" lon="6.66811">
        <ele>1187</ele>
        <time>2010-08-15T11:38:46Z</time>
      </trkpt>
      <trkpt lat="43.75628" lon="6.66812">
        <ele>1191</ele>
        <time>2010-08-15T11:38:47Z</time>
      </trkpt>
      <trkpt lat="43.75628" lon="6.66815">
        <ele>1194</ele>
        <time>2010-08-15T11:38:51Z</time>
      </trkpt>
      <trkpt lat="43.75628" lon="6.66817">
        <ele>1189</ele>
        <time>2010-08-15T11:38:52Z</time>
      </trkpt>
      <trkpt lat="43.75626" lon="6.66822">
        <ele>1192</ele>
        <time>2010-08-15T11:38:56Z</time>
      </trkpt>
      <trkpt lat="43.75626" lon="6.66823">
        <ele>1189</ele>
        <time>2010-08-15T11:38:57Z</time>
      </trkpt>
      <trkpt lat="43.75627" lon="6.66825">
        <ele>1188</ele>
        <time>2010-08-15T11:39:01Z</time>
      </trkpt>
      <trkpt lat="43.75626" lon="6.66825">
        <ele>1187</ele>
        <time>2010-08-15T11:39:03Z</time>
      </trkpt>
      <trkpt lat="43.75624" lon="6.66828">
        <ele>1192</ele>
        <time>2010-08-15T11:39:07Z</time>
      </trkpt>
      <trkpt lat="43.75619" lon="6.66839">
        <ele>1192</ele>
        <time>2010-08-15T11:39:14Z</time>
      </trkpt>
      <trkpt lat="43.75617" lon="6.66844">
        <ele>1194</ele>
        <time>2010-08-15T11:39:19Z</time>
      </trkpt>
      <trkpt lat="43.75617" lon="6.66848">
        <ele>1191</ele>
        <time>2010-08-15T11:39:21Z</time>
      </trkpt>
      <trkpt lat="43.75615" lon="6.66852">
        <ele>1190</ele>
        <time>2010-08-15T11:39:26Z</time>
      </trkpt>
      <trkpt lat="43.75612" lon="6.66859">
        <ele>1190</ele>
        <time>2010-08-15T11:39:34Z</time>
      </trkpt>
      <trkpt lat="43.75612" lon="6.66861">
        <ele>1194</ele>
        <time>2010-08-15T11:39:37Z</time>
      </trkpt>
      <trkpt lat="43.75612" lon="6.66866">
        <ele>1189</ele>
        <time>2010-08-15T11:39:41Z</time>
      </trkpt>
      <trkpt lat="43.75612" lon="6.66868">
        <ele>1194</ele>
        <time>2010-08-15T11:39:42Z</time>
      </trkpt>
      <trkpt lat="43.75612" lon="6.66871">
        <ele>1191</ele>
        <time>2010-08-15T11:39:44Z</time>
      </trkpt>
      <trkpt lat="43.75614" lon="6.66881">
        <ele>1193</ele>
        <time>2010-08-15T11:39:49Z</time>
      </trkpt>
      <trkpt lat="43.75615" lon="6.66886">
        <ele>1194</ele>
        <time>2010-08-15T11:39:55Z</time>
      </trkpt>
      <trkpt lat="43.75614" lon="6.66892">
        <ele>1189</ele>
        <time>2010-08-15T11:39:59Z</time>
      </trkpt>
      <trkpt lat="43.75615" lon="6.66893">
        <ele>1195</ele>
        <time>2010-08-15T11:40:00Z</time>
      </trkpt>
      <trkpt lat="43.75614" lon="6.66898">
        <ele>1191</ele>
        <time>2010-08-15T11:40:06Z</time>
      </trkpt>
      <trkpt lat="43.75614" lon="6.66899">
        <ele>1196</ele>
        <time>2010-08-15T11:40:10Z</time>
      </trkpt>
      <trkpt lat="43.75614" lon="6.66902">
        <ele>1194</ele>
        <time>2010-08-15T11:40:13Z</time>
      </trkpt>
      <trkpt lat="43.75613" lon="6.66914">
        <ele>1197</ele>
        <time>2010-08-15T11:40:25Z</time>
      </trkpt>
      <trkpt lat="43.75612" lon="6.66917">
        <ele>1196</ele>
        <time>2010-08-15T11:40:27Z</time>
      </trkpt>
      <trkpt lat="43.7561" lon="6.66922">
        <ele>1199</ele>
        <time>2010-08-15T11:40:34Z</time>
      </trkpt>
      <trkpt lat="43.75608" lon="6.66924">
        <ele>1197</ele>
        <time>2010-08-15T11:40:36Z</time>
      </trkpt>
      <trkpt lat="43.75606" lon="6.66925">
        <ele>1196</ele>
        <time>2010-08-15T11:40:38Z</time>
      </trkpt>
      <trkpt lat="43.75606" lon="6.66927">
        <ele>1200</ele>
        <time>2010-08-15T11:40:40Z</time>
      </trkpt>
      <trkpt lat="43.75603" lon="6.6693">
        <ele>1199</ele>
        <time>2010-08-15T11:40:45Z</time>
      </trkpt>
      <trkpt lat="43.75601" lon="6.66932">
        <ele>1195</ele>
        <time>2010-08-15T11:40:49Z</time>
      </trkpt>
      <trkpt lat="43.75601" lon="6.66932">
        <ele>1198</ele>
        <time>2010-08-15T11:40:50Z</time>
      </trkpt>
      <trkpt lat="43.75599" lon="6.66935">
        <ele>1201</ele>
        <time>2010-08-15T11:40:56Z</time>
      </trkpt>
      <trkpt lat="43.75598" lon="6.66938">
        <ele>1204</ele>
        <time>2010-08-15T11:41:01Z</time>
      </trkpt>
      <trkpt lat="43.75598" lon="6.66939">
        <ele>1199</ele>
        <time>2010-08-15T11:41:02Z</time>
      </trkpt>
      <trkpt lat="43.75596" lon="6.66942">
        <ele>1203</ele>
        <time>2010-08-15T11:41:09Z</time>
      </trkpt>
      <trkpt lat="43.75596" lon="6.66942">
        <ele>1197</ele>
        <time>2010-08-15T11:41:10Z</time>
      </trkpt>
      <trkpt lat="43.75596" lon="6.66942">
        <ele>1203</ele>
        <time>2010-08-15T11:41:11Z</time>
      </trkpt>
      <trkpt lat="43.75593" lon="6.66945">
        <ele>1203</ele>
        <time>2010-08-15T11:41:28Z</time>
      </trkpt>
      <trkpt lat="43.75589" lon="6.6695">
        <ele>1207</ele>
        <time>2010-08-15T11:41:40Z</time>
      </trkpt>
      <trkpt lat="43.75589" lon="6.6695">
        <ele>1203</ele>
        <time>2010-08-15T11:41:41Z</time>
      </trkpt>
      <trkpt lat="43.75589" lon="6.6695">
        <ele>1207</ele>
        <time>2010-08-15T11:41:43Z</time>
      </trkpt>
      <trkpt lat="43.75589" lon="6.6695">
        <ele>1203</ele>
        <time>2010-08-15T11:41:44Z</time>
      </trkpt>
      <trkpt lat="43.75585" lon="6.66959">
        <ele>1203</ele>
        <time>2010-08-15T11:41:54Z</time>
      </trkpt>
      <trkpt lat="43.75584" lon="6.66961">
        <ele>1203</ele>
        <time>2010-08-15T11:41:55Z</time>
      </trkpt>
      <trkpt lat="43.75584" lon="6.66963">
        <ele>1207</ele>
        <time>2010-08-15T11:41:56Z</time>
      </trkpt>
      <trkpt lat="43.75583" lon="6.66965">
        <ele>1205</ele>
        <time>2010-08-15T11:41:57Z</time>
      </trkpt>
      <trkpt lat="43.75582" lon="6.66967">
        <ele>1208</ele>
        <time>2010-08-15T11:41:59Z</time>
      </trkpt>
      <trkpt lat="43.7557" lon="6.66968">
        <ele>1209</ele>
        <time>2010-08-15T11:42:15Z</time>
      </trkpt>
      <trkpt lat="43.75568" lon="6.66972">
        <ele>1213</ele>
        <time>2010-08-15T11:42:21Z</time>
      </trkpt>
      <trkpt lat="43.75568" lon="6.66973">
        <ele>1213</ele>
        <time>2010-08-15T11:42:22Z</time>
      </trkpt>
      <trkpt lat="43.75567" lon="6.66976">
        <ele>1210</ele>
        <time>2010-08-15T11:42:25Z</time>
      </trkpt>
      <trkpt lat="43.75569" lon="6.66984">
        <ele>1208</ele>
        <time>2010-08-15T11:42:31Z</time>
      </trkpt>
      <trkpt lat="43.75572" lon="6.66988">
        <ele>1211</ele>
        <time>2010-08-15T11:42:36Z</time>
      </trkpt>
      <trkpt lat="43.75567" lon="6.66992">
        <ele>1214</ele>
        <time>2010-08-15T11:42:49Z</time>
      </trkpt>
      <trkpt lat="43.75567" lon="6.66993">
        <ele>1214</ele>
        <time>2010-08-15T11:43:02Z</time>
      </trkpt>
      <trkpt lat="43.75566" lon="6.66995">
        <ele>1210</ele>
        <time>2010-08-15T11:43:13Z</time>
      </trkpt>
      <trkpt lat="43.75566" lon="6.66995">
        <ele>1215</ele>
        <time>2010-08-15T11:43:14Z</time>
      </trkpt>
      <trkpt lat="43.75562" lon="6.66996">
        <ele>1220</ele>
        <time>2010-08-15T11:43:40Z</time>
      </trkpt>
      <trkpt lat="43.75561" lon="6.66996">
        <ele>1217</ele>
        <time>2010-08-15T11:43:41Z</time>
      </trkpt>
      <trkpt lat="43.75556" lon="6.66998">
        <ele>1220</ele>
        <time>2010-08-15T11:43:50Z</time>
      </trkpt>
      <trkpt lat="43.75556" lon="6.66999">
        <ele>1215</ele>
        <time>2010-08-15T11:43:51Z</time>
      </trkpt>
      <trkpt lat="43.75555" lon="6.66999">
        <ele>1220</ele>
        <time>2010-08-15T11:43:52Z</time>
      </trkpt>
      <trkpt lat="43.75552" lon="6.67003">
        <ele>1216</ele>
        <time>2010-08-15T11:43:56Z</time>
      </trkpt>
      <trkpt lat="43.75551" lon="6.67004">
        <ele>1220</ele>
        <time>2010-08-15T11:43:57Z</time>
      </trkpt>
      <trkpt lat="43.75549" lon="6.67009">
        <ele>1223</ele>
        <time>2010-08-15T11:44:05Z</time>
      </trkpt>
      <trkpt lat="43.75549" lon="6.6701">
        <ele>1219</ele>
        <time>2010-08-15T11:44:06Z</time>
      </trkpt>
      <trkpt lat="43.75549" lon="6.6701">
        <ele>1221</ele>
        <time>2010-08-15T11:44:11Z</time>
      </trkpt>
      <trkpt lat="43.75547" lon="6.67016">
        <ele>1221</ele>
        <time>2010-08-15T11:44:18Z</time>
      </trkpt>
      <trkpt lat="43.75546" lon="6.67026">
        <ele>1223</ele>
        <time>2010-08-15T11:44:32Z</time>
      </trkpt>
      <trkpt lat="43.75542" lon="6.6703">
        <ele>1226</ele>
        <time>2010-08-15T11:44:40Z</time>
      </trkpt>
      <trkpt lat="43.75536" lon="6.6704">
        <ele>1226</ele>
        <time>2010-08-15T11:45:04Z</time>
      </trkpt>
      <trkpt lat="43.75535" lon="6.6704">
        <ele>1227</ele>
        <time>2010-08-15T11:45:06Z</time>
      </trkpt>
      <trkpt lat="43.75533" lon="6.67041">
        <ele>1229</ele>
        <time>2010-08-15T11:45:09Z</time>
      </trkpt>
      <trkpt lat="43.75532" lon="6.67053">
        <ele>1227</ele>
        <time>2010-08-15T11:45:14Z</time>
      </trkpt>
      <trkpt lat="43.75516" lon="6.6705">
        <ele>1231</ele>
        <time>2010-08-15T11:45:22Z</time>
      </trkpt>
      <trkpt lat="43.75508" lon="6.67052">
        <ele>1227</ele>
        <time>2010-08-15T11:45:34Z</time>
      </trkpt>
      <trkpt lat="43.75508" lon="6.67052">
        <ele>1232</ele>
        <time>2010-08-15T11:45:35Z</time>
      </trkpt>
      <trkpt lat="43.75497" lon="6.67064">
        <ele>1235</ele>
        <time>2010-08-15T11:46:06Z</time>
      </trkpt>
      <trkpt lat="43.75493" lon="6.67062">
        <ele>1233</ele>
        <time>2010-08-15T11:46:13Z</time>
      </trkpt>
      <trkpt lat="43.75491" lon="6.67062">
        <ele>1236</ele>
        <time>2010-08-15T11:46:19Z</time>
      </trkpt>
      <trkpt lat="43.7549" lon="6.67063">
        <ele>1236</ele>
        <time>2010-08-15T11:46:20Z</time>
      </trkpt>
      <trkpt lat="43.75485" lon="6.67067">
        <ele>1237</ele>
        <time>2010-08-15T11:46:32Z</time>
      </trkpt>
      <trkpt lat="43.75481" lon="6.67071">
        <ele>1240</ele>
        <time>2010-08-15T11:47:02Z</time>
      </trkpt>
      <trkpt lat="43.75475" lon="6.67075">
        <ele>1241</ele>
        <time>2010-08-15T11:47:12Z</time>
      </trkpt>
      <trkpt lat="43.75458" lon="6.67078">
        <ele>1245</ele>
        <time>2010-08-15T11:47:38Z</time>
      </trkpt>
      <trkpt lat="43.75453" lon="6.6708">
        <ele>1242</ele>
        <time>2010-08-15T11:47:43Z</time>
      </trkpt>
      <trkpt lat="43.75446" lon="6.67078">
        <ele>1246</ele>
        <time>2010-08-15T11:47:51Z</time>
      </trkpt>
      <trkpt lat="43.7544" lon="6.67081">
        <ele>1246</ele>
        <time>2010-08-15T11:47:58Z</time>
      </trkpt>
      <trkpt lat="43.75439" lon="6.67091">
        <ele>1250</ele>
        <time>2010-08-15T11:48:14Z</time>
      </trkpt>
      <trkpt lat="43.75439" lon="6.67094">
        <ele>1246</ele>
        <time>2010-08-15T11:48:18Z</time>
      </trkpt>
      <trkpt lat="43.75439" lon="6.67094">
        <ele>1250</ele>
        <time>2010-08-15T11:48:20Z</time>
      </trkpt>
      <trkpt lat="43.75421" lon="6.67096">
        <ele>1251</ele>
        <time>2010-08-15T11:48:36Z</time>
      </trkpt>
      <trkpt lat="43.75411" lon="6.67099">
        <ele>1253</ele>
        <time>2010-08-15T11:48:53Z</time>
      </trkpt>
      <trkpt lat="43.75408" lon="6.67104">
        <ele>1256</ele>
        <time>2010-08-15T11:49:01Z</time>
      </trkpt>
      <trkpt lat="43.75407" lon="6.67109">
        <ele>1256</ele>
        <time>2010-08-15T11:49:09Z</time>
      </trkpt>
      <trkpt lat="43.75403" lon="6.67114">
        <ele>1259</ele>
        <time>2010-08-15T11:49:24Z</time>
      </trkpt>
      <trkpt lat="43.75402" lon="6.67114">
        <ele>1255</ele>
        <time>2010-08-15T11:49:27Z</time>
      </trkpt>
      <trkpt lat="43.75402" lon="6.67115">
        <ele>1258</ele>
        <time>2010-08-15T11:49:30Z</time>
      </trkpt>
      <trkpt lat="43.75401" lon="6.67115">
        <ele>1259</ele>
        <time>2010-08-15T11:49:33Z</time>
      </trkpt>
      <trkpt lat="43.75399" lon="6.67115">
        <ele>1256</ele>
        <time>2010-08-15T11:51:03Z</time>
      </trkpt>
      <trkpt lat="43.75398" lon="6.67115">
        <ele>1258</ele>
        <time>2010-08-15T11:51:06Z</time>
      </trkpt>
      <trkpt lat="43.754" lon="6.67117">
        <ele>1254</ele>
        <time>2010-08-15T11:51:20Z</time>
      </trkpt>
      <trkpt lat="43.754" lon="6.67117">
        <ele>1255</ele>
        <time>2010-08-15T11:51:21Z</time>
      </trkpt>
      <trkpt lat="43.754" lon="6.67117">
        <ele>1256</ele>
        <time>2010-08-15T11:51:23Z</time>
      </trkpt>
      <trkpt lat="43.75398" lon="6.67118">
        <ele>1255</ele>
        <time>2010-08-15T11:51:26Z</time>
      </trkpt>
      <trkpt lat="43.75402" lon="6.67119">
        <ele>1253</ele>
        <time>2010-08-15T11:51:33Z</time>
      </trkpt>
      <trkpt lat="43.75404" lon="6.67119">
        <ele>1249</ele>
        <time>2010-08-15T11:51:35Z</time>
      </trkpt>
      <trkpt lat="43.75404" lon="6.67119">
        <ele>1252</ele>
        <time>2010-08-15T11:51:36Z</time>
      </trkpt>
      <trkpt lat="43.75406" lon="6.67118">
        <ele>1247</ele>
        <time>2010-08-15T11:51:38Z</time>
      </trkpt>
      <trkpt lat="43.75406" lon="6.67118">
        <ele>1248</ele>
        <time>2010-08-15T11:51:39Z</time>
      </trkpt>
      <trkpt lat="43.75408" lon="6.67119">
        <ele>1249</ele>
        <time>2010-08-15T11:51:41Z</time>
      </trkpt>
      <trkpt lat="43.75409" lon="6.6712">
        <ele>1253</ele>
        <time>2010-08-15T11:51:43Z</time>
      </trkpt>
      <trkpt lat="43.75411" lon="6.67119">
        <ele>1249</ele>
        <time>2010-08-15T11:51:45Z</time>
      </trkpt>
      <trkpt lat="43.75415" lon="6.67121">
        <ele>1251</ele>
        <time>2010-08-15T11:51:53Z</time>
      </trkpt>
      <trkpt lat="43.75415" lon="6.67122">
        <ele>1250</ele>
        <time>2010-08-15T11:51:54Z</time>
      </trkpt>
      <trkpt lat="43.75415" lon="6.67122">
        <ele>1254</ele>
        <time>2010-08-15T11:51:56Z</time>
      </trkpt>
      <trkpt lat="43.75415" lon="6.67122">
        <ele>1250</ele>
        <time>2010-08-15T11:51:57Z</time>
      </trkpt>
      <trkpt lat="43.75416" lon="6.67121">
        <ele>1248</ele>
        <time>2010-08-15T11:51:59Z</time>
      </trkpt>
      <trkpt lat="43.75417" lon="6.67122">
        <ele>1252</ele>
        <time>2010-08-15T11:52:04Z</time>
      </trkpt>
      <trkpt lat="43.75417" lon="6.67122">
        <ele>1246</ele>
        <time>2010-08-15T11:52:06Z</time>
      </trkpt>
      <trkpt lat="43.75418" lon="6.67122">
        <ele>1243</ele>
        <time>2010-08-15T11:52:07Z</time>
      </trkpt>
      <trkpt lat="43.75419" lon="6.67124">
        <ele>1245</ele>
        <time>2010-08-15T11:52:08Z</time>
      </trkpt>
      <trkpt lat="43.75421" lon="6.67125">
        <ele>1249</ele>
        <time>2010-08-15T11:52:10Z</time>
      </trkpt>
      <trkpt lat="43.75422" lon="6.67125">
        <ele>1241</ele>
        <time>2010-08-15T11:52:11Z</time>
      </trkpt>
      <trkpt lat="43.75422" lon="6.67125">
        <ele>1242</ele>
        <time>2010-08-15T11:52:12Z</time>
      </trkpt>
      <trkpt lat="43.75422" lon="6.67125">
        <ele>1247</ele>
        <time>2010-08-15T11:52:13Z</time>
      </trkpt>
      <trkpt lat="43.75422" lon="6.67124">
        <ele>1245</ele>
        <time>2010-08-15T11:52:16Z</time>
      </trkpt>
      <trkpt lat="43.75422" lon="6.67124">
        <ele>1247</ele>
        <time>2010-08-15T11:52:17Z</time>
      </trkpt>
      <trkpt lat="43.75422" lon="6.67124">
        <ele>1251</ele>
        <time>2010-08-15T11:52:18Z</time>
      </trkpt>
      <trkpt lat="43.75422" lon="6.67125">
        <ele>1246</ele>
        <time>2010-08-15T11:52:19Z</time>
      </trkpt>
      <trkpt lat="43.75423" lon="6.67124">
        <ele>1239</ele>
        <time>2010-08-15T11:52:21Z</time>
      </trkpt>
      <trkpt lat="43.75424" lon="6.67125">
        <ele>1247</ele>
        <time>2010-08-15T11:52:22Z</time>
      </trkpt>
      <trkpt lat="43.75424" lon="6.67125">
        <ele>1241</ele>
        <time>2010-08-15T11:52:24Z</time>
      </trkpt>
      <trkpt lat="43.75425" lon="6.67126">
        <ele>1245</ele>
        <time>2010-08-15T11:52:25Z</time>
      </trkpt>
      <trkpt lat="43.75425" lon="6.67126">
        <ele>1250</ele>
        <time>2010-08-15T11:52:26Z</time>
      </trkpt>
      <trkpt lat="43.75426" lon="6.67127">
        <ele>1249</ele>
        <time>2010-08-15T11:52:27Z</time>
      </trkpt>
      <trkpt lat="43.75427" lon="6.67127">
        <ele>1244</ele>
        <time>2010-08-15T11:52:28Z</time>
      </trkpt>
      <trkpt lat="43.75429" lon="6.67127">
        <ele>1241</ele>
        <time>2010-08-15T11:52:29Z</time>
      </trkpt>
      <trkpt lat="43.75429" lon="6.67128">
        <ele>1243</ele>
        <time>2010-08-15T11:52:30Z</time>
      </trkpt>
      <trkpt lat="43.75431" lon="6.67128">
        <ele>1248</ele>
        <time>2010-08-15T11:52:31Z</time>
      </trkpt>
      <trkpt lat="43.75432" lon="6.67128">
        <ele>1247</ele>
        <time>2010-08-15T11:52:32Z</time>
      </trkpt>
      <trkpt lat="43.75432" lon="6.67129">
        <ele>1244</ele>
        <time>2010-08-15T11:52:33Z</time>
      </trkpt>
      <trkpt lat="43.75432" lon="6.67129">
        <ele>1240</ele>
        <time>2010-08-15T11:52:35Z</time>
      </trkpt>
      <trkpt lat="43.75433" lon="6.67129">
        <ele>1240</ele>
        <time>2010-08-15T11:52:36Z</time>
      </trkpt>
      <trkpt lat="43.75436" lon="6.67131">
        <ele>1244</ele>
        <time>2010-08-15T11:52:39Z</time>
      </trkpt>
      <trkpt lat="43.75437" lon="6.67132">
        <ele>1245</ele>
        <time>2010-08-15T11:52:45Z</time>
      </trkpt>
      <trkpt lat="43.75438" lon="6.67133">
        <ele>1242</ele>
        <time>2010-08-15T11:52:47Z</time>
      </trkpt>
      <trkpt lat="43.75439" lon="6.67133">
        <ele>1238</ele>
        <time>2010-08-15T11:52:48Z</time>
      </trkpt>
      <trkpt lat="43.7544" lon="6.67134">
        <ele>1239</ele>
        <time>2010-08-15T11:52:49Z</time>
      </trkpt>
      <trkpt lat="43.7544" lon="6.67134">
        <ele>1243</ele>
        <time>2010-08-15T11:52:51Z</time>
      </trkpt>
      <trkpt lat="43.7544" lon="6.67134">
        <ele>1241</ele>
        <time>2010-08-15T11:52:52Z</time>
      </trkpt>
      <trkpt lat="43.7544" lon="6.67134">
        <ele>1245</ele>
        <time>2010-08-15T11:52:53Z</time>
      </trkpt>
      <trkpt lat="43.75441" lon="6.67134">
        <ele>1241</ele>
        <time>2010-08-15T11:52:54Z</time>
      </trkpt>
      <trkpt lat="43.75444" lon="6.67135">
        <ele>1236</ele>
        <time>2010-08-15T11:52:56Z</time>
      </trkpt>
      <trkpt lat="43.75445" lon="6.67135">
        <ele>1238</ele>
        <time>2010-08-15T11:52:57Z</time>
      </trkpt>
      <trkpt lat="43.75449" lon="6.67136">
        <ele>1241</ele>
        <time>2010-08-15T11:53:02Z</time>
      </trkpt>
      <trkpt lat="43.7545" lon="6.67137">
        <ele>1237</ele>
        <time>2010-08-15T11:53:03Z</time>
      </trkpt>
      <trkpt lat="43.75451" lon="6.67137">
        <ele>1234</ele>
        <time>2010-08-15T11:53:04Z</time>
      </trkpt>
      <trkpt lat="43.75452" lon="6.67137">
        <ele>1238</ele>
        <time>2010-08-15T11:53:05Z</time>
      </trkpt>
      <trkpt lat="43.75454" lon="6.67139">
        <ele>1234</ele>
        <time>2010-08-15T11:53:10Z</time>
      </trkpt>
      <trkpt lat="43.75454" lon="6.67139">
        <ele>1234</ele>
        <time>2010-08-15T11:53:11Z</time>
      </trkpt>
      <trkpt lat="43.75456" lon="6.67141">
        <ele>1238</ele>
        <time>2010-08-15T11:53:14Z</time>
      </trkpt>
      <trkpt lat="43.75456" lon="6.67141">
        <ele>1234</ele>
        <time>2010-08-15T11:53:19Z</time>
      </trkpt>
      <trkpt lat="43.75459" lon="6.67142">
        <ele>1234</ele>
        <time>2010-08-15T11:53:24Z</time>
      </trkpt>
      <trkpt lat="43.75464" lon="6.67141">
        <ele>1240</ele>
        <time>2010-08-15T11:53:28Z</time>
      </trkpt>
      <trkpt lat="43.75464" lon="6.67141">
        <ele>1234</ele>
        <time>2010-08-15T11:53:29Z</time>
      </trkpt>
      <trkpt lat="43.75466" lon="6.67142">
        <ele>1235</ele>
        <time>2010-08-15T11:53:36Z</time>
      </trkpt>
      <trkpt lat="43.75466" lon="6.67142">
        <ele>1229</ele>
        <time>2010-08-15T11:53:39Z</time>
      </trkpt>
      <trkpt lat="43.75466" lon="6.67142">
        <ele>1231</ele>
        <time>2010-08-15T11:53:40Z</time>
      </trkpt>
      <trkpt lat="43.75467" lon="6.67143">
        <ele>1235</ele>
        <time>2010-08-15T11:53:43Z</time>
      </trkpt>
      <trkpt lat="43.75469" lon="6.67144">
        <ele>1231</ele>
        <time>2010-08-15T11:53:44Z</time>
      </trkpt>
      <trkpt lat="43.75471" lon="6.67143">
        <ele>1234</ele>
        <time>2010-08-15T11:53:48Z</time>
      </trkpt>
      <trkpt lat="43.75472" lon="6.67143">
        <ele>1229</ele>
        <time>2010-08-15T11:53:50Z</time>
      </trkpt>
      <trkpt lat="43.75473" lon="6.67143">
        <ele>1233</ele>
        <time>2010-08-15T11:53:51Z</time>
      </trkpt>
      <trkpt lat="43.75474" lon="6.67143">
        <ele>1229</ele>
        <time>2010-08-15T11:53:53Z</time>
      </trkpt>
      <trkpt lat="43.75474" lon="6.67143">
        <ele>1230</ele>
        <time>2010-08-15T11:53:54Z</time>
      </trkpt>
      <trkpt lat="43.75476" lon="6.67142">
        <ele>1226</ele>
        <time>2010-08-15T11:53:58Z</time>
      </trkpt>
      <trkpt lat="43.7548" lon="6.67143">
        <ele>1230</ele>
        <time>2010-08-15T11:54:02Z</time>
      </trkpt>
      <trkpt lat="43.75487" lon="6.67145">
        <ele>1226</ele>
        <time>2010-08-15T11:54:09Z</time>
      </trkpt>
      <trkpt lat="43.75487" lon="6.67145">
        <ele>1231</ele>
        <time>2010-08-15T11:54:12Z</time>
      </trkpt>
      <trkpt lat="43.75488" lon="6.67146">
        <ele>1228</ele>
        <time>2010-08-15T11:54:13Z</time>
      </trkpt>
      <trkpt lat="43.75491" lon="6.67147">
        <ele>1225</ele>
        <time>2010-08-15T11:54:15Z</time>
      </trkpt>
      <trkpt lat="43.75496" lon="6.6715">
        <ele>1229</ele>
        <time>2010-08-15T11:54:20Z</time>
      </trkpt>
      <trkpt lat="43.75497" lon="6.6715">
        <ele>1224</ele>
        <time>2010-08-15T11:54:21Z</time>
      </trkpt>
      <trkpt lat="43.75497" lon="6.6715">
        <ele>1230</ele>
        <time>2010-08-15T11:54:22Z</time>
      </trkpt>
      <trkpt lat="43.75497" lon="6.6715">
        <ele>1221</ele>
        <time>2010-08-15T11:54:23Z</time>
      </trkpt>
      <trkpt lat="43.75498" lon="6.6715">
        <ele>1221</ele>
        <time>2010-08-15T11:54:24Z</time>
      </trkpt>
      <trkpt lat="43.75499" lon="6.6715">
        <ele>1225</ele>
        <time>2010-08-15T11:54:25Z</time>
      </trkpt>
      <trkpt lat="43.755" lon="6.67151">
        <ele>1224</ele>
        <time>2010-08-15T11:54:26Z</time>
      </trkpt>
      <trkpt lat="43.75505" lon="6.67152">
        <ele>1221</ele>
        <time>2010-08-15T11:54:31Z</time>
      </trkpt>
      <trkpt lat="43.75509" lon="6.67153">
        <ele>1228</ele>
        <time>2010-08-15T11:54:35Z</time>
      </trkpt>
      <trkpt lat="43.75512" lon="6.67154">
        <ele>1220</ele>
        <time>2010-08-15T11:54:37Z</time>
      </trkpt>
      <trkpt lat="43.75517" lon="6.67155">
        <ele>1219</ele>
        <time>2010-08-15T11:54:43Z</time>
      </trkpt>
      <trkpt lat="43.75518" lon="6.67155">
        <ele>1219</ele>
        <time>2010-08-15T11:54:44Z</time>
      </trkpt>
      <trkpt lat="43.75522" lon="6.67156">
        <ele>1222</ele>
        <time>2010-08-15T11:54:50Z</time>
      </trkpt>
      <trkpt lat="43.75524" lon="6.67158">
        <ele>1217</ele>
        <time>2010-08-15T11:54:54Z</time>
      </trkpt>
      <trkpt lat="43.75525" lon="6.67159">
        <ele>1219</ele>
        <time>2010-08-15T11:54:55Z</time>
      </trkpt>
      <trkpt lat="43.75527" lon="6.67159">
        <ele>1222</ele>
        <time>2010-08-15T11:54:59Z</time>
      </trkpt>
      <trkpt lat="43.75529" lon="6.6716">
        <ele>1217</ele>
        <time>2010-08-15T11:55:02Z</time>
      </trkpt>
      <trkpt lat="43.7553" lon="6.67161">
        <ele>1218</ele>
        <time>2010-08-15T11:55:03Z</time>
      </trkpt>
      <trkpt lat="43.75535" lon="6.67161">
        <ele>1220</ele>
        <time>2010-08-15T11:55:09Z</time>
      </trkpt>
      <trkpt lat="43.75537" lon="6.6716">
        <ele>1219</ele>
        <time>2010-08-15T11:55:11Z</time>
      </trkpt>
      <trkpt lat="43.75537" lon="6.6716">
        <ele>1222</ele>
        <time>2010-08-15T11:55:12Z</time>
      </trkpt>
      <trkpt lat="43.75539" lon="6.67161">
        <ele>1216</ele>
        <time>2010-08-15T11:55:13Z</time>
      </trkpt>
      <trkpt lat="43.75542" lon="6.67161">
        <ele>1212</ele>
        <time>2010-08-15T11:55:15Z</time>
      </trkpt>
      <trkpt lat="43.75544" lon="6.67161">
        <ele>1213</ele>
        <time>2010-08-15T11:55:16Z</time>
      </trkpt>
      <trkpt lat="43.75546" lon="6.67161">
        <ele>1209</ele>
        <time>2010-08-15T11:55:17Z</time>
      </trkpt>
      <trkpt lat="43.75549" lon="6.67161">
        <ele>1214</ele>
        <time>2010-08-15T11:55:19Z</time>
      </trkpt>
      <trkpt lat="43.7555" lon="6.6716">
        <ele>1215</ele>
        <time>2010-08-15T11:55:20Z</time>
      </trkpt>
      <trkpt lat="43.75555" lon="6.67155">
        <ele>1218</ele>
        <time>2010-08-15T11:55:25Z</time>
      </trkpt>
      <trkpt lat="43.7556" lon="6.67153">
        <ele>1212</ele>
        <time>2010-08-15T11:55:29Z</time>
      </trkpt>
      <trkpt lat="43.75562" lon="6.67153">
        <ele>1215</ele>
        <time>2010-08-15T11:55:31Z</time>
      </trkpt>
      <trkpt lat="43.75563" lon="6.67151">
        <ele>1212</ele>
        <time>2010-08-15T11:55:33Z</time>
      </trkpt>
      <trkpt lat="43.75564" lon="6.6715">
        <ele>1212</ele>
        <time>2010-08-15T11:55:34Z</time>
      </trkpt>
      <trkpt lat="43.75566" lon="6.6715">
        <ele>1209</ele>
        <time>2010-08-15T11:55:38Z</time>
      </trkpt>
      <trkpt lat="43.7557" lon="6.6715">
        <ele>1212</ele>
        <time>2010-08-15T11:55:52Z</time>
      </trkpt>
      <trkpt lat="43.75571" lon="6.6715">
        <ele>1209</ele>
        <time>2010-08-15T11:55:57Z</time>
      </trkpt>
      <trkpt lat="43.75574" lon="6.67149">
        <ele>1204</ele>
        <time>2010-08-15T11:56:01Z</time>
      </trkpt>
      <trkpt lat="43.75576" lon="6.67149">
        <ele>1206</ele>
        <time>2010-08-15T11:56:02Z</time>
      </trkpt>
      <trkpt lat="43.75578" lon="6.6715">
        <ele>1206</ele>
        <time>2010-08-15T11:56:03Z</time>
      </trkpt>
      <trkpt lat="43.75587" lon="6.67148">
        <ele>1210</ele>
        <time>2010-08-15T11:56:07Z</time>
      </trkpt>
      <trkpt lat="43.75592" lon="6.67147">
        <ele>1206</ele>
        <time>2010-08-15T11:56:10Z</time>
      </trkpt>
      <trkpt lat="43.75593" lon="6.67148">
        <ele>1209</ele>
        <time>2010-08-15T11:56:11Z</time>
      </trkpt>
      <trkpt lat="43.756" lon="6.67146">
        <ele>1208</ele>
        <time>2010-08-15T11:56:24Z</time>
      </trkpt>
      <trkpt lat="43.75608" lon="6.67146">
        <ele>1204</ele>
        <time>2010-08-15T11:56:33Z</time>
      </trkpt>
      <trkpt lat="43.75608" lon="6.67146">
        <ele>1207</ele>
        <time>2010-08-15T11:56:34Z</time>
      </trkpt>
      <trkpt lat="43.75614" lon="6.67145">
        <ele>1202</ele>
        <time>2010-08-15T11:56:42Z</time>
      </trkpt>
      <trkpt lat="43.75616" lon="6.67145">
        <ele>1206</ele>
        <time>2010-08-15T11:56:43Z</time>
      </trkpt>
      <trkpt lat="43.75619" lon="6.67142">
        <ele>1202</ele>
        <time>2010-08-15T11:56:49Z</time>
      </trkpt>
      <trkpt lat="43.75619" lon="6.67142">
        <ele>1202</ele>
        <time>2010-08-15T11:56:50Z</time>
      </trkpt>
      <trkpt lat="43.7562" lon="6.6714">
        <ele>1209</ele>
        <time>2010-08-15T11:56:52Z</time>
      </trkpt>
      <trkpt lat="43.7562" lon="6.6714">
        <ele>1208</ele>
        <time>2010-08-15T11:56:53Z</time>
      </trkpt>
      <trkpt lat="43.7562" lon="6.6714">
        <ele>1205</ele>
        <time>2010-08-15T11:56:54Z</time>
      </trkpt>
      <trkpt lat="43.7562" lon="6.6714">
        <ele>1205</ele>
        <time>2010-08-15T11:56:55Z</time>
      </trkpt>
      <trkpt lat="43.75623" lon="6.67137">
        <ele>1204</ele>
        <time>2010-08-15T11:57:04Z</time>
      </trkpt>
      <trkpt lat="43.75623" lon="6.67137">
        <ele>1206</ele>
        <time>2010-08-15T11:57:07Z</time>
      </trkpt>
      <trkpt lat="43.75623" lon="6.67137">
        <ele>1196</ele>
        <time>2010-08-15T11:57:08Z</time>
      </trkpt>
      <trkpt lat="43.75623" lon="6.67137">
        <ele>1209</ele>
        <time>2010-08-15T11:57:09Z</time>
      </trkpt>
      <trkpt lat="43.75624" lon="6.67136">
        <ele>1204</ele>
        <time>2010-08-15T11:57:10Z</time>
      </trkpt>
      <trkpt lat="43.75625" lon="6.67135">
        <ele>1200</ele>
        <time>2010-08-15T11:57:11Z</time>
      </trkpt>
      <trkpt lat="43.75626" lon="6.67135">
        <ele>1200</ele>
        <time>2010-08-15T11:57:12Z</time>
      </trkpt>
      <trkpt lat="43.75627" lon="6.67134">
        <ele>1203</ele>
        <time>2010-08-15T11:57:14Z</time>
      </trkpt>
      <trkpt lat="43.75628" lon="6.67133">
        <ele>1207</ele>
        <time>2010-08-15T11:57:15Z</time>
      </trkpt>
      <trkpt lat="43.7563" lon="6.67132">
        <ele>1203</ele>
        <time>2010-08-15T11:57:16Z</time>
      </trkpt>
      <trkpt lat="43.75632" lon="6.6713">
        <ele>1197</ele>
        <time>2010-08-15T11:57:18Z</time>
      </trkpt>
      <trkpt lat="43.75634" lon="6.67128">
        <ele>1202</ele>
        <time>2010-08-15T11:57:21Z</time>
      </trkpt>
      <trkpt lat="43.75639" lon="6.67127">
        <ele>1198</ele>
        <time>2010-08-15T11:57:26Z</time>
      </trkpt>
      <trkpt lat="43.75645" lon="6.67126">
        <ele>1197</ele>
        <time>2010-08-15T11:57:32Z</time>
      </trkpt>
      <trkpt lat="43.75646" lon="6.67125">
        <ele>1202</ele>
        <time>2010-08-15T11:57:34Z</time>
      </trkpt>
      <trkpt lat="43.75646" lon="6.67125">
        <ele>1200</ele>
        <time>2010-08-15T11:57:35Z</time>
      </trkpt>
      <trkpt lat="43.75646" lon="6.67124">
        <ele>1195</ele>
        <time>2010-08-15T11:57:36Z</time>
      </trkpt>
      <trkpt lat="43.75647" lon="6.67124">
        <ele>1203</ele>
        <time>2010-08-15T11:57:40Z</time>
      </trkpt>
      <trkpt lat="43.75647" lon="6.67124">
        <ele>1198</ele>
        <time>2010-08-15T11:57:41Z</time>
      </trkpt>
      <trkpt lat="43.75647" lon="6.67124">
        <ele>1196</ele>
        <time>2010-08-15T11:57:43Z</time>
      </trkpt>
      <trkpt lat="43.75647" lon="6.67123">
        <ele>1201</ele>
        <time>2010-08-15T11:57:45Z</time>
      </trkpt>
      <trkpt lat="43.75647" lon="6.67123">
        <ele>1196</ele>
        <time>2010-08-15T11:57:46Z</time>
      </trkpt>
      <trkpt lat="43.75649" lon="6.67123">
        <ele>1206</ele>
        <time>2010-08-15T11:57:50Z</time>
      </trkpt>
      <trkpt lat="43.75649" lon="6.67123">
        <ele>1198</ele>
        <time>2010-08-15T11:57:51Z</time>
      </trkpt>
      <trkpt lat="43.75649" lon="6.67123">
        <ele>1194</ele>
        <time>2010-08-15T11:57:52Z</time>
      </trkpt>
      <trkpt lat="43.75649" lon="6.67123">
        <ele>1192</ele>
        <time>2010-08-15T11:57:53Z</time>
      </trkpt>
      <trkpt lat="43.75652" lon="6.67122">
        <ele>1193</ele>
        <time>2010-08-15T11:57:55Z</time>
      </trkpt>
      <trkpt lat="43.75655" lon="6.67121">
        <ele>1197</ele>
        <time>2010-08-15T11:57:59Z</time>
      </trkpt>
      <trkpt lat="43.75656" lon="6.6712">
        <ele>1191</ele>
        <time>2010-08-15T11:58:02Z</time>
      </trkpt>
      <trkpt lat="43.75658" lon="6.67121">
        <ele>1196</ele>
        <time>2010-08-15T11:58:03Z</time>
      </trkpt>
      <trkpt lat="43.7566" lon="6.67121">
        <ele>1190</ele>
        <time>2010-08-15T11:58:05Z</time>
      </trkpt>
      <trkpt lat="43.75662" lon="6.6712">
        <ele>1192</ele>
        <time>2010-08-15T11:58:06Z</time>
      </trkpt>
      <trkpt lat="43.75667" lon="6.6712">
        <ele>1192</ele>
        <time>2010-08-15T11:58:10Z</time>
      </trkpt>
      <trkpt lat="43.75675" lon="6.6712">
        <ele>1192</ele>
        <time>2010-08-15T11:58:19Z</time>
      </trkpt>
      <trkpt lat="43.75679" lon="6.67121">
        <ele>1195</ele>
        <time>2010-08-15T11:58:23Z</time>
      </trkpt>
      <trkpt lat="43.75681" lon="6.67121">
        <ele>1189</ele>
        <time>2010-08-15T11:58:24Z</time>
      </trkpt>
      <trkpt lat="43.75685" lon="6.67121">
        <ele>1188</ele>
        <time>2010-08-15T11:58:28Z</time>
      </trkpt>
      <trkpt lat="43.75686" lon="6.67121">
        <ele>1184</ele>
        <time>2010-08-15T11:58:33Z</time>
      </trkpt>
      <trkpt lat="43.75687" lon="6.67121">
        <ele>1185</ele>
        <time>2010-08-15T11:58:34Z</time>
      </trkpt>
      <trkpt lat="43.75692" lon="6.6712">
        <ele>1191</ele>
        <time>2010-08-15T11:58:40Z</time>
      </trkpt>
      <trkpt lat="43.75694" lon="6.67119">
        <ele>1189</ele>
        <time>2010-08-15T11:58:41Z</time>
      </trkpt>
      <trkpt lat="43.75702" lon="6.67123">
        <ele>1182</ele>
        <time>2010-08-15T11:58:45Z</time>
      </trkpt>
      <trkpt lat="43.75704" lon="6.67123">
        <ele>1183</ele>
        <time>2010-08-15T11:58:46Z</time>
      </trkpt>
      <trkpt lat="43.75709" lon="6.67125">
        <ele>1180</ele>
        <time>2010-08-15T11:58:51Z</time>
      </trkpt>
      <trkpt lat="43.75709" lon="6.67125">
        <ele>1184</ele>
        <time>2010-08-15T11:58:52Z</time>
      </trkpt>
      <trkpt lat="43.75709" lon="6.67125">
        <ele>1184</ele>
        <time>2010-08-15T11:58:53Z</time>
      </trkpt>
      <trkpt lat="43.75711" lon="6.67125">
        <ele>1187</ele>
        <time>2010-08-15T11:58:55Z</time>
      </trkpt>
      <trkpt lat="43.75716" lon="6.67127">
        <ele>1183</ele>
        <time>2010-08-15T11:58:58Z</time>
      </trkpt>
      <trkpt lat="43.75717" lon="6.67127">
        <ele>1184</ele>
        <time>2010-08-15T11:58:59Z</time>
      </trkpt>
      <trkpt lat="43.75717" lon="6.67127">
        <ele>1180</ele>
        <time>2010-08-15T11:59:00Z</time>
      </trkpt>
      <trkpt lat="43.75722" lon="6.67127">
        <ele>1180</ele>
        <time>2010-08-15T11:59:04Z</time>
      </trkpt>
      <trkpt lat="43.75723" lon="6.67127">
        <ele>1179</ele>
        <time>2010-08-15T11:59:08Z</time>
      </trkpt>
      <trkpt lat="43.75723" lon="6.67127">
        <ele>1181</ele>
        <time>2010-08-15T11:59:09Z</time>
      </trkpt>
      <trkpt lat="43.75724" lon="6.67127">
        <ele>1179</ele>
        <time>2010-08-15T11:59:12Z</time>
      </trkpt>
      <trkpt lat="43.75726" lon="6.67128">
        <ele>1180</ele>
        <time>2010-08-15T11:59:17Z</time>
      </trkpt>
      <trkpt lat="43.75728" lon="6.67128">
        <ele>1184</ele>
        <time>2010-08-15T11:59:20Z</time>
      </trkpt>
      <trkpt lat="43.75728" lon="6.67128">
        <ele>1178</ele>
        <time>2010-08-15T11:59:22Z</time>
      </trkpt>
      <trkpt lat="43.75729" lon="6.67129">
        <ele>1175</ele>
        <time>2010-08-15T11:59:24Z</time>
      </trkpt>
      <trkpt lat="43.75735" lon="6.67128">
        <ele>1179</ele>
        <time>2010-08-15T11:59:29Z</time>
      </trkpt>
      <trkpt lat="43.75736" lon="6.67128">
        <ele>1176</ele>
        <time>2010-08-15T11:59:34Z</time>
      </trkpt>
      <trkpt lat="43.75741" lon="6.67131">
        <ele>1174</ele>
        <time>2010-08-15T11:59:42Z</time>
      </trkpt>
      <trkpt lat="43.75743" lon="6.67131">
        <ele>1178</ele>
        <time>2010-08-15T11:59:48Z</time>
      </trkpt>
      <trkpt lat="43.75744" lon="6.67132">
        <ele>1177</ele>
        <time>2010-08-15T11:59:49Z</time>
      </trkpt>
      <trkpt lat="43.75744" lon="6.67132">
        <ele>1173</ele>
        <time>2010-08-15T11:59:50Z</time>
      </trkpt>
      <trkpt lat="43.75745" lon="6.67133">
        <ele>1170</ele>
        <time>2010-08-15T11:59:51Z</time>
      </trkpt>
      <trkpt lat="43.75748" lon="6.67135">
        <ele>1172</ele>
        <time>2010-08-15T11:59:52Z</time>
      </trkpt>
      <trkpt lat="43.75754" lon="6.67137">
        <ele>1171</ele>
        <time>2010-08-15T11:59:55Z</time>
      </trkpt>
      <trkpt lat="43.7576" lon="6.6714">
        <ele>1169</ele>
        <time>2010-08-15T11:59:58Z</time>
      </trkpt>
      <trkpt lat="43.75769" lon="6.67145">
        <ele>1171</ele>
        <time>2010-08-15T12:00:05Z</time>
      </trkpt>
      <trkpt lat="43.75769" lon="6.67145">
        <ele>1171</ele>
        <time>2010-08-15T12:00:06Z</time>
      </trkpt>
      <trkpt lat="43.75774" lon="6.67147">
        <ele>1168</ele>
        <time>2010-08-15T12:00:13Z</time>
      </trkpt>
      <trkpt lat="43.75779" lon="6.67151">
        <ele>1169</ele>
        <time>2010-08-15T12:00:16Z</time>
      </trkpt>
      <trkpt lat="43.75785" lon="6.67153">
        <ele>1168</ele>
        <time>2010-08-15T12:00:22Z</time>
      </trkpt>
      <trkpt lat="43.75788" lon="6.67154">
        <ele>1171</ele>
        <time>2010-08-15T12:00:25Z</time>
      </trkpt>
      <trkpt lat="43.7579" lon="6.67156">
        <ele>1165</ele>
        <time>2010-08-15T12:00:27Z</time>
      </trkpt>
      <trkpt lat="43.758" lon="6.67161">
        <ele>1165</ele>
        <time>2010-08-15T12:00:32Z</time>
      </trkpt>
      <trkpt lat="43.75805" lon="6.67162">
        <ele>1166</ele>
        <time>2010-08-15T12:00:36Z</time>
      </trkpt>
      <trkpt lat="43.75808" lon="6.67163">
        <ele>1167</ele>
        <time>2010-08-15T12:00:38Z</time>
      </trkpt>
      <trkpt lat="43.75814" lon="6.67171">
        <ele>1166</ele>
        <time>2010-08-15T12:00:44Z</time>
      </trkpt>
      <trkpt lat="43.75817" lon="6.67174">
        <ele>1166</ele>
        <time>2010-08-15T12:00:49Z</time>
      </trkpt>
      <trkpt lat="43.75822" lon="6.6718">
        <ele>1165</ele>
        <time>2010-08-15T12:00:55Z</time>
      </trkpt>
      <trkpt lat="43.75823" lon="6.67181">
        <ele>1165</ele>
        <time>2010-08-15T12:01:00Z</time>
      </trkpt>
      <trkpt lat="43.75823" lon="6.67181">
        <ele>1168</ele>
        <time>2010-08-15T12:01:01Z</time>
      </trkpt>
      <trkpt lat="43.75823" lon="6.67181">
        <ele>1168</ele>
        <time>2010-08-15T12:01:02Z</time>
      </trkpt>
      <trkpt lat="43.75831" lon="6.67187">
        <ele>1166</ele>
        <time>2010-08-15T12:01:08Z</time>
      </trkpt>
      <trkpt lat="43.75832" lon="6.67188">
        <ele>1165</ele>
        <time>2010-08-15T12:01:10Z</time>
      </trkpt>
      <trkpt lat="43.75835" lon="6.67193">
        <ele>1165</ele>
        <time>2010-08-15T12:01:14Z</time>
      </trkpt>
      <trkpt lat="43.75835" lon="6.67194">
        <ele>1162</ele>
        <time>2010-08-15T12:01:15Z</time>
      </trkpt>
      <trkpt lat="43.75836" lon="6.67195">
        <ele>1163</ele>
        <time>2010-08-15T12:01:16Z</time>
      </trkpt>
      <trkpt lat="43.75839" lon="6.67198">
        <ele>1160</ele>
        <time>2010-08-15T12:01:19Z</time>
      </trkpt>
      <trkpt lat="43.75841" lon="6.67199">
        <ele>1164</ele>
        <time>2010-08-15T12:01:21Z</time>
      </trkpt>
      <trkpt lat="43.75847" lon="6.67203">
        <ele>1161</ele>
        <time>2010-08-15T12:01:26Z</time>
      </trkpt>
      <trkpt lat="43.75848" lon="6.67204">
        <ele>1161</ele>
        <time>2010-08-15T12:01:27Z</time>
      </trkpt>
      <trkpt lat="43.75851" lon="6.67212">
        <ele>1161</ele>
        <time>2010-08-15T12:01:34Z</time>
      </trkpt>
      <trkpt lat="43.75853" lon="6.67217">
        <ele>1159</ele>
        <time>2010-08-15T12:01:38Z</time>
      </trkpt>
      <trkpt lat="43.75854" lon="6.67218">
        <ele>1161</ele>
        <time>2010-08-15T12:01:39Z</time>
      </trkpt>
      <trkpt lat="43.75859" lon="6.67227">
        <ele>1161</ele>
        <time>2010-08-15T12:01:45Z</time>
      </trkpt>
      <trkpt lat="43.75863" lon="6.6723">
        <ele>1156</ele>
        <time>2010-08-15T12:01:50Z</time>
      </trkpt>
      <trkpt lat="43.75863" lon="6.6723">
        <ele>1158</ele>
        <time>2010-08-15T12:01:51Z</time>
      </trkpt>
      <trkpt lat="43.75863" lon="6.67231">
        <ele>1154</ele>
        <time>2010-08-15T12:01:56Z</time>
      </trkpt>
      <trkpt lat="43.75862" lon="6.67231">
        <ele>1154</ele>
        <time>2010-08-15T12:01:57Z</time>
      </trkpt>
      <trkpt lat="43.75865" lon="6.67233">
        <ele>1158</ele>
        <time>2010-08-15T12:02:01Z</time>
      </trkpt>
      <trkpt lat="43.75865" lon="6.67234">
        <ele>1158</ele>
        <time>2010-08-15T12:02:02Z</time>
      </trkpt>
      <trkpt lat="43.75867" lon="6.67235">
        <ele>1155</ele>
        <time>2010-08-15T12:02:04Z</time>
      </trkpt>
      <trkpt lat="43.75875" lon="6.67238">
        <ele>1151</ele>
        <time>2010-08-15T12:02:09Z</time>
      </trkpt>
      <trkpt lat="43.75876" lon="6.67239">
        <ele>1154</ele>
        <time>2010-08-15T12:02:11Z</time>
      </trkpt>
      <trkpt lat="43.75878" lon="6.6724">
        <ele>1151</ele>
        <time>2010-08-15T12:02:18Z</time>
      </trkpt>
      <trkpt lat="43.75884" lon="6.67243">
        <ele>1152</ele>
        <time>2010-08-15T12:02:24Z</time>
      </trkpt>
      <trkpt lat="43.75888" lon="6.67242">
        <ele>1150</ele>
        <time>2010-08-15T12:02:27Z</time>
      </trkpt>
      <trkpt lat="43.75889" lon="6.67242">
        <ele>1147</ele>
        <time>2010-08-15T12:02:47Z</time>
      </trkpt>
      <trkpt lat="43.75889" lon="6.67242">
        <ele>1147</ele>
        <time>2010-08-15T12:02:48Z</time>
      </trkpt>
      <trkpt lat="43.75893" lon="6.67244">
        <ele>1148</ele>
        <time>2010-08-15T12:02:52Z</time>
      </trkpt>
      <trkpt lat="43.75896" lon="6.67242">
        <ele>1148</ele>
        <time>2010-08-15T12:02:54Z</time>
      </trkpt>
      <trkpt lat="43.759" lon="6.67245">
        <ele>1147</ele>
        <time>2010-08-15T12:02:57Z</time>
      </trkpt>
      <trkpt lat="43.75905" lon="6.67248">
        <ele>1146</ele>
        <time>2010-08-15T12:03:00Z</time>
      </trkpt>
      <trkpt lat="43.75908" lon="6.67248">
        <ele>1149</ele>
        <time>2010-08-15T12:03:02Z</time>
      </trkpt>
      <trkpt lat="43.7591" lon="6.67249">
        <ele>1148</ele>
        <time>2010-08-15T12:03:04Z</time>
      </trkpt>
      <trkpt lat="43.75915" lon="6.67253">
        <ele>1146</ele>
        <time>2010-08-15T12:03:07Z</time>
      </trkpt>
      <trkpt lat="43.75923" lon="6.6726">
        <ele>1145</ele>
        <time>2010-08-15T12:03:13Z</time>
      </trkpt>
      <trkpt lat="43.75926" lon="6.67265">
        <ele>1144</ele>
        <time>2010-08-15T12:03:19Z</time>
      </trkpt>
      <trkpt lat="43.75928" lon="6.67268">
        <ele>1143</ele>
        <time>2010-08-15T12:03:24Z</time>
      </trkpt>
      <trkpt lat="43.75929" lon="6.67269">
        <ele>1143</ele>
        <time>2010-08-15T12:03:25Z</time>
      </trkpt>
      <trkpt lat="43.75935" lon="6.67275">
        <ele>1139</ele>
        <time>2010-08-15T12:03:32Z</time>
      </trkpt>
      <trkpt lat="43.75941" lon="6.67281">
        <ele>1140</ele>
        <time>2010-08-15T12:03:40Z</time>
      </trkpt>
      <trkpt lat="43.75946" lon="6.67285">
        <ele>1137</ele>
        <time>2010-08-15T12:03:46Z</time>
      </trkpt>
      <trkpt lat="43.75957" lon="6.67293">
        <ele>1137</ele>
        <time>2010-08-15T12:03:53Z</time>
      </trkpt>
      <trkpt lat="43.75958" lon="6.67294">
        <ele>1137</ele>
        <time>2010-08-15T12:03:56Z</time>
      </trkpt>
      <trkpt lat="43.75964" lon="6.67301">
        <ele>1135</ele>
        <time>2010-08-15T12:04:02Z</time>
      </trkpt>
      <trkpt lat="43.75969" lon="6.67305">
        <ele>1134</ele>
        <time>2010-08-15T12:04:08Z</time>
      </trkpt>
      <trkpt lat="43.75973" lon="6.67305">
        <ele>1133</ele>
        <time>2010-08-15T12:04:13Z</time>
      </trkpt>
      <trkpt lat="43.75978" lon="6.67308">
        <ele>1131</ele>
        <time>2010-08-15T12:04:18Z</time>
      </trkpt>
      <trkpt lat="43.75979" lon="6.67309">
        <ele>1131</ele>
        <time>2010-08-15T12:04:19Z</time>
      </trkpt>
      <trkpt lat="43.75987" lon="6.67312">
        <ele>1131</ele>
        <time>2010-08-15T12:04:28Z</time>
      </trkpt>
      <trkpt lat="43.75992" lon="6.67314">
        <ele>1128</ele>
        <time>2010-08-15T12:04:32Z</time>
      </trkpt>
      <trkpt lat="43.75992" lon="6.67315">
        <ele>1128</ele>
        <time>2010-08-15T12:04:33Z</time>
      </trkpt>
      <trkpt lat="43.75996" lon="6.67316">
        <ele>1126</ele>
        <time>2010-08-15T12:04:37Z</time>
      </trkpt>
      <trkpt lat="43.75999" lon="6.67317">
        <ele>1126</ele>
        <time>2010-08-15T12:04:43Z</time>
      </trkpt>
      <trkpt lat="43.76003" lon="6.67314">
        <ele>1125</ele>
        <time>2010-08-15T12:05:33Z</time>
      </trkpt>
      <trkpt lat="43.76" lon="6.67306">
        <ele>1122</ele>
        <time>2010-08-15T12:05:46Z</time>
      </trkpt>
      <trkpt lat="43.75997" lon="6.67303">
        <ele>1121</ele>
        <time>2010-08-15T12:05:52Z</time>
      </trkpt>
      <trkpt lat="43.75997" lon="6.67299">
        <ele>1121</ele>
        <time>2010-08-15T12:05:56Z</time>
      </trkpt>
      <trkpt lat="43.75996" lon="6.67297">
        <ele>1117</ele>
        <time>2010-08-15T12:06:02Z</time>
      </trkpt>
      <trkpt lat="43.76001" lon="6.67287">
        <ele>1115</ele>
        <time>2010-08-15T12:06:17Z</time>
      </trkpt>
      <trkpt lat="43.76002" lon="6.67287">
        <ele>1117</ele>
        <time>2010-08-15T12:06:19Z</time>
      </trkpt>
      <trkpt lat="43.76004" lon="6.67288">
        <ele>1113</ele>
        <time>2010-08-15T12:06:28Z</time>
      </trkpt>
      <trkpt lat="43.76004" lon="6.67288">
        <ele>1113</ele>
        <time>2010-08-15T12:06:29Z</time>
      </trkpt>
      <trkpt lat="43.76006" lon="6.67285">
        <ele>1111</ele>
        <time>2010-08-15T12:06:36Z</time>
      </trkpt>
      <trkpt lat="43.76014" lon="6.67286">
        <ele>1109</ele>
        <time>2010-08-15T12:06:54Z</time>
      </trkpt>
      <trkpt lat="43.76023" lon="6.67286">
        <ele>1108</ele>
        <time>2010-08-15T12:06:59Z</time>
      </trkpt>
      <trkpt lat="43.76031" lon="6.67286">
        <ele>1108</ele>
        <time>2010-08-15T12:07:05Z</time>
      </trkpt>
      <trkpt lat="43.76038" lon="6.67284">
        <ele>1104</ele>
        <time>2010-08-15T12:07:15Z</time>
      </trkpt>
      <trkpt lat="43.76039" lon="6.67285">
        <ele>1103</ele>
        <time>2010-08-15T12:07:22Z</time>
      </trkpt>
      <trkpt lat="43.7604" lon="6.67283">
        <ele>1101</ele>
        <time>2010-08-15T12:07:29Z</time>
      </trkpt>
      <trkpt lat="43.76049" lon="6.67281">
        <ele>1100</ele>
        <time>2010-08-15T12:07:36Z</time>
      </trkpt>
      <trkpt lat="43.76052" lon="6.67278">
        <ele>1097</ele>
        <time>2010-08-15T12:07:49Z</time>
      </trkpt>
      <trkpt lat="43.76063" lon="6.67266">
        <ele>1095</ele>
        <time>2010-08-15T12:08:04Z</time>
      </trkpt>
      <trkpt lat="43.76066" lon="6.67258">
        <ele>1093</ele>
        <time>2010-08-15T12:08:11Z</time>
      </trkpt>
      <trkpt lat="43.7607" lon="6.67252">
        <ele>1091</ele>
        <time>2010-08-15T12:08:21Z</time>
      </trkpt>
      <trkpt lat="43.76071" lon="6.67247">
        <ele>1090</ele>
        <time>2010-08-15T12:08:28Z</time>
      </trkpt>
      <trkpt lat="43.76072" lon="6.67243">
        <ele>1089</ele>
        <time>2010-08-15T12:08:31Z</time>
      </trkpt>
      <trkpt lat="43.76079" lon="6.6724">
        <ele>1089</ele>
        <time>2010-08-15T12:08:39Z</time>
      </trkpt>
      <trkpt lat="43.7608" lon="6.67241">
        <ele>1086</ele>
        <time>2010-08-15T12:08:44Z</time>
      </trkpt>
      <trkpt lat="43.76082" lon="6.67241">
        <ele>1086</ele>
        <time>2010-08-15T12:08:50Z</time>
      </trkpt>
      <trkpt lat="43.76089" lon="6.67246">
        <ele>1084</ele>
        <time>2010-08-15T12:08:59Z</time>
      </trkpt>
      <trkpt lat="43.76094" lon="6.67249">
        <ele>1080</ele>
        <time>2010-08-15T12:09:10Z</time>
      </trkpt>
      <trkpt lat="43.76099" lon="6.67251">
        <ele>1080</ele>
        <time>2010-08-15T12:09:17Z</time>
      </trkpt>
      <trkpt lat="43.76104" lon="6.67255">
        <ele>1080</ele>
        <time>2010-08-15T12:09:21Z</time>
      </trkpt>
      <trkpt lat="43.76114" lon="6.67259">
        <ele>1076</ele>
        <time>2010-08-15T12:09:28Z</time>
      </trkpt>
      <trkpt lat="43.76117" lon="6.6726">
        <ele>1076</ele>
        <time>2010-08-15T12:09:32Z</time>
      </trkpt>
      <trkpt lat="43.76123" lon="6.67261">
        <ele>1073</ele>
        <time>2010-08-15T12:09:52Z</time>
      </trkpt>
      <trkpt lat="43.76128" lon="6.67258">
        <ele>1072</ele>
        <time>2010-08-15T12:09:58Z</time>
      </trkpt>
      <trkpt lat="43.76131" lon="6.6726">
        <ele>1071</ele>
        <time>2010-08-15T12:10:05Z</time>
      </trkpt>
      <trkpt lat="43.76136" lon="6.67261">
        <ele>1071</ele>
        <time>2010-08-15T12:10:14Z</time>
      </trkpt>
      <trkpt lat="43.76136" lon="6.67261">
        <ele>1069</ele>
        <time>2010-08-15T12:10:18Z</time>
      </trkpt>
      <trkpt lat="43.76141" lon="6.67261">
        <ele>1068</ele>
        <time>2010-08-15T12:10:28Z</time>
      </trkpt>
      <trkpt lat="43.76157" lon="6.67259">
        <ele>1065</ele>
        <time>2010-08-15T12:11:17Z</time>
      </trkpt>
      <trkpt lat="43.76164" lon="6.67259">
        <ele>1062</ele>
        <time>2010-08-15T12:11:30Z</time>
      </trkpt>
      <trkpt lat="43.76174" lon="6.6726">
        <ele>1060</ele>
        <time>2010-08-15T12:11:46Z</time>
      </trkpt>
      <trkpt lat="43.76178" lon="6.6726">
        <ele>1060</ele>
        <time>2010-08-15T12:11:51Z</time>
      </trkpt>
      <trkpt lat="43.76183" lon="6.67264">
        <ele>1059</ele>
        <time>2010-08-15T12:11:58Z</time>
      </trkpt>
      <trkpt lat="43.76187" lon="6.67268">
        <ele>1059</ele>
        <time>2010-08-15T12:12:04Z</time>
      </trkpt>
      <trkpt lat="43.76192" lon="6.67274">
        <ele>1058</ele>
        <time>2010-08-15T12:12:12Z</time>
      </trkpt>
      <trkpt lat="43.76198" lon="6.67281">
        <ele>1055</ele>
        <time>2010-08-15T12:12:19Z</time>
      </trkpt>
      <trkpt lat="43.76204" lon="6.67286">
        <ele>1056</ele>
        <time>2010-08-15T12:12:24Z</time>
      </trkpt>
      <trkpt lat="43.76208" lon="6.67294">
        <ele>1055</ele>
        <time>2010-08-15T12:12:29Z</time>
      </trkpt>
      <trkpt lat="43.76215" lon="6.67308">
        <ele>1053</ele>
        <time>2010-08-15T12:12:40Z</time>
      </trkpt>
      <trkpt lat="43.76221" lon="6.67316">
        <ele>1051</ele>
        <time>2010-08-15T12:12:47Z</time>
      </trkpt>
      <trkpt lat="43.76221" lon="6.67317">
        <ele>1051</ele>
        <time>2010-08-15T12:12:48Z</time>
      </trkpt>
      <trkpt lat="43.76227" lon="6.67323">
        <ele>1050</ele>
        <time>2010-08-15T12:12:57Z</time>
      </trkpt>
      <trkpt lat="43.76233" lon="6.67327">
        <ele>1049</ele>
        <time>2010-08-15T12:13:02Z</time>
      </trkpt>
      <trkpt lat="43.76255" lon="6.67338">
        <ele>1048</ele>
        <time>2010-08-15T12:13:15Z</time>
      </trkpt>
      <trkpt lat="43.76263" lon="6.67344">
        <ele>1047</ele>
        <time>2010-08-15T12:13:22Z</time>
      </trkpt>
      <trkpt lat="43.76271" lon="6.6735">
        <ele>1045</ele>
        <time>2010-08-15T12:13:28Z</time>
      </trkpt>
      <trkpt lat="43.76279" lon="6.67355">
        <ele>1044</ele>
        <time>2010-08-15T12:13:35Z</time>
      </trkpt>
      <trkpt lat="43.76284" lon="6.67354">
        <ele>1042</ele>
        <time>2010-08-15T12:13:41Z</time>
      </trkpt>
      <trkpt lat="43.76288" lon="6.67355">
        <ele>1043</ele>
        <time>2010-08-15T12:13:47Z</time>
      </trkpt>
      <trkpt lat="43.7629" lon="6.67356">
        <ele>1039</ele>
        <time>2010-08-15T12:13:55Z</time>
      </trkpt>
      <trkpt lat="43.76291" lon="6.67357">
        <ele>1039</ele>
        <time>2010-08-15T12:13:56Z</time>
      </trkpt>
      <trkpt lat="43.76299" lon="6.67362">
        <ele>1040</ele>
        <time>2010-08-15T12:14:01Z</time>
      </trkpt>
      <trkpt lat="43.76305" lon="6.67366">
        <ele>1040</ele>
        <time>2010-08-15T12:14:05Z</time>
      </trkpt>
      <trkpt lat="43.76313" lon="6.6737">
        <ele>1038</ele>
        <time>2010-08-15T12:14:11Z</time>
      </trkpt>
      <trkpt lat="43.76317" lon="6.67372">
        <ele>1037</ele>
        <time>2010-08-15T12:14:13Z</time>
      </trkpt>
      <trkpt lat="43.76325" lon="6.67381">
        <ele>1037</ele>
        <time>2010-08-15T12:14:21Z</time>
      </trkpt>
      <trkpt lat="43.76327" lon="6.67383">
        <ele>1036</ele>
        <time>2010-08-15T12:14:23Z</time>
      </trkpt>
      <trkpt lat="43.76334" lon="6.67389">
        <ele>1035</ele>
        <time>2010-08-15T12:14:29Z</time>
      </trkpt>
      <trkpt lat="43.76335" lon="6.67389">
        <ele>1035</ele>
        <time>2010-08-15T12:14:30Z</time>
      </trkpt>
      <trkpt lat="43.7634" lon="6.67392">
        <ele>1035</ele>
        <time>2010-08-15T12:14:36Z</time>
      </trkpt>
      <trkpt lat="43.76345" lon="6.67394">
        <ele>1034</ele>
        <time>2010-08-15T12:14:42Z</time>
      </trkpt>
      <trkpt lat="43.76358" lon="6.67401">
        <ele>1032</ele>
        <time>2010-08-15T12:14:57Z</time>
      </trkpt>
      <trkpt lat="43.76364" lon="6.67403">
        <ele>1028</ele>
        <time>2010-08-15T12:15:06Z</time>
      </trkpt>
      <trkpt lat="43.7637" lon="6.6741">
        <ele>1027</ele>
        <time>2010-08-15T12:15:14Z</time>
      </trkpt>
      <trkpt lat="43.76375" lon="6.67412">
        <ele>1027</ele>
        <time>2010-08-15T12:15:19Z</time>
      </trkpt>
      <trkpt lat="43.76381" lon="6.67417">
        <ele>1026</ele>
        <time>2010-08-15T12:15:26Z</time>
      </trkpt>
      <trkpt lat="43.76386" lon="6.6742">
        <ele>1024</ele>
        <time>2010-08-15T12:15:33Z</time>
      </trkpt>
      <trkpt lat="43.7639" lon="6.67422">
        <ele>1022</ele>
        <time>2010-08-15T12:15:41Z</time>
      </trkpt>
      <trkpt lat="43.76396" lon="6.67426">
        <ele>1022</ele>
        <time>2010-08-15T12:15:48Z</time>
      </trkpt>
      <trkpt lat="43.76402" lon="6.67429">
        <ele>1020</ele>
        <time>2010-08-15T12:15:54Z</time>
      </trkpt>
      <trkpt lat="43.76407" lon="6.67435">
        <ele>1018</ele>
        <time>2010-08-15T12:16:00Z</time>
      </trkpt>
      <trkpt lat="43.76414" lon="6.67443">
        <ele>1019</ele>
        <time>2010-08-15T12:16:06Z</time>
      </trkpt>
      <trkpt lat="43.76419" lon="6.67448">
        <ele>1017</ele>
        <time>2010-08-15T12:16:12Z</time>
      </trkpt>
      <trkpt lat="43.76423" lon="6.67453">
        <ele>1016</ele>
        <time>2010-08-15T12:16:19Z</time>
      </trkpt>
      <trkpt lat="43.76428" lon="6.67459">
        <ele>1015</ele>
        <time>2010-08-15T12:16:25Z</time>
      </trkpt>
      <trkpt lat="43.76437" lon="6.67463">
        <ele>1011</ele>
        <time>2010-08-15T12:16:33Z</time>
      </trkpt>
      <trkpt lat="43.76442" lon="6.67468">
        <ele>1011</ele>
        <time>2010-08-15T12:16:39Z</time>
      </trkpt>
      <trkpt lat="43.76445" lon="6.67472">
        <ele>1012</ele>
        <time>2010-08-15T12:16:44Z</time>
      </trkpt>
      <trkpt lat="43.76453" lon="6.67482">
        <ele>1010</ele>
        <time>2010-08-15T12:16:56Z</time>
      </trkpt>
      <trkpt lat="43.76458" lon="6.67485">
        <ele>1009</ele>
        <time>2010-08-15T12:17:02Z</time>
      </trkpt>
      <trkpt lat="43.76465" lon="6.67488">
        <ele>1010</ele>
        <time>2010-08-15T12:17:08Z</time>
      </trkpt>
      <trkpt lat="43.7647" lon="6.67492">
        <ele>1010</ele>
        <time>2010-08-15T12:17:14Z</time>
      </trkpt>
      <trkpt lat="43.76476" lon="6.67498">
        <ele>1009</ele>
        <time>2010-08-15T12:17:21Z</time>
      </trkpt>
      <trkpt lat="43.76484" lon="6.675">
        <ele>1006</ele>
        <time>2010-08-15T12:17:28Z</time>
      </trkpt>
      <trkpt lat="43.7649" lon="6.67505">
        <ele>1005</ele>
        <time>2010-08-15T12:17:34Z</time>
      </trkpt>
      <trkpt lat="43.76494" lon="6.67509">
        <ele>1005</ele>
        <time>2010-08-15T12:17:39Z</time>
      </trkpt>
      <trkpt lat="43.76497" lon="6.67512">
        <ele>1004</ele>
        <time>2010-08-15T12:18:14Z</time>
      </trkpt>
      <trkpt lat="43.765" lon="6.67513">
        <ele>1004</ele>
        <time>2010-08-15T12:18:18Z</time>
      </trkpt>
      <trkpt lat="43.76507" lon="6.67518">
        <ele>1003</ele>
        <time>2010-08-15T12:18:25Z</time>
      </trkpt>
      <trkpt lat="43.76512" lon="6.67526">
        <ele>1003</ele>
        <time>2010-08-15T12:18:32Z</time>
      </trkpt>
      <trkpt lat="43.76514" lon="6.67531">
        <ele>1006</ele>
        <time>2010-08-15T12:19:14Z</time>
      </trkpt>
      <trkpt lat="43.76512" lon="6.67541">
        <ele>1007</ele>
        <time>2010-08-15T12:19:25Z</time>
      </trkpt>
      <trkpt lat="43.76513" lon="6.67553">
        <ele>1007</ele>
        <time>2010-08-15T12:19:39Z</time>
      </trkpt>
      <trkpt lat="43.76509" lon="6.67565">
        <ele>1009</ele>
        <time>2010-08-15T12:19:48Z</time>
      </trkpt>
      <trkpt lat="43.76509" lon="6.67569">
        <ele>1008</ele>
        <time>2010-08-15T12:19:50Z</time>
      </trkpt>
      <trkpt lat="43.76509" lon="6.67577">
        <ele>1008</ele>
        <time>2010-08-15T12:19:54Z</time>
      </trkpt>
      <trkpt lat="43.76509" lon="6.67588">
        <ele>1009</ele>
        <time>2010-08-15T12:20:02Z</time>
      </trkpt>
      <trkpt lat="43.76513" lon="6.67594">
        <ele>1009</ele>
        <time>2010-08-15T12:20:06Z</time>
      </trkpt>
      <trkpt lat="43.76515" lon="6.67603">
        <ele>1009</ele>
        <time>2010-08-15T12:20:12Z</time>
      </trkpt>
      <trkpt lat="43.76514" lon="6.67607">
        <ele>1010</ele>
        <time>2010-08-15T12:20:14Z</time>
      </trkpt>
      <trkpt lat="43.76512" lon="6.67621">
        <ele>1008</ele>
        <time>2010-08-15T12:20:22Z</time>
      </trkpt>
      <trkpt lat="43.7651" lon="6.67629">
        <ele>1008</ele>
        <time>2010-08-15T12:20:28Z</time>
      </trkpt>
      <trkpt lat="43.76509" lon="6.67633">
        <ele>1008</ele>
        <time>2010-08-15T12:20:31Z</time>
      </trkpt>
      <trkpt lat="43.76509" lon="6.67637">
        <ele>1008</ele>
        <time>2010-08-15T12:20:33Z</time>
      </trkpt>
      <trkpt lat="43.76513" lon="6.67655">
        <ele>1009</ele>
        <time>2010-08-15T12:20:43Z</time>
      </trkpt>
      <trkpt lat="43.7651" lon="6.67664">
        <ele>1008</ele>
        <time>2010-08-15T12:20:50Z</time>
      </trkpt>
      <trkpt lat="43.76509" lon="6.67678">
        <ele>1008</ele>
        <time>2010-08-15T12:21:00Z</time>
      </trkpt>
      <trkpt lat="43.76511" lon="6.67686">
        <ele>1009</ele>
        <time>2010-08-15T12:21:21Z</time>
      </trkpt>
      <trkpt lat="43.76509" lon="6.677">
        <ele>1010</ele>
        <time>2010-08-15T12:21:30Z</time>
      </trkpt>
      <trkpt lat="43.7651" lon="6.67711">
        <ele>1009</ele>
        <time>2010-08-15T12:21:39Z</time>
      </trkpt>
      <trkpt lat="43.76512" lon="6.67726">
        <ele>1010</ele>
        <time>2010-08-15T12:21:53Z</time>
      </trkpt>
      <trkpt lat="43.76513" lon="6.67735">
        <ele>1010</ele>
        <time>2010-08-15T12:21:58Z</time>
      </trkpt>
      <trkpt lat="43.76507" lon="6.67745">
        <ele>1011</ele>
        <time>2010-08-15T12:22:30Z</time>
      </trkpt>
      <trkpt lat="43.76505" lon="6.67755">
        <ele>1014</ele>
        <time>2010-08-15T12:22:47Z</time>
      </trkpt>
      <trkpt lat="43.76504" lon="6.67763">
        <ele>1018</ele>
        <time>2010-08-15T12:23:06Z</time>
      </trkpt>
      <trkpt lat="43.76501" lon="6.67771">
        <ele>1017</ele>
        <time>2010-08-15T12:23:13Z</time>
      </trkpt>
      <trkpt lat="43.765" lon="6.67777">
        <ele>1018</ele>
        <time>2010-08-15T12:23:25Z</time>
      </trkpt>
      <trkpt lat="43.765" lon="6.67785">
        <ele>1020</ele>
        <time>2010-08-15T12:23:32Z</time>
      </trkpt>
      <trkpt lat="43.76499" lon="6.6779">
        <ele>1019</ele>
        <time>2010-08-15T12:23:41Z</time>
      </trkpt>
      <trkpt lat="43.76496" lon="6.67793">
        <ele>1021</ele>
        <time>2010-08-15T12:23:49Z</time>
      </trkpt>
      <trkpt lat="43.76498" lon="6.678">
        <ele>1022</ele>
        <time>2010-08-15T12:23:56Z</time>
      </trkpt>
      <trkpt lat="43.76503" lon="6.67821">
        <ele>1022</ele>
        <time>2010-08-15T12:24:11Z</time>
      </trkpt>
      <trkpt lat="43.76502" lon="6.67832">
        <ele>1022</ele>
        <time>2010-08-15T12:24:19Z</time>
      </trkpt>
      <trkpt lat="43.76496" lon="6.67842">
        <ele>1024</ele>
        <time>2010-08-15T12:24:27Z</time>
      </trkpt>
      <trkpt lat="43.76498" lon="6.67852">
        <ele>1024</ele>
        <time>2010-08-15T12:24:33Z</time>
      </trkpt>
      <trkpt lat="43.76503" lon="6.67865">
        <ele>1022</ele>
        <time>2010-08-15T12:24:40Z</time>
      </trkpt>
      <trkpt lat="43.76506" lon="6.67868">
        <ele>1025</ele>
        <time>2010-08-15T12:24:42Z</time>
      </trkpt>
      <trkpt lat="43.76507" lon="6.67874">
        <ele>1022</ele>
        <time>2010-08-15T12:24:47Z</time>
      </trkpt>
      <trkpt lat="43.76506" lon="6.67892">
        <ele>1022</ele>
        <time>2010-08-15T12:25:27Z</time>
      </trkpt>
      <trkpt lat="43.76507" lon="6.67897">
        <ele>1023</ele>
        <time>2010-08-15T12:25:30Z</time>
      </trkpt>
      <trkpt lat="43.76512" lon="6.67907">
        <ele>1023</ele>
        <time>2010-08-15T12:25:39Z</time>
      </trkpt>
      <trkpt lat="43.76518" lon="6.67916">
        <ele>1019</ele>
        <time>2010-08-15T12:26:14Z</time>
      </trkpt>
      <trkpt lat="43.76519" lon="6.67919">
        <ele>1020</ele>
        <time>2010-08-15T12:26:15Z</time>
      </trkpt>
      <trkpt lat="43.76522" lon="6.67923">
        <ele>1022</ele>
        <time>2010-08-15T12:26:18Z</time>
      </trkpt>
      <trkpt lat="43.76522" lon="6.67935">
        <ele>1022</ele>
        <time>2010-08-15T12:26:29Z</time>
      </trkpt>
      <trkpt lat="43.76524" lon="6.6794">
        <ele>1015</ele>
        <time>2010-08-15T12:26:32Z</time>
      </trkpt>
      <trkpt lat="43.76524" lon="6.67942">
        <ele>1020</ele>
        <time>2010-08-15T12:26:33Z</time>
      </trkpt>
      <trkpt lat="43.76529" lon="6.67953">
        <ele>1019</ele>
        <time>2010-08-15T12:26:39Z</time>
      </trkpt>
      <trkpt lat="43.76533" lon="6.67963">
        <ele>1020</ele>
        <time>2010-08-15T12:26:46Z</time>
      </trkpt>
      <trkpt lat="43.76539" lon="6.67975">
        <ele>1019</ele>
        <time>2010-08-15T12:26:53Z</time>
      </trkpt>
      <trkpt lat="43.76542" lon="6.67983">
        <ele>1019</ele>
        <time>2010-08-15T12:26:59Z</time>
      </trkpt>
      <trkpt lat="43.76544" lon="6.67987">
        <ele>1018</ele>
        <time>2010-08-15T12:27:02Z</time>
      </trkpt>
      <trkpt lat="43.76542" lon="6.67994">
        <ele>1018</ele>
        <time>2010-08-15T12:27:08Z</time>
      </trkpt>
      <trkpt lat="43.76544" lon="6.68002">
        <ele>1020</ele>
        <time>2010-08-15T12:27:13Z</time>
      </trkpt>
      <trkpt lat="43.76547" lon="6.68017">
        <ele>1017</ele>
        <time>2010-08-15T12:27:37Z</time>
      </trkpt>
      <trkpt lat="43.76551" lon="6.68027">
        <ele>1018</ele>
        <time>2010-08-15T12:27:45Z</time>
      </trkpt>
      <trkpt lat="43.76558" lon="6.68053">
        <ele>1016</ele>
        <time>2010-08-15T12:28:21Z</time>
      </trkpt>
      <trkpt lat="43.76563" lon="6.68062">
        <ele>1017</ele>
        <time>2010-08-15T12:28:29Z</time>
      </trkpt>
      <trkpt lat="43.76565" lon="6.68069">
        <ele>1017</ele>
        <time>2010-08-15T12:28:34Z</time>
      </trkpt>
      <trkpt lat="43.76568" lon="6.68076">
        <ele>1017</ele>
        <time>2010-08-15T12:28:40Z</time>
      </trkpt>
      <trkpt lat="43.76569" lon="6.68087">
        <ele>1016</ele>
        <time>2010-08-15T12:28:47Z</time>
      </trkpt>
      <trkpt lat="43.76571" lon="6.68095">
        <ele>1017</ele>
        <time>2010-08-15T12:28:53Z</time>
      </trkpt>
      <trkpt lat="43.76573" lon="6.681">
        <ele>1015</ele>
        <time>2010-08-15T12:28:59Z</time>
      </trkpt>
      <trkpt lat="43.76576" lon="6.68107">
        <ele>1017</ele>
        <time>2010-08-15T12:29:02Z</time>
      </trkpt>
      <trkpt lat="43.76578" lon="6.68111">
        <ele>1013</ele>
        <time>2010-08-15T12:29:05Z</time>
      </trkpt>
      <trkpt lat="43.76581" lon="6.68123">
        <ele>1015</ele>
        <time>2010-08-15T12:29:13Z</time>
      </trkpt>
      <trkpt lat="43.76581" lon="6.68137">
        <ele>1016</ele>
        <time>2010-08-15T12:29:28Z</time>
      </trkpt>
      <trkpt lat="43.76583" lon="6.68143">
        <ele>1014</ele>
        <time>2010-08-15T12:29:31Z</time>
      </trkpt>
      <trkpt lat="43.76587" lon="6.68155">
        <ele>1013</ele>
        <time>2010-08-15T12:29:38Z</time>
      </trkpt>
      <trkpt lat="43.76587" lon="6.68159">
        <ele>1015</ele>
        <time>2010-08-15T12:29:40Z</time>
      </trkpt>
      <trkpt lat="43.76588" lon="6.68162">
        <ele>1015</ele>
        <time>2010-08-15T12:29:42Z</time>
      </trkpt>
      <trkpt lat="43.7659" lon="6.6817">
        <ele>1016</ele>
        <time>2010-08-15T12:29:48Z</time>
      </trkpt>
      <trkpt lat="43.76595" lon="6.68186">
        <ele>1016</ele>
        <time>2010-08-15T12:29:57Z</time>
      </trkpt>
      <trkpt lat="43.76598" lon="6.68194">
        <ele>1014</ele>
        <time>2010-08-15T12:30:04Z</time>
      </trkpt>
      <trkpt lat="43.76599" lon="6.68197">
        <ele>1013</ele>
        <time>2010-08-15T12:30:06Z</time>
      </trkpt>
      <trkpt lat="43.76601" lon="6.682">
        <ele>1015</ele>
        <time>2010-08-15T12:30:08Z</time>
      </trkpt>
      <trkpt lat="43.76604" lon="6.68206">
        <ele>1013</ele>
        <time>2010-08-15T12:30:13Z</time>
      </trkpt>
      <trkpt lat="43.76603" lon="6.68209">
        <ele>1014</ele>
        <time>2010-08-15T12:30:15Z</time>
      </trkpt>
      <trkpt lat="43.76603" lon="6.68212">
        <ele>1015</ele>
        <time>2010-08-15T12:30:17Z</time>
      </trkpt>
      <trkpt lat="43.76601" lon="6.68218">
        <ele>1016</ele>
        <time>2010-08-15T12:30:22Z</time>
      </trkpt>
      <trkpt lat="43.76602" lon="6.68221">
        <ele>1016</ele>
        <time>2010-08-15T12:30:24Z</time>
      </trkpt>
      <trkpt lat="43.76604" lon="6.68229">
        <ele>1016</ele>
        <time>2010-08-15T12:30:28Z</time>
      </trkpt>
      <trkpt lat="43.76608" lon="6.68235">
        <ele>1015</ele>
        <time>2010-08-15T12:30:32Z</time>
      </trkpt>
      <trkpt lat="43.7661" lon="6.68244">
        <ele>1014</ele>
        <time>2010-08-15T12:30:37Z</time>
      </trkpt>
      <trkpt lat="43.7661" lon="6.68249">
        <ele>1016</ele>
        <time>2010-08-15T12:30:40Z</time>
      </trkpt>
      <trkpt lat="43.76608" lon="6.68258">
        <ele>1016</ele>
        <time>2010-08-15T12:30:46Z</time>
      </trkpt>
      <trkpt lat="43.76611" lon="6.68271">
        <ele>1016</ele>
        <time>2010-08-15T12:30:54Z</time>
      </trkpt>
      <trkpt lat="43.76614" lon="6.68283">
        <ele>1017</ele>
        <time>2010-08-15T12:31:01Z</time>
      </trkpt>
      <trkpt lat="43.76618" lon="6.68296">
        <ele>1016</ele>
        <time>2010-08-15T12:31:09Z</time>
      </trkpt>
      <trkpt lat="43.76619" lon="6.68308">
        <ele>1017</ele>
        <time>2010-08-15T12:31:17Z</time>
      </trkpt>
      <trkpt lat="43.76621" lon="6.68311">
        <ele>1015</ele>
        <time>2010-08-15T12:31:22Z</time>
      </trkpt>
      <trkpt lat="43.76623" lon="6.68316">
        <ele>1015</ele>
        <time>2010-08-15T12:31:32Z</time>
      </trkpt>
      <trkpt lat="43.76625" lon="6.68326">
        <ele>1015</ele>
        <time>2010-08-15T12:31:56Z</time>
      </trkpt>
      <trkpt lat="43.76626" lon="6.68329">
        <ele>1016</ele>
        <time>2010-08-15T12:31:58Z</time>
      </trkpt>
      <trkpt lat="43.76625" lon="6.68342">
        <ele>1016</ele>
        <time>2010-08-15T12:32:06Z</time>
      </trkpt>
      <trkpt lat="43.76624" lon="6.68344">
        <ele>1017</ele>
        <time>2010-08-15T12:32:07Z</time>
      </trkpt>
      <trkpt lat="43.76624" lon="6.6835">
        <ele>1016</ele>
        <time>2010-08-15T12:32:11Z</time>
      </trkpt>
      <trkpt lat="43.76623" lon="6.68362">
        <ele>1016</ele>
        <time>2010-08-15T12:32:19Z</time>
      </trkpt>
      <trkpt lat="43.76625" lon="6.68373">
        <ele>1017</ele>
        <time>2010-08-15T12:32:25Z</time>
      </trkpt>
      <trkpt lat="43.76625" lon="6.68385">
        <ele>1019</ele>
        <time>2010-08-15T12:32:33Z</time>
      </trkpt>
      <trkpt lat="43.76623" lon="6.68391">
        <ele>1017</ele>
        <time>2010-08-15T12:32:37Z</time>
      </trkpt>
      <trkpt lat="43.76623" lon="6.68399">
        <ele>1018</ele>
        <time>2010-08-15T12:32:42Z</time>
      </trkpt>
      <trkpt lat="43.76623" lon="6.684">
        <ele>1018</ele>
        <time>2010-08-15T12:32:43Z</time>
      </trkpt>
      <trkpt lat="43.76625" lon="6.6841">
        <ele>1018</ele>
        <time>2010-08-15T12:32:50Z</time>
      </trkpt>
      <trkpt lat="43.76626" lon="6.68418">
        <ele>1018</ele>
        <time>2010-08-15T12:32:55Z</time>
      </trkpt>
      <trkpt lat="43.76627" lon="6.68426">
        <ele>1019</ele>
        <time>2010-08-15T12:33:00Z</time>
      </trkpt>
      <trkpt lat="43.76628" lon="6.6844">
        <ele>1019</ele>
        <time>2010-08-15T12:33:07Z</time>
      </trkpt>
      <trkpt lat="43.76624" lon="6.68446">
        <ele>1018</ele>
        <time>2010-08-15T12:33:11Z</time>
      </trkpt>
      <trkpt lat="43.76624" lon="6.68451">
        <ele>1019</ele>
        <time>2010-08-15T12:33:15Z</time>
      </trkpt>
      <trkpt lat="43.76623" lon="6.68468">
        <ele>1019</ele>
        <time>2010-08-15T12:33:24Z</time>
      </trkpt>
      <trkpt lat="43.76624" lon="6.68477">
        <ele>1019</ele>
        <time>2010-08-15T12:33:32Z</time>
      </trkpt>
      <trkpt lat="43.76625" lon="6.68479">
        <ele>1018</ele>
        <time>2010-08-15T12:33:42Z</time>
      </trkpt>
      <trkpt lat="43.76625" lon="6.68482">
        <ele>1018</ele>
        <time>2010-08-15T12:33:45Z</time>
      </trkpt>
      <trkpt lat="43.76628" lon="6.68488">
        <ele>1019</ele>
        <time>2010-08-15T12:33:50Z</time>
      </trkpt>
      <trkpt lat="43.7663" lon="6.68506">
        <ele>1018</ele>
        <time>2010-08-15T12:34:00Z</time>
      </trkpt>
      <trkpt lat="43.7663" lon="6.68515">
        <ele>1020</ele>
        <time>2010-08-15T12:34:05Z</time>
      </trkpt>
      <trkpt lat="43.76629" lon="6.68526">
        <ele>1018</ele>
        <time>2010-08-15T12:34:12Z</time>
      </trkpt>
      <trkpt lat="43.7663" lon="6.68543">
        <ele>1017</ele>
        <time>2010-08-15T12:34:21Z</time>
      </trkpt>
      <trkpt lat="43.76631" lon="6.68544">
        <ele>1018</ele>
        <time>2010-08-15T12:34:22Z</time>
      </trkpt>
      <trkpt lat="43.76624" lon="6.68558">
        <ele>1020</ele>
        <time>2010-08-15T12:34:31Z</time>
      </trkpt>
      <trkpt lat="43.76624" lon="6.68563">
        <ele>1018</ele>
        <time>2010-08-15T12:34:34Z</time>
      </trkpt>
      <trkpt lat="43.76625" lon="6.68567">
        <ele>1015</ele>
        <time>2010-08-15T12:34:37Z</time>
      </trkpt>
      <trkpt lat="43.76623" lon="6.68571">
        <ele>1018</ele>
        <time>2010-08-15T12:34:40Z</time>
      </trkpt>
      <trkpt lat="43.76627" lon="6.68581">
        <ele>1017</ele>
        <time>2010-08-15T12:34:46Z</time>
      </trkpt>
      <trkpt lat="43.76626" lon="6.68593">
        <ele>1018</ele>
        <time>2010-08-15T12:34:53Z</time>
      </trkpt>
      <trkpt lat="43.76626" lon="6.68601">
        <ele>1018</ele>
        <time>2010-08-15T12:34:58Z</time>
      </trkpt>
      <trkpt lat="43.76622" lon="6.68612">
        <ele>1016</ele>
        <time>2010-08-15T12:35:05Z</time>
      </trkpt>
      <trkpt lat="43.76624" lon="6.6862">
        <ele>1019</ele>
        <time>2010-08-15T12:35:09Z</time>
      </trkpt>
      <trkpt lat="43.76625" lon="6.68622">
        <ele>1018</ele>
        <time>2010-08-15T12:35:10Z</time>
      </trkpt>
      <trkpt lat="43.76625" lon="6.68626">
        <ele>1017</ele>
        <time>2010-08-15T12:35:12Z</time>
      </trkpt>
      <trkpt lat="43.76627" lon="6.68635">
        <ele>1016</ele>
        <time>2010-08-15T12:35:19Z</time>
      </trkpt>
      <trkpt lat="43.76629" lon="6.68641">
        <ele>1017</ele>
        <time>2010-08-15T12:35:25Z</time>
      </trkpt>
      <trkpt lat="43.7663" lon="6.68643">
        <ele>1017</ele>
        <time>2010-08-15T12:35:27Z</time>
      </trkpt>
      <trkpt lat="43.76637" lon="6.68656">
        <ele>1017</ele>
        <time>2010-08-15T12:35:34Z</time>
      </trkpt>
      <trkpt lat="43.76639" lon="6.68669">
        <ele>1017</ele>
        <time>2010-08-15T12:35:42Z</time>
      </trkpt>
      <trkpt lat="43.76638" lon="6.68683">
        <ele>1016</ele>
        <time>2010-08-15T12:35:50Z</time>
      </trkpt>
      <trkpt lat="43.76639" lon="6.68692">
        <ele>1018</ele>
        <time>2010-08-15T12:35:56Z</time>
      </trkpt>
      <trkpt lat="43.76639" lon="6.68706">
        <ele>1017</ele>
        <time>2010-08-15T12:36:05Z</time>
      </trkpt>
      <trkpt lat="43.76637" lon="6.68713">
        <ele>1017</ele>
        <time>2010-08-15T12:36:09Z</time>
      </trkpt>
      <trkpt lat="43.76634" lon="6.68727">
        <ele>1017</ele>
        <time>2010-08-15T12:36:17Z</time>
      </trkpt>
      <trkpt lat="43.76634" lon="6.68737">
        <ele>1017</ele>
        <time>2010-08-15T12:36:23Z</time>
      </trkpt>
      <trkpt lat="43.76632" lon="6.68748">
        <ele>1018</ele>
        <time>2010-08-15T12:36:30Z</time>
      </trkpt>
      <trkpt lat="43.7663" lon="6.68758">
        <ele>1018</ele>
        <time>2010-08-15T12:36:37Z</time>
      </trkpt>
      <trkpt lat="43.76629" lon="6.6877">
        <ele>1020</ele>
        <time>2010-08-15T12:36:46Z</time>
      </trkpt>
      <trkpt lat="43.7663" lon="6.68773">
        <ele>1020</ele>
        <time>2010-08-15T12:36:54Z</time>
      </trkpt>
      <trkpt lat="43.7663" lon="6.68776">
        <ele>1019</ele>
        <time>2010-08-15T12:36:57Z</time>
      </trkpt>
      <trkpt lat="43.76628" lon="6.68783">
        <ele>1020</ele>
        <time>2010-08-15T12:37:01Z</time>
      </trkpt>
      <trkpt lat="43.76627" lon="6.6879">
        <ele>1021</ele>
        <time>2010-08-15T12:37:06Z</time>
      </trkpt>
      <trkpt lat="43.76627" lon="6.68792">
        <ele>1021</ele>
        <time>2010-08-15T12:37:07Z</time>
      </trkpt>
      <trkpt lat="43.76626" lon="6.68794">
        <ele>1019</ele>
        <time>2010-08-15T12:37:09Z</time>
      </trkpt>
      <trkpt lat="43.76626" lon="6.68806">
        <ele>1020</ele>
        <time>2010-08-15T12:37:16Z</time>
      </trkpt>
      <trkpt lat="43.76626" lon="6.68818">
        <ele>1021</ele>
        <time>2010-08-15T12:37:24Z</time>
      </trkpt>
      <trkpt lat="43.76626" lon="6.6883">
        <ele>1021</ele>
        <time>2010-08-15T12:37:31Z</time>
      </trkpt>
      <trkpt lat="43.76625" lon="6.68834">
        <ele>1020</ele>
        <time>2010-08-15T12:37:33Z</time>
      </trkpt>
      <trkpt lat="43.76628" lon="6.68846">
        <ele>1022</ele>
        <time>2010-08-15T12:37:41Z</time>
      </trkpt>
      <trkpt lat="43.7663" lon="6.6885">
        <ele>1021</ele>
        <time>2010-08-15T12:37:46Z</time>
      </trkpt>
      <trkpt lat="43.76634" lon="6.68857">
        <ele>1021</ele>
        <time>2010-08-15T12:37:53Z</time>
      </trkpt>
      <trkpt lat="43.76635" lon="6.68868">
        <ele>1021</ele>
        <time>2010-08-15T12:38:01Z</time>
      </trkpt>
      <trkpt lat="43.76641" lon="6.68881">
        <ele>1021</ele>
        <time>2010-08-15T12:38:09Z</time>
      </trkpt>
      <trkpt lat="43.76642" lon="6.68889">
        <ele>1021</ele>
        <time>2010-08-15T12:38:16Z</time>
      </trkpt>
      <trkpt lat="43.76647" lon="6.68902">
        <ele>1022</ele>
        <time>2010-08-15T12:38:24Z</time>
      </trkpt>
      <trkpt lat="43.7665" lon="6.68906">
        <ele>1020</ele>
        <time>2010-08-15T12:38:26Z</time>
      </trkpt>
      <trkpt lat="43.76652" lon="6.68909">
        <ele>1022</ele>
        <time>2010-08-15T12:38:28Z</time>
      </trkpt>
      <trkpt lat="43.76652" lon="6.68915">
        <ele>1022</ele>
        <time>2010-08-15T12:38:32Z</time>
      </trkpt>
      <trkpt lat="43.76655" lon="6.6893">
        <ele>1022</ele>
        <time>2010-08-15T12:38:41Z</time>
      </trkpt>
      <trkpt lat="43.76654" lon="6.68937">
        <ele>1022</ele>
        <time>2010-08-15T12:38:45Z</time>
      </trkpt>
      <trkpt lat="43.76653" lon="6.68946">
        <ele>1023</ele>
        <time>2010-08-15T12:38:52Z</time>
      </trkpt>
      <trkpt lat="43.76657" lon="6.68954">
        <ele>1023</ele>
        <time>2010-08-15T12:38:57Z</time>
      </trkpt>
      <trkpt lat="43.7666" lon="6.68962">
        <ele>1022</ele>
        <time>2010-08-15T12:39:03Z</time>
      </trkpt>
      <trkpt lat="43.76659" lon="6.68969">
        <ele>1024</ele>
        <time>2010-08-15T12:39:07Z</time>
      </trkpt>
      <trkpt lat="43.76661" lon="6.68981">
        <ele>1022</ele>
        <time>2010-08-15T12:39:13Z</time>
      </trkpt>
      <trkpt lat="43.76662" lon="6.68985">
        <ele>1024</ele>
        <time>2010-08-15T12:39:16Z</time>
      </trkpt>
      <trkpt lat="43.76666" lon="6.68995">
        <ele>1024</ele>
        <time>2010-08-15T12:39:23Z</time>
      </trkpt>
      <trkpt lat="43.76668" lon="6.69003">
        <ele>1023</ele>
        <time>2010-08-15T12:39:29Z</time>
      </trkpt>
      <trkpt lat="43.76669" lon="6.69009">
        <ele>1022</ele>
        <time>2010-08-15T12:39:34Z</time>
      </trkpt>
      <trkpt lat="43.76669" lon="6.6901">
        <ele>1025</ele>
        <time>2010-08-15T12:39:35Z</time>
      </trkpt>
      <trkpt lat="43.76666" lon="6.69017">
        <ele>1024</ele>
        <time>2010-08-15T12:39:41Z</time>
      </trkpt>
      <trkpt lat="43.76666" lon="6.69027">
        <ele>1025</ele>
        <time>2010-08-15T12:39:48Z</time>
      </trkpt>
      <trkpt lat="43.76665" lon="6.6903">
        <ele>1025</ele>
        <time>2010-08-15T12:39:51Z</time>
      </trkpt>
      <trkpt lat="43.76669" lon="6.69045">
        <ele>1024</ele>
        <time>2010-08-15T12:40:00Z</time>
      </trkpt>
      <trkpt lat="43.76668" lon="6.69049">
        <ele>1025</ele>
        <time>2010-08-15T12:40:03Z</time>
      </trkpt>
      <trkpt lat="43.76664" lon="6.69059">
        <ele>1026</ele>
        <time>2010-08-15T12:40:11Z</time>
      </trkpt>
      <trkpt lat="43.76665" lon="6.69063">
        <ele>1026</ele>
        <time>2010-08-15T12:40:16Z</time>
      </trkpt>
      <trkpt lat="43.76664" lon="6.69073">
        <ele>1027</ele>
        <time>2010-08-15T12:40:24Z</time>
      </trkpt>
      <trkpt lat="43.7666" lon="6.69079">
        <ele>1027</ele>
        <time>2010-08-15T12:40:31Z</time>
      </trkpt>
      <trkpt lat="43.76659" lon="6.69086">
        <ele>1023</ele>
        <time>2010-08-15T12:40:35Z</time>
      </trkpt>
      <trkpt lat="43.76659" lon="6.69087">
        <ele>1028</ele>
        <time>2010-08-15T12:40:36Z</time>
      </trkpt>
      <trkpt lat="43.76656" lon="6.69093">
        <ele>1028</ele>
        <time>2010-08-15T12:40:41Z</time>
      </trkpt>
      <trkpt lat="43.76654" lon="6.69097">
        <ele>1027</ele>
        <time>2010-08-15T12:40:45Z</time>
      </trkpt>
      <trkpt lat="43.76654" lon="6.69098">
        <ele>1027</ele>
        <time>2010-08-15T12:42:16Z</time>
      </trkpt>
      <trkpt lat="43.76654" lon="6.69098">
        <ele>1024</ele>
        <time>2010-08-15T12:42:43Z</time>
      </trkpt>
      <trkpt lat="43.76654" lon="6.69098">
        <ele>1027</ele>
        <time>2010-08-15T12:42:44Z</time>
      </trkpt>
      <trkpt lat="43.76654" lon="6.69097">
        <ele>1031</ele>
        <time>2010-08-15T12:43:01Z</time>
      </trkpt>
      <trkpt lat="43.76654" lon="6.69097">
        <ele>1030</ele>
        <time>2010-08-15T12:43:02Z</time>
      </trkpt>
      <trkpt lat="43.76654" lon="6.69097">
        <ele>1028</ele>
        <time>2010-08-15T12:43:04Z</time>
      </trkpt>
      <trkpt lat="43.7665" lon="6.69094">
        <ele>1021</ele>
        <time>2010-08-15T12:45:07Z</time>
      </trkpt>
      <trkpt lat="43.7665" lon="6.69094">
        <ele>1029</ele>
        <time>2010-08-15T12:45:08Z</time>
      </trkpt>
      <trkpt lat="43.7665" lon="6.69094">
        <ele>1028</ele>
        <time>2010-08-15T12:45:09Z</time>
      </trkpt>
      <trkpt lat="43.7665" lon="6.69094">
        <ele>1027</ele>
        <time>2010-08-15T12:45:11Z</time>
      </trkpt>
      <trkpt lat="43.7665" lon="6.69094">
        <ele>1026</ele>
        <time>2010-08-15T12:45:23Z</time>
      </trkpt>
      <trkpt lat="43.7665" lon="6.69094">
        <ele>1030</ele>
        <time>2010-08-15T12:45:24Z</time>
      </trkpt>
      <trkpt lat="43.7665" lon="6.69094">
        <ele>1028</ele>
        <time>2010-08-15T12:45:25Z</time>
      </trkpt>
      <trkpt lat="43.76651" lon="6.6909">
        <ele>1027</ele>
        <time>2010-08-15T12:45:32Z</time>
      </trkpt>
      <trkpt lat="43.76657" lon="6.69085">
        <ele>1026</ele>
        <time>2010-08-15T12:45:43Z</time>
      </trkpt>
      <trkpt lat="43.76663" lon="6.69079">
        <ele>1025</ele>
        <time>2010-08-15T12:45:49Z</time>
      </trkpt>
      <trkpt lat="43.76669" lon="6.69074">
        <ele>1028</ele>
        <time>2010-08-15T12:45:54Z</time>
      </trkpt>
      <trkpt lat="43.76674" lon="6.6907">
        <ele>1026</ele>
        <time>2010-08-15T12:45:58Z</time>
      </trkpt>
      <trkpt lat="43.76679" lon="6.69069">
        <ele>1025</ele>
        <time>2010-08-15T12:46:02Z</time>
      </trkpt>
      <trkpt lat="43.76689" lon="6.69063">
        <ele>1024</ele>
        <time>2010-08-15T12:46:10Z</time>
      </trkpt>
      <trkpt lat="43.76695" lon="6.6906">
        <ele>1023</ele>
        <time>2010-08-15T12:46:17Z</time>
      </trkpt>
      <trkpt lat="43.76707" lon="6.69052">
        <ele>1022</ele>
        <time>2010-08-15T12:46:31Z</time>
      </trkpt>
      <trkpt lat="43.76716" lon="6.69045">
        <ele>1024</ele>
        <time>2010-08-15T12:46:37Z</time>
      </trkpt>
      <trkpt lat="43.76716" lon="6.69045">
        <ele>1022</ele>
        <time>2010-08-15T12:46:41Z</time>
      </trkpt>
      <trkpt lat="43.76716" lon="6.69045">
        <ele>1020</ele>
        <time>2010-08-15T12:46:44Z</time>
      </trkpt>
      <trkpt lat="43.76716" lon="6.69045">
        <ele>1022</ele>
        <time>2010-08-15T12:46:47Z</time>
      </trkpt>
      <trkpt lat="43.76716" lon="6.69045">
        <ele>1022</ele>
        <time>2010-08-15T12:46:52Z</time>
      </trkpt>
      <trkpt lat="43.76723" lon="6.6903">
        <ele>1022</ele>
        <time>2010-08-15T12:47:05Z</time>
      </trkpt>
      <trkpt lat="43.76723" lon="6.69027">
        <ele>1020</ele>
        <time>2010-08-15T12:47:08Z</time>
      </trkpt>
      <trkpt lat="43.76751" lon="6.69012">
        <ele>1022</ele>
        <time>2010-08-15T12:47:14Z</time>
      </trkpt>
      <trkpt lat="43.7676" lon="6.69002">
        <ele>1021</ele>
        <time>2010-08-15T12:47:24Z</time>
      </trkpt>
      <trkpt lat="43.76763" lon="6.69003">
        <ele>1020</ele>
        <time>2010-08-15T12:47:29Z</time>
      </trkpt>
      <trkpt lat="43.76764" lon="6.6901">
        <ele>1020</ele>
        <time>2010-08-15T12:47:38Z</time>
      </trkpt>
      <trkpt lat="43.76763" lon="6.69018">
        <ele>1021</ele>
        <time>2010-08-15T12:47:45Z</time>
      </trkpt>
      <trkpt lat="43.76764" lon="6.69024">
        <ele>1021</ele>
        <time>2010-08-15T12:47:50Z</time>
      </trkpt>
      <trkpt lat="43.76764" lon="6.69032">
        <ele>1021</ele>
        <time>2010-08-15T12:47:56Z</time>
      </trkpt>
      <trkpt lat="43.76766" lon="6.69041">
        <ele>1021</ele>
        <time>2010-08-15T12:48:01Z</time>
      </trkpt>
      <trkpt lat="43.76766" lon="6.69043">
        <ele>1019</ele>
        <time>2010-08-15T12:48:04Z</time>
      </trkpt>
      <trkpt lat="43.76767" lon="6.69044">
        <ele>1021</ele>
        <time>2010-08-15T12:48:06Z</time>
      </trkpt>
      <trkpt lat="43.76768" lon="6.69044">
        <ele>1021</ele>
        <time>2010-08-15T12:48:07Z</time>
      </trkpt>
      <trkpt lat="43.76772" lon="6.69046">
        <ele>1021</ele>
        <time>2010-08-15T12:48:11Z</time>
      </trkpt>
      <trkpt lat="43.76779" lon="6.69056">
        <ele>1021</ele>
        <time>2010-08-15T12:48:20Z</time>
      </trkpt>
      <trkpt lat="43.76784" lon="6.69062">
        <ele>1021</ele>
        <time>2010-08-15T12:48:58Z</time>
      </trkpt>
      <trkpt lat="43.76789" lon="6.69067">
        <ele>1019</ele>
        <time>2010-08-15T12:49:03Z</time>
      </trkpt>
      <trkpt lat="43.76794" lon="6.69072">
        <ele>1022</ele>
        <time>2010-08-15T12:49:08Z</time>
      </trkpt>
      <trkpt lat="43.76801" lon="6.6908">
        <ele>1022</ele>
        <time>2010-08-15T12:49:15Z</time>
      </trkpt>
      <trkpt lat="43.76809" lon="6.69087">
        <ele>1021</ele>
        <time>2010-08-15T12:49:24Z</time>
      </trkpt>
      <trkpt lat="43.76812" lon="6.69089">
        <ele>1019</ele>
        <time>2010-08-15T12:49:27Z</time>
      </trkpt>
      <trkpt lat="43.76817" lon="6.69094">
        <ele>1022</ele>
        <time>2010-08-15T12:49:32Z</time>
      </trkpt>
      <trkpt lat="43.76824" lon="6.691">
        <ele>1021</ele>
        <time>2010-08-15T12:49:39Z</time>
      </trkpt>
      <trkpt lat="43.76831" lon="6.69107">
        <ele>1018</ele>
        <time>2010-08-15T12:49:46Z</time>
      </trkpt>
      <trkpt lat="43.76835" lon="6.69112">
        <ele>1022</ele>
        <time>2010-08-15T12:49:51Z</time>
      </trkpt>
      <trkpt lat="43.76837" lon="6.69113">
        <ele>1020</ele>
        <time>2010-08-15T12:49:53Z</time>
      </trkpt>
      <trkpt lat="43.76842" lon="6.69118">
        <ele>1022</ele>
        <time>2010-08-15T12:49:58Z</time>
      </trkpt>
      <trkpt lat="43.76846" lon="6.69122">
        <ele>1019</ele>
        <time>2010-08-15T12:50:02Z</time>
      </trkpt>
      <trkpt lat="43.76855" lon="6.69131">
        <ele>1020</ele>
        <time>2010-08-15T12:50:11Z</time>
      </trkpt>
      <trkpt lat="43.76858" lon="6.69135">
        <ele>1022</ele>
        <time>2010-08-15T12:50:14Z</time>
      </trkpt>
      <trkpt lat="43.76865" lon="6.69141">
        <ele>1021</ele>
        <time>2010-08-15T12:50:21Z</time>
      </trkpt>
      <trkpt lat="43.76869" lon="6.69146">
        <ele>1023</ele>
        <time>2010-08-15T12:50:25Z</time>
      </trkpt>
      <trkpt lat="43.76872" lon="6.69148">
        <ele>1022</ele>
        <time>2010-08-15T12:50:28Z</time>
      </trkpt>
      <trkpt lat="43.76879" lon="6.69155">
        <ele>1022</ele>
        <time>2010-08-15T12:50:35Z</time>
      </trkpt>
      <trkpt lat="43.7688" lon="6.69156">
        <ele>1022</ele>
        <time>2010-08-15T12:50:36Z</time>
      </trkpt>
      <trkpt lat="43.76886" lon="6.69162">
        <ele>1020</ele>
        <time>2010-08-15T12:50:43Z</time>
      </trkpt>
      <trkpt lat="43.7689" lon="6.69165">
        <ele>1022</ele>
        <time>2010-08-15T12:50:46Z</time>
      </trkpt>
      <trkpt lat="43.76899" lon="6.69172">
        <ele>1020</ele>
        <time>2010-08-15T12:50:55Z</time>
      </trkpt>
      <trkpt lat="43.76909" lon="6.69179">
        <ele>1021</ele>
        <time>2010-08-15T12:51:04Z</time>
      </trkpt>
      <trkpt lat="43.76912" lon="6.69182">
        <ele>1022</ele>
        <time>2010-08-15T12:51:07Z</time>
      </trkpt>
      <trkpt lat="43.7692" lon="6.69188">
        <ele>1021</ele>
        <time>2010-08-15T12:51:15Z</time>
      </trkpt>
      <trkpt lat="43.76924" lon="6.69193">
        <ele>1020</ele>
        <time>2010-08-15T12:51:19Z</time>
      </trkpt>
      <trkpt lat="43.76933" lon="6.69202">
        <ele>1018</ele>
        <time>2010-08-15T12:51:28Z</time>
      </trkpt>
      <trkpt lat="43.76935" lon="6.69202">
        <ele>1019</ele>
        <time>2010-08-15T12:51:29Z</time>
      </trkpt>
      <trkpt lat="43.76943" lon="6.69206">
        <ele>1022</ele>
        <time>2010-08-15T12:51:36Z</time>
      </trkpt>
      <trkpt lat="43.76954" lon="6.69212">
        <ele>1022</ele>
        <time>2010-08-15T12:51:46Z</time>
      </trkpt>
      <trkpt lat="43.76963" lon="6.69217">
        <ele>1021</ele>
        <time>2010-08-15T12:51:55Z</time>
      </trkpt>
      <trkpt lat="43.76965" lon="6.69217">
        <ele>1020</ele>
        <time>2010-08-15T12:51:57Z</time>
      </trkpt>
      <trkpt lat="43.76975" lon="6.69223">
        <ele>1021</ele>
        <time>2010-08-15T12:52:05Z</time>
      </trkpt>
      <trkpt lat="43.76976" lon="6.69223">
        <ele>1021</ele>
        <time>2010-08-15T12:52:06Z</time>
      </trkpt>
      <trkpt lat="43.76982" lon="6.69225">
        <ele>1023</ele>
        <time>2010-08-15T12:52:11Z</time>
      </trkpt>
      <trkpt lat="43.76987" lon="6.69228">
        <ele>1020</ele>
        <time>2010-08-15T12:52:15Z</time>
      </trkpt>
      <trkpt lat="43.76988" lon="6.69228">
        <ele>1021</ele>
        <time>2010-08-15T12:52:16Z</time>
      </trkpt>
      <trkpt lat="43.76991" lon="6.6923">
        <ele>1020</ele>
        <time>2010-08-15T12:52:19Z</time>
      </trkpt>
      <trkpt lat="43.76997" lon="6.69233">
        <ele>1023</ele>
        <time>2010-08-15T12:52:25Z</time>
      </trkpt>
      <trkpt lat="43.77" lon="6.69234">
        <ele>1022</ele>
        <time>2010-08-15T12:52:28Z</time>
      </trkpt>
      <trkpt lat="43.77009" lon="6.6924">
        <ele>1021</ele>
        <time>2010-08-15T12:52:36Z</time>
      </trkpt>
      <trkpt lat="43.77017" lon="6.69244">
        <ele>1022</ele>
        <time>2010-08-15T12:52:44Z</time>
      </trkpt>
      <trkpt lat="43.77023" lon="6.69244">
        <ele>1020</ele>
        <time>2010-08-15T12:52:48Z</time>
      </trkpt>
      <trkpt lat="43.77031" lon="6.69241">
        <ele>1022</ele>
        <time>2010-08-15T12:52:57Z</time>
      </trkpt>
      <trkpt lat="43.77033" lon="6.69241">
        <ele>1023</ele>
        <time>2010-08-15T12:52:59Z</time>
      </trkpt>
      <trkpt lat="43.77038" lon="6.69238">
        <ele>1022</ele>
        <time>2010-08-15T12:53:04Z</time>
      </trkpt>
      <trkpt lat="43.77045" lon="6.69237">
        <ele>1021</ele>
        <time>2010-08-15T12:53:13Z</time>
      </trkpt>
      <trkpt lat="43.77047" lon="6.69237">
        <ele>1025</ele>
        <time>2010-08-15T12:53:22Z</time>
      </trkpt>
      <trkpt lat="43.77048" lon="6.69238">
        <ele>1016</ele>
        <time>2010-08-15T12:53:23Z</time>
      </trkpt>
      <trkpt lat="43.77048" lon="6.69238">
        <ele>1023</ele>
        <time>2010-08-15T12:53:24Z</time>
      </trkpt>
      <trkpt lat="43.77049" lon="6.69238">
        <ele>1020</ele>
        <time>2010-08-15T12:53:25Z</time>
      </trkpt>
      <trkpt lat="43.77049" lon="6.69238">
        <ele>1023</ele>
        <time>2010-08-15T12:53:26Z</time>
      </trkpt>
      <trkpt lat="43.7705" lon="6.69239">
        <ele>1022</ele>
        <time>2010-08-15T12:53:29Z</time>
      </trkpt>
      <trkpt lat="43.77053" lon="6.6924">
        <ele>1022</ele>
        <time>2010-08-15T12:53:33Z</time>
      </trkpt>
      <trkpt lat="43.77057" lon="6.69241">
        <ele>1021</ele>
        <time>2010-08-15T12:53:37Z</time>
      </trkpt>
      <trkpt lat="43.77058" lon="6.69241">
        <ele>1022</ele>
        <time>2010-08-15T12:53:39Z</time>
      </trkpt>
      <trkpt lat="43.77059" lon="6.69241">
        <ele>1022</ele>
        <time>2010-08-15T12:53:44Z</time>
      </trkpt>
      <trkpt lat="43.77063" lon="6.69246">
        <ele>1025</ele>
        <time>2010-08-15T12:53:49Z</time>
      </trkpt>
      <trkpt lat="43.77067" lon="6.69248">
        <ele>1024</ele>
        <time>2010-08-15T12:53:55Z</time>
      </trkpt>
      <trkpt lat="43.77071" lon="6.69253">
        <ele>1025</ele>
        <time>2010-08-15T12:54:02Z</time>
      </trkpt>
      <trkpt lat="43.77071" lon="6.6926">
        <ele>1026</ele>
        <time>2010-08-15T12:54:08Z</time>
      </trkpt>
      <trkpt lat="43.77074" lon="6.69265">
        <ele>1024</ele>
        <time>2010-08-15T12:54:14Z</time>
      </trkpt>
      <trkpt lat="43.77076" lon="6.69268">
        <ele>1026</ele>
        <time>2010-08-15T12:54:17Z</time>
      </trkpt>
      <trkpt lat="43.77078" lon="6.69274">
        <ele>1027</ele>
        <time>2010-08-15T12:54:21Z</time>
      </trkpt>
      <trkpt lat="43.77081" lon="6.69281">
        <ele>1025</ele>
        <time>2010-08-15T12:54:28Z</time>
      </trkpt>
      <trkpt lat="43.77083" lon="6.69284">
        <ele>1028</ele>
        <time>2010-08-15T12:54:30Z</time>
      </trkpt>
      <trkpt lat="43.77084" lon="6.69287">
        <ele>1024</ele>
        <time>2010-08-15T12:54:33Z</time>
      </trkpt>
      <trkpt lat="43.77084" lon="6.69288">
        <ele>1028</ele>
        <time>2010-08-15T12:54:34Z</time>
      </trkpt>
      <trkpt lat="43.77087" lon="6.69294">
        <ele>1029</ele>
        <time>2010-08-15T12:54:40Z</time>
      </trkpt>
      <trkpt lat="43.77088" lon="6.69295">
        <ele>1028</ele>
        <time>2010-08-15T12:54:44Z</time>
      </trkpt>
      <trkpt lat="43.77089" lon="6.69298">
        <ele>1027</ele>
        <time>2010-08-15T12:54:48Z</time>
      </trkpt>
      <trkpt lat="43.7709" lon="6.693">
        <ele>1028</ele>
        <time>2010-08-15T12:54:50Z</time>
      </trkpt>
      <trkpt lat="43.77093" lon="6.69307">
        <ele>1029</ele>
        <time>2010-08-15T12:54:58Z</time>
      </trkpt>
      <trkpt lat="43.77093" lon="6.69306">
        <ele>1030</ele>
        <time>2010-08-15T12:56:50Z</time>
      </trkpt>
      <trkpt lat="43.77093" lon="6.69306">
        <ele>1028</ele>
        <time>2010-08-15T12:56:52Z</time>
      </trkpt>
      <trkpt lat="43.77094" lon="6.69308">
        <ele>1029</ele>
        <time>2010-08-15T12:57:37Z</time>
      </trkpt>
      <trkpt lat="43.77096" lon="6.69307">
        <ele>1030</ele>
        <time>2010-08-15T12:57:46Z</time>
      </trkpt>
      <trkpt lat="43.77099" lon="6.69308">
        <ele>1031</ele>
        <time>2010-08-15T12:58:56Z</time>
      </trkpt>
      <trkpt lat="43.77099" lon="6.69308">
        <ele>1031</ele>
        <time>2010-08-15T12:59:01Z</time>
      </trkpt>
      <trkpt lat="43.77093" lon="6.69309">
        <ele>1028</ele>
        <time>2010-08-15T12:59:56Z</time>
      </trkpt>
      <trkpt lat="43.77095" lon="6.69308">
        <ele>1030</ele>
        <time>2010-08-15T13:00:32Z</time>
      </trkpt>
      <trkpt lat="43.77091" lon="6.69308">
        <ele>1029</ele>
        <time>2010-08-15T13:00:41Z</time>
      </trkpt>
      <trkpt lat="43.77091" lon="6.69308">
        <ele>1025</ele>
        <time>2010-08-15T13:01:06Z</time>
      </trkpt>
      <trkpt lat="43.77091" lon="6.69308">
        <ele>1031</ele>
        <time>2010-08-15T13:01:07Z</time>
      </trkpt>
      <trkpt lat="43.77095" lon="6.69314">
        <ele>1032</ele>
        <time>2010-08-15T13:01:15Z</time>
      </trkpt>
      <trkpt lat="43.77096" lon="6.69315">
        <ele>1031</ele>
        <time>2010-08-15T13:01:16Z</time>
      </trkpt>
      <trkpt lat="43.77098" lon="6.69321">
        <ele>1032</ele>
        <time>2010-08-15T13:01:21Z</time>
      </trkpt>
      <trkpt lat="43.77098" lon="6.69322">
        <ele>1031</ele>
        <time>2010-08-15T13:01:22Z</time>
      </trkpt>
      <trkpt lat="43.77103" lon="6.69333">
        <ele>1031</ele>
        <time>2010-08-15T13:01:30Z</time>
      </trkpt>
      <trkpt lat="43.77105" lon="6.6934">
        <ele>1031</ele>
        <time>2010-08-15T13:01:36Z</time>
      </trkpt>
      <trkpt lat="43.77107" lon="6.69344">
        <ele>1032</ele>
        <time>2010-08-15T13:01:39Z</time>
      </trkpt>
      <trkpt lat="43.77111" lon="6.69357">
        <ele>1032</ele>
        <time>2010-08-15T13:01:48Z</time>
      </trkpt>
      <trkpt lat="43.77113" lon="6.69362">
        <ele>1032</ele>
        <time>2010-08-15T13:01:52Z</time>
      </trkpt>
      <trkpt lat="43.77117" lon="6.69372">
        <ele>1032</ele>
        <time>2010-08-15T13:02:00Z</time>
      </trkpt>
      <trkpt lat="43.77121" lon="6.6938">
        <ele>1032</ele>
        <time>2010-08-15T13:02:07Z</time>
      </trkpt>
      <trkpt lat="43.77123" lon="6.69384">
        <ele>1035</ele>
        <time>2010-08-15T13:02:10Z</time>
      </trkpt>
      <trkpt lat="43.77124" lon="6.69387">
        <ele>1032</ele>
        <time>2010-08-15T13:02:12Z</time>
      </trkpt>
      <trkpt lat="43.77125" lon="6.69389">
        <ele>1031</ele>
        <time>2010-08-15T13:02:14Z</time>
      </trkpt>
      <trkpt lat="43.77126" lon="6.69391">
        <ele>1035</ele>
        <time>2010-08-15T13:02:16Z</time>
      </trkpt>
      <trkpt lat="43.77127" lon="6.69392">
        <ele>1035</ele>
        <time>2010-08-15T13:02:17Z</time>
      </trkpt>
      <trkpt lat="43.77127" lon="6.69393">
        <ele>1031</ele>
        <time>2010-08-15T13:02:18Z</time>
      </trkpt>
      <trkpt lat="43.77128" lon="6.69393">
        <ele>1033</ele>
        <time>2010-08-15T13:02:19Z</time>
      </trkpt>
      <trkpt lat="43.7713" lon="6.69398">
        <ele>1035</ele>
        <time>2010-08-15T13:02:22Z</time>
      </trkpt>
      <trkpt lat="43.77131" lon="6.69401">
        <ele>1033</ele>
        <time>2010-08-15T13:02:25Z</time>
      </trkpt>
      <trkpt lat="43.77135" lon="6.69408">
        <ele>1035</ele>
        <time>2010-08-15T13:02:30Z</time>
      </trkpt>
      <trkpt lat="43.77136" lon="6.69414">
        <ele>1034</ele>
        <time>2010-08-15T13:02:36Z</time>
      </trkpt>
      <trkpt lat="43.7714" lon="6.69419">
        <ele>1034</ele>
        <time>2010-08-15T13:02:48Z</time>
      </trkpt>
      <trkpt lat="43.77141" lon="6.69419">
        <ele>1033</ele>
        <time>2010-08-15T13:02:49Z</time>
      </trkpt>
      <trkpt lat="43.77142" lon="6.69422">
        <ele>1035</ele>
        <time>2010-08-15T13:02:51Z</time>
      </trkpt>
      <trkpt lat="43.77143" lon="6.69427">
        <ele>1035</ele>
        <time>2010-08-15T13:02:56Z</time>
      </trkpt>
      <trkpt lat="43.77148" lon="6.69432">
        <ele>1035</ele>
        <time>2010-08-15T13:03:01Z</time>
      </trkpt>
      <trkpt lat="43.77152" lon="6.69439">
        <ele>1035</ele>
        <time>2010-08-15T13:03:07Z</time>
      </trkpt>
      <trkpt lat="43.77153" lon="6.69442">
        <ele>1036</ele>
        <time>2010-08-15T13:03:09Z</time>
      </trkpt>
      <trkpt lat="43.77155" lon="6.69443">
        <ele>1033</ele>
        <time>2010-08-15T13:03:11Z</time>
      </trkpt>
      <trkpt lat="43.77156" lon="6.69444">
        <ele>1033</ele>
        <time>2010-08-15T13:03:12Z</time>
      </trkpt>
      <trkpt lat="43.77157" lon="6.69446">
        <ele>1037</ele>
        <time>2010-08-15T13:03:14Z</time>
      </trkpt>
      <trkpt lat="43.77158" lon="6.69447">
        <ele>1036</ele>
        <time>2010-08-15T13:03:15Z</time>
      </trkpt>
      <trkpt lat="43.77161" lon="6.69452">
        <ele>1035</ele>
        <time>2010-08-15T13:03:20Z</time>
      </trkpt>
      <trkpt lat="43.77162" lon="6.69455">
        <ele>1036</ele>
        <time>2010-08-15T13:03:23Z</time>
      </trkpt>
      <trkpt lat="43.77165" lon="6.69458">
        <ele>1037</ele>
        <time>2010-08-15T13:03:28Z</time>
      </trkpt>
      <trkpt lat="43.77168" lon="6.6946">
        <ele>1036</ele>
        <time>2010-08-15T13:03:31Z</time>
      </trkpt>
      <trkpt lat="43.77169" lon="6.69462">
        <ele>1037</ele>
        <time>2010-08-15T13:03:33Z</time>
      </trkpt>
      <trkpt lat="43.77172" lon="6.69465">
        <ele>1034</ele>
        <time>2010-08-15T13:03:38Z</time>
      </trkpt>
      <trkpt lat="43.77173" lon="6.69466">
        <ele>1037</ele>
        <time>2010-08-15T13:03:39Z</time>
      </trkpt>
      <trkpt lat="43.77178" lon="6.69471">
        <ele>1038</ele>
        <time>2010-08-15T13:03:45Z</time>
      </trkpt>
      <trkpt lat="43.77179" lon="6.69474">
        <ele>1035</ele>
        <time>2010-08-15T13:03:48Z</time>
      </trkpt>
      <trkpt lat="43.7718" lon="6.69476">
        <ele>1037</ele>
        <time>2010-08-15T13:03:50Z</time>
      </trkpt>
      <trkpt lat="43.77184" lon="6.69486">
        <ele>1037</ele>
        <time>2010-08-15T13:03:57Z</time>
      </trkpt>
      <trkpt lat="43.77187" lon="6.69494">
        <ele>1037</ele>
        <time>2010-08-15T13:04:03Z</time>
      </trkpt>
      <trkpt lat="43.77188" lon="6.69502">
        <ele>1036</ele>
        <time>2010-08-15T13:04:09Z</time>
      </trkpt>
      <trkpt lat="43.7719" lon="6.6951">
        <ele>1036</ele>
        <time>2010-08-15T13:04:15Z</time>
      </trkpt>
      <trkpt lat="43.77191" lon="6.69514">
        <ele>1035</ele>
        <time>2010-08-15T13:04:18Z</time>
      </trkpt>
      <trkpt lat="43.77192" lon="6.69514">
        <ele>1036</ele>
        <time>2010-08-15T13:04:19Z</time>
      </trkpt>
      <trkpt lat="43.77193" lon="6.69517">
        <ele>1036</ele>
        <time>2010-08-15T13:04:21Z</time>
      </trkpt>
      <trkpt lat="43.77195" lon="6.6952">
        <ele>1035</ele>
        <time>2010-08-15T13:04:24Z</time>
      </trkpt>
      <trkpt lat="43.77196" lon="6.69524">
        <ele>1036</ele>
        <time>2010-08-15T13:04:27Z</time>
      </trkpt>
      <trkpt lat="43.77199" lon="6.6953">
        <ele>1035</ele>
        <time>2010-08-15T13:04:33Z</time>
      </trkpt>
      <trkpt lat="43.772" lon="6.69533">
        <ele>1037</ele>
        <time>2010-08-15T13:04:36Z</time>
      </trkpt>
      <trkpt lat="43.77202" lon="6.69536">
        <ele>1036</ele>
        <time>2010-08-15T13:04:44Z</time>
      </trkpt>
      <trkpt lat="43.77202" lon="6.69535">
        <ele>1036</ele>
        <time>2010-08-15T13:05:12Z</time>
      </trkpt>
      <trkpt lat="43.77203" lon="6.69536">
        <ele>1036</ele>
        <time>2010-08-15T13:05:19Z</time>
      </trkpt>
      <trkpt lat="43.77204" lon="6.69535">
        <ele>1036</ele>
        <time>2010-08-15T13:06:28Z</time>
      </trkpt>
    </trkseg>
  </trk>
</gpx>